<?xml version="1.0" encoding="UTF-8" standalone="no" ?>
<gpx xmlns="http://www.topografix.com/GPX/1/1" xmlns:xsi="http://www.w3.org/2001/XMLSchema-instance" xsi:schemaLocation="http://www.topografix.com/GPX/1/1 http://www.topografix.com/GPX/1/1/gpx.xsd" version="1.1" creator="VisuGPX - https://www.visugpx.com">
  <metadata>
    <name>Raid Les Chauds Patates 267</name>
    <desc><![CDATA[Raid Les Chauds Patates du 23 octobre 2011 à Theys.
Equipe n°267]]></desc>
  </metadata>
  <trk>
    <name><![CDATA[Raid Les chauds Parates]]></name>
    <trkseg>
      <trkpt lat="45.3003" lon="5.99245">
        <ele>624.513671875</ele>
        <time>2011-10-23T07:04:35Z</time>
      </trkpt>
      <trkpt lat="45.3003" lon="5.99245">
        <ele>624.03295898438</ele>
        <time>2011-10-23T07:04:36Z</time>
      </trkpt>
      <trkpt lat="45.30029" lon="5.99242">
        <ele>624.03295898438</ele>
        <time>2011-10-23T07:04:40Z</time>
      </trkpt>
      <trkpt lat="45.30023" lon="5.99232">
        <ele>623.07177734375</ele>
        <time>2011-10-23T07:04:44Z</time>
      </trkpt>
      <trkpt lat="45.30013" lon="5.9922">
        <ele>620.66845703125</ele>
        <time>2011-10-23T07:04:49Z</time>
      </trkpt>
      <trkpt lat="45.30005" lon="5.99209">
        <ele>620.18774414062</ele>
        <time>2011-10-23T07:04:53Z</time>
      </trkpt>
      <trkpt lat="45.30001" lon="5.99206">
        <ele>619.70703125</ele>
        <time>2011-10-23T07:04:55Z</time>
      </trkpt>
      <trkpt lat="45.29993" lon="5.99204">
        <ele>618.74560546875</ele>
        <time>2011-10-23T07:04:58Z</time>
      </trkpt>
      <trkpt lat="45.29977" lon="5.99214">
        <ele>618.74560546875</ele>
        <time>2011-10-23T07:05:04Z</time>
      </trkpt>
      <trkpt lat="45.29968" lon="5.99224">
        <ele>619.70703125</ele>
        <time>2011-10-23T07:05:08Z</time>
      </trkpt>
      <trkpt lat="45.29966" lon="5.99227">
        <ele>620.66845703125</ele>
        <time>2011-10-23T07:05:09Z</time>
      </trkpt>
      <trkpt lat="45.29956" lon="5.9924">
        <ele>623.55249023438</ele>
        <time>2011-10-23T07:05:14Z</time>
      </trkpt>
      <trkpt lat="45.29956" lon="5.99255">
        <ele>625.95556640625</ele>
        <time>2011-10-23T07:05:18Z</time>
      </trkpt>
      <trkpt lat="45.29963" lon="5.99267">
        <ele>626.9169921875</ele>
        <time>2011-10-23T07:05:22Z</time>
      </trkpt>
      <trkpt lat="45.29965" lon="5.9927">
        <ele>627.87817382812</ele>
        <time>2011-10-23T07:05:23Z</time>
      </trkpt>
      <trkpt lat="45.2998" lon="5.99286">
        <ele>630.28149414062</ele>
        <time>2011-10-23T07:05:29Z</time>
      </trkpt>
      <trkpt lat="45.29986" lon="5.99295">
        <ele>631.24291992188</ele>
        <time>2011-10-23T07:05:32Z</time>
      </trkpt>
      <trkpt lat="45.29997" lon="5.99312">
        <ele>633.16528320312</ele>
        <time>2011-10-23T07:05:38Z</time>
      </trkpt>
      <trkpt lat="45.30008" lon="5.99324">
        <ele>633.64599609375</ele>
        <time>2011-10-23T07:05:42Z</time>
      </trkpt>
      <trkpt lat="45.30018" lon="5.99338">
        <ele>635.08813476562</ele>
        <time>2011-10-23T07:05:47Z</time>
      </trkpt>
      <trkpt lat="45.30029" lon="5.99353">
        <ele>634.607421875</ele>
        <time>2011-10-23T07:05:52Z</time>
      </trkpt>
      <trkpt lat="45.30038" lon="5.99365">
        <ele>634.607421875</ele>
        <time>2011-10-23T07:05:56Z</time>
      </trkpt>
      <trkpt lat="45.30038" lon="5.99368">
        <ele>634.12670898438</ele>
        <time>2011-10-23T07:05:57Z</time>
      </trkpt>
      <trkpt lat="45.30041" lon="5.99374">
        <ele>634.12670898438</ele>
        <time>2011-10-23T07:06:02Z</time>
      </trkpt>
      <trkpt lat="45.30043" lon="5.99376">
        <ele>634.607421875</ele>
        <time>2011-10-23T07:06:06Z</time>
      </trkpt>
      <trkpt lat="45.30042" lon="5.99376">
        <ele>634.607421875</ele>
        <time>2011-10-23T07:06:10Z</time>
      </trkpt>
      <trkpt lat="45.3005" lon="5.99376">
        <ele>633.16528320312</ele>
        <time>2011-10-23T07:06:15Z</time>
      </trkpt>
      <trkpt lat="45.30051" lon="5.99376">
        <ele>632.68481445312</ele>
        <time>2011-10-23T07:06:16Z</time>
      </trkpt>
      <trkpt lat="45.30063" lon="5.99385">
        <ele>631.72338867188</ele>
        <time>2011-10-23T07:06:23Z</time>
      </trkpt>
      <trkpt lat="45.3007" lon="5.99394">
        <ele>631.24291992188</ele>
        <time>2011-10-23T07:06:28Z</time>
      </trkpt>
      <trkpt lat="45.30082" lon="5.99405">
        <ele>631.24291992188</ele>
        <time>2011-10-23T07:06:33Z</time>
      </trkpt>
      <trkpt lat="45.30095" lon="5.99423">
        <ele>628.83959960938</ele>
        <time>2011-10-23T07:06:39Z</time>
      </trkpt>
      <trkpt lat="45.30101" lon="5.9943">
        <ele>627.87817382812</ele>
        <time>2011-10-23T07:06:43Z</time>
      </trkpt>
      <trkpt lat="45.30109" lon="5.99439">
        <ele>626.43627929688</ele>
        <time>2011-10-23T07:06:49Z</time>
      </trkpt>
      <trkpt lat="45.30124" lon="5.9945">
        <ele>627.39770507812</ele>
        <time>2011-10-23T07:06:54Z</time>
      </trkpt>
      <trkpt lat="45.30125" lon="5.99463">
        <ele>627.39770507812</ele>
        <time>2011-10-23T07:06:57Z</time>
      </trkpt>
      <trkpt lat="45.30116" lon="5.99475">
        <ele>628.35888671875</ele>
        <time>2011-10-23T07:07:01Z</time>
      </trkpt>
      <trkpt lat="45.30114" lon="5.99477">
        <ele>628.83959960938</ele>
        <time>2011-10-23T07:07:02Z</time>
      </trkpt>
      <trkpt lat="45.30104" lon="5.99476">
        <ele>629.32006835938</ele>
        <time>2011-10-23T07:07:07Z</time>
      </trkpt>
      <trkpt lat="45.30103" lon="5.99473">
        <ele>628.83959960938</ele>
        <time>2011-10-23T07:07:11Z</time>
      </trkpt>
      <trkpt lat="45.30104" lon="5.99473">
        <ele>628.83959960938</ele>
        <time>2011-10-23T07:07:12Z</time>
      </trkpt>
      <trkpt lat="45.30109" lon="5.9948">
        <ele>629.32006835938</ele>
        <time>2011-10-23T07:07:16Z</time>
      </trkpt>
      <trkpt lat="45.30117" lon="5.99478">
        <ele>628.83959960938</ele>
        <time>2011-10-23T07:07:22Z</time>
      </trkpt>
      <trkpt lat="45.30119" lon="5.99477">
        <ele>628.35888671875</ele>
        <time>2011-10-23T07:07:23Z</time>
      </trkpt>
      <trkpt lat="45.30127" lon="5.99473">
        <ele>629.32006835938</ele>
        <time>2011-10-23T07:07:27Z</time>
      </trkpt>
      <trkpt lat="45.30141" lon="5.99477">
        <ele>629.32006835938</ele>
        <time>2011-10-23T07:07:32Z</time>
      </trkpt>
      <trkpt lat="45.30156" lon="5.99481">
        <ele>632.68481445312</ele>
        <time>2011-10-23T07:07:37Z</time>
      </trkpt>
      <trkpt lat="45.30164" lon="5.99496">
        <ele>630.28149414062</ele>
        <time>2011-10-23T07:07:41Z</time>
      </trkpt>
      <trkpt lat="45.30165" lon="5.99504">
        <ele>629.32006835938</ele>
        <time>2011-10-23T07:07:43Z</time>
      </trkpt>
      <trkpt lat="45.30165" lon="5.99523">
        <ele>632.2041015625</ele>
        <time>2011-10-23T07:07:48Z</time>
      </trkpt>
      <trkpt lat="45.30171" lon="5.99532">
        <ele>635.08813476562</ele>
        <time>2011-10-23T07:07:52Z</time>
      </trkpt>
      <trkpt lat="45.30178" lon="5.99535">
        <ele>639.89477539062</ele>
        <time>2011-10-23T07:07:56Z</time>
      </trkpt>
      <trkpt lat="45.30185" lon="5.99529">
        <ele>643.25927734375</ele>
        <time>2011-10-23T07:07:59Z</time>
      </trkpt>
      <trkpt lat="45.3019" lon="5.99531">
        <ele>645.18188476562</ele>
        <time>2011-10-23T07:08:02Z</time>
      </trkpt>
      <trkpt lat="45.30193" lon="5.99532">
        <ele>643.73999023438</ele>
        <time>2011-10-23T07:08:10Z</time>
      </trkpt>
      <trkpt lat="45.30197" lon="5.9953">
        <ele>643.25927734375</ele>
        <time>2011-10-23T07:08:16Z</time>
      </trkpt>
      <trkpt lat="45.30198" lon="5.99534">
        <ele>642.77880859375</ele>
        <time>2011-10-23T07:08:22Z</time>
      </trkpt>
      <trkpt lat="45.30196" lon="5.99529">
        <ele>638.93359375</ele>
        <time>2011-10-23T07:08:27Z</time>
      </trkpt>
      <trkpt lat="45.3019" lon="5.99524">
        <ele>637.0107421875</ele>
        <time>2011-10-23T07:08:31Z</time>
      </trkpt>
      <trkpt lat="45.3018" lon="5.99528">
        <ele>639.4140625</ele>
        <time>2011-10-23T07:08:35Z</time>
      </trkpt>
      <trkpt lat="45.30181" lon="5.99524">
        <ele>639.89477539062</ele>
        <time>2011-10-23T07:08:38Z</time>
      </trkpt>
      <trkpt lat="45.30192" lon="5.99521">
        <ele>636.5302734375</ele>
        <time>2011-10-23T07:08:41Z</time>
      </trkpt>
      <trkpt lat="45.30198" lon="5.99519">
        <ele>635.08813476562</ele>
        <time>2011-10-23T07:08:43Z</time>
      </trkpt>
      <trkpt lat="45.30202" lon="5.99517">
        <ele>636.5302734375</ele>
        <time>2011-10-23T07:08:45Z</time>
      </trkpt>
      <trkpt lat="45.30219" lon="5.99513">
        <ele>637.49145507812</ele>
        <time>2011-10-23T07:08:51Z</time>
      </trkpt>
      <trkpt lat="45.30227" lon="5.99521">
        <ele>630.76220703125</ele>
        <time>2011-10-23T07:08:54Z</time>
      </trkpt>
      <trkpt lat="45.30226" lon="5.99527">
        <ele>628.83959960938</ele>
        <time>2011-10-23T07:09:01Z</time>
      </trkpt>
      <trkpt lat="45.30226" lon="5.99535">
        <ele>631.24291992188</ele>
        <time>2011-10-23T07:09:17Z</time>
      </trkpt>
      <trkpt lat="45.30223" lon="5.99532">
        <ele>628.35888671875</ele>
        <time>2011-10-23T07:09:23Z</time>
      </trkpt>
      <trkpt lat="45.30215" lon="5.99534">
        <ele>637.0107421875</ele>
        <time>2011-10-23T07:09:30Z</time>
      </trkpt>
      <trkpt lat="45.30218" lon="5.99532">
        <ele>634.12670898438</ele>
        <time>2011-10-23T07:09:38Z</time>
      </trkpt>
      <trkpt lat="45.30221" lon="5.9953">
        <ele>631.24291992188</ele>
        <time>2011-10-23T07:09:40Z</time>
      </trkpt>
      <trkpt lat="45.30232" lon="5.99541">
        <ele>627.39770507812</ele>
        <time>2011-10-23T07:09:45Z</time>
      </trkpt>
      <trkpt lat="45.30239" lon="5.9955">
        <ele>626.43627929688</ele>
        <time>2011-10-23T07:09:48Z</time>
      </trkpt>
      <trkpt lat="45.30256" lon="5.99566">
        <ele>625.95556640625</ele>
        <time>2011-10-23T07:09:54Z</time>
      </trkpt>
      <trkpt lat="45.30264" lon="5.99574">
        <ele>625.47485351562</ele>
        <time>2011-10-23T07:09:57Z</time>
      </trkpt>
      <trkpt lat="45.30273" lon="5.99594">
        <ele>625.95556640625</ele>
        <time>2011-10-23T07:10:02Z</time>
      </trkpt>
      <trkpt lat="45.30281" lon="5.99613">
        <ele>627.39770507812</ele>
        <time>2011-10-23T07:10:07Z</time>
      </trkpt>
      <trkpt lat="45.30293" lon="5.99646">
        <ele>630.28149414062</ele>
        <time>2011-10-23T07:10:16Z</time>
      </trkpt>
      <trkpt lat="45.30299" lon="5.99668">
        <ele>631.72338867188</ele>
        <time>2011-10-23T07:10:21Z</time>
      </trkpt>
      <trkpt lat="45.30304" lon="5.99691">
        <ele>632.2041015625</ele>
        <time>2011-10-23T07:10:26Z</time>
      </trkpt>
      <trkpt lat="45.30307" lon="5.99713">
        <ele>632.2041015625</ele>
        <time>2011-10-23T07:10:31Z</time>
      </trkpt>
      <trkpt lat="45.30312" lon="5.99731">
        <ele>632.68481445312</ele>
        <time>2011-10-23T07:10:35Z</time>
      </trkpt>
      <trkpt lat="45.30315" lon="5.99751">
        <ele>632.2041015625</ele>
        <time>2011-10-23T07:10:40Z</time>
      </trkpt>
      <trkpt lat="45.30326" lon="5.99774">
        <ele>632.68481445312</ele>
        <time>2011-10-23T07:10:46Z</time>
      </trkpt>
      <trkpt lat="45.3033" lon="5.99784">
        <ele>633.64599609375</ele>
        <time>2011-10-23T07:10:49Z</time>
      </trkpt>
      <trkpt lat="45.30322" lon="5.99801">
        <ele>634.607421875</ele>
        <time>2011-10-23T07:10:54Z</time>
      </trkpt>
      <trkpt lat="45.3031" lon="5.99808">
        <ele>637.97216796875</ele>
        <time>2011-10-23T07:10:59Z</time>
      </trkpt>
      <trkpt lat="45.30303" lon="5.99814">
        <ele>641.33666992188</ele>
        <time>2011-10-23T07:11:02Z</time>
      </trkpt>
      <trkpt lat="45.30293" lon="5.99823">
        <ele>644.220703125</ele>
        <time>2011-10-23T07:11:07Z</time>
      </trkpt>
      <trkpt lat="45.30288" lon="5.99829">
        <ele>644.220703125</ele>
        <time>2011-10-23T07:11:12Z</time>
      </trkpt>
      <trkpt lat="45.30286" lon="5.99825">
        <ele>642.29809570312</ele>
        <time>2011-10-23T07:11:21Z</time>
      </trkpt>
      <trkpt lat="45.30282" lon="5.99806">
        <ele>641.8173828125</ele>
        <time>2011-10-23T07:11:28Z</time>
      </trkpt>
      <trkpt lat="45.30282" lon="5.99788">
        <ele>640.37548828125</ele>
        <time>2011-10-23T07:11:33Z</time>
      </trkpt>
      <trkpt lat="45.30286" lon="5.99788">
        <ele>638.93359375</ele>
        <time>2011-10-23T07:11:36Z</time>
      </trkpt>
      <trkpt lat="45.30292" lon="5.99778">
        <ele>636.04956054688</ele>
        <time>2011-10-23T07:11:40Z</time>
      </trkpt>
      <trkpt lat="45.30301" lon="5.99753">
        <ele>632.2041015625</ele>
        <time>2011-10-23T07:11:46Z</time>
      </trkpt>
      <trkpt lat="45.30304" lon="5.99744">
        <ele>632.2041015625</ele>
        <time>2011-10-23T07:11:50Z</time>
      </trkpt>
      <trkpt lat="45.30295" lon="5.9975">
        <ele>630.76220703125</ele>
        <time>2011-10-23T07:11:56Z</time>
      </trkpt>
      <trkpt lat="45.30286" lon="5.99756">
        <ele>631.72338867188</ele>
        <time>2011-10-23T07:12:02Z</time>
      </trkpt>
      <trkpt lat="45.3028" lon="5.99759">
        <ele>633.64599609375</ele>
        <time>2011-10-23T07:12:06Z</time>
      </trkpt>
      <trkpt lat="45.30276" lon="5.99753">
        <ele>634.607421875</ele>
        <time>2011-10-23T07:12:10Z</time>
      </trkpt>
      <trkpt lat="45.30268" lon="5.99731">
        <ele>635.56860351562</ele>
        <time>2011-10-23T07:12:17Z</time>
      </trkpt>
      <trkpt lat="45.30262" lon="5.9972">
        <ele>636.5302734375</ele>
        <time>2011-10-23T07:12:21Z</time>
      </trkpt>
      <trkpt lat="45.30251" lon="5.99705">
        <ele>635.56860351562</ele>
        <time>2011-10-23T07:12:26Z</time>
      </trkpt>
      <trkpt lat="45.30243" lon="5.99689">
        <ele>634.607421875</ele>
        <time>2011-10-23T07:12:31Z</time>
      </trkpt>
      <trkpt lat="45.30241" lon="5.99687">
        <ele>633.64599609375</ele>
        <time>2011-10-23T07:12:35Z</time>
      </trkpt>
      <trkpt lat="45.30233" lon="5.99676">
        <ele>634.12670898438</ele>
        <time>2011-10-23T07:12:41Z</time>
      </trkpt>
      <trkpt lat="45.30215" lon="5.99659">
        <ele>635.56860351562</ele>
        <time>2011-10-23T07:12:48Z</time>
      </trkpt>
      <trkpt lat="45.30218" lon="5.9965">
        <ele>635.08813476562</ele>
        <time>2011-10-23T07:12:53Z</time>
      </trkpt>
      <trkpt lat="45.30218" lon="5.99647">
        <ele>636.04956054688</ele>
        <time>2011-10-23T07:12:58Z</time>
      </trkpt>
      <trkpt lat="45.30218" lon="5.99648">
        <ele>636.04956054688</ele>
        <time>2011-10-23T07:12:59Z</time>
      </trkpt>
      <trkpt lat="45.30214" lon="5.99654">
        <ele>637.97216796875</ele>
        <time>2011-10-23T07:13:03Z</time>
      </trkpt>
      <trkpt lat="45.30203" lon="5.99644">
        <ele>638.93359375</ele>
        <time>2011-10-23T07:13:08Z</time>
      </trkpt>
      <trkpt lat="45.30189" lon="5.9963">
        <ele>640.85595703125</ele>
        <time>2011-10-23T07:13:13Z</time>
      </trkpt>
      <trkpt lat="45.30177" lon="5.99614">
        <ele>640.85595703125</ele>
        <time>2011-10-23T07:13:18Z</time>
      </trkpt>
      <trkpt lat="45.30166" lon="5.99597">
        <ele>642.77880859375</ele>
        <time>2011-10-23T07:13:23Z</time>
      </trkpt>
      <trkpt lat="45.30159" lon="5.99581">
        <ele>640.37548828125</ele>
        <time>2011-10-23T07:13:27Z</time>
      </trkpt>
      <trkpt lat="45.30154" lon="5.99561">
        <ele>638.45288085938</ele>
        <time>2011-10-23T07:13:31Z</time>
      </trkpt>
      <trkpt lat="45.30148" lon="5.9953">
        <ele>636.5302734375</ele>
        <time>2011-10-23T07:13:37Z</time>
      </trkpt>
      <trkpt lat="45.30153" lon="5.99505">
        <ele>630.76220703125</ele>
        <time>2011-10-23T07:13:42Z</time>
      </trkpt>
      <trkpt lat="45.30153" lon="5.99492">
        <ele>628.35888671875</ele>
        <time>2011-10-23T07:13:45Z</time>
      </trkpt>
      <trkpt lat="45.30139" lon="5.99478">
        <ele>625.47485351562</ele>
        <time>2011-10-23T07:13:51Z</time>
      </trkpt>
      <trkpt lat="45.30125" lon="5.99474">
        <ele>623.55249023438</ele>
        <time>2011-10-23T07:13:56Z</time>
      </trkpt>
      <trkpt lat="45.30114" lon="5.9948">
        <ele>621.62963867188</ele>
        <time>2011-10-23T07:14:00Z</time>
      </trkpt>
      <trkpt lat="45.30104" lon="5.99473">
        <ele>620.66845703125</ele>
        <time>2011-10-23T07:14:04Z</time>
      </trkpt>
      <trkpt lat="45.30101" lon="5.99473">
        <ele>620.66845703125</ele>
        <time>2011-10-23T07:14:09Z</time>
      </trkpt>
      <trkpt lat="45.301" lon="5.99471">
        <ele>621.14916992188</ele>
        <time>2011-10-23T07:14:10Z</time>
      </trkpt>
      <trkpt lat="45.30095" lon="5.99451">
        <ele>627.87817382812</ele>
        <time>2011-10-23T07:14:15Z</time>
      </trkpt>
      <trkpt lat="45.30096" lon="5.9944">
        <ele>630.76220703125</ele>
        <time>2011-10-23T07:14:17Z</time>
      </trkpt>
      <trkpt lat="45.30107" lon="5.9941">
        <ele>630.28149414062</ele>
        <time>2011-10-23T07:14:23Z</time>
      </trkpt>
      <trkpt lat="45.30112" lon="5.99398">
        <ele>629.32006835938</ele>
        <time>2011-10-23T07:14:27Z</time>
      </trkpt>
      <trkpt lat="45.30111" lon="5.99384">
        <ele>627.87817382812</ele>
        <time>2011-10-23T07:14:31Z</time>
      </trkpt>
      <trkpt lat="45.30106" lon="5.99365">
        <ele>627.87817382812</ele>
        <time>2011-10-23T07:14:35Z</time>
      </trkpt>
      <trkpt lat="45.30098" lon="5.99339">
        <ele>627.39770507812</ele>
        <time>2011-10-23T07:14:41Z</time>
      </trkpt>
      <trkpt lat="45.30094" lon="5.99315">
        <ele>626.9169921875</ele>
        <time>2011-10-23T07:14:46Z</time>
      </trkpt>
      <trkpt lat="45.3009" lon="5.99304">
        <ele>626.43627929688</ele>
        <time>2011-10-23T07:14:51Z</time>
      </trkpt>
      <trkpt lat="45.30088" lon="5.99301">
        <ele>625.95556640625</ele>
        <time>2011-10-23T07:14:52Z</time>
      </trkpt>
      <trkpt lat="45.30077" lon="5.99282">
        <ele>627.39770507812</ele>
        <time>2011-10-23T07:14:58Z</time>
      </trkpt>
      <trkpt lat="45.30069" lon="5.99272">
        <ele>627.87817382812</ele>
        <time>2011-10-23T07:15:03Z</time>
      </trkpt>
      <trkpt lat="45.30066" lon="5.99278">
        <ele>627.39770507812</ele>
        <time>2011-10-23T07:15:08Z</time>
      </trkpt>
      <trkpt lat="45.30065" lon="5.99276">
        <ele>627.39770507812</ele>
        <time>2011-10-23T07:15:13Z</time>
      </trkpt>
      <trkpt lat="45.30068" lon="5.99275">
        <ele>627.39770507812</ele>
        <time>2011-10-23T07:15:29Z</time>
      </trkpt>
      <trkpt lat="45.30067" lon="5.99274">
        <ele>628.35888671875</ele>
        <time>2011-10-23T07:15:40Z</time>
      </trkpt>
      <trkpt lat="45.30066" lon="5.99274">
        <ele>628.83959960938</ele>
        <time>2011-10-23T07:15:49Z</time>
      </trkpt>
      <trkpt lat="45.30067" lon="5.99276">
        <ele>628.35888671875</ele>
        <time>2011-10-23T07:15:54Z</time>
      </trkpt>
      <trkpt lat="45.30068" lon="5.99276">
        <ele>627.39770507812</ele>
        <time>2011-10-23T07:16:05Z</time>
      </trkpt>
      <trkpt lat="45.30067" lon="5.99275">
        <ele>625.95556640625</ele>
        <time>2011-10-23T07:16:14Z</time>
      </trkpt>
      <trkpt lat="45.30067" lon="5.99276">
        <ele>626.43627929688</ele>
        <time>2011-10-23T07:16:16Z</time>
      </trkpt>
      <trkpt lat="45.3007" lon="5.99275">
        <ele>625.95556640625</ele>
        <time>2011-10-23T07:16:20Z</time>
      </trkpt>
      <trkpt lat="45.30071" lon="5.99274">
        <ele>625.47485351562</ele>
        <time>2011-10-23T07:16:21Z</time>
      </trkpt>
      <trkpt lat="45.3007" lon="5.99263">
        <ele>624.513671875</ele>
        <time>2011-10-23T07:16:26Z</time>
      </trkpt>
      <trkpt lat="45.30058" lon="5.99244">
        <ele>624.99438476562</ele>
        <time>2011-10-23T07:16:32Z</time>
      </trkpt>
      <trkpt lat="45.30041" lon="5.99213">
        <ele>624.99438476562</ele>
        <time>2011-10-23T07:16:39Z</time>
      </trkpt>
      <trkpt lat="45.30031" lon="5.99195">
        <ele>624.513671875</ele>
        <time>2011-10-23T07:16:43Z</time>
      </trkpt>
      <trkpt lat="45.30015" lon="5.99182">
        <ele>624.03295898438</ele>
        <time>2011-10-23T07:16:48Z</time>
      </trkpt>
      <trkpt lat="45.30008" lon="5.99178">
        <ele>624.03295898438</ele>
        <time>2011-10-23T07:16:51Z</time>
      </trkpt>
      <trkpt lat="45.29996" lon="5.99188">
        <ele>622.1103515625</ele>
        <time>2011-10-23T07:16:56Z</time>
      </trkpt>
      <trkpt lat="45.29977" lon="5.99212">
        <ele>620.66845703125</ele>
        <time>2011-10-23T07:17:04Z</time>
      </trkpt>
      <trkpt lat="45.29961" lon="5.99231">
        <ele>622.1103515625</ele>
        <time>2011-10-23T07:17:10Z</time>
      </trkpt>
      <trkpt lat="45.29954" lon="5.99246">
        <ele>623.55249023438</ele>
        <time>2011-10-23T07:17:15Z</time>
      </trkpt>
      <trkpt lat="45.29958" lon="5.9926">
        <ele>624.03295898438</ele>
        <time>2011-10-23T07:17:21Z</time>
      </trkpt>
      <trkpt lat="45.29969" lon="5.99273">
        <ele>624.03295898438</ele>
        <time>2011-10-23T07:17:27Z</time>
      </trkpt>
      <trkpt lat="45.29983" lon="5.99291">
        <ele>624.99438476562</ele>
        <time>2011-10-23T07:17:34Z</time>
      </trkpt>
      <trkpt lat="45.29985" lon="5.99299">
        <ele>626.43627929688</ele>
        <time>2011-10-23T07:17:39Z</time>
      </trkpt>
      <trkpt lat="45.29987" lon="5.99298">
        <ele>628.35888671875</ele>
        <time>2011-10-23T07:17:46Z</time>
      </trkpt>
      <trkpt lat="45.29986" lon="5.99298">
        <ele>629.80078125</ele>
        <time>2011-10-23T07:17:51Z</time>
      </trkpt>
      <trkpt lat="45.29987" lon="5.99298">
        <ele>631.72338867188</ele>
        <time>2011-10-23T07:17:58Z</time>
      </trkpt>
      <trkpt lat="45.29986" lon="5.99295">
        <ele>631.24291992188</ele>
        <time>2011-10-23T07:18:17Z</time>
      </trkpt>
      <trkpt lat="45.29987" lon="5.99295">
        <ele>629.80078125</ele>
        <time>2011-10-23T07:18:24Z</time>
      </trkpt>
      <trkpt lat="45.29987" lon="5.99298">
        <ele>627.87817382812</ele>
        <time>2011-10-23T07:18:36Z</time>
      </trkpt>
      <trkpt lat="45.29985" lon="5.99298">
        <ele>629.80078125</ele>
        <time>2011-10-23T07:18:49Z</time>
      </trkpt>
      <trkpt lat="45.29984" lon="5.99293">
        <ele>637.97216796875</ele>
        <time>2011-10-23T07:19:23Z</time>
      </trkpt>
      <trkpt lat="45.29986" lon="5.99294">
        <ele>633.16528320312</ele>
        <time>2011-10-23T07:19:47Z</time>
      </trkpt>
      <trkpt lat="45.29993" lon="5.99301">
        <ele>632.2041015625</ele>
        <time>2011-10-23T07:19:51Z</time>
      </trkpt>
      <trkpt lat="45.30012" lon="5.99324">
        <ele>631.72338867188</ele>
        <time>2011-10-23T07:19:58Z</time>
      </trkpt>
      <trkpt lat="45.30035" lon="5.99352">
        <ele>630.76220703125</ele>
        <time>2011-10-23T07:20:04Z</time>
      </trkpt>
      <trkpt lat="45.30071" lon="5.99397">
        <ele>628.83959960938</ele>
        <time>2011-10-23T07:20:13Z</time>
      </trkpt>
      <trkpt lat="45.30103" lon="5.99435">
        <ele>625.95556640625</ele>
        <time>2011-10-23T07:20:20Z</time>
      </trkpt>
      <trkpt lat="45.30129" lon="5.99454">
        <ele>624.03295898438</ele>
        <time>2011-10-23T07:20:25Z</time>
      </trkpt>
      <trkpt lat="45.30143" lon="5.9946">
        <ele>623.55249023438</ele>
        <time>2011-10-23T07:20:28Z</time>
      </trkpt>
      <trkpt lat="45.30158" lon="5.99466">
        <ele>623.07177734375</ele>
        <time>2011-10-23T07:20:33Z</time>
      </trkpt>
      <trkpt lat="45.30162" lon="5.99478">
        <ele>624.513671875</ele>
        <time>2011-10-23T07:20:37Z</time>
      </trkpt>
      <trkpt lat="45.30161" lon="5.99503">
        <ele>625.95556640625</ele>
        <time>2011-10-23T07:20:43Z</time>
      </trkpt>
      <trkpt lat="45.30161" lon="5.99527">
        <ele>626.9169921875</ele>
        <time>2011-10-23T07:20:49Z</time>
      </trkpt>
      <trkpt lat="45.3016" lon="5.99554">
        <ele>630.76220703125</ele>
        <time>2011-10-23T07:20:56Z</time>
      </trkpt>
      <trkpt lat="45.30165" lon="5.99586">
        <ele>634.607421875</ele>
        <time>2011-10-23T07:21:05Z</time>
      </trkpt>
      <trkpt lat="45.30177" lon="5.99607">
        <ele>636.04956054688</ele>
        <time>2011-10-23T07:21:12Z</time>
      </trkpt>
      <trkpt lat="45.30186" lon="5.99622">
        <ele>637.97216796875</ele>
        <time>2011-10-23T07:21:17Z</time>
      </trkpt>
      <trkpt lat="45.30196" lon="5.99635">
        <ele>639.89477539062</ele>
        <time>2011-10-23T07:21:21Z</time>
      </trkpt>
      <trkpt lat="45.30214" lon="5.99655">
        <ele>638.93359375</ele>
        <time>2011-10-23T07:21:27Z</time>
      </trkpt>
      <trkpt lat="45.30231" lon="5.99672">
        <ele>638.93359375</ele>
        <time>2011-10-23T07:21:32Z</time>
      </trkpt>
      <trkpt lat="45.30239" lon="5.99686">
        <ele>639.89477539062</ele>
        <time>2011-10-23T07:21:35Z</time>
      </trkpt>
      <trkpt lat="45.30244" lon="5.99714">
        <ele>640.85595703125</ele>
        <time>2011-10-23T07:21:40Z</time>
      </trkpt>
      <trkpt lat="45.30254" lon="5.99758">
        <ele>642.29809570312</ele>
        <time>2011-10-23T07:21:49Z</time>
      </trkpt>
      <trkpt lat="45.30261" lon="5.99807">
        <ele>644.220703125</ele>
        <time>2011-10-23T07:21:59Z</time>
      </trkpt>
      <trkpt lat="45.30267" lon="5.99824">
        <ele>644.220703125</ele>
        <time>2011-10-23T07:22:04Z</time>
      </trkpt>
      <trkpt lat="45.30276" lon="5.99834">
        <ele>643.25927734375</ele>
        <time>2011-10-23T07:22:08Z</time>
      </trkpt>
      <trkpt lat="45.30287" lon="5.99839">
        <ele>642.29809570312</ele>
        <time>2011-10-23T07:22:12Z</time>
      </trkpt>
      <trkpt lat="45.30294" lon="5.99844">
        <ele>642.29809570312</ele>
        <time>2011-10-23T07:22:14Z</time>
      </trkpt>
      <trkpt lat="45.30305" lon="5.99877">
        <ele>640.85595703125</ele>
        <time>2011-10-23T07:22:20Z</time>
      </trkpt>
      <trkpt lat="45.30315" lon="5.99911">
        <ele>640.37548828125</ele>
        <time>2011-10-23T07:22:25Z</time>
      </trkpt>
      <trkpt lat="45.30331" lon="5.99945">
        <ele>640.37548828125</ele>
        <time>2011-10-23T07:22:31Z</time>
      </trkpt>
      <trkpt lat="45.30348" lon="5.99961">
        <ele>641.33666992188</ele>
        <time>2011-10-23T07:22:35Z</time>
      </trkpt>
      <trkpt lat="45.30379" lon="5.9997">
        <ele>641.33666992188</ele>
        <time>2011-10-23T07:22:41Z</time>
      </trkpt>
      <trkpt lat="45.30404" lon="5.9997">
        <ele>642.77880859375</ele>
        <time>2011-10-23T07:22:46Z</time>
      </trkpt>
      <trkpt lat="45.3042" lon="5.99964">
        <ele>643.73999023438</ele>
        <time>2011-10-23T07:22:51Z</time>
      </trkpt>
      <trkpt lat="45.30433" lon="5.99945">
        <ele>643.25927734375</ele>
        <time>2011-10-23T07:22:57Z</time>
      </trkpt>
      <trkpt lat="45.30432" lon="5.99915">
        <ele>644.220703125</ele>
        <time>2011-10-23T07:23:04Z</time>
      </trkpt>
      <trkpt lat="45.30426" lon="5.99882">
        <ele>647.1044921875</ele>
        <time>2011-10-23T07:23:13Z</time>
      </trkpt>
      <trkpt lat="45.30423" lon="5.99852">
        <ele>650.94970703125</ele>
        <time>2011-10-23T07:23:21Z</time>
      </trkpt>
      <trkpt lat="45.30429" lon="5.99832">
        <ele>652.87255859375</ele>
        <time>2011-10-23T07:23:27Z</time>
      </trkpt>
      <trkpt lat="45.3044" lon="5.99812">
        <ele>654.31469726562</ele>
        <time>2011-10-23T07:23:34Z</time>
      </trkpt>
      <trkpt lat="45.30452" lon="5.99795">
        <ele>655.75659179688</ele>
        <time>2011-10-23T07:23:41Z</time>
      </trkpt>
      <trkpt lat="45.30464" lon="5.99784">
        <ele>656.7177734375</ele>
        <time>2011-10-23T07:23:47Z</time>
      </trkpt>
      <trkpt lat="45.30479" lon="5.99766">
        <ele>658.64038085938</ele>
        <time>2011-10-23T07:23:55Z</time>
      </trkpt>
      <trkpt lat="45.30487" lon="5.99747">
        <ele>659.60180664062</ele>
        <time>2011-10-23T07:24:02Z</time>
      </trkpt>
      <trkpt lat="45.30496" lon="5.99733">
        <ele>662.00512695312</ele>
        <time>2011-10-23T07:24:08Z</time>
      </trkpt>
      <trkpt lat="45.30509" lon="5.99721">
        <ele>663.44702148438</ele>
        <time>2011-10-23T07:24:15Z</time>
      </trkpt>
      <trkpt lat="45.30516" lon="5.99714">
        <ele>664.408203125</ele>
        <time>2011-10-23T07:24:21Z</time>
      </trkpt>
      <trkpt lat="45.30523" lon="5.99708">
        <ele>666.8115234375</ele>
        <time>2011-10-23T07:24:27Z</time>
      </trkpt>
      <trkpt lat="45.30528" lon="5.99705">
        <ele>671.1376953125</ele>
        <time>2011-10-23T07:24:33Z</time>
      </trkpt>
      <trkpt lat="45.30534" lon="5.997">
        <ele>674.50219726562</ele>
        <time>2011-10-23T07:24:39Z</time>
      </trkpt>
      <trkpt lat="45.3054" lon="5.99693">
        <ele>675.46337890625</ele>
        <time>2011-10-23T07:24:46Z</time>
      </trkpt>
      <trkpt lat="45.30545" lon="5.99688">
        <ele>677.86669921875</ele>
        <time>2011-10-23T07:24:53Z</time>
      </trkpt>
      <trkpt lat="45.30549" lon="5.99684">
        <ele>679.78930664062</ele>
        <time>2011-10-23T07:24:59Z</time>
      </trkpt>
      <trkpt lat="45.30555" lon="5.99678">
        <ele>682.19262695312</ele>
        <time>2011-10-23T07:25:07Z</time>
      </trkpt>
      <trkpt lat="45.30562" lon="5.9967">
        <ele>683.63452148438</ele>
        <time>2011-10-23T07:25:15Z</time>
      </trkpt>
      <trkpt lat="45.30566" lon="5.99663">
        <ele>686.0380859375</ele>
        <time>2011-10-23T07:25:22Z</time>
      </trkpt>
      <trkpt lat="45.30574" lon="5.99651">
        <ele>686.51879882812</ele>
        <time>2011-10-23T07:25:31Z</time>
      </trkpt>
      <trkpt lat="45.30583" lon="5.99641">
        <ele>687.96069335938</ele>
        <time>2011-10-23T07:25:39Z</time>
      </trkpt>
      <trkpt lat="45.30593" lon="5.99628">
        <ele>688.44140625</ele>
        <time>2011-10-23T07:25:49Z</time>
      </trkpt>
      <trkpt lat="45.30602" lon="5.99618">
        <ele>689.40258789062</ele>
        <time>2011-10-23T07:25:57Z</time>
      </trkpt>
      <trkpt lat="45.30612" lon="5.99608">
        <ele>690.84448242188</ele>
        <time>2011-10-23T07:26:07Z</time>
      </trkpt>
      <trkpt lat="45.30622" lon="5.99599">
        <ele>692.76733398438</ele>
        <time>2011-10-23T07:26:16Z</time>
      </trkpt>
      <trkpt lat="45.3063" lon="5.99592">
        <ele>694.68969726562</ele>
        <time>2011-10-23T07:26:25Z</time>
      </trkpt>
      <trkpt lat="45.30636" lon="5.99584">
        <ele>697.09301757812</ele>
        <time>2011-10-23T07:26:33Z</time>
      </trkpt>
      <trkpt lat="45.3064" lon="5.99576">
        <ele>699.97705078125</ele>
        <time>2011-10-23T07:26:41Z</time>
      </trkpt>
      <trkpt lat="45.30641" lon="5.99567">
        <ele>701.41918945312</ele>
        <time>2011-10-23T07:26:49Z</time>
      </trkpt>
      <trkpt lat="45.30643" lon="5.99554">
        <ele>702.38037109375</ele>
        <time>2011-10-23T07:26:58Z</time>
      </trkpt>
      <trkpt lat="45.30645" lon="5.99537">
        <ele>705.7451171875</ele>
        <time>2011-10-23T07:27:11Z</time>
      </trkpt>
      <trkpt lat="45.30645" lon="5.99526">
        <ele>709.10961914062</ele>
        <time>2011-10-23T07:27:18Z</time>
      </trkpt>
      <trkpt lat="45.30647" lon="5.99512">
        <ele>711.51293945312</ele>
        <time>2011-10-23T07:27:28Z</time>
      </trkpt>
      <trkpt lat="45.3065" lon="5.99498">
        <ele>713.916015625</ele>
        <time>2011-10-23T07:27:38Z</time>
      </trkpt>
      <trkpt lat="45.30653" lon="5.99488">
        <ele>716.31958007812</ele>
        <time>2011-10-23T07:27:46Z</time>
      </trkpt>
      <trkpt lat="45.30658" lon="5.99477">
        <ele>717.76147460938</ele>
        <time>2011-10-23T07:27:56Z</time>
      </trkpt>
      <trkpt lat="45.30661" lon="5.99468">
        <ele>718.2421875</ele>
        <time>2011-10-23T07:28:04Z</time>
      </trkpt>
      <trkpt lat="45.30666" lon="5.99458">
        <ele>718.2421875</ele>
        <time>2011-10-23T07:28:12Z</time>
      </trkpt>
      <trkpt lat="45.30672" lon="5.99455">
        <ele>720.6455078125</ele>
        <time>2011-10-23T07:28:20Z</time>
      </trkpt>
      <trkpt lat="45.30676" lon="5.9946">
        <ele>722.08740234375</ele>
        <time>2011-10-23T07:28:25Z</time>
      </trkpt>
      <trkpt lat="45.30679" lon="5.9947">
        <ele>724.97143554688</ele>
        <time>2011-10-23T07:28:33Z</time>
      </trkpt>
      <trkpt lat="45.30679" lon="5.99483">
        <ele>728.81665039062</ele>
        <time>2011-10-23T07:28:42Z</time>
      </trkpt>
      <trkpt lat="45.30679" lon="5.9949">
        <ele>730.7392578125</ele>
        <time>2011-10-23T07:28:47Z</time>
      </trkpt>
      <trkpt lat="45.3068" lon="5.99503">
        <ele>733.142578125</ele>
        <time>2011-10-23T07:28:54Z</time>
      </trkpt>
      <trkpt lat="45.30684" lon="5.99513">
        <ele>734.10400390625</ele>
        <time>2011-10-23T07:29:00Z</time>
      </trkpt>
      <trkpt lat="45.30689" lon="5.99525">
        <ele>734.58471679688</ele>
        <time>2011-10-23T07:29:06Z</time>
      </trkpt>
      <trkpt lat="45.30697" lon="5.9954">
        <ele>735.0654296875</ele>
        <time>2011-10-23T07:29:13Z</time>
      </trkpt>
      <trkpt lat="45.30707" lon="5.99552">
        <ele>736.02661132812</ele>
        <time>2011-10-23T07:29:20Z</time>
      </trkpt>
      <trkpt lat="45.30711" lon="5.99553">
        <ele>737.46850585938</ele>
        <time>2011-10-23T07:29:25Z</time>
      </trkpt>
      <trkpt lat="45.30721" lon="5.99552">
        <ele>738.91064453125</ele>
        <time>2011-10-23T07:29:34Z</time>
      </trkpt>
      <trkpt lat="45.30731" lon="5.99549">
        <ele>741.31372070312</ele>
        <time>2011-10-23T07:29:44Z</time>
      </trkpt>
      <trkpt lat="45.3074" lon="5.99548">
        <ele>742.27514648438</ele>
        <time>2011-10-23T07:29:53Z</time>
      </trkpt>
      <trkpt lat="45.30748" lon="5.99548">
        <ele>743.236328125</ele>
        <time>2011-10-23T07:30:01Z</time>
      </trkpt>
      <trkpt lat="45.30752" lon="5.99549">
        <ele>744.19775390625</ele>
        <time>2011-10-23T07:30:05Z</time>
      </trkpt>
      <trkpt lat="45.30762" lon="5.99553">
        <ele>746.12036132812</ele>
        <time>2011-10-23T07:30:14Z</time>
      </trkpt>
      <trkpt lat="45.3077" lon="5.99557">
        <ele>749.00439453125</ele>
        <time>2011-10-23T07:30:22Z</time>
      </trkpt>
      <trkpt lat="45.30779" lon="5.99563">
        <ele>749.9658203125</ele>
        <time>2011-10-23T07:30:29Z</time>
      </trkpt>
      <trkpt lat="45.30797" lon="5.99566">
        <ele>750.92700195312</ele>
        <time>2011-10-23T07:30:36Z</time>
      </trkpt>
      <trkpt lat="45.30818" lon="5.99567">
        <ele>751.88842773438</ele>
        <time>2011-10-23T07:30:43Z</time>
      </trkpt>
      <trkpt lat="45.30845" lon="5.99565">
        <ele>755.2529296875</ele>
        <time>2011-10-23T07:30:51Z</time>
      </trkpt>
      <trkpt lat="45.30863" lon="5.99552">
        <ele>757.17553710938</ele>
        <time>2011-10-23T07:30:57Z</time>
      </trkpt>
      <trkpt lat="45.30877" lon="5.99525">
        <ele>755.73364257812</ele>
        <time>2011-10-23T07:31:03Z</time>
      </trkpt>
      <trkpt lat="45.30885" lon="5.99474">
        <ele>754.77221679688</ele>
        <time>2011-10-23T07:31:11Z</time>
      </trkpt>
      <trkpt lat="45.3089" lon="5.99433">
        <ele>755.2529296875</ele>
        <time>2011-10-23T07:31:17Z</time>
      </trkpt>
      <trkpt lat="45.30898" lon="5.99396">
        <ele>757.65625</ele>
        <time>2011-10-23T07:31:24Z</time>
      </trkpt>
      <trkpt lat="45.30908" lon="5.99354">
        <ele>760.05932617188</ele>
        <time>2011-10-23T07:31:34Z</time>
      </trkpt>
      <trkpt lat="45.30914" lon="5.99324">
        <ele>761.50146484375</ele>
        <time>2011-10-23T07:31:41Z</time>
      </trkpt>
      <trkpt lat="45.3092" lon="5.99304">
        <ele>762.943359375</ele>
        <time>2011-10-23T07:31:46Z</time>
      </trkpt>
      <trkpt lat="45.3092" lon="5.99279">
        <ele>763.42407226562</ele>
        <time>2011-10-23T07:31:52Z</time>
      </trkpt>
      <trkpt lat="45.30919" lon="5.99255">
        <ele>764.38549804688</ele>
        <time>2011-10-23T07:31:58Z</time>
      </trkpt>
      <trkpt lat="45.30916" lon="5.99233">
        <ele>765.34692382812</ele>
        <time>2011-10-23T07:32:04Z</time>
      </trkpt>
      <trkpt lat="45.30912" lon="5.992">
        <ele>767.26953125</ele>
        <time>2011-10-23T07:32:13Z</time>
      </trkpt>
      <trkpt lat="45.3091" lon="5.99174">
        <ele>768.71142578125</ele>
        <time>2011-10-23T07:32:20Z</time>
      </trkpt>
      <trkpt lat="45.30909" lon="5.99128">
        <ele>770.63403320312</ele>
        <time>2011-10-23T07:32:32Z</time>
      </trkpt>
      <trkpt lat="45.30906" lon="5.99085">
        <ele>772.556640625</ele>
        <time>2011-10-23T07:32:43Z</time>
      </trkpt>
      <trkpt lat="45.30902" lon="5.99052">
        <ele>774.47924804688</ele>
        <time>2011-10-23T07:32:51Z</time>
      </trkpt>
      <trkpt lat="45.309" lon="5.9903">
        <ele>774.47924804688</ele>
        <time>2011-10-23T07:32:56Z</time>
      </trkpt>
      <trkpt lat="45.30891" lon="5.98996">
        <ele>773.03735351562</ele>
        <time>2011-10-23T07:33:01Z</time>
      </trkpt>
      <trkpt lat="45.30879" lon="5.9896">
        <ele>772.07592773438</ele>
        <time>2011-10-23T07:33:06Z</time>
      </trkpt>
      <trkpt lat="45.30872" lon="5.98928">
        <ele>773.03735351562</ele>
        <time>2011-10-23T07:33:11Z</time>
      </trkpt>
      <trkpt lat="45.30868" lon="5.98904">
        <ele>773.03735351562</ele>
        <time>2011-10-23T07:33:17Z</time>
      </trkpt>
      <trkpt lat="45.30866" lon="5.98889">
        <ele>774.47924804688</ele>
        <time>2011-10-23T07:33:22Z</time>
      </trkpt>
      <trkpt lat="45.30865" lon="5.98868">
        <ele>775.4404296875</ele>
        <time>2011-10-23T07:33:29Z</time>
      </trkpt>
      <trkpt lat="45.30864" lon="5.98848">
        <ele>777.84375</ele>
        <time>2011-10-23T07:33:36Z</time>
      </trkpt>
      <trkpt lat="45.30864" lon="5.98837">
        <ele>779.28564453125</ele>
        <time>2011-10-23T07:33:40Z</time>
      </trkpt>
      <trkpt lat="45.30866" lon="5.98816">
        <ele>781.68920898438</ele>
        <time>2011-10-23T07:33:48Z</time>
      </trkpt>
      <trkpt lat="45.30873" lon="5.98798">
        <ele>783.61181640625</ele>
        <time>2011-10-23T07:33:55Z</time>
      </trkpt>
      <trkpt lat="45.30875" lon="5.98779">
        <ele>785.53442382812</ele>
        <time>2011-10-23T07:34:02Z</time>
      </trkpt>
      <trkpt lat="45.30867" lon="5.98761">
        <ele>789.37963867188</ele>
        <time>2011-10-23T07:34:11Z</time>
      </trkpt>
      <trkpt lat="45.30862" lon="5.98752">
        <ele>790.82153320312</ele>
        <time>2011-10-23T07:34:16Z</time>
      </trkpt>
      <trkpt lat="45.30859" lon="5.98738">
        <ele>792.74438476562</ele>
        <time>2011-10-23T07:34:23Z</time>
      </trkpt>
      <trkpt lat="45.30856" lon="5.9872">
        <ele>795.62817382812</ele>
        <time>2011-10-23T07:34:31Z</time>
      </trkpt>
      <trkpt lat="45.30856" lon="5.98716">
        <ele>796.58984375</ele>
        <time>2011-10-23T07:34:33Z</time>
      </trkpt>
      <trkpt lat="45.30856" lon="5.98701">
        <ele>798.51220703125</ele>
        <time>2011-10-23T07:34:40Z</time>
      </trkpt>
      <trkpt lat="45.30857" lon="5.9869">
        <ele>800.43505859375</ele>
        <time>2011-10-23T07:34:45Z</time>
      </trkpt>
      <trkpt lat="45.30859" lon="5.98676">
        <ele>801.876953125</ele>
        <time>2011-10-23T07:34:52Z</time>
      </trkpt>
      <trkpt lat="45.30858" lon="5.9867">
        <ele>802.357421875</ele>
        <time>2011-10-23T07:34:55Z</time>
      </trkpt>
      <trkpt lat="45.30858" lon="5.98649">
        <ele>805.24145507812</ele>
        <time>2011-10-23T07:35:05Z</time>
      </trkpt>
      <trkpt lat="45.30861" lon="5.98632">
        <ele>806.20263671875</ele>
        <time>2011-10-23T07:35:12Z</time>
      </trkpt>
      <trkpt lat="45.30866" lon="5.98613">
        <ele>807.1640625</ele>
        <time>2011-10-23T07:35:20Z</time>
      </trkpt>
      <trkpt lat="45.30872" lon="5.98597">
        <ele>809.08666992188</ele>
        <time>2011-10-23T07:35:26Z</time>
      </trkpt>
      <trkpt lat="45.30884" lon="5.98584">
        <ele>811.00927734375</ele>
        <time>2011-10-23T07:35:32Z</time>
      </trkpt>
      <trkpt lat="45.30896" lon="5.98582">
        <ele>813.89331054688</ele>
        <time>2011-10-23T07:35:36Z</time>
      </trkpt>
      <trkpt lat="45.3091" lon="5.98571">
        <ele>816.29663085938</ele>
        <time>2011-10-23T07:35:41Z</time>
      </trkpt>
      <trkpt lat="45.3091" lon="5.98568">
        <ele>817.73852539062</ele>
        <time>2011-10-23T07:35:42Z</time>
      </trkpt>
      <trkpt lat="45.30915" lon="5.98554">
        <ele>816.77734375</ele>
        <time>2011-10-23T07:35:46Z</time>
      </trkpt>
      <trkpt lat="45.30921" lon="5.98539">
        <ele>822.54516601562</ele>
        <time>2011-10-23T07:35:51Z</time>
      </trkpt>
      <trkpt lat="45.3093" lon="5.98522">
        <ele>822.54516601562</ele>
        <time>2011-10-23T07:35:57Z</time>
      </trkpt>
      <trkpt lat="45.30931" lon="5.98513">
        <ele>823.02587890625</ele>
        <time>2011-10-23T07:36:00Z</time>
      </trkpt>
      <trkpt lat="45.30935" lon="5.98497">
        <ele>825.42895507812</ele>
        <time>2011-10-23T07:36:05Z</time>
      </trkpt>
      <trkpt lat="45.30944" lon="5.98474">
        <ele>824.94848632812</ele>
        <time>2011-10-23T07:36:11Z</time>
      </trkpt>
      <trkpt lat="45.30945" lon="5.98452">
        <ele>819.66137695312</ele>
        <time>2011-10-23T07:36:16Z</time>
      </trkpt>
      <trkpt lat="45.30947" lon="5.98438">
        <ele>819.66137695312</ele>
        <time>2011-10-23T07:36:20Z</time>
      </trkpt>
      <trkpt lat="45.30951" lon="5.98419">
        <ele>821.58374023438</ele>
        <time>2011-10-23T07:36:26Z</time>
      </trkpt>
      <trkpt lat="45.30956" lon="5.98401">
        <ele>822.064453125</ele>
        <time>2011-10-23T07:36:33Z</time>
      </trkpt>
      <trkpt lat="45.30962" lon="5.98391">
        <ele>822.54516601562</ele>
        <time>2011-10-23T07:36:38Z</time>
      </trkpt>
      <trkpt lat="45.30972" lon="5.98385">
        <ele>823.98706054688</ele>
        <time>2011-10-23T07:36:44Z</time>
      </trkpt>
      <trkpt lat="45.30978" lon="5.98376">
        <ele>824.4677734375</ele>
        <time>2011-10-23T07:36:49Z</time>
      </trkpt>
      <trkpt lat="45.3098" lon="5.98362">
        <ele>831.677734375</ele>
        <time>2011-10-23T07:36:55Z</time>
      </trkpt>
      <trkpt lat="45.30977" lon="5.98346">
        <ele>831.197265625</ele>
        <time>2011-10-23T07:37:01Z</time>
      </trkpt>
      <trkpt lat="45.30974" lon="5.98329">
        <ele>831.677734375</ele>
        <time>2011-10-23T07:37:08Z</time>
      </trkpt>
      <trkpt lat="45.30974" lon="5.98314">
        <ele>830.71655273438</ele>
        <time>2011-10-23T07:37:14Z</time>
      </trkpt>
      <trkpt lat="45.30975" lon="5.98296">
        <ele>830.71655273438</ele>
        <time>2011-10-23T07:37:21Z</time>
      </trkpt>
      <trkpt lat="45.30973" lon="5.98277">
        <ele>830.23583984375</ele>
        <time>2011-10-23T07:37:27Z</time>
      </trkpt>
      <trkpt lat="45.3097" lon="5.9826">
        <ele>830.71655273438</ele>
        <time>2011-10-23T07:37:32Z</time>
      </trkpt>
      <trkpt lat="45.30963" lon="5.98245">
        <ele>832.15844726562</ele>
        <time>2011-10-23T07:37:36Z</time>
      </trkpt>
      <trkpt lat="45.30953" lon="5.98209">
        <ele>835.04248046875</ele>
        <time>2011-10-23T07:37:44Z</time>
      </trkpt>
      <trkpt lat="45.30952" lon="5.9818">
        <ele>835.52294921875</ele>
        <time>2011-10-23T07:37:50Z</time>
      </trkpt>
      <trkpt lat="45.30951" lon="5.98157">
        <ele>834.56176757812</ele>
        <time>2011-10-23T07:37:54Z</time>
      </trkpt>
      <trkpt lat="45.30954" lon="5.98124">
        <ele>832.63916015625</ele>
        <time>2011-10-23T07:37:59Z</time>
      </trkpt>
      <trkpt lat="45.30955" lon="5.98117">
        <ele>832.15844726562</ele>
        <time>2011-10-23T07:38:00Z</time>
      </trkpt>
      <trkpt lat="45.30954" lon="5.9809">
        <ele>831.197265625</ele>
        <time>2011-10-23T07:38:04Z</time>
      </trkpt>
      <trkpt lat="45.3096" lon="5.98047">
        <ele>829.75512695312</ele>
        <time>2011-10-23T07:38:10Z</time>
      </trkpt>
      <trkpt lat="45.30965" lon="5.98027">
        <ele>830.23583984375</ele>
        <time>2011-10-23T07:38:13Z</time>
      </trkpt>
      <trkpt lat="45.30977" lon="5.97999">
        <ele>829.75512695312</ele>
        <time>2011-10-23T07:38:19Z</time>
      </trkpt>
      <trkpt lat="45.30988" lon="5.97985">
        <ele>830.23583984375</ele>
        <time>2011-10-23T07:38:26Z</time>
      </trkpt>
      <trkpt lat="45.30994" lon="5.97975">
        <ele>833.60034179688</ele>
        <time>2011-10-23T07:38:31Z</time>
      </trkpt>
      <trkpt lat="45.31007" lon="5.97961">
        <ele>839.3681640625</ele>
        <time>2011-10-23T07:38:38Z</time>
      </trkpt>
      <trkpt lat="45.31021" lon="5.97958">
        <ele>842.73291015625</ele>
        <time>2011-10-23T07:38:43Z</time>
      </trkpt>
      <trkpt lat="45.31033" lon="5.97962">
        <ele>842.73291015625</ele>
        <time>2011-10-23T07:38:47Z</time>
      </trkpt>
      <trkpt lat="45.31049" lon="5.97974">
        <ele>841.771484375</ele>
        <time>2011-10-23T07:38:53Z</time>
      </trkpt>
      <trkpt lat="45.31063" lon="5.97984">
        <ele>844.17504882812</ele>
        <time>2011-10-23T07:38:58Z</time>
      </trkpt>
      <trkpt lat="45.31075" lon="5.97996">
        <ele>845.13623046875</ele>
        <time>2011-10-23T07:39:03Z</time>
      </trkpt>
      <trkpt lat="45.31087" lon="5.98012">
        <ele>847.53955078125</ele>
        <time>2011-10-23T07:39:09Z</time>
      </trkpt>
      <trkpt lat="45.31089" lon="5.98017">
        <ele>848.02026367188</ele>
        <time>2011-10-23T07:39:11Z</time>
      </trkpt>
      <trkpt lat="45.31097" lon="5.98031">
        <ele>851.384765625</ele>
        <time>2011-10-23T07:39:18Z</time>
      </trkpt>
      <trkpt lat="45.31102" lon="5.98039">
        <ele>851.86547851562</ele>
        <time>2011-10-23T07:39:22Z</time>
      </trkpt>
      <trkpt lat="45.31108" lon="5.98048">
        <ele>855.22998046875</ele>
        <time>2011-10-23T07:39:28Z</time>
      </trkpt>
      <trkpt lat="45.31117" lon="5.98057">
        <ele>857.63330078125</ele>
        <time>2011-10-23T07:39:34Z</time>
      </trkpt>
      <trkpt lat="45.31126" lon="5.98066">
        <ele>863.4013671875</ele>
        <time>2011-10-23T07:39:41Z</time>
      </trkpt>
      <trkpt lat="45.31135" lon="5.98077">
        <ele>863.4013671875</ele>
        <time>2011-10-23T07:39:47Z</time>
      </trkpt>
      <trkpt lat="45.31145" lon="5.98089">
        <ele>863.8818359375</ele>
        <time>2011-10-23T07:39:54Z</time>
      </trkpt>
      <trkpt lat="45.31153" lon="5.98101">
        <ele>864.84326171875</ele>
        <time>2011-10-23T07:40:01Z</time>
      </trkpt>
      <trkpt lat="45.31155" lon="5.98102">
        <ele>864.36254882812</ele>
        <time>2011-10-23T07:40:02Z</time>
      </trkpt>
      <trkpt lat="45.31162" lon="5.98112">
        <ele>865.32397460938</ele>
        <time>2011-10-23T07:40:08Z</time>
      </trkpt>
      <trkpt lat="45.31169" lon="5.98121">
        <ele>864.84326171875</ele>
        <time>2011-10-23T07:40:13Z</time>
      </trkpt>
      <trkpt lat="45.31178" lon="5.9813">
        <ele>864.84326171875</ele>
        <time>2011-10-23T07:40:19Z</time>
      </trkpt>
      <trkpt lat="45.31179" lon="5.98131">
        <ele>865.32397460938</ele>
        <time>2011-10-23T07:40:20Z</time>
      </trkpt>
      <trkpt lat="45.31189" lon="5.9814">
        <ele>865.8046875</ele>
        <time>2011-10-23T07:40:26Z</time>
      </trkpt>
      <trkpt lat="45.31199" lon="5.9815">
        <ele>865.8046875</ele>
        <time>2011-10-23T07:40:32Z</time>
      </trkpt>
      <trkpt lat="45.31211" lon="5.98165">
        <ele>865.32397460938</ele>
        <time>2011-10-23T07:40:39Z</time>
      </trkpt>
      <trkpt lat="45.31218" lon="5.98172">
        <ele>865.32397460938</ele>
        <time>2011-10-23T07:40:43Z</time>
      </trkpt>
      <trkpt lat="45.31226" lon="5.98175">
        <ele>868.20776367188</ele>
        <time>2011-10-23T07:40:47Z</time>
      </trkpt>
      <trkpt lat="45.31243" lon="5.98188">
        <ele>868.6884765625</ele>
        <time>2011-10-23T07:40:55Z</time>
      </trkpt>
      <trkpt lat="45.31258" lon="5.98201">
        <ele>871.091796875</ele>
        <time>2011-10-23T07:41:02Z</time>
      </trkpt>
      <trkpt lat="45.31272" lon="5.98216">
        <ele>871.091796875</ele>
        <time>2011-10-23T07:41:09Z</time>
      </trkpt>
      <trkpt lat="45.31279" lon="5.98222">
        <ele>874.45629882812</ele>
        <time>2011-10-23T07:41:14Z</time>
      </trkpt>
      <trkpt lat="45.3129" lon="5.98232">
        <ele>873.01440429688</ele>
        <time>2011-10-23T07:41:20Z</time>
      </trkpt>
      <trkpt lat="45.31305" lon="5.9824">
        <ele>874.93701171875</ele>
        <time>2011-10-23T07:41:26Z</time>
      </trkpt>
      <trkpt lat="45.31323" lon="5.98249">
        <ele>873.4951171875</ele>
        <time>2011-10-23T07:41:31Z</time>
      </trkpt>
      <trkpt lat="45.31341" lon="5.98255">
        <ele>873.9755859375</ele>
        <time>2011-10-23T07:41:35Z</time>
      </trkpt>
      <trkpt lat="45.31353" lon="5.98259">
        <ele>873.4951171875</ele>
        <time>2011-10-23T07:41:38Z</time>
      </trkpt>
      <trkpt lat="45.31371" lon="5.98257">
        <ele>876.37915039062</ele>
        <time>2011-10-23T07:41:44Z</time>
      </trkpt>
      <trkpt lat="45.31386" lon="5.98264">
        <ele>880.705078125</ele>
        <time>2011-10-23T07:41:51Z</time>
      </trkpt>
      <trkpt lat="45.31398" lon="5.98271">
        <ele>880.705078125</ele>
        <time>2011-10-23T07:41:56Z</time>
      </trkpt>
      <trkpt lat="45.31402" lon="5.98271">
        <ele>882.62768554688</ele>
        <time>2011-10-23T07:41:58Z</time>
      </trkpt>
      <trkpt lat="45.3142" lon="5.9828">
        <ele>885.9921875</ele>
        <time>2011-10-23T07:42:06Z</time>
      </trkpt>
      <trkpt lat="45.31437" lon="5.98284">
        <ele>885.9921875</ele>
        <time>2011-10-23T07:42:13Z</time>
      </trkpt>
      <trkpt lat="45.31452" lon="5.98282">
        <ele>888.3955078125</ele>
        <time>2011-10-23T07:42:19Z</time>
      </trkpt>
      <trkpt lat="45.31464" lon="5.98276">
        <ele>890.31811523438</ele>
        <time>2011-10-23T07:42:24Z</time>
      </trkpt>
      <trkpt lat="45.31477" lon="5.98266">
        <ele>893.68286132812</ele>
        <time>2011-10-23T07:42:30Z</time>
      </trkpt>
      <trkpt lat="45.31488" lon="5.98267">
        <ele>891.76000976562</ele>
        <time>2011-10-23T07:42:35Z</time>
      </trkpt>
      <trkpt lat="45.31503" lon="5.98261">
        <ele>890.79858398438</ele>
        <time>2011-10-23T07:42:42Z</time>
      </trkpt>
      <trkpt lat="45.31522" lon="5.9826">
        <ele>889.83740234375</ele>
        <time>2011-10-23T07:42:50Z</time>
      </trkpt>
      <trkpt lat="45.31532" lon="5.98264">
        <ele>889.83740234375</ele>
        <time>2011-10-23T07:42:55Z</time>
      </trkpt>
      <trkpt lat="45.31543" lon="5.98265">
        <ele>887.91479492188</ele>
        <time>2011-10-23T07:43:00Z</time>
      </trkpt>
      <trkpt lat="45.31544" lon="5.98265">
        <ele>887.43408203125</ele>
        <time>2011-10-23T07:43:01Z</time>
      </trkpt>
      <trkpt lat="45.31545" lon="5.98268">
        <ele>885.9921875</ele>
        <time>2011-10-23T07:43:05Z</time>
      </trkpt>
      <trkpt lat="45.31541" lon="5.98271">
        <ele>885.03100585938</ele>
        <time>2011-10-23T07:43:09Z</time>
      </trkpt>
      <trkpt lat="45.3154" lon="5.98276">
        <ele>884.06958007812</ele>
        <time>2011-10-23T07:43:14Z</time>
      </trkpt>
      <trkpt lat="45.31541" lon="5.98282">
        <ele>882.14697265625</ele>
        <time>2011-10-23T07:43:20Z</time>
      </trkpt>
      <trkpt lat="45.3154" lon="5.98287">
        <ele>882.62768554688</ele>
        <time>2011-10-23T07:43:24Z</time>
      </trkpt>
      <trkpt lat="45.31538" lon="5.98289">
        <ele>885.51147460938</ele>
        <time>2011-10-23T07:43:30Z</time>
      </trkpt>
      <trkpt lat="45.31539" lon="5.98285">
        <ele>883.5888671875</ele>
        <time>2011-10-23T07:43:34Z</time>
      </trkpt>
      <trkpt lat="45.31538" lon="5.98279">
        <ele>883.10815429688</ele>
        <time>2011-10-23T07:43:39Z</time>
      </trkpt>
      <trkpt lat="45.31537" lon="5.98277">
        <ele>882.62768554688</ele>
        <time>2011-10-23T07:43:40Z</time>
      </trkpt>
      <trkpt lat="45.31541" lon="5.98264">
        <ele>881.66625976562</ele>
        <time>2011-10-23T07:43:46Z</time>
      </trkpt>
      <trkpt lat="45.31546" lon="5.98264">
        <ele>882.14697265625</ele>
        <time>2011-10-23T07:43:52Z</time>
      </trkpt>
      <trkpt lat="45.31556" lon="5.98264">
        <ele>883.10815429688</ele>
        <time>2011-10-23T07:43:56Z</time>
      </trkpt>
      <trkpt lat="45.31569" lon="5.9827">
        <ele>884.55029296875</ele>
        <time>2011-10-23T07:44:00Z</time>
      </trkpt>
      <trkpt lat="45.31586" lon="5.98279">
        <ele>883.5888671875</ele>
        <time>2011-10-23T07:44:05Z</time>
      </trkpt>
      <trkpt lat="45.31596" lon="5.98287">
        <ele>884.06958007812</ele>
        <time>2011-10-23T07:44:10Z</time>
      </trkpt>
      <trkpt lat="45.31601" lon="5.98296">
        <ele>884.06958007812</ele>
        <time>2011-10-23T07:44:15Z</time>
      </trkpt>
      <trkpt lat="45.31614" lon="5.98308">
        <ele>883.10815429688</ele>
        <time>2011-10-23T07:44:22Z</time>
      </trkpt>
      <trkpt lat="45.31628" lon="5.98316">
        <ele>884.55029296875</ele>
        <time>2011-10-23T07:44:29Z</time>
      </trkpt>
      <trkpt lat="45.31641" lon="5.98318">
        <ele>887.43408203125</ele>
        <time>2011-10-23T07:44:35Z</time>
      </trkpt>
      <trkpt lat="45.31656" lon="5.98323">
        <ele>889.83740234375</ele>
        <time>2011-10-23T07:44:41Z</time>
      </trkpt>
      <trkpt lat="45.31669" lon="5.98333">
        <ele>890.79858398438</ele>
        <time>2011-10-23T07:44:47Z</time>
      </trkpt>
      <trkpt lat="45.31675" lon="5.98335">
        <ele>892.7216796875</ele>
        <time>2011-10-23T07:44:50Z</time>
      </trkpt>
      <trkpt lat="45.3169" lon="5.98347">
        <ele>897.04736328125</ele>
        <time>2011-10-23T07:44:59Z</time>
      </trkpt>
      <trkpt lat="45.31699" lon="5.98356">
        <ele>900.412109375</ele>
        <time>2011-10-23T07:45:06Z</time>
      </trkpt>
      <trkpt lat="45.31702" lon="5.98358">
        <ele>901.85400390625</ele>
        <time>2011-10-23T07:45:08Z</time>
      </trkpt>
      <trkpt lat="45.31707" lon="5.98362">
        <ele>904.25732421875</ele>
        <time>2011-10-23T07:45:12Z</time>
      </trkpt>
      <trkpt lat="45.31715" lon="5.98374">
        <ele>904.73779296875</ele>
        <time>2011-10-23T07:45:19Z</time>
      </trkpt>
      <trkpt lat="45.31717" lon="5.98378">
        <ele>903.77661132812</ele>
        <time>2011-10-23T07:45:21Z</time>
      </trkpt>
      <trkpt lat="45.31728" lon="5.98386">
        <ele>904.73779296875</ele>
        <time>2011-10-23T07:45:28Z</time>
      </trkpt>
      <trkpt lat="45.31738" lon="5.98395">
        <ele>907.14111328125</ele>
        <time>2011-10-23T07:45:36Z</time>
      </trkpt>
      <trkpt lat="45.3175" lon="5.98406">
        <ele>905.21850585938</ele>
        <time>2011-10-23T07:45:41Z</time>
      </trkpt>
      <trkpt lat="45.31767" lon="5.98422">
        <ele>904.73779296875</ele>
        <time>2011-10-23T07:45:46Z</time>
      </trkpt>
      <trkpt lat="45.31782" lon="5.98434">
        <ele>903.2958984375</ele>
        <time>2011-10-23T07:45:50Z</time>
      </trkpt>
      <trkpt lat="45.31792" lon="5.98441">
        <ele>901.37329101562</ele>
        <time>2011-10-23T07:45:52Z</time>
      </trkpt>
      <trkpt lat="45.31805" lon="5.98452">
        <ele>897.52807617188</ele>
        <time>2011-10-23T07:45:55Z</time>
      </trkpt>
      <trkpt lat="45.31823" lon="5.98464">
        <ele>892.24096679688</ele>
        <time>2011-10-23T07:45:59Z</time>
      </trkpt>
      <trkpt lat="45.3186" lon="5.98485">
        <ele>885.51147460938</ele>
        <time>2011-10-23T07:46:04Z</time>
      </trkpt>
      <trkpt lat="45.31889" lon="5.98508">
        <ele>877.82104492188</ele>
        <time>2011-10-23T07:46:08Z</time>
      </trkpt>
      <trkpt lat="45.31903" lon="5.98525">
        <ele>874.45629882812</ele>
        <time>2011-10-23T07:46:11Z</time>
      </trkpt>
      <trkpt lat="45.31904" lon="5.98533">
        <ele>871.091796875</ele>
        <time>2011-10-23T07:46:13Z</time>
      </trkpt>
      <trkpt lat="45.31908" lon="5.98545">
        <ele>869.64990234375</ele>
        <time>2011-10-23T07:46:17Z</time>
      </trkpt>
      <trkpt lat="45.31916" lon="5.98577">
        <ele>864.84326171875</ele>
        <time>2011-10-23T07:46:22Z</time>
      </trkpt>
      <trkpt lat="45.31922" lon="5.98591">
        <ele>864.36254882812</ele>
        <time>2011-10-23T07:46:24Z</time>
      </trkpt>
      <trkpt lat="45.31942" lon="5.98612">
        <ele>862.43994140625</ele>
        <time>2011-10-23T07:46:29Z</time>
      </trkpt>
      <trkpt lat="45.31963" lon="5.98632">
        <ele>860.51733398438</ele>
        <time>2011-10-23T07:46:33Z</time>
      </trkpt>
      <trkpt lat="45.3199" lon="5.98665">
        <ele>855.71069335938</ele>
        <time>2011-10-23T07:46:39Z</time>
      </trkpt>
      <trkpt lat="45.32003" lon="5.98664">
        <ele>855.71069335938</ele>
        <time>2011-10-23T07:46:43Z</time>
      </trkpt>
      <trkpt lat="45.32003" lon="5.98664">
        <ele>856.671875</ele>
        <time>2011-10-23T07:46:44Z</time>
      </trkpt>
      <trkpt lat="45.32018" lon="5.9866">
        <ele>860.998046875</ele>
        <time>2011-10-23T07:46:51Z</time>
      </trkpt>
      <trkpt lat="45.32031" lon="5.9866">
        <ele>858.11401367188</ele>
        <time>2011-10-23T07:46:56Z</time>
      </trkpt>
      <trkpt lat="45.32045" lon="5.98659">
        <ele>857.63330078125</ele>
        <time>2011-10-23T07:47:01Z</time>
      </trkpt>
      <trkpt lat="45.32058" lon="5.98659">
        <ele>856.671875</ele>
        <time>2011-10-23T07:47:05Z</time>
      </trkpt>
      <trkpt lat="45.32074" lon="5.98658">
        <ele>857.63330078125</ele>
        <time>2011-10-23T07:47:09Z</time>
      </trkpt>
      <trkpt lat="45.32098" lon="5.9866">
        <ele>857.15258789062</ele>
        <time>2011-10-23T07:47:15Z</time>
      </trkpt>
      <trkpt lat="45.32115" lon="5.98658">
        <ele>854.26879882812</ele>
        <time>2011-10-23T07:47:20Z</time>
      </trkpt>
      <trkpt lat="45.32136" lon="5.98649">
        <ele>853.7880859375</ele>
        <time>2011-10-23T07:47:25Z</time>
      </trkpt>
      <trkpt lat="45.32146" lon="5.98646">
        <ele>853.7880859375</ele>
        <time>2011-10-23T07:47:27Z</time>
      </trkpt>
      <trkpt lat="45.32179" lon="5.98625">
        <ele>848.9814453125</ele>
        <time>2011-10-23T07:47:33Z</time>
      </trkpt>
      <trkpt lat="45.32204" lon="5.98618">
        <ele>847.05883789062</ele>
        <time>2011-10-23T07:47:38Z</time>
      </trkpt>
      <trkpt lat="45.32209" lon="5.98619">
        <ele>847.05883789062</ele>
        <time>2011-10-23T07:47:39Z</time>
      </trkpt>
      <trkpt lat="45.32225" lon="5.98628">
        <ele>847.53955078125</ele>
        <time>2011-10-23T07:47:44Z</time>
      </trkpt>
      <trkpt lat="45.32228" lon="5.98636">
        <ele>847.05883789062</ele>
        <time>2011-10-23T07:47:48Z</time>
      </trkpt>
      <trkpt lat="45.3224" lon="5.98662">
        <ele>845.61694335938</ele>
        <time>2011-10-23T07:47:53Z</time>
      </trkpt>
      <trkpt lat="45.32248" lon="5.98677">
        <ele>842.25219726562</ele>
        <time>2011-10-23T07:47:55Z</time>
      </trkpt>
      <trkpt lat="45.32255" lon="5.98695">
        <ele>839.84887695312</ele>
        <time>2011-10-23T07:47:57Z</time>
      </trkpt>
      <trkpt lat="45.32261" lon="5.98749">
        <ele>835.04248046875</ele>
        <time>2011-10-23T07:48:02Z</time>
      </trkpt>
      <trkpt lat="45.32262" lon="5.98779">
        <ele>832.63916015625</ele>
        <time>2011-10-23T07:48:05Z</time>
      </trkpt>
      <trkpt lat="45.32263" lon="5.98795">
        <ele>831.677734375</ele>
        <time>2011-10-23T07:48:09Z</time>
      </trkpt>
      <trkpt lat="45.32263" lon="5.98798">
        <ele>831.197265625</ele>
        <time>2011-10-23T07:48:10Z</time>
      </trkpt>
      <trkpt lat="45.32262" lon="5.98804">
        <ele>831.677734375</ele>
        <time>2011-10-23T07:48:12Z</time>
      </trkpt>
      <trkpt lat="45.32266" lon="5.98826">
        <ele>830.23583984375</ele>
        <time>2011-10-23T07:48:18Z</time>
      </trkpt>
      <trkpt lat="45.3227" lon="5.98852">
        <ele>827.83227539062</ele>
        <time>2011-10-23T07:48:23Z</time>
      </trkpt>
      <trkpt lat="45.32273" lon="5.98878">
        <ele>825.42895507812</ele>
        <time>2011-10-23T07:48:27Z</time>
      </trkpt>
      <trkpt lat="45.32273" lon="5.98884">
        <ele>824.94848632812</ele>
        <time>2011-10-23T07:48:28Z</time>
      </trkpt>
      <trkpt lat="45.32271" lon="5.98895">
        <ele>824.94848632812</ele>
        <time>2011-10-23T07:48:30Z</time>
      </trkpt>
      <trkpt lat="45.32273" lon="5.98937">
        <ele>819.1806640625</ele>
        <time>2011-10-23T07:48:36Z</time>
      </trkpt>
      <trkpt lat="45.32272" lon="5.98945">
        <ele>818.21923828125</ele>
        <time>2011-10-23T07:48:37Z</time>
      </trkpt>
      <trkpt lat="45.32274" lon="5.98984">
        <ele>815.33544921875</ele>
        <time>2011-10-23T07:48:41Z</time>
      </trkpt>
      <trkpt lat="45.3227" lon="5.99024">
        <ele>812.93212890625</ele>
        <time>2011-10-23T07:48:46Z</time>
      </trkpt>
      <trkpt lat="45.32265" lon="5.99068">
        <ele>808.60595703125</ele>
        <time>2011-10-23T07:48:52Z</time>
      </trkpt>
      <trkpt lat="45.32265" lon="5.99072">
        <ele>807.1640625</ele>
        <time>2011-10-23T07:48:53Z</time>
      </trkpt>
      <trkpt lat="45.32268" lon="5.9909">
        <ele>806.20263671875</ele>
        <time>2011-10-23T07:48:57Z</time>
      </trkpt>
      <trkpt lat="45.32263" lon="5.99114">
        <ele>808.60595703125</ele>
        <time>2011-10-23T07:49:04Z</time>
      </trkpt>
      <trkpt lat="45.32261" lon="5.99135">
        <ele>805.24145507812</ele>
        <time>2011-10-23T07:49:09Z</time>
      </trkpt>
      <trkpt lat="45.32256" lon="5.9915">
        <ele>800.91552734375</ele>
        <time>2011-10-23T07:49:13Z</time>
      </trkpt>
      <trkpt lat="45.32254" lon="5.99166">
        <ele>798.99291992188</ele>
        <time>2011-10-23T07:49:18Z</time>
      </trkpt>
      <trkpt lat="45.32253" lon="5.99169">
        <ele>798.99291992188</ele>
        <time>2011-10-23T07:49:20Z</time>
      </trkpt>
      <trkpt lat="45.32245" lon="5.99184">
        <ele>799.4736328125</ele>
        <time>2011-10-23T07:49:26Z</time>
      </trkpt>
      <trkpt lat="45.32245" lon="5.99188">
        <ele>799.4736328125</ele>
        <time>2011-10-23T07:49:28Z</time>
      </trkpt>
      <trkpt lat="45.32244" lon="5.99201">
        <ele>802.83813476562</ele>
        <time>2011-10-23T07:49:35Z</time>
      </trkpt>
      <trkpt lat="45.32236" lon="5.99208">
        <ele>808.60595703125</ele>
        <time>2011-10-23T07:49:42Z</time>
      </trkpt>
      <trkpt lat="45.32233" lon="5.99208">
        <ele>808.60595703125</ele>
        <time>2011-10-23T07:49:44Z</time>
      </trkpt>
      <trkpt lat="45.32229" lon="5.99209">
        <ele>810.0478515625</ele>
        <time>2011-10-23T07:49:47Z</time>
      </trkpt>
      <trkpt lat="45.32221" lon="5.99217">
        <ele>812.93212890625</ele>
        <time>2011-10-23T07:49:54Z</time>
      </trkpt>
      <trkpt lat="45.32219" lon="5.99225">
        <ele>817.25805664062</ele>
        <time>2011-10-23T07:50:01Z</time>
      </trkpt>
      <trkpt lat="45.32214" lon="5.99232">
        <ele>817.73852539062</ele>
        <time>2011-10-23T07:50:06Z</time>
      </trkpt>
      <trkpt lat="45.32208" lon="5.99237">
        <ele>817.25805664062</ele>
        <time>2011-10-23T07:50:11Z</time>
      </trkpt>
      <trkpt lat="45.32207" lon="5.99238">
        <ele>816.77734375</ele>
        <time>2011-10-23T07:50:12Z</time>
      </trkpt>
      <trkpt lat="45.322" lon="5.99248">
        <ele>814.3740234375</ele>
        <time>2011-10-23T07:50:19Z</time>
      </trkpt>
      <trkpt lat="45.32195" lon="5.99254">
        <ele>814.3740234375</ele>
        <time>2011-10-23T07:50:24Z</time>
      </trkpt>
      <trkpt lat="45.3219" lon="5.99256">
        <ele>814.3740234375</ele>
        <time>2011-10-23T07:50:29Z</time>
      </trkpt>
      <trkpt lat="45.3219" lon="5.99262">
        <ele>814.85473632812</ele>
        <time>2011-10-23T07:50:35Z</time>
      </trkpt>
      <trkpt lat="45.3219" lon="5.99268">
        <ele>816.29663085938</ele>
        <time>2011-10-23T07:50:42Z</time>
      </trkpt>
      <trkpt lat="45.32191" lon="5.99274">
        <ele>816.29663085938</ele>
        <time>2011-10-23T07:50:49Z</time>
      </trkpt>
      <trkpt lat="45.32191" lon="5.99278">
        <ele>816.77734375</ele>
        <time>2011-10-23T07:50:51Z</time>
      </trkpt>
      <trkpt lat="45.32193" lon="5.99291">
        <ele>815.81616210938</ele>
        <time>2011-10-23T07:50:56Z</time>
      </trkpt>
      <trkpt lat="45.322" lon="5.99305">
        <ele>811.00927734375</ele>
        <time>2011-10-23T07:51:02Z</time>
      </trkpt>
      <trkpt lat="45.32204" lon="5.99318">
        <ele>808.60595703125</ele>
        <time>2011-10-23T07:51:06Z</time>
      </trkpt>
      <trkpt lat="45.32204" lon="5.99327">
        <ele>809.08666992188</ele>
        <time>2011-10-23T07:51:08Z</time>
      </trkpt>
      <trkpt lat="45.32212" lon="5.99339">
        <ele>809.5673828125</ele>
        <time>2011-10-23T07:51:13Z</time>
      </trkpt>
      <trkpt lat="45.32213" lon="5.99345">
        <ele>811.00927734375</ele>
        <time>2011-10-23T07:51:21Z</time>
      </trkpt>
      <trkpt lat="45.32221" lon="5.99353">
        <ele>809.5673828125</ele>
        <time>2011-10-23T07:51:25Z</time>
      </trkpt>
      <trkpt lat="45.3223" lon="5.99374">
        <ele>807.1640625</ele>
        <time>2011-10-23T07:51:29Z</time>
      </trkpt>
      <trkpt lat="45.32235" lon="5.99392">
        <ele>807.64477539062</ele>
        <time>2011-10-23T07:51:33Z</time>
      </trkpt>
      <trkpt lat="45.32236" lon="5.99395">
        <ele>807.64477539062</ele>
        <time>2011-10-23T07:51:34Z</time>
      </trkpt>
      <trkpt lat="45.32229" lon="5.99408">
        <ele>813.89331054688</ele>
        <time>2011-10-23T07:51:39Z</time>
      </trkpt>
      <trkpt lat="45.32223" lon="5.9942">
        <ele>819.66137695312</ele>
        <time>2011-10-23T07:51:44Z</time>
      </trkpt>
      <trkpt lat="45.32234" lon="5.99421">
        <ele>817.73852539062</ele>
        <time>2011-10-23T07:51:49Z</time>
      </trkpt>
      <trkpt lat="45.3224" lon="5.99421">
        <ele>820.14184570312</ele>
        <time>2011-10-23T07:51:55Z</time>
      </trkpt>
      <trkpt lat="45.3225" lon="5.99427">
        <ele>820.62255859375</ele>
        <time>2011-10-23T07:51:59Z</time>
      </trkpt>
      <trkpt lat="45.32258" lon="5.9944">
        <ele>819.1806640625</ele>
        <time>2011-10-23T07:52:04Z</time>
      </trkpt>
      <trkpt lat="45.3226" lon="5.99445">
        <ele>817.73852539062</ele>
        <time>2011-10-23T07:52:06Z</time>
      </trkpt>
      <trkpt lat="45.32272" lon="5.99446">
        <ele>816.77734375</ele>
        <time>2011-10-23T07:52:11Z</time>
      </trkpt>
      <trkpt lat="45.32277" lon="5.99444">
        <ele>820.62255859375</ele>
        <time>2011-10-23T07:52:13Z</time>
      </trkpt>
      <trkpt lat="45.32291" lon="5.99453">
        <ele>819.1806640625</ele>
        <time>2011-10-23T07:52:19Z</time>
      </trkpt>
      <trkpt lat="45.32293" lon="5.99463">
        <ele>815.81616210938</ele>
        <time>2011-10-23T07:52:26Z</time>
      </trkpt>
      <trkpt lat="45.32298" lon="5.99462">
        <ele>816.77734375</ele>
        <time>2011-10-23T07:52:31Z</time>
      </trkpt>
      <trkpt lat="45.32302" lon="5.99462">
        <ele>817.73852539062</ele>
        <time>2011-10-23T07:52:36Z</time>
      </trkpt>
      <trkpt lat="45.3231" lon="5.99465">
        <ele>816.77734375</ele>
        <time>2011-10-23T07:52:41Z</time>
      </trkpt>
      <trkpt lat="45.32315" lon="5.99469">
        <ele>816.29663085938</ele>
        <time>2011-10-23T07:52:46Z</time>
      </trkpt>
      <trkpt lat="45.32315" lon="5.9947">
        <ele>816.29663085938</ele>
        <time>2011-10-23T07:52:47Z</time>
      </trkpt>
      <trkpt lat="45.3232" lon="5.99481">
        <ele>811.00927734375</ele>
        <time>2011-10-23T07:52:53Z</time>
      </trkpt>
      <trkpt lat="45.3232" lon="5.99486">
        <ele>812.93212890625</ele>
        <time>2011-10-23T07:53:00Z</time>
      </trkpt>
      <trkpt lat="45.3233" lon="5.99486">
        <ele>811.48999023438</ele>
        <time>2011-10-23T07:53:06Z</time>
      </trkpt>
      <trkpt lat="45.32335" lon="5.9949">
        <ele>811.48999023438</ele>
        <time>2011-10-23T07:53:12Z</time>
      </trkpt>
      <trkpt lat="45.32337" lon="5.99492">
        <ele>811.00927734375</ele>
        <time>2011-10-23T07:53:13Z</time>
      </trkpt>
      <trkpt lat="45.32354" lon="5.995">
        <ele>812.45141601562</ele>
        <time>2011-10-23T07:53:19Z</time>
      </trkpt>
      <trkpt lat="45.3236" lon="5.99505">
        <ele>811.970703125</ele>
        <time>2011-10-23T07:53:21Z</time>
      </trkpt>
      <trkpt lat="45.3237" lon="5.99523">
        <ele>808.60595703125</ele>
        <time>2011-10-23T07:53:26Z</time>
      </trkpt>
      <trkpt lat="45.32372" lon="5.99526">
        <ele>807.1640625</ele>
        <time>2011-10-23T07:53:27Z</time>
      </trkpt>
      <trkpt lat="45.32373" lon="5.99534">
        <ele>806.20263671875</ele>
        <time>2011-10-23T07:53:31Z</time>
      </trkpt>
      <trkpt lat="45.32372" lon="5.99546">
        <ele>804.7607421875</ele>
        <time>2011-10-23T07:53:37Z</time>
      </trkpt>
      <trkpt lat="45.32376" lon="5.9956">
        <ele>806.68334960938</ele>
        <time>2011-10-23T07:53:43Z</time>
      </trkpt>
      <trkpt lat="45.32376" lon="5.99571">
        <ele>806.68334960938</ele>
        <time>2011-10-23T07:53:48Z</time>
      </trkpt>
      <trkpt lat="45.32376" lon="5.99576">
        <ele>806.20263671875</ele>
        <time>2011-10-23T07:53:50Z</time>
      </trkpt>
      <trkpt lat="45.32378" lon="5.99585">
        <ele>806.20263671875</ele>
        <time>2011-10-23T07:53:56Z</time>
      </trkpt>
      <trkpt lat="45.32379" lon="5.99587">
        <ele>806.68334960938</ele>
        <time>2011-10-23T07:53:57Z</time>
      </trkpt>
      <trkpt lat="45.32383" lon="5.99595">
        <ele>808.12548828125</ele>
        <time>2011-10-23T07:54:02Z</time>
      </trkpt>
      <trkpt lat="45.32384" lon="5.99599">
        <ele>807.1640625</ele>
        <time>2011-10-23T07:54:04Z</time>
      </trkpt>
      <trkpt lat="45.32388" lon="5.9961">
        <ele>808.60595703125</ele>
        <time>2011-10-23T07:54:09Z</time>
      </trkpt>
      <trkpt lat="45.32393" lon="5.99625">
        <ele>810.0478515625</ele>
        <time>2011-10-23T07:54:16Z</time>
      </trkpt>
      <trkpt lat="45.32394" lon="5.99631">
        <ele>812.93212890625</ele>
        <time>2011-10-23T07:54:19Z</time>
      </trkpt>
      <trkpt lat="45.324" lon="5.99647">
        <ele>819.1806640625</ele>
        <time>2011-10-23T07:54:28Z</time>
      </trkpt>
      <trkpt lat="45.32399" lon="5.99651">
        <ele>820.14184570312</ele>
        <time>2011-10-23T07:54:30Z</time>
      </trkpt>
      <trkpt lat="45.32396" lon="5.99664">
        <ele>822.064453125</ele>
        <time>2011-10-23T07:54:38Z</time>
      </trkpt>
      <trkpt lat="45.32395" lon="5.99668">
        <ele>825.42895507812</ele>
        <time>2011-10-23T07:54:42Z</time>
      </trkpt>
      <trkpt lat="45.324" lon="5.99679">
        <ele>825.90966796875</ele>
        <time>2011-10-23T07:54:47Z</time>
      </trkpt>
      <trkpt lat="45.32401" lon="5.99691">
        <ele>824.94848632812</ele>
        <time>2011-10-23T07:54:53Z</time>
      </trkpt>
      <trkpt lat="45.32404" lon="5.99697">
        <ele>823.98706054688</ele>
        <time>2011-10-23T07:54:55Z</time>
      </trkpt>
      <trkpt lat="45.32409" lon="5.9971">
        <ele>821.10327148438</ele>
        <time>2011-10-23T07:55:02Z</time>
      </trkpt>
      <trkpt lat="45.32405" lon="5.9972">
        <ele>820.14184570312</ele>
        <time>2011-10-23T07:55:08Z</time>
      </trkpt>
      <trkpt lat="45.32409" lon="5.99734">
        <ele>819.66137695312</ele>
        <time>2011-10-23T07:55:14Z</time>
      </trkpt>
      <trkpt lat="45.3241" lon="5.99738">
        <ele>818.69995117188</ele>
        <time>2011-10-23T07:55:16Z</time>
      </trkpt>
      <trkpt lat="45.32409" lon="5.99748">
        <ele>820.14184570312</ele>
        <time>2011-10-23T07:55:22Z</time>
      </trkpt>
      <trkpt lat="45.32412" lon="5.99757">
        <ele>819.66137695312</ele>
        <time>2011-10-23T07:55:29Z</time>
      </trkpt>
      <trkpt lat="45.32413" lon="5.99759">
        <ele>820.62255859375</ele>
        <time>2011-10-23T07:55:34Z</time>
      </trkpt>
      <trkpt lat="45.32414" lon="5.99756">
        <ele>821.10327148438</ele>
        <time>2011-10-23T07:55:42Z</time>
      </trkpt>
      <trkpt lat="45.32415" lon="5.99755">
        <ele>822.064453125</ele>
        <time>2011-10-23T07:55:49Z</time>
      </trkpt>
      <trkpt lat="45.32417" lon="5.99753">
        <ele>826.87109375</ele>
        <time>2011-10-23T07:55:54Z</time>
      </trkpt>
      <trkpt lat="45.32418" lon="5.99758">
        <ele>825.42895507812</ele>
        <time>2011-10-23T07:55:59Z</time>
      </trkpt>
      <trkpt lat="45.32419" lon="5.99759">
        <ele>825.42895507812</ele>
        <time>2011-10-23T07:56:00Z</time>
      </trkpt>
      <trkpt lat="45.32426" lon="5.9976">
        <ele>824.94848632812</ele>
        <time>2011-10-23T07:56:04Z</time>
      </trkpt>
      <trkpt lat="45.3243" lon="5.99765">
        <ele>826.87109375</ele>
        <time>2011-10-23T07:56:10Z</time>
      </trkpt>
      <trkpt lat="45.32436" lon="5.99769">
        <ele>826.39038085938</ele>
        <time>2011-10-23T07:56:15Z</time>
      </trkpt>
      <trkpt lat="45.32445" lon="5.99774">
        <ele>827.83227539062</ele>
        <time>2011-10-23T07:56:21Z</time>
      </trkpt>
      <trkpt lat="45.32446" lon="5.99776">
        <ele>827.83227539062</ele>
        <time>2011-10-23T07:56:22Z</time>
      </trkpt>
      <trkpt lat="45.32452" lon="5.99782">
        <ele>827.35180664062</ele>
        <time>2011-10-23T07:56:27Z</time>
      </trkpt>
      <trkpt lat="45.32459" lon="5.99788">
        <ele>829.2744140625</ele>
        <time>2011-10-23T07:56:34Z</time>
      </trkpt>
      <trkpt lat="45.32466" lon="5.99793">
        <ele>833.11962890625</ele>
        <time>2011-10-23T07:56:41Z</time>
      </trkpt>
      <trkpt lat="45.3247" lon="5.99805">
        <ele>833.11962890625</ele>
        <time>2011-10-23T07:56:47Z</time>
      </trkpt>
      <trkpt lat="45.32475" lon="5.99819">
        <ele>830.71655273438</ele>
        <time>2011-10-23T07:56:53Z</time>
      </trkpt>
      <trkpt lat="45.32477" lon="5.99824">
        <ele>829.2744140625</ele>
        <time>2011-10-23T07:56:56Z</time>
      </trkpt>
      <trkpt lat="45.32477" lon="5.99841">
        <ele>827.83227539062</ele>
        <time>2011-10-23T07:57:01Z</time>
      </trkpt>
      <trkpt lat="45.3248" lon="5.99856">
        <ele>827.35180664062</ele>
        <time>2011-10-23T07:57:05Z</time>
      </trkpt>
      <trkpt lat="45.3248" lon="5.9986">
        <ele>827.83227539062</ele>
        <time>2011-10-23T07:57:06Z</time>
      </trkpt>
      <trkpt lat="45.32484" lon="5.99874">
        <ele>827.83227539062</ele>
        <time>2011-10-23T07:57:11Z</time>
      </trkpt>
      <trkpt lat="45.32488" lon="5.9988">
        <ele>827.83227539062</ele>
        <time>2011-10-23T07:57:14Z</time>
      </trkpt>
      <trkpt lat="45.32491" lon="5.99884">
        <ele>830.71655273438</ele>
        <time>2011-10-23T07:57:17Z</time>
      </trkpt>
      <trkpt lat="45.32501" lon="5.99889">
        <ele>836.484375</ele>
        <time>2011-10-23T07:57:24Z</time>
      </trkpt>
      <trkpt lat="45.32508" lon="5.99899">
        <ele>836.96484375</ele>
        <time>2011-10-23T07:57:30Z</time>
      </trkpt>
      <trkpt lat="45.32512" lon="5.99904">
        <ele>837.92626953125</ele>
        <time>2011-10-23T07:57:33Z</time>
      </trkpt>
      <trkpt lat="45.3252" lon="5.99916">
        <ele>841.29077148438</ele>
        <time>2011-10-23T07:57:41Z</time>
      </trkpt>
      <trkpt lat="45.32521" lon="5.9992">
        <ele>841.771484375</ele>
        <time>2011-10-23T07:57:44Z</time>
      </trkpt>
      <trkpt lat="45.32522" lon="5.99933">
        <ele>846.57836914062</ele>
        <time>2011-10-23T07:57:51Z</time>
      </trkpt>
      <trkpt lat="45.32529" lon="5.99947">
        <ele>846.09765625</ele>
        <time>2011-10-23T07:57:59Z</time>
      </trkpt>
      <trkpt lat="45.32533" lon="5.99951">
        <ele>846.09765625</ele>
        <time>2011-10-23T07:58:01Z</time>
      </trkpt>
      <trkpt lat="45.32543" lon="5.99958">
        <ele>849.46215820312</ele>
        <time>2011-10-23T07:58:07Z</time>
      </trkpt>
      <trkpt lat="45.32555" lon="5.99969">
        <ele>851.384765625</ele>
        <time>2011-10-23T07:58:13Z</time>
      </trkpt>
      <trkpt lat="45.32571" lon="5.99975">
        <ele>848.02026367188</ele>
        <time>2011-10-23T07:58:20Z</time>
      </trkpt>
      <trkpt lat="45.32589" lon="5.99978">
        <ele>844.17504882812</ele>
        <time>2011-10-23T07:58:27Z</time>
      </trkpt>
      <trkpt lat="45.32598" lon="5.99982">
        <ele>842.25219726562</ele>
        <time>2011-10-23T07:58:31Z</time>
      </trkpt>
      <trkpt lat="45.32598" lon="5.99983">
        <ele>839.3681640625</ele>
        <time>2011-10-23T07:58:36Z</time>
      </trkpt>
      <trkpt lat="45.32603" lon="5.99987">
        <ele>836.96484375</ele>
        <time>2011-10-23T07:58:44Z</time>
      </trkpt>
      <trkpt lat="45.3261" lon="5.99992">
        <ele>836.00366210938</ele>
        <time>2011-10-23T07:58:49Z</time>
      </trkpt>
      <trkpt lat="45.32615" lon="5.99999">
        <ele>836.96484375</ele>
        <time>2011-10-23T07:58:56Z</time>
      </trkpt>
      <trkpt lat="45.32616" lon="6.00004">
        <ele>838.8876953125</ele>
        <time>2011-10-23T07:59:01Z</time>
      </trkpt>
      <trkpt lat="45.32627" lon="6.00006">
        <ele>853.7880859375</ele>
        <time>2011-10-23T07:59:52Z</time>
      </trkpt>
      <trkpt lat="45.32624" lon="6.00017">
        <ele>852.82666015625</ele>
        <time>2011-10-23T08:00:00Z</time>
      </trkpt>
      <trkpt lat="45.32623" lon="6.00019">
        <ele>852.82666015625</ele>
        <time>2011-10-23T08:00:01Z</time>
      </trkpt>
      <trkpt lat="45.32625" lon="6.00027">
        <ele>851.86547851562</ele>
        <time>2011-10-23T08:00:07Z</time>
      </trkpt>
      <trkpt lat="45.32623" lon="6.0004">
        <ele>852.34594726562</ele>
        <time>2011-10-23T08:00:16Z</time>
      </trkpt>
      <trkpt lat="45.32624" lon="6.00049">
        <ele>852.82666015625</ele>
        <time>2011-10-23T08:00:22Z</time>
      </trkpt>
      <trkpt lat="45.32628" lon="6.00054">
        <ele>853.7880859375</ele>
        <time>2011-10-23T08:00:27Z</time>
      </trkpt>
      <trkpt lat="45.32631" lon="6.00057">
        <ele>853.30737304688</ele>
        <time>2011-10-23T08:00:29Z</time>
      </trkpt>
      <trkpt lat="45.32642" lon="6.00071">
        <ele>855.71069335938</ele>
        <time>2011-10-23T08:00:37Z</time>
      </trkpt>
      <trkpt lat="45.32654" lon="6.00088">
        <ele>859.0751953125</ele>
        <time>2011-10-23T08:00:46Z</time>
      </trkpt>
      <trkpt lat="45.32664" lon="6.001">
        <ele>860.51733398438</ele>
        <time>2011-10-23T08:00:53Z</time>
      </trkpt>
      <trkpt lat="45.32667" lon="6.00101">
        <ele>860.51733398438</ele>
        <time>2011-10-23T08:00:54Z</time>
      </trkpt>
      <trkpt lat="45.32684" lon="6.00122">
        <ele>860.51733398438</ele>
        <time>2011-10-23T08:01:01Z</time>
      </trkpt>
      <trkpt lat="45.32695" lon="6.00132">
        <ele>860.51733398438</ele>
        <time>2011-10-23T08:01:06Z</time>
      </trkpt>
      <trkpt lat="45.32712" lon="6.00143">
        <ele>860.998046875</ele>
        <time>2011-10-23T08:01:14Z</time>
      </trkpt>
      <trkpt lat="45.3273" lon="6.00155">
        <ele>863.8818359375</ele>
        <time>2011-10-23T08:01:23Z</time>
      </trkpt>
      <trkpt lat="45.32735" lon="6.00164">
        <ele>862.92065429688</ele>
        <time>2011-10-23T08:01:27Z</time>
      </trkpt>
      <trkpt lat="45.32746" lon="6.00175">
        <ele>863.4013671875</ele>
        <time>2011-10-23T08:01:34Z</time>
      </trkpt>
      <trkpt lat="45.32758" lon="6.00182">
        <ele>864.84326171875</ele>
        <time>2011-10-23T08:01:41Z</time>
      </trkpt>
      <trkpt lat="45.32772" lon="6.00185">
        <ele>865.8046875</ele>
        <time>2011-10-23T08:01:48Z</time>
      </trkpt>
      <trkpt lat="45.32781" lon="6.00188">
        <ele>866.76586914062</ele>
        <time>2011-10-23T08:01:53Z</time>
      </trkpt>
      <trkpt lat="45.3279" lon="6.00189">
        <ele>867.72705078125</ele>
        <time>2011-10-23T08:01:57Z</time>
      </trkpt>
      <trkpt lat="45.32806" lon="6.00193">
        <ele>868.20776367188</ele>
        <time>2011-10-23T08:02:04Z</time>
      </trkpt>
      <trkpt lat="45.32822" lon="6.00198">
        <ele>869.64990234375</ele>
        <time>2011-10-23T08:02:11Z</time>
      </trkpt>
      <trkpt lat="45.32833" lon="6.00205">
        <ele>871.091796875</ele>
        <time>2011-10-23T08:02:16Z</time>
      </trkpt>
      <trkpt lat="45.32848" lon="6.00225">
        <ele>873.01440429688</ele>
        <time>2011-10-23T08:02:24Z</time>
      </trkpt>
      <trkpt lat="45.32861" lon="6.00235">
        <ele>875.89819335938</ele>
        <time>2011-10-23T08:02:31Z</time>
      </trkpt>
      <trkpt lat="45.32871" lon="6.00241">
        <ele>879.74365234375</ele>
        <time>2011-10-23T08:02:37Z</time>
      </trkpt>
      <trkpt lat="45.32882" lon="6.00251">
        <ele>880.22436523438</ele>
        <time>2011-10-23T08:02:43Z</time>
      </trkpt>
      <trkpt lat="45.32889" lon="6.00267">
        <ele>883.10815429688</ele>
        <time>2011-10-23T08:02:50Z</time>
      </trkpt>
      <trkpt lat="45.32893" lon="6.00282">
        <ele>885.03100585938</ele>
        <time>2011-10-23T08:02:56Z</time>
      </trkpt>
      <trkpt lat="45.32897" lon="6.00292">
        <ele>885.03100585938</ele>
        <time>2011-10-23T08:03:00Z</time>
      </trkpt>
      <trkpt lat="45.32905" lon="6.00298">
        <ele>889.83740234375</ele>
        <time>2011-10-23T08:03:05Z</time>
      </trkpt>
      <trkpt lat="45.3292" lon="6.00296">
        <ele>898.4892578125</ele>
        <time>2011-10-23T08:03:12Z</time>
      </trkpt>
      <trkpt lat="45.32933" lon="6.00288">
        <ele>909.06396484375</ele>
        <time>2011-10-23T08:03:18Z</time>
      </trkpt>
      <trkpt lat="45.32943" lon="6.00293">
        <ele>905.69921875</ele>
        <time>2011-10-23T08:03:24Z</time>
      </trkpt>
      <trkpt lat="45.32956" lon="6.00294">
        <ele>907.14111328125</ele>
        <time>2011-10-23T08:03:30Z</time>
      </trkpt>
      <trkpt lat="45.32966" lon="6.00294">
        <ele>909.06396484375</ele>
        <time>2011-10-23T08:03:35Z</time>
      </trkpt>
      <trkpt lat="45.32973" lon="6.00297">
        <ele>905.69921875</ele>
        <time>2011-10-23T08:03:39Z</time>
      </trkpt>
      <trkpt lat="45.3298" lon="6.00295">
        <ele>903.2958984375</ele>
        <time>2011-10-23T08:03:43Z</time>
      </trkpt>
      <trkpt lat="45.32985" lon="6.0029">
        <ele>899.45068359375</ele>
        <time>2011-10-23T08:03:47Z</time>
      </trkpt>
      <trkpt lat="45.3299" lon="6.00277">
        <ele>892.24096679688</ele>
        <time>2011-10-23T08:03:54Z</time>
      </trkpt>
      <trkpt lat="45.32992" lon="6.00269">
        <ele>891.76000976562</ele>
        <time>2011-10-23T08:03:57Z</time>
      </trkpt>
      <trkpt lat="45.33003" lon="6.00257">
        <ele>891.279296875</ele>
        <time>2011-10-23T08:04:05Z</time>
      </trkpt>
      <trkpt lat="45.33014" lon="6.0025">
        <ele>892.7216796875</ele>
        <time>2011-10-23T08:04:11Z</time>
      </trkpt>
      <trkpt lat="45.33021" lon="6.00246">
        <ele>893.68286132812</ele>
        <time>2011-10-23T08:04:16Z</time>
      </trkpt>
      <trkpt lat="45.33025" lon="6.00245">
        <ele>895.12475585938</ele>
        <time>2011-10-23T08:04:18Z</time>
      </trkpt>
      <trkpt lat="45.33033" lon="6.00239">
        <ele>895.60546875</ele>
        <time>2011-10-23T08:04:23Z</time>
      </trkpt>
      <trkpt lat="45.33046" lon="6.00226">
        <ele>899.45068359375</ele>
        <time>2011-10-23T08:04:30Z</time>
      </trkpt>
      <trkpt lat="45.33053" lon="6.00207">
        <ele>900.892578125</ele>
        <time>2011-10-23T08:04:37Z</time>
      </trkpt>
      <trkpt lat="45.33063" lon="6.00194">
        <ele>899.45068359375</ele>
        <time>2011-10-23T08:04:45Z</time>
      </trkpt>
      <trkpt lat="45.33075" lon="6.0018">
        <ele>900.412109375</ele>
        <time>2011-10-23T08:04:53Z</time>
      </trkpt>
      <trkpt lat="45.33091" lon="6.00165">
        <ele>898.96997070312</ele>
        <time>2011-10-23T08:05:03Z</time>
      </trkpt>
      <trkpt lat="45.33103" lon="6.00154">
        <ele>899.45068359375</ele>
        <time>2011-10-23T08:05:11Z</time>
      </trkpt>
      <trkpt lat="45.33115" lon="6.00142">
        <ele>900.412109375</ele>
        <time>2011-10-23T08:05:19Z</time>
      </trkpt>
      <trkpt lat="45.33127" lon="6.0013">
        <ele>902.81518554688</ele>
        <time>2011-10-23T08:05:26Z</time>
      </trkpt>
      <trkpt lat="45.33136" lon="6.00119">
        <ele>904.73779296875</ele>
        <time>2011-10-23T08:05:32Z</time>
      </trkpt>
      <trkpt lat="45.3315" lon="6.00102">
        <ele>908.10278320312</ele>
        <time>2011-10-23T08:05:41Z</time>
      </trkpt>
      <trkpt lat="45.33164" lon="6.00091">
        <ele>910.505859375</ele>
        <time>2011-10-23T08:05:48Z</time>
      </trkpt>
      <trkpt lat="45.33174" lon="6.00086">
        <ele>910.505859375</ele>
        <time>2011-10-23T08:05:53Z</time>
      </trkpt>
      <trkpt lat="45.33194" lon="6.00079">
        <ele>909.54467773438</ele>
        <time>2011-10-23T08:06:02Z</time>
      </trkpt>
      <trkpt lat="45.33211" lon="6.00071">
        <ele>910.98657226562</ele>
        <time>2011-10-23T08:06:11Z</time>
      </trkpt>
      <trkpt lat="45.33224" lon="6.00059">
        <ele>912.42846679688</ele>
        <time>2011-10-23T08:06:19Z</time>
      </trkpt>
      <trkpt lat="45.33237" lon="6.00042">
        <ele>913.87036132812</ele>
        <time>2011-10-23T08:06:27Z</time>
      </trkpt>
      <trkpt lat="45.33252" lon="6.00023">
        <ele>916.75439453125</ele>
        <time>2011-10-23T08:06:36Z</time>
      </trkpt>
      <trkpt lat="45.33265" lon="6.00006">
        <ele>916.75439453125</ele>
        <time>2011-10-23T08:06:44Z</time>
      </trkpt>
      <trkpt lat="45.33277" lon="5.99989">
        <ele>917.71557617188</ele>
        <time>2011-10-23T08:06:52Z</time>
      </trkpt>
      <trkpt lat="45.3329" lon="5.99975">
        <ele>919.63842773438</ele>
        <time>2011-10-23T08:07:00Z</time>
      </trkpt>
      <trkpt lat="45.33302" lon="5.99974">
        <ele>921.08032226562</ele>
        <time>2011-10-23T08:07:06Z</time>
      </trkpt>
      <trkpt lat="45.33312" lon="5.99987">
        <ele>922.04150390625</ele>
        <time>2011-10-23T08:07:13Z</time>
      </trkpt>
      <trkpt lat="45.33318" lon="6.00004">
        <ele>924.92578125</ele>
        <time>2011-10-23T08:07:21Z</time>
      </trkpt>
      <trkpt lat="45.33318" lon="6.00021">
        <ele>926.84838867188</ele>
        <time>2011-10-23T08:07:28Z</time>
      </trkpt>
      <trkpt lat="45.33318" lon="6.00024">
        <ele>927.3291015625</ele>
        <time>2011-10-23T08:07:29Z</time>
      </trkpt>
      <trkpt lat="45.3332" lon="6.00033">
        <ele>927.8095703125</ele>
        <time>2011-10-23T08:07:34Z</time>
      </trkpt>
      <trkpt lat="45.33322" lon="6.0005">
        <ele>931.17431640625</ele>
        <time>2011-10-23T08:07:42Z</time>
      </trkpt>
      <trkpt lat="45.33324" lon="6.00066">
        <ele>933.57739257812</ele>
        <time>2011-10-23T08:07:50Z</time>
      </trkpt>
      <trkpt lat="45.33325" lon="6.00083">
        <ele>935.5</ele>
        <time>2011-10-23T08:07:58Z</time>
      </trkpt>
      <trkpt lat="45.33328" lon="6.00097">
        <ele>937.42260742188</ele>
        <time>2011-10-23T08:08:06Z</time>
      </trkpt>
      <trkpt lat="45.3333" lon="6.0011">
        <ele>938.38403320312</ele>
        <time>2011-10-23T08:08:13Z</time>
      </trkpt>
      <trkpt lat="45.33329" lon="6.00116">
        <ele>939.34521484375</ele>
        <time>2011-10-23T08:08:16Z</time>
      </trkpt>
      <trkpt lat="45.33321" lon="6.0012">
        <ele>939.82592773438</ele>
        <time>2011-10-23T08:08:22Z</time>
      </trkpt>
      <trkpt lat="45.33313" lon="6.00116">
        <ele>939.82592773438</ele>
        <time>2011-10-23T08:08:28Z</time>
      </trkpt>
      <trkpt lat="45.33305" lon="6.00113">
        <ele>941.26806640625</ele>
        <time>2011-10-23T08:08:34Z</time>
      </trkpt>
      <trkpt lat="45.333" lon="6.00113">
        <ele>942.2294921875</ele>
        <time>2011-10-23T08:08:37Z</time>
      </trkpt>
      <trkpt lat="45.33287" lon="6.00116">
        <ele>944.63256835938</ele>
        <time>2011-10-23T08:08:47Z</time>
      </trkpt>
      <trkpt lat="45.33277" lon="6.00123">
        <ele>945.11328125</ele>
        <time>2011-10-23T08:08:55Z</time>
      </trkpt>
      <trkpt lat="45.33269" lon="6.0013">
        <ele>946.07470703125</ele>
        <time>2011-10-23T08:09:01Z</time>
      </trkpt>
      <trkpt lat="45.33259" lon="6.00137">
        <ele>950.88110351562</ele>
        <time>2011-10-23T08:09:08Z</time>
      </trkpt>
      <trkpt lat="45.33249" lon="6.00145">
        <ele>957.1298828125</ele>
        <time>2011-10-23T08:09:16Z</time>
      </trkpt>
      <trkpt lat="45.33238" lon="6.00159">
        <ele>959.05249023438</ele>
        <time>2011-10-23T08:09:24Z</time>
      </trkpt>
      <trkpt lat="45.33231" lon="6.00172">
        <ele>962.89770507812</ele>
        <time>2011-10-23T08:09:31Z</time>
      </trkpt>
      <trkpt lat="45.33224" lon="6.00185">
        <ele>966.26220703125</ele>
        <time>2011-10-23T08:09:39Z</time>
      </trkpt>
      <trkpt lat="45.33217" lon="6.00199">
        <ele>969.14624023438</ele>
        <time>2011-10-23T08:09:47Z</time>
      </trkpt>
      <trkpt lat="45.3321" lon="6.00211">
        <ele>969.14624023438</ele>
        <time>2011-10-23T08:09:54Z</time>
      </trkpt>
      <trkpt lat="45.33205" lon="6.00222">
        <ele>973.95288085938</ele>
        <time>2011-10-23T08:10:01Z</time>
      </trkpt>
      <trkpt lat="45.33204" lon="6.00224">
        <ele>973.95288085938</ele>
        <time>2011-10-23T08:10:02Z</time>
      </trkpt>
      <trkpt lat="45.33202" lon="6.0023">
        <ele>975.87548828125</ele>
        <time>2011-10-23T08:10:06Z</time>
      </trkpt>
      <trkpt lat="45.33196" lon="6.00243">
        <ele>977.79809570312</ele>
        <time>2011-10-23T08:10:13Z</time>
      </trkpt>
      <trkpt lat="45.33193" lon="6.00252">
        <ele>978.27880859375</ele>
        <time>2011-10-23T08:10:17Z</time>
      </trkpt>
      <trkpt lat="45.33186" lon="6.00264">
        <ele>978.27880859375</ele>
        <time>2011-10-23T08:10:24Z</time>
      </trkpt>
      <trkpt lat="45.33184" lon="6.00267">
        <ele>980.20141601562</ele>
        <time>2011-10-23T08:10:27Z</time>
      </trkpt>
      <trkpt lat="45.33177" lon="6.00281">
        <ele>984.04663085938</ele>
        <time>2011-10-23T08:10:36Z</time>
      </trkpt>
      <trkpt lat="45.33171" lon="6.00295">
        <ele>985.96923828125</ele>
        <time>2011-10-23T08:10:44Z</time>
      </trkpt>
      <trkpt lat="45.33166" lon="6.00308">
        <ele>988.853515625</ele>
        <time>2011-10-23T08:10:51Z</time>
      </trkpt>
      <trkpt lat="45.33164" lon="6.00318">
        <ele>987.4111328125</ele>
        <time>2011-10-23T08:10:55Z</time>
      </trkpt>
      <trkpt lat="45.3316" lon="6.00334">
        <ele>991.7373046875</ele>
        <time>2011-10-23T08:11:04Z</time>
      </trkpt>
      <trkpt lat="45.33157" lon="6.00346">
        <ele>993.65991210938</ele>
        <time>2011-10-23T08:11:10Z</time>
      </trkpt>
      <trkpt lat="45.33151" lon="6.0036">
        <ele>997.50512695312</ele>
        <time>2011-10-23T08:11:18Z</time>
      </trkpt>
      <trkpt lat="45.33144" lon="6.00367">
        <ele>1002.7922363281</ele>
        <time>2011-10-23T08:11:25Z</time>
      </trkpt>
      <trkpt lat="45.33135" lon="6.00383">
        <ele>1002.7922363281</ele>
        <time>2011-10-23T08:11:34Z</time>
      </trkpt>
      <trkpt lat="45.33128" lon="6.00401">
        <ele>1000.3891601562</ele>
        <time>2011-10-23T08:11:42Z</time>
      </trkpt>
      <trkpt lat="45.33121" lon="6.00417">
        <ele>994.140625</ele>
        <time>2011-10-23T08:11:48Z</time>
      </trkpt>
      <trkpt lat="45.33115" lon="6.00431">
        <ele>991.25659179688</ele>
        <time>2011-10-23T08:11:54Z</time>
      </trkpt>
      <trkpt lat="45.3311" lon="6.00439">
        <ele>995.10180664062</ele>
        <time>2011-10-23T08:12:00Z</time>
      </trkpt>
      <trkpt lat="45.33104" lon="6.00454">
        <ele>992.21801757812</ele>
        <time>2011-10-23T08:12:07Z</time>
      </trkpt>
      <trkpt lat="45.33097" lon="6.00467">
        <ele>991.25659179688</ele>
        <time>2011-10-23T08:12:14Z</time>
      </trkpt>
      <trkpt lat="45.33089" lon="6.00484">
        <ele>990.29541015625</ele>
        <time>2011-10-23T08:12:23Z</time>
      </trkpt>
      <trkpt lat="45.33083" lon="6.00496">
        <ele>992.21801757812</ele>
        <time>2011-10-23T08:12:30Z</time>
      </trkpt>
      <trkpt lat="45.33076" lon="6.00511">
        <ele>994.62109375</ele>
        <time>2011-10-23T08:12:38Z</time>
      </trkpt>
      <trkpt lat="45.3307" lon="6.00524">
        <ele>995.10180664062</ele>
        <time>2011-10-23T08:12:45Z</time>
      </trkpt>
      <trkpt lat="45.33062" lon="6.00536">
        <ele>997.98583984375</ele>
        <time>2011-10-23T08:12:53Z</time>
      </trkpt>
      <trkpt lat="45.33053" lon="6.00545">
        <ele>1000.8696289062</ele>
        <time>2011-10-23T08:13:00Z</time>
      </trkpt>
      <trkpt lat="45.33043" lon="6.00558">
        <ele>1000.8696289062</ele>
        <time>2011-10-23T08:13:07Z</time>
      </trkpt>
      <trkpt lat="45.33027" lon="6.00572">
        <ele>998.94702148438</ele>
        <time>2011-10-23T08:13:16Z</time>
      </trkpt>
      <trkpt lat="45.33017" lon="6.00578">
        <ele>998.46630859375</ele>
        <time>2011-10-23T08:13:22Z</time>
      </trkpt>
      <trkpt lat="45.33006" lon="6.00581">
        <ele>998.94702148438</ele>
        <time>2011-10-23T08:13:28Z</time>
      </trkpt>
      <trkpt lat="45.32998" lon="6.00581">
        <ele>1006.6376953125</ele>
        <time>2011-10-23T08:13:34Z</time>
      </trkpt>
      <trkpt lat="45.32993" lon="6.00587">
        <ele>1008.5603027344</ele>
        <time>2011-10-23T08:13:38Z</time>
      </trkpt>
      <trkpt lat="45.32986" lon="6.00597">
        <ele>1014.328125</ele>
        <time>2011-10-23T08:13:44Z</time>
      </trkpt>
      <trkpt lat="45.32976" lon="6.00612">
        <ele>1011.9250488281</ele>
        <time>2011-10-23T08:13:50Z</time>
      </trkpt>
      <trkpt lat="45.32963" lon="6.00619">
        <ele>1011.9250488281</ele>
        <time>2011-10-23T08:13:56Z</time>
      </trkpt>
      <trkpt lat="45.32949" lon="6.00614">
        <ele>1021.0576171875</ele>
        <time>2011-10-23T08:14:04Z</time>
      </trkpt>
      <trkpt lat="45.32935" lon="6.00618">
        <ele>1022.4995117188</ele>
        <time>2011-10-23T08:14:11Z</time>
      </trkpt>
      <trkpt lat="45.32924" lon="6.00618">
        <ele>1027.7866210938</ele>
        <time>2011-10-23T08:14:18Z</time>
      </trkpt>
      <trkpt lat="45.32914" lon="6.00617">
        <ele>1031.6318359375</ele>
        <time>2011-10-23T08:14:25Z</time>
      </trkpt>
      <trkpt lat="45.32899" lon="6.00622">
        <ele>1026.3447265625</ele>
        <time>2011-10-23T08:14:33Z</time>
      </trkpt>
      <trkpt lat="45.32885" lon="6.00627">
        <ele>1027.3061523438</ele>
        <time>2011-10-23T08:14:40Z</time>
      </trkpt>
      <trkpt lat="45.3288" lon="6.00625">
        <ele>1027.3061523438</ele>
        <time>2011-10-23T08:14:44Z</time>
      </trkpt>
      <trkpt lat="45.32873" lon="6.00627">
        <ele>1025.8640136719</ele>
        <time>2011-10-23T08:14:48Z</time>
      </trkpt>
      <trkpt lat="45.32864" lon="6.0063">
        <ele>1024.4221191406</ele>
        <time>2011-10-23T08:14:53Z</time>
      </trkpt>
      <trkpt lat="45.32855" lon="6.0063">
        <ele>1026.8254394531</ele>
        <time>2011-10-23T08:14:59Z</time>
      </trkpt>
      <trkpt lat="45.32846" lon="6.00627">
        <ele>1029.228515625</ele>
        <time>2011-10-23T08:15:05Z</time>
      </trkpt>
      <trkpt lat="45.32833" lon="6.00624">
        <ele>1028.748046875</ele>
        <time>2011-10-23T08:15:13Z</time>
      </trkpt>
      <trkpt lat="45.32817" lon="6.00622">
        <ele>1028.2673339844</ele>
        <time>2011-10-23T08:15:22Z</time>
      </trkpt>
      <trkpt lat="45.32804" lon="6.00617">
        <ele>1034.03515625</ele>
        <time>2011-10-23T08:15:29Z</time>
      </trkpt>
      <trkpt lat="45.32791" lon="6.00618">
        <ele>1033.0737304688</ele>
        <time>2011-10-23T08:15:35Z</time>
      </trkpt>
      <trkpt lat="45.32779" lon="6.00616">
        <ele>1031.1513671875</ele>
        <time>2011-10-23T08:15:42Z</time>
      </trkpt>
      <trkpt lat="45.32766" lon="6.00611">
        <ele>1031.1513671875</ele>
        <time>2011-10-23T08:15:49Z</time>
      </trkpt>
      <trkpt lat="45.32757" lon="6.006">
        <ele>1040.2839355469</ele>
        <time>2011-10-23T08:15:56Z</time>
      </trkpt>
      <trkpt lat="45.32746" lon="6.0059">
        <ele>1046.5324707031</ele>
        <time>2011-10-23T08:16:04Z</time>
      </trkpt>
      <trkpt lat="45.32734" lon="6.00582">
        <ele>1048.935546875</ele>
        <time>2011-10-23T08:16:12Z</time>
      </trkpt>
      <trkpt lat="45.32721" lon="6.0058">
        <ele>1045.0903320312</ele>
        <time>2011-10-23T08:16:20Z</time>
      </trkpt>
      <trkpt lat="45.3271" lon="6.00576">
        <ele>1044.1291503906</ele>
        <time>2011-10-23T08:16:27Z</time>
      </trkpt>
      <trkpt lat="45.32698" lon="6.00576">
        <ele>1041.2451171875</ele>
        <time>2011-10-23T08:16:34Z</time>
      </trkpt>
      <trkpt lat="45.32688" lon="6.00575">
        <ele>1043.6484375</ele>
        <time>2011-10-23T08:16:40Z</time>
      </trkpt>
      <trkpt lat="45.32676" lon="6.00573">
        <ele>1045.0903320312</ele>
        <time>2011-10-23T08:16:47Z</time>
      </trkpt>
      <trkpt lat="45.32666" lon="6.00571">
        <ele>1048.4548339844</ele>
        <time>2011-10-23T08:16:54Z</time>
      </trkpt>
      <trkpt lat="45.3266" lon="6.00567">
        <ele>1051.3388671875</ele>
        <time>2011-10-23T08:16:58Z</time>
      </trkpt>
      <trkpt lat="45.32647" lon="6.00564">
        <ele>1053.26171875</ele>
        <time>2011-10-23T08:17:06Z</time>
      </trkpt>
      <trkpt lat="45.32639" lon="6.00562">
        <ele>1055.6650390625</ele>
        <time>2011-10-23T08:17:12Z</time>
      </trkpt>
      <trkpt lat="45.3263" lon="6.00561">
        <ele>1058.068359375</ele>
        <time>2011-10-23T08:17:18Z</time>
      </trkpt>
      <trkpt lat="45.3262" lon="6.00559">
        <ele>1060.9521484375</ele>
        <time>2011-10-23T08:17:24Z</time>
      </trkpt>
      <trkpt lat="45.32608" lon="6.00563">
        <ele>1057.1069335938</ele>
        <time>2011-10-23T08:17:31Z</time>
      </trkpt>
      <trkpt lat="45.32596" lon="6.00563">
        <ele>1055.1843261719</ele>
        <time>2011-10-23T08:17:38Z</time>
      </trkpt>
      <trkpt lat="45.32585" lon="6.0056">
        <ele>1056.1455078125</ele>
        <time>2011-10-23T08:17:45Z</time>
      </trkpt>
      <trkpt lat="45.32574" lon="6.00559">
        <ele>1057.1069335938</ele>
        <time>2011-10-23T08:17:52Z</time>
      </trkpt>
      <trkpt lat="45.32563" lon="6.00557">
        <ele>1060.9521484375</ele>
        <time>2011-10-23T08:17:59Z</time>
      </trkpt>
      <trkpt lat="45.32552" lon="6.00556">
        <ele>1061.9135742188</ele>
        <time>2011-10-23T08:18:06Z</time>
      </trkpt>
      <trkpt lat="45.32543" lon="6.00555">
        <ele>1062.3940429688</ele>
        <time>2011-10-23T08:18:12Z</time>
      </trkpt>
      <trkpt lat="45.3254" lon="6.00554">
        <ele>1064.3166503906</ele>
        <time>2011-10-23T08:18:14Z</time>
      </trkpt>
      <trkpt lat="45.32529" lon="6.00549">
        <ele>1069.6042480469</ele>
        <time>2011-10-23T08:18:21Z</time>
      </trkpt>
      <trkpt lat="45.32517" lon="6.00546">
        <ele>1073.4494628906</ele>
        <time>2011-10-23T08:18:28Z</time>
      </trkpt>
      <trkpt lat="45.32507" lon="6.00545">
        <ele>1072.96875</ele>
        <time>2011-10-23T08:18:34Z</time>
      </trkpt>
      <trkpt lat="45.32494" lon="6.00544">
        <ele>1072.4880371094</ele>
        <time>2011-10-23T08:18:41Z</time>
      </trkpt>
      <trkpt lat="45.32484" lon="6.0054">
        <ele>1071.5266113281</ele>
        <time>2011-10-23T08:18:47Z</time>
      </trkpt>
      <trkpt lat="45.32474" lon="6.00536">
        <ele>1073.4494628906</ele>
        <time>2011-10-23T08:18:54Z</time>
      </trkpt>
      <trkpt lat="45.32462" lon="6.0053">
        <ele>1073.4494628906</ele>
        <time>2011-10-23T08:19:02Z</time>
      </trkpt>
      <trkpt lat="45.3245" lon="6.00525">
        <ele>1072.0073242188</ele>
        <time>2011-10-23T08:19:09Z</time>
      </trkpt>
      <trkpt lat="45.32448" lon="6.00525">
        <ele>1072.4880371094</ele>
        <time>2011-10-23T08:19:10Z</time>
      </trkpt>
      <trkpt lat="45.32436" lon="6.00533">
        <ele>1069.6042480469</ele>
        <time>2011-10-23T08:19:16Z</time>
      </trkpt>
      <trkpt lat="45.32434" lon="6.00546">
        <ele>1068.162109375</ele>
        <time>2011-10-23T08:19:20Z</time>
      </trkpt>
      <trkpt lat="45.32447" lon="6.00557">
        <ele>1070.5654296875</ele>
        <time>2011-10-23T08:19:28Z</time>
      </trkpt>
      <trkpt lat="45.32457" lon="6.00565">
        <ele>1071.0461425781</ele>
        <time>2011-10-23T08:19:34Z</time>
      </trkpt>
      <trkpt lat="45.32472" lon="6.00577">
        <ele>1072.0073242188</ele>
        <time>2011-10-23T08:19:42Z</time>
      </trkpt>
      <trkpt lat="45.32486" lon="6.00591">
        <ele>1072.4880371094</ele>
        <time>2011-10-23T08:19:50Z</time>
      </trkpt>
      <trkpt lat="45.32496" lon="6.00603">
        <ele>1072.96875</ele>
        <time>2011-10-23T08:19:56Z</time>
      </trkpt>
      <trkpt lat="45.32506" lon="6.00617">
        <ele>1072.96875</ele>
        <time>2011-10-23T08:20:04Z</time>
      </trkpt>
      <trkpt lat="45.32515" lon="6.00627">
        <ele>1073.9299316406</ele>
        <time>2011-10-23T08:20:10Z</time>
      </trkpt>
      <trkpt lat="45.32527" lon="6.0064">
        <ele>1074.8913574219</ele>
        <time>2011-10-23T08:20:17Z</time>
      </trkpt>
      <trkpt lat="45.32537" lon="6.00655">
        <ele>1078.7365722656</ele>
        <time>2011-10-23T08:20:25Z</time>
      </trkpt>
      <trkpt lat="45.32548" lon="6.00667">
        <ele>1081.6203613281</ele>
        <time>2011-10-23T08:20:33Z</time>
      </trkpt>
      <trkpt lat="45.3256" lon="6.00673">
        <ele>1084.9853515625</ele>
        <time>2011-10-23T08:20:41Z</time>
      </trkpt>
      <trkpt lat="45.32569" lon="6.00678">
        <ele>1087.3884277344</ele>
        <time>2011-10-23T08:20:48Z</time>
      </trkpt>
      <trkpt lat="45.32578" lon="6.00682">
        <ele>1089.3110351562</ele>
        <time>2011-10-23T08:20:54Z</time>
      </trkpt>
      <trkpt lat="45.32589" lon="6.00686">
        <ele>1093.15625</ele>
        <time>2011-10-23T08:21:01Z</time>
      </trkpt>
      <trkpt lat="45.32598" lon="6.00692">
        <ele>1096.0402832031</ele>
        <time>2011-10-23T08:21:08Z</time>
      </trkpt>
      <trkpt lat="45.32608" lon="6.00698">
        <ele>1097.4821777344</ele>
        <time>2011-10-23T08:21:16Z</time>
      </trkpt>
      <trkpt lat="45.3262" lon="6.00698">
        <ele>1100.3664550781</ele>
        <time>2011-10-23T08:21:23Z</time>
      </trkpt>
      <trkpt lat="45.32634" lon="6.00698">
        <ele>1102.76953125</ele>
        <time>2011-10-23T08:21:30Z</time>
      </trkpt>
      <trkpt lat="45.32642" lon="6.007">
        <ele>1105.1728515625</ele>
        <time>2011-10-23T08:21:35Z</time>
      </trkpt>
      <trkpt lat="45.32647" lon="6.00714">
        <ele>1100.3664550781</ele>
        <time>2011-10-23T08:21:43Z</time>
      </trkpt>
      <trkpt lat="45.32649" lon="6.00724">
        <ele>1099.4047851562</ele>
        <time>2011-10-23T08:21:48Z</time>
      </trkpt>
      <trkpt lat="45.3265" lon="6.00738">
        <ele>1100.3664550781</ele>
        <time>2011-10-23T08:21:55Z</time>
      </trkpt>
      <trkpt lat="45.32654" lon="6.00754">
        <ele>1101.8083496094</ele>
        <time>2011-10-23T08:22:04Z</time>
      </trkpt>
      <trkpt lat="45.32659" lon="6.00765">
        <ele>1102.76953125</ele>
        <time>2011-10-23T08:22:11Z</time>
      </trkpt>
      <trkpt lat="45.32664" lon="6.00775">
        <ele>1103.7309570312</ele>
        <time>2011-10-23T08:22:19Z</time>
      </trkpt>
      <trkpt lat="45.32669" lon="6.00783">
        <ele>1103.7309570312</ele>
        <time>2011-10-23T08:22:25Z</time>
      </trkpt>
      <trkpt lat="45.32673" lon="6.00791">
        <ele>1104.6921386719</ele>
        <time>2011-10-23T08:22:31Z</time>
      </trkpt>
      <trkpt lat="45.32674" lon="6.00797">
        <ele>1104.6921386719</ele>
        <time>2011-10-23T08:22:35Z</time>
      </trkpt>
      <trkpt lat="45.32675" lon="6.00806">
        <ele>1104.6921386719</ele>
        <time>2011-10-23T08:22:42Z</time>
      </trkpt>
      <trkpt lat="45.32682" lon="6.00814">
        <ele>1108.5373535156</ele>
        <time>2011-10-23T08:22:48Z</time>
      </trkpt>
      <trkpt lat="45.32687" lon="6.00819">
        <ele>1111.4213867188</ele>
        <time>2011-10-23T08:22:52Z</time>
      </trkpt>
      <trkpt lat="45.32689" lon="6.00824">
        <ele>1113.3439941406</ele>
        <time>2011-10-23T08:22:58Z</time>
      </trkpt>
      <trkpt lat="45.3269" lon="6.0083">
        <ele>1115.7473144531</ele>
        <time>2011-10-23T08:23:06Z</time>
      </trkpt>
      <trkpt lat="45.32692" lon="6.00838">
        <ele>1116.2280273438</ele>
        <time>2011-10-23T08:23:14Z</time>
      </trkpt>
      <trkpt lat="45.32694" lon="6.00848">
        <ele>1120.5539550781</ele>
        <time>2011-10-23T08:23:20Z</time>
      </trkpt>
      <trkpt lat="45.32695" lon="6.00857">
        <ele>1120.0732421875</ele>
        <time>2011-10-23T08:23:24Z</time>
      </trkpt>
      <trkpt lat="45.32697" lon="6.00872">
        <ele>1115.7473144531</ele>
        <time>2011-10-23T08:23:30Z</time>
      </trkpt>
      <trkpt lat="45.32698" lon="6.00896">
        <ele>1117.189453125</ele>
        <time>2011-10-23T08:23:35Z</time>
      </trkpt>
      <trkpt lat="45.32695" lon="6.00904">
        <ele>1118.1506347656</ele>
        <time>2011-10-23T08:23:39Z</time>
      </trkpt>
      <trkpt lat="45.32697" lon="6.00909">
        <ele>1120.0732421875</ele>
        <time>2011-10-23T08:23:44Z</time>
      </trkpt>
      <trkpt lat="45.32697" lon="6.0091">
        <ele>1119.5927734375</ele>
        <time>2011-10-23T08:23:45Z</time>
      </trkpt>
      <trkpt lat="45.32698" lon="6.00915">
        <ele>1119.1120605469</ele>
        <time>2011-10-23T08:23:48Z</time>
      </trkpt>
      <trkpt lat="45.32701" lon="6.00919">
        <ele>1121.9958496094</ele>
        <time>2011-10-23T08:23:57Z</time>
      </trkpt>
      <trkpt lat="45.32705" lon="6.00917">
        <ele>1127.283203125</ele>
        <time>2011-10-23T08:24:03Z</time>
      </trkpt>
      <trkpt lat="45.32714" lon="6.00917">
        <ele>1141.7028808594</ele>
        <time>2011-10-23T08:24:14Z</time>
      </trkpt>
      <trkpt lat="45.32714" lon="6.00919">
        <ele>1139.2995605469</ele>
        <time>2011-10-23T08:24:20Z</time>
      </trkpt>
      <trkpt lat="45.32718" lon="6.00926">
        <ele>1144.5866699219</ele>
        <time>2011-10-23T08:24:39Z</time>
      </trkpt>
      <trkpt lat="45.32719" lon="6.00931">
        <ele>1138.8190917969</ele>
        <time>2011-10-23T08:24:44Z</time>
      </trkpt>
      <trkpt lat="45.32733" lon="6.00935">
        <ele>1146.0288085938</ele>
        <time>2011-10-23T08:25:03Z</time>
      </trkpt>
      <trkpt lat="45.32735" lon="6.0094">
        <ele>1143.1447753906</ele>
        <time>2011-10-23T08:25:10Z</time>
      </trkpt>
      <trkpt lat="45.32738" lon="6.0094">
        <ele>1146.9899902344</ele>
        <time>2011-10-23T08:25:18Z</time>
      </trkpt>
      <trkpt lat="45.32753" lon="6.00946">
        <ele>1141.7028808594</ele>
        <time>2011-10-23T08:26:05Z</time>
      </trkpt>
      <trkpt lat="45.32756" lon="6.00944">
        <ele>1142.6643066406</ele>
        <time>2011-10-23T08:26:12Z</time>
      </trkpt>
      <trkpt lat="45.32756" lon="6.00945">
        <ele>1143.1447753906</ele>
        <time>2011-10-23T08:26:15Z</time>
      </trkpt>
      <trkpt lat="45.32759" lon="6.00951">
        <ele>1140.7414550781</ele>
        <time>2011-10-23T08:26:25Z</time>
      </trkpt>
      <trkpt lat="45.3276" lon="6.00954">
        <ele>1138.8190917969</ele>
        <time>2011-10-23T08:26:28Z</time>
      </trkpt>
      <trkpt lat="45.32764" lon="6.00959">
        <ele>1140.7414550781</ele>
        <time>2011-10-23T08:26:31Z</time>
      </trkpt>
      <trkpt lat="45.32767" lon="6.00965">
        <ele>1144.1062011719</ele>
        <time>2011-10-23T08:26:37Z</time>
      </trkpt>
      <trkpt lat="45.32769" lon="6.00968">
        <ele>1146.9899902344</ele>
        <time>2011-10-23T08:26:41Z</time>
      </trkpt>
      <trkpt lat="45.32774" lon="6.00971">
        <ele>1151.3161621094</ele>
        <time>2011-10-23T08:26:47Z</time>
      </trkpt>
      <trkpt lat="45.3278" lon="6.00974">
        <ele>1149.8742675781</ele>
        <time>2011-10-23T08:26:54Z</time>
      </trkpt>
      <trkpt lat="45.32785" lon="6.00979">
        <ele>1148.9128417969</ele>
        <time>2011-10-23T08:27:04Z</time>
      </trkpt>
      <trkpt lat="45.32788" lon="6.00984">
        <ele>1150.3549804688</ele>
        <time>2011-10-23T08:27:10Z</time>
      </trkpt>
      <trkpt lat="45.3279" lon="6.00987">
        <ele>1150.8354492188</ele>
        <time>2011-10-23T08:27:16Z</time>
      </trkpt>
      <trkpt lat="45.32794" lon="6.00993">
        <ele>1154.2001953125</ele>
        <time>2011-10-23T08:27:24Z</time>
      </trkpt>
      <trkpt lat="45.32794" lon="6.00997">
        <ele>1155.1613769531</ele>
        <time>2011-10-23T08:27:29Z</time>
      </trkpt>
      <trkpt lat="45.32795" lon="6.01">
        <ele>1158.0454101562</ele>
        <time>2011-10-23T08:27:34Z</time>
      </trkpt>
      <trkpt lat="45.32793" lon="6.01008">
        <ele>1160.4484863281</ele>
        <time>2011-10-23T08:27:43Z</time>
      </trkpt>
      <trkpt lat="45.32796" lon="6.0101">
        <ele>1161.4099121094</ele>
        <time>2011-10-23T08:27:48Z</time>
      </trkpt>
      <trkpt lat="45.32799" lon="6.01012">
        <ele>1163.3325195312</ele>
        <time>2011-10-23T08:27:53Z</time>
      </trkpt>
      <trkpt lat="45.32805" lon="6.01017">
        <ele>1167.6584472656</ele>
        <time>2011-10-23T08:28:01Z</time>
      </trkpt>
      <trkpt lat="45.32809" lon="6.0102">
        <ele>1168.6198730469</ele>
        <time>2011-10-23T08:28:07Z</time>
      </trkpt>
      <trkpt lat="45.32815" lon="6.01026">
        <ele>1164.7746582031</ele>
        <time>2011-10-23T08:28:11Z</time>
      </trkpt>
      <trkpt lat="45.32823" lon="6.01032">
        <ele>1162.8518066406</ele>
        <time>2011-10-23T08:28:18Z</time>
      </trkpt>
      <trkpt lat="45.32824" lon="6.01035">
        <ele>1162.37109375</ele>
        <time>2011-10-23T08:28:20Z</time>
      </trkpt>
      <trkpt lat="45.32825" lon="6.01039">
        <ele>1161.4099121094</ele>
        <time>2011-10-23T08:28:23Z</time>
      </trkpt>
      <trkpt lat="45.32827" lon="6.01046">
        <ele>1162.37109375</ele>
        <time>2011-10-23T08:28:28Z</time>
      </trkpt>
      <trkpt lat="45.32827" lon="6.01047">
        <ele>1162.8518066406</ele>
        <time>2011-10-23T08:28:29Z</time>
      </trkpt>
      <trkpt lat="45.3283" lon="6.01053">
        <ele>1165.7360839844</ele>
        <time>2011-10-23T08:28:37Z</time>
      </trkpt>
      <trkpt lat="45.3283" lon="6.01059">
        <ele>1163.8129882812</ele>
        <time>2011-10-23T08:28:42Z</time>
      </trkpt>
      <trkpt lat="45.32832" lon="6.01065">
        <ele>1164.7746582031</ele>
        <time>2011-10-23T08:28:45Z</time>
      </trkpt>
      <trkpt lat="45.32835" lon="6.01082">
        <ele>1164.7746582031</ele>
        <time>2011-10-23T08:28:50Z</time>
      </trkpt>
      <trkpt lat="45.32835" lon="6.01085">
        <ele>1163.3325195312</ele>
        <time>2011-10-23T08:28:51Z</time>
      </trkpt>
      <trkpt lat="45.32838" lon="6.01092">
        <ele>1163.3325195312</ele>
        <time>2011-10-23T08:28:53Z</time>
      </trkpt>
      <trkpt lat="45.32842" lon="6.01106">
        <ele>1162.8518066406</ele>
        <time>2011-10-23T08:28:58Z</time>
      </trkpt>
      <trkpt lat="45.32843" lon="6.01109">
        <ele>1162.37109375</ele>
        <time>2011-10-23T08:29:00Z</time>
      </trkpt>
      <trkpt lat="45.32848" lon="6.0112">
        <ele>1162.37109375</ele>
        <time>2011-10-23T08:29:06Z</time>
      </trkpt>
      <trkpt lat="45.32849" lon="6.01121">
        <ele>1162.37109375</ele>
        <time>2011-10-23T08:29:07Z</time>
      </trkpt>
      <trkpt lat="45.32848" lon="6.01129">
        <ele>1159.4873046875</ele>
        <time>2011-10-23T08:29:11Z</time>
      </trkpt>
      <trkpt lat="45.32848" lon="6.01153">
        <ele>1156.1225585938</ele>
        <time>2011-10-23T08:29:18Z</time>
      </trkpt>
      <trkpt lat="45.32851" lon="6.01172">
        <ele>1151.796875</ele>
        <time>2011-10-23T08:29:23Z</time>
      </trkpt>
      <trkpt lat="45.32855" lon="6.01179">
        <ele>1152.27734375</ele>
        <time>2011-10-23T08:29:28Z</time>
      </trkpt>
      <trkpt lat="45.32859" lon="6.01189">
        <ele>1154.2001953125</ele>
        <time>2011-10-23T08:29:32Z</time>
      </trkpt>
      <trkpt lat="45.32866" lon="6.01198">
        <ele>1152.7580566406</ele>
        <time>2011-10-23T08:29:37Z</time>
      </trkpt>
      <trkpt lat="45.32865" lon="6.01203">
        <ele>1153.2387695312</ele>
        <time>2011-10-23T08:29:42Z</time>
      </trkpt>
      <trkpt lat="45.32863" lon="6.0121">
        <ele>1157.083984375</ele>
        <time>2011-10-23T08:29:46Z</time>
      </trkpt>
      <trkpt lat="45.32867" lon="6.01219">
        <ele>1159.0065917969</ele>
        <time>2011-10-23T08:29:50Z</time>
      </trkpt>
      <trkpt lat="45.3287" lon="6.01224">
        <ele>1159.4873046875</ele>
        <time>2011-10-23T08:29:52Z</time>
      </trkpt>
      <trkpt lat="45.32874" lon="6.01236">
        <ele>1160.9291992188</ele>
        <time>2011-10-23T08:29:58Z</time>
      </trkpt>
      <trkpt lat="45.3288" lon="6.01238">
        <ele>1158.5258789062</ele>
        <time>2011-10-23T08:30:04Z</time>
      </trkpt>
      <trkpt lat="45.32881" lon="6.01242">
        <ele>1158.0454101562</ele>
        <time>2011-10-23T08:30:07Z</time>
      </trkpt>
      <trkpt lat="45.32884" lon="6.01244">
        <ele>1157.083984375</ele>
        <time>2011-10-23T08:30:12Z</time>
      </trkpt>
      <trkpt lat="45.32883" lon="6.01254">
        <ele>1157.083984375</ele>
        <time>2011-10-23T08:30:18Z</time>
      </trkpt>
      <trkpt lat="45.32887" lon="6.01257">
        <ele>1153.7194824219</ele>
        <time>2011-10-23T08:30:23Z</time>
      </trkpt>
      <trkpt lat="45.32891" lon="6.01256">
        <ele>1152.7580566406</ele>
        <time>2011-10-23T08:30:25Z</time>
      </trkpt>
      <trkpt lat="45.32894" lon="6.0126">
        <ele>1147.470703125</ele>
        <time>2011-10-23T08:30:33Z</time>
      </trkpt>
      <trkpt lat="45.32896" lon="6.01266">
        <ele>1145.5480957031</ele>
        <time>2011-10-23T08:30:37Z</time>
      </trkpt>
      <trkpt lat="45.32899" lon="6.01273">
        <ele>1143.1447753906</ele>
        <time>2011-10-23T08:30:41Z</time>
      </trkpt>
      <trkpt lat="45.32899" lon="6.01275">
        <ele>1142.6643066406</ele>
        <time>2011-10-23T08:30:42Z</time>
      </trkpt>
      <trkpt lat="45.32901" lon="6.01287">
        <ele>1141.2221679688</ele>
        <time>2011-10-23T08:30:48Z</time>
      </trkpt>
      <trkpt lat="45.32905" lon="6.01292">
        <ele>1141.2221679688</ele>
        <time>2011-10-23T08:30:56Z</time>
      </trkpt>
      <trkpt lat="45.32902" lon="6.01304">
        <ele>1140.7414550781</ele>
        <time>2011-10-23T08:31:00Z</time>
      </trkpt>
      <trkpt lat="45.329" lon="6.01312">
        <ele>1140.2609863281</ele>
        <time>2011-10-23T08:31:02Z</time>
      </trkpt>
      <trkpt lat="45.32888" lon="6.01323">
        <ele>1134.0124511719</ele>
        <time>2011-10-23T08:31:07Z</time>
      </trkpt>
      <trkpt lat="45.32889" lon="6.01323">
        <ele>1133.0510253906</ele>
        <time>2011-10-23T08:31:08Z</time>
      </trkpt>
      <trkpt lat="45.32893" lon="6.01327">
        <ele>1128.2443847656</ele>
        <time>2011-10-23T08:31:12Z</time>
      </trkpt>
      <trkpt lat="45.329" lon="6.01339">
        <ele>1127.763671875</ele>
        <time>2011-10-23T08:31:17Z</time>
      </trkpt>
      <trkpt lat="45.32904" lon="6.01341">
        <ele>1128.7250976562</ele>
        <time>2011-10-23T08:31:19Z</time>
      </trkpt>
      <trkpt lat="45.32907" lon="6.01352">
        <ele>1127.283203125</ele>
        <time>2011-10-23T08:31:25Z</time>
      </trkpt>
      <trkpt lat="45.32908" lon="6.01358">
        <ele>1129.2055664062</ele>
        <time>2011-10-23T08:31:29Z</time>
      </trkpt>
      <trkpt lat="45.32915" lon="6.01371">
        <ele>1126.8024902344</ele>
        <time>2011-10-23T08:31:33Z</time>
      </trkpt>
      <trkpt lat="45.32917" lon="6.01372">
        <ele>1125.8410644531</ele>
        <time>2011-10-23T08:31:36Z</time>
      </trkpt>
      <trkpt lat="45.32915" lon="6.01379">
        <ele>1125.8410644531</ele>
        <time>2011-10-23T08:31:42Z</time>
      </trkpt>
      <trkpt lat="45.32918" lon="6.01379">
        <ele>1123.4379882812</ele>
        <time>2011-10-23T08:31:44Z</time>
      </trkpt>
      <trkpt lat="45.32923" lon="6.01383">
        <ele>1121.9958496094</ele>
        <time>2011-10-23T08:31:47Z</time>
      </trkpt>
      <trkpt lat="45.32926" lon="6.0139">
        <ele>1115.7473144531</ele>
        <time>2011-10-23T08:31:52Z</time>
      </trkpt>
      <trkpt lat="45.32935" lon="6.01392">
        <ele>1111.4213867188</ele>
        <time>2011-10-23T08:31:58Z</time>
      </trkpt>
      <trkpt lat="45.32935" lon="6.01397">
        <ele>1113.8244628906</ele>
        <time>2011-10-23T08:32:02Z</time>
      </trkpt>
      <trkpt lat="45.32938" lon="6.01402">
        <ele>1115.2666015625</ele>
        <time>2011-10-23T08:32:10Z</time>
      </trkpt>
      <trkpt lat="45.32936" lon="6.01417">
        <ele>1121.0346679688</ele>
        <time>2011-10-23T08:32:14Z</time>
      </trkpt>
      <trkpt lat="45.32935" lon="6.01422">
        <ele>1123.9184570312</ele>
        <time>2011-10-23T08:32:16Z</time>
      </trkpt>
      <trkpt lat="45.32932" lon="6.01448">
        <ele>1138.3383789062</ele>
        <time>2011-10-23T08:32:23Z</time>
      </trkpt>
      <trkpt lat="45.32938" lon="6.01458">
        <ele>1144.5866699219</ele>
        <time>2011-10-23T08:32:29Z</time>
      </trkpt>
      <trkpt lat="45.32933" lon="6.01461">
        <ele>1146.0288085938</ele>
        <time>2011-10-23T08:32:33Z</time>
      </trkpt>
      <trkpt lat="45.32933" lon="6.01461">
        <ele>1144.5866699219</ele>
        <time>2011-10-23T08:32:35Z</time>
      </trkpt>
      <trkpt lat="45.32931" lon="6.01465">
        <ele>1142.6643066406</ele>
        <time>2011-10-23T08:32:38Z</time>
      </trkpt>
      <trkpt lat="45.32941" lon="6.01472">
        <ele>1139.2995605469</ele>
        <time>2011-10-23T08:32:43Z</time>
      </trkpt>
      <trkpt lat="45.32945" lon="6.0148">
        <ele>1128.2443847656</ele>
        <time>2011-10-23T08:32:48Z</time>
      </trkpt>
      <trkpt lat="45.32959" lon="6.01483">
        <ele>1120.5539550781</ele>
        <time>2011-10-23T08:32:52Z</time>
      </trkpt>
      <trkpt lat="45.32966" lon="6.01486">
        <ele>1111.4213867188</ele>
        <time>2011-10-23T08:32:55Z</time>
      </trkpt>
      <trkpt lat="45.32977" lon="6.01488">
        <ele>1100.3664550781</ele>
        <time>2011-10-23T08:33:01Z</time>
      </trkpt>
      <trkpt lat="45.32981" lon="6.01488">
        <ele>1100.3664550781</ele>
        <time>2011-10-23T08:33:03Z</time>
      </trkpt>
      <trkpt lat="45.32979" lon="6.01498">
        <ele>1107.576171875</ele>
        <time>2011-10-23T08:33:09Z</time>
      </trkpt>
      <trkpt lat="45.32982" lon="6.01501">
        <ele>1113.3439941406</ele>
        <time>2011-10-23T08:33:13Z</time>
      </trkpt>
      <trkpt lat="45.32988" lon="6.01512">
        <ele>1116.2280273438</ele>
        <time>2011-10-23T08:33:19Z</time>
      </trkpt>
      <trkpt lat="45.32991" lon="6.01519">
        <ele>1119.1120605469</ele>
        <time>2011-10-23T08:33:21Z</time>
      </trkpt>
      <trkpt lat="45.32994" lon="6.01531">
        <ele>1117.669921875</ele>
        <time>2011-10-23T08:33:26Z</time>
      </trkpt>
      <trkpt lat="45.33001" lon="6.0154">
        <ele>1121.5151367188</ele>
        <time>2011-10-23T08:33:32Z</time>
      </trkpt>
      <trkpt lat="45.32997" lon="6.01546">
        <ele>1121.0346679688</ele>
        <time>2011-10-23T08:33:38Z</time>
      </trkpt>
      <trkpt lat="45.32995" lon="6.01554">
        <ele>1118.6313476562</ele>
        <time>2011-10-23T08:33:42Z</time>
      </trkpt>
      <trkpt lat="45.32996" lon="6.0156">
        <ele>1118.1506347656</ele>
        <time>2011-10-23T08:33:46Z</time>
      </trkpt>
      <trkpt lat="45.33001" lon="6.01572">
        <ele>1117.669921875</ele>
        <time>2011-10-23T08:33:50Z</time>
      </trkpt>
      <trkpt lat="45.33002" lon="6.01576">
        <ele>1117.669921875</ele>
        <time>2011-10-23T08:33:51Z</time>
      </trkpt>
      <trkpt lat="45.33002" lon="6.01591">
        <ele>1117.189453125</ele>
        <time>2011-10-23T08:33:54Z</time>
      </trkpt>
      <trkpt lat="45.33007" lon="6.01603">
        <ele>1114.3051757812</ele>
        <time>2011-10-23T08:34:00Z</time>
      </trkpt>
      <trkpt lat="45.33009" lon="6.01607">
        <ele>1114.7858886719</ele>
        <time>2011-10-23T08:34:05Z</time>
      </trkpt>
      <trkpt lat="45.33009" lon="6.0161">
        <ele>1112.86328125</ele>
        <time>2011-10-23T08:34:07Z</time>
      </trkpt>
      <trkpt lat="45.33007" lon="6.01621">
        <ele>1109.0180664062</ele>
        <time>2011-10-23T08:34:13Z</time>
      </trkpt>
      <trkpt lat="45.33006" lon="6.01622">
        <ele>1109.0180664062</ele>
        <time>2011-10-23T08:34:18Z</time>
      </trkpt>
      <trkpt lat="45.33005" lon="6.01622">
        <ele>1109.4987792969</ele>
        <time>2011-10-23T08:34:20Z</time>
      </trkpt>
      <trkpt lat="45.33006" lon="6.01626">
        <ele>1110.9406738281</ele>
        <time>2011-10-23T08:34:25Z</time>
      </trkpt>
      <trkpt lat="45.33008" lon="6.01625">
        <ele>1112.86328125</ele>
        <time>2011-10-23T08:34:27Z</time>
      </trkpt>
      <trkpt lat="45.33013" lon="6.01617">
        <ele>1116.2280273438</ele>
        <time>2011-10-23T08:34:32Z</time>
      </trkpt>
      <trkpt lat="45.33017" lon="6.01615">
        <ele>1114.3051757812</ele>
        <time>2011-10-23T08:34:37Z</time>
      </trkpt>
      <trkpt lat="45.3302" lon="6.01622">
        <ele>1114.7858886719</ele>
        <time>2011-10-23T08:34:42Z</time>
      </trkpt>
      <trkpt lat="45.33022" lon="6.01631">
        <ele>1114.3051757812</ele>
        <time>2011-10-23T08:34:47Z</time>
      </trkpt>
      <trkpt lat="45.33019" lon="6.01638">
        <ele>1113.8244628906</ele>
        <time>2011-10-23T08:34:53Z</time>
      </trkpt>
      <trkpt lat="45.33019" lon="6.0164">
        <ele>1113.8244628906</ele>
        <time>2011-10-23T08:34:54Z</time>
      </trkpt>
      <trkpt lat="45.3302" lon="6.01655">
        <ele>1112.3825683594</ele>
        <time>2011-10-23T08:35:00Z</time>
      </trkpt>
      <trkpt lat="45.33026" lon="6.01671">
        <ele>1115.7473144531</ele>
        <time>2011-10-23T08:35:05Z</time>
      </trkpt>
      <trkpt lat="45.33029" lon="6.0169">
        <ele>1118.1506347656</ele>
        <time>2011-10-23T08:35:09Z</time>
      </trkpt>
      <trkpt lat="45.33027" lon="6.01711">
        <ele>1119.1120605469</ele>
        <time>2011-10-23T08:35:13Z</time>
      </trkpt>
      <trkpt lat="45.3302" lon="6.01726">
        <ele>1118.6313476562</ele>
        <time>2011-10-23T08:35:17Z</time>
      </trkpt>
      <trkpt lat="45.33009" lon="6.0174">
        <ele>1117.669921875</ele>
        <time>2011-10-23T08:35:21Z</time>
      </trkpt>
      <trkpt lat="45.33004" lon="6.01751">
        <ele>1118.1506347656</ele>
        <time>2011-10-23T08:35:24Z</time>
      </trkpt>
      <trkpt lat="45.33004" lon="6.01758">
        <ele>1115.7473144531</ele>
        <time>2011-10-23T08:35:27Z</time>
      </trkpt>
      <trkpt lat="45.33009" lon="6.01781">
        <ele>1104.2116699219</ele>
        <time>2011-10-23T08:35:32Z</time>
      </trkpt>
      <trkpt lat="45.33006" lon="6.01798">
        <ele>1098.443359375</ele>
        <time>2011-10-23T08:35:37Z</time>
      </trkpt>
      <trkpt lat="45.33005" lon="6.01805">
        <ele>1097.962890625</ele>
        <time>2011-10-23T08:35:39Z</time>
      </trkpt>
      <trkpt lat="45.33005" lon="6.01821">
        <ele>1092.67578125</ele>
        <time>2011-10-23T08:35:43Z</time>
      </trkpt>
      <trkpt lat="45.33006" lon="6.01836">
        <ele>1085.4658203125</ele>
        <time>2011-10-23T08:35:48Z</time>
      </trkpt>
      <trkpt lat="45.33009" lon="6.01854">
        <ele>1087.869140625</ele>
        <time>2011-10-23T08:35:53Z</time>
      </trkpt>
      <trkpt lat="45.33009" lon="6.01856">
        <ele>1086.9077148438</ele>
        <time>2011-10-23T08:35:54Z</time>
      </trkpt>
      <trkpt lat="45.33015" lon="6.01875">
        <ele>1086.9077148438</ele>
        <time>2011-10-23T08:35:59Z</time>
      </trkpt>
      <trkpt lat="45.3302" lon="6.01896">
        <ele>1083.54296875</ele>
        <time>2011-10-23T08:36:04Z</time>
      </trkpt>
      <trkpt lat="45.33021" lon="6.0191">
        <ele>1082.1010742188</ele>
        <time>2011-10-23T08:36:08Z</time>
      </trkpt>
      <trkpt lat="45.3303" lon="6.01918">
        <ele>1089.7917480469</ele>
        <time>2011-10-23T08:36:13Z</time>
      </trkpt>
      <trkpt lat="45.33037" lon="6.01926">
        <ele>1098.9240722656</ele>
        <time>2011-10-23T08:36:18Z</time>
      </trkpt>
      <trkpt lat="45.33039" lon="6.01947">
        <ele>1098.9240722656</ele>
        <time>2011-10-23T08:36:24Z</time>
      </trkpt>
      <trkpt lat="45.33043" lon="6.01955">
        <ele>1103.7309570312</ele>
        <time>2011-10-23T08:36:30Z</time>
      </trkpt>
      <trkpt lat="45.33046" lon="6.01957">
        <ele>1108.5373535156</ele>
        <time>2011-10-23T08:36:33Z</time>
      </trkpt>
      <trkpt lat="45.33044" lon="6.01966">
        <ele>1105.1728515625</ele>
        <time>2011-10-23T08:36:37Z</time>
      </trkpt>
      <trkpt lat="45.33039" lon="6.01983">
        <ele>1109.4987792969</ele>
        <time>2011-10-23T08:36:42Z</time>
      </trkpt>
      <trkpt lat="45.33039" lon="6.02012">
        <ele>1112.86328125</ele>
        <time>2011-10-23T08:36:47Z</time>
      </trkpt>
      <trkpt lat="45.33033" lon="6.02031">
        <ele>1111.9020996094</ele>
        <time>2011-10-23T08:36:50Z</time>
      </trkpt>
      <trkpt lat="45.33024" lon="6.02056">
        <ele>1111.9020996094</ele>
        <time>2011-10-23T08:36:53Z</time>
      </trkpt>
      <trkpt lat="45.33006" lon="6.02093">
        <ele>1107.576171875</ele>
        <time>2011-10-23T08:36:56Z</time>
      </trkpt>
      <trkpt lat="45.32991" lon="6.02152">
        <ele>1091.7143554688</ele>
        <time>2011-10-23T08:37:00Z</time>
      </trkpt>
      <trkpt lat="45.3298" lon="6.02223">
        <ele>1071.0461425781</ele>
        <time>2011-10-23T08:37:05Z</time>
      </trkpt>
      <trkpt lat="45.32997" lon="6.02265">
        <ele>1058.548828125</ele>
        <time>2011-10-23T08:37:09Z</time>
      </trkpt>
      <trkpt lat="45.32998" lon="6.02277">
        <ele>1056.1455078125</ele>
        <time>2011-10-23T08:37:10Z</time>
      </trkpt>
      <trkpt lat="45.33006" lon="6.02324">
        <ele>1047.4936523438</ele>
        <time>2011-10-23T08:37:14Z</time>
      </trkpt>
      <trkpt lat="45.33027" lon="6.02372">
        <ele>1043.6484375</ele>
        <time>2011-10-23T08:37:18Z</time>
      </trkpt>
      <trkpt lat="45.33037" lon="6.02402">
        <ele>1042.2065429688</ele>
        <time>2011-10-23T08:37:22Z</time>
      </trkpt>
      <trkpt lat="45.33045" lon="6.02421">
        <ele>1042.2065429688</ele>
        <time>2011-10-23T08:37:26Z</time>
      </trkpt>
      <trkpt lat="45.33046" lon="6.02427">
        <ele>1042.6872558594</ele>
        <time>2011-10-23T08:37:30Z</time>
      </trkpt>
      <trkpt lat="45.33047" lon="6.0243">
        <ele>1048.935546875</ele>
        <time>2011-10-23T08:37:34Z</time>
      </trkpt>
      <trkpt lat="45.33047" lon="6.02438">
        <ele>1051.3388671875</ele>
        <time>2011-10-23T08:37:39Z</time>
      </trkpt>
      <trkpt lat="45.3305" lon="6.02457">
        <ele>1054.2231445312</ele>
        <time>2011-10-23T08:37:44Z</time>
      </trkpt>
      <trkpt lat="45.33051" lon="6.02491">
        <ele>1055.6650390625</ele>
        <time>2011-10-23T08:37:48Z</time>
      </trkpt>
      <trkpt lat="45.33034" lon="6.02527">
        <ele>1049.8969726562</ele>
        <time>2011-10-23T08:37:52Z</time>
      </trkpt>
      <trkpt lat="45.33039" lon="6.02535">
        <ele>1048.4548339844</ele>
        <time>2011-10-23T08:37:55Z</time>
      </trkpt>
      <trkpt lat="45.33045" lon="6.02546">
        <ele>1045.5710449219</ele>
        <time>2011-10-23T08:37:58Z</time>
      </trkpt>
      <trkpt lat="45.33058" lon="6.02569">
        <ele>1043.6484375</ele>
        <time>2011-10-23T08:38:05Z</time>
      </trkpt>
      <trkpt lat="45.33071" lon="6.02596">
        <ele>1043.6484375</ele>
        <time>2011-10-23T08:38:13Z</time>
      </trkpt>
      <trkpt lat="45.33083" lon="6.02622">
        <ele>1043.6484375</ele>
        <time>2011-10-23T08:38:21Z</time>
      </trkpt>
      <trkpt lat="45.33092" lon="6.02644">
        <ele>1043.1677246094</ele>
        <time>2011-10-23T08:38:28Z</time>
      </trkpt>
      <trkpt lat="45.33107" lon="6.02664">
        <ele>1043.1677246094</ele>
        <time>2011-10-23T08:38:35Z</time>
      </trkpt>
      <trkpt lat="45.33123" lon="6.0269">
        <ele>1044.6096191406</ele>
        <time>2011-10-23T08:38:43Z</time>
      </trkpt>
      <trkpt lat="45.33122" lon="6.02707">
        <ele>1045.0903320312</ele>
        <time>2011-10-23T08:38:47Z</time>
      </trkpt>
      <trkpt lat="45.3312" lon="6.0273">
        <ele>1046.0517578125</ele>
        <time>2011-10-23T08:38:53Z</time>
      </trkpt>
      <trkpt lat="45.33121" lon="6.02742">
        <ele>1046.5324707031</ele>
        <time>2011-10-23T08:38:58Z</time>
      </trkpt>
      <trkpt lat="45.33121" lon="6.02746">
        <ele>1047.4936523438</ele>
        <time>2011-10-23T08:39:00Z</time>
      </trkpt>
      <trkpt lat="45.33116" lon="6.02754">
        <ele>1048.935546875</ele>
        <time>2011-10-23T08:39:06Z</time>
      </trkpt>
      <trkpt lat="45.33115" lon="6.02759">
        <ele>1049.4162597656</ele>
        <time>2011-10-23T08:39:10Z</time>
      </trkpt>
      <trkpt lat="45.33115" lon="6.02768">
        <ele>1052.3002929688</ele>
        <time>2011-10-23T08:39:18Z</time>
      </trkpt>
      <trkpt lat="45.33114" lon="6.02774">
        <ele>1054.7036132812</ele>
        <time>2011-10-23T08:39:26Z</time>
      </trkpt>
      <trkpt lat="45.33112" lon="6.02777">
        <ele>1055.1843261719</ele>
        <time>2011-10-23T08:39:32Z</time>
      </trkpt>
      <trkpt lat="45.33109" lon="6.02779">
        <ele>1058.548828125</ele>
        <time>2011-10-23T08:39:40Z</time>
      </trkpt>
      <trkpt lat="45.33108" lon="6.02782">
        <ele>1058.548828125</ele>
        <time>2011-10-23T08:39:46Z</time>
      </trkpt>
      <trkpt lat="45.33106" lon="6.02785">
        <ele>1059.5102539062</ele>
        <time>2011-10-23T08:39:53Z</time>
      </trkpt>
      <trkpt lat="45.33104" lon="6.02791">
        <ele>1068.6428222656</ele>
        <time>2011-10-23T08:40:06Z</time>
      </trkpt>
      <trkpt lat="45.33103" lon="6.02795">
        <ele>1068.6428222656</ele>
        <time>2011-10-23T08:40:11Z</time>
      </trkpt>
      <trkpt lat="45.33102" lon="6.02798">
        <ele>1069.1235351562</ele>
        <time>2011-10-23T08:40:16Z</time>
      </trkpt>
      <trkpt lat="45.33102" lon="6.02805">
        <ele>1067.6811523438</ele>
        <time>2011-10-23T08:40:25Z</time>
      </trkpt>
      <trkpt lat="45.33099" lon="6.02811">
        <ele>1066.7199707031</ele>
        <time>2011-10-23T08:40:29Z</time>
      </trkpt>
      <trkpt lat="45.33095" lon="6.0282">
        <ele>1072.4880371094</ele>
        <time>2011-10-23T08:40:37Z</time>
      </trkpt>
      <trkpt lat="45.33095" lon="6.02822">
        <ele>1073.4494628906</ele>
        <time>2011-10-23T08:40:42Z</time>
      </trkpt>
      <trkpt lat="45.33093" lon="6.02824">
        <ele>1079.2170410156</ele>
        <time>2011-10-23T08:40:49Z</time>
      </trkpt>
      <trkpt lat="45.33089" lon="6.0283">
        <ele>1076.3332519531</ele>
        <time>2011-10-23T08:40:56Z</time>
      </trkpt>
      <trkpt lat="45.33089" lon="6.02835">
        <ele>1076.8139648438</ele>
        <time>2011-10-23T08:41:02Z</time>
      </trkpt>
      <trkpt lat="45.33085" lon="6.02838">
        <ele>1081.1398925781</ele>
        <time>2011-10-23T08:41:12Z</time>
      </trkpt>
      <trkpt lat="45.33082" lon="6.02839">
        <ele>1084.5046386719</ele>
        <time>2011-10-23T08:41:20Z</time>
      </trkpt>
      <trkpt lat="45.3308" lon="6.02843">
        <ele>1086.4272460938</ele>
        <time>2011-10-23T08:41:25Z</time>
      </trkpt>
      <trkpt lat="45.33076" lon="6.02852">
        <ele>1087.3884277344</ele>
        <time>2011-10-23T08:41:32Z</time>
      </trkpt>
      <trkpt lat="45.33077" lon="6.02854">
        <ele>1088.8305664062</ele>
        <time>2011-10-23T08:41:33Z</time>
      </trkpt>
      <trkpt lat="45.33076" lon="6.02861">
        <ele>1086.9077148438</ele>
        <time>2011-10-23T08:41:38Z</time>
      </trkpt>
      <trkpt lat="45.33076" lon="6.02862">
        <ele>1086.9077148438</ele>
        <time>2011-10-23T08:41:39Z</time>
      </trkpt>
      <trkpt lat="45.33078" lon="6.02871">
        <ele>1086.9077148438</ele>
        <time>2011-10-23T08:41:46Z</time>
      </trkpt>
      <trkpt lat="45.33079" lon="6.02872">
        <ele>1086.9077148438</ele>
        <time>2011-10-23T08:41:50Z</time>
      </trkpt>
      <trkpt lat="45.33078" lon="6.02884">
        <ele>1084.5046386719</ele>
        <time>2011-10-23T08:41:56Z</time>
      </trkpt>
      <trkpt lat="45.33079" lon="6.02892">
        <ele>1082.1010742188</ele>
        <time>2011-10-23T08:41:59Z</time>
      </trkpt>
      <trkpt lat="45.33079" lon="6.0291">
        <ele>1080.6591796875</ele>
        <time>2011-10-23T08:42:05Z</time>
      </trkpt>
      <trkpt lat="45.3308" lon="6.02917">
        <ele>1080.6591796875</ele>
        <time>2011-10-23T08:42:08Z</time>
      </trkpt>
      <trkpt lat="45.33081" lon="6.02923">
        <ele>1082.1010742188</ele>
        <time>2011-10-23T08:42:12Z</time>
      </trkpt>
      <trkpt lat="45.33082" lon="6.02929">
        <ele>1083.0622558594</ele>
        <time>2011-10-23T08:42:15Z</time>
      </trkpt>
      <trkpt lat="45.33085" lon="6.02943">
        <ele>1084.9853515625</ele>
        <time>2011-10-23T08:42:21Z</time>
      </trkpt>
      <trkpt lat="45.33086" lon="6.02945">
        <ele>1085.9465332031</ele>
        <time>2011-10-23T08:42:22Z</time>
      </trkpt>
      <trkpt lat="45.33085" lon="6.02951">
        <ele>1086.9077148438</ele>
        <time>2011-10-23T08:42:24Z</time>
      </trkpt>
      <trkpt lat="45.33078" lon="6.02965">
        <ele>1084.0239257812</ele>
        <time>2011-10-23T08:42:30Z</time>
      </trkpt>
      <trkpt lat="45.33077" lon="6.02981">
        <ele>1085.9465332031</ele>
        <time>2011-10-23T08:42:37Z</time>
      </trkpt>
      <trkpt lat="45.33077" lon="6.02985">
        <ele>1085.4658203125</ele>
        <time>2011-10-23T08:42:39Z</time>
      </trkpt>
      <trkpt lat="45.33086" lon="6.02994">
        <ele>1084.9853515625</ele>
        <time>2011-10-23T08:42:45Z</time>
      </trkpt>
      <trkpt lat="45.33087" lon="6.03006">
        <ele>1082.5817871094</ele>
        <time>2011-10-23T08:42:52Z</time>
      </trkpt>
      <trkpt lat="45.33088" lon="6.0301">
        <ele>1085.4658203125</ele>
        <time>2011-10-23T08:42:58Z</time>
      </trkpt>
      <trkpt lat="45.33089" lon="6.03016">
        <ele>1089.3110351562</ele>
        <time>2011-10-23T08:43:06Z</time>
      </trkpt>
      <trkpt lat="45.33088" lon="6.03022">
        <ele>1089.7917480469</ele>
        <time>2011-10-23T08:43:09Z</time>
      </trkpt>
      <trkpt lat="45.33086" lon="6.03028">
        <ele>1089.7917480469</ele>
        <time>2011-10-23T08:43:13Z</time>
      </trkpt>
      <trkpt lat="45.33082" lon="6.03037">
        <ele>1093.15625</ele>
        <time>2011-10-23T08:43:22Z</time>
      </trkpt>
      <trkpt lat="45.33081" lon="6.03044">
        <ele>1092.1950683594</ele>
        <time>2011-10-23T08:43:28Z</time>
      </trkpt>
      <trkpt lat="45.33083" lon="6.03051">
        <ele>1091.7143554688</ele>
        <time>2011-10-23T08:43:34Z</time>
      </trkpt>
      <trkpt lat="45.33086" lon="6.03055">
        <ele>1091.7143554688</ele>
        <time>2011-10-23T08:43:37Z</time>
      </trkpt>
      <trkpt lat="45.33084" lon="6.0306">
        <ele>1091.7143554688</ele>
        <time>2011-10-23T08:43:40Z</time>
      </trkpt>
      <trkpt lat="45.3308" lon="6.03062">
        <ele>1092.1950683594</ele>
        <time>2011-10-23T08:43:44Z</time>
      </trkpt>
      <trkpt lat="45.3308" lon="6.03063">
        <ele>1093.6369628906</ele>
        <time>2011-10-23T08:43:50Z</time>
      </trkpt>
      <trkpt lat="45.33082" lon="6.03062">
        <ele>1093.15625</ele>
        <time>2011-10-23T08:43:57Z</time>
      </trkpt>
      <trkpt lat="45.33081" lon="6.0306">
        <ele>1091.2336425781</ele>
        <time>2011-10-23T08:44:05Z</time>
      </trkpt>
      <trkpt lat="45.33082" lon="6.03059">
        <ele>1090.2724609375</ele>
        <time>2011-10-23T08:44:14Z</time>
      </trkpt>
      <trkpt lat="45.33082" lon="6.03059">
        <ele>1090.2724609375</ele>
        <time>2011-10-23T08:44:14Z</time>
      </trkpt>
      <trkpt lat="45.33083" lon="6.03059">
        <ele>1090.7529296875</ele>
        <time>2011-10-23T08:44:16Z</time>
      </trkpt>
      <trkpt lat="45.33086" lon="6.0306">
        <ele>1093.6369628906</ele>
        <time>2011-10-23T08:44:53Z</time>
      </trkpt>
      <trkpt lat="45.33088" lon="6.03061">
        <ele>1097.962890625</ele>
        <time>2011-10-23T08:45:01Z</time>
      </trkpt>
      <trkpt lat="45.33089" lon="6.03062">
        <ele>1098.443359375</ele>
        <time>2011-10-23T08:45:05Z</time>
      </trkpt>
      <trkpt lat="45.33091" lon="6.03065">
        <ele>1098.443359375</ele>
        <time>2011-10-23T08:45:07Z</time>
      </trkpt>
      <trkpt lat="45.33094" lon="6.03075">
        <ele>1098.443359375</ele>
        <time>2011-10-23T08:45:12Z</time>
      </trkpt>
      <trkpt lat="45.33094" lon="6.03096">
        <ele>1097.962890625</ele>
        <time>2011-10-23T08:45:18Z</time>
      </trkpt>
      <trkpt lat="45.33091" lon="6.0311">
        <ele>1099.4047851562</ele>
        <time>2011-10-23T08:45:23Z</time>
      </trkpt>
      <trkpt lat="45.3309" lon="6.03115">
        <ele>1098.9240722656</ele>
        <time>2011-10-23T08:45:28Z</time>
      </trkpt>
      <trkpt lat="45.33091" lon="6.03115">
        <ele>1099.8854980469</ele>
        <time>2011-10-23T08:45:36Z</time>
      </trkpt>
      <trkpt lat="45.33092" lon="6.03116">
        <ele>1100.8469238281</ele>
        <time>2011-10-23T08:45:42Z</time>
      </trkpt>
      <trkpt lat="45.33092" lon="6.03119">
        <ele>1099.8854980469</ele>
        <time>2011-10-23T08:45:47Z</time>
      </trkpt>
      <trkpt lat="45.33096" lon="6.03117">
        <ele>1098.9240722656</ele>
        <time>2011-10-23T08:45:53Z</time>
      </trkpt>
      <trkpt lat="45.33097" lon="6.03114">
        <ele>1097.4821777344</ele>
        <time>2011-10-23T08:46:02Z</time>
      </trkpt>
      <trkpt lat="45.33098" lon="6.03112">
        <ele>1097.0014648438</ele>
        <time>2011-10-23T08:46:18Z</time>
      </trkpt>
      <trkpt lat="45.33092" lon="6.03119">
        <ele>1101.3276367188</ele>
        <time>2011-10-23T08:46:48Z</time>
      </trkpt>
      <trkpt lat="45.33096" lon="6.03123">
        <ele>1101.8083496094</ele>
        <time>2011-10-23T08:47:29Z</time>
      </trkpt>
      <trkpt lat="45.331" lon="6.03126">
        <ele>1102.2888183594</ele>
        <time>2011-10-23T08:47:37Z</time>
      </trkpt>
      <trkpt lat="45.33102" lon="6.03132">
        <ele>1103.7309570312</ele>
        <time>2011-10-23T08:47:40Z</time>
      </trkpt>
      <trkpt lat="45.33108" lon="6.03143">
        <ele>1101.3276367188</ele>
        <time>2011-10-23T08:47:44Z</time>
      </trkpt>
      <trkpt lat="45.33113" lon="6.03153">
        <ele>1099.8854980469</ele>
        <time>2011-10-23T08:47:49Z</time>
      </trkpt>
      <trkpt lat="45.33117" lon="6.03156">
        <ele>1102.76953125</ele>
        <time>2011-10-23T08:47:54Z</time>
      </trkpt>
      <trkpt lat="45.33119" lon="6.03159">
        <ele>1101.8083496094</ele>
        <time>2011-10-23T08:47:58Z</time>
      </trkpt>
      <trkpt lat="45.33118" lon="6.03156">
        <ele>1102.76953125</ele>
        <time>2011-10-23T08:48:02Z</time>
      </trkpt>
      <trkpt lat="45.33118" lon="6.03156">
        <ele>1098.443359375</ele>
        <time>2011-10-23T08:48:08Z</time>
      </trkpt>
      <trkpt lat="45.33115" lon="6.03158">
        <ele>1098.443359375</ele>
        <time>2011-10-23T08:48:18Z</time>
      </trkpt>
      <trkpt lat="45.33114" lon="6.03154">
        <ele>1101.3276367188</ele>
        <time>2011-10-23T08:48:32Z</time>
      </trkpt>
      <trkpt lat="45.33122" lon="6.03151">
        <ele>1106.6147460938</ele>
        <time>2011-10-23T08:48:53Z</time>
      </trkpt>
      <trkpt lat="45.33118" lon="6.03146">
        <ele>1103.7309570312</ele>
        <time>2011-10-23T08:49:05Z</time>
      </trkpt>
      <trkpt lat="45.33113" lon="6.03146">
        <ele>1103.7309570312</ele>
        <time>2011-10-23T08:49:11Z</time>
      </trkpt>
      <trkpt lat="45.33109" lon="6.03145">
        <ele>1104.6921386719</ele>
        <time>2011-10-23T08:49:21Z</time>
      </trkpt>
      <trkpt lat="45.33108" lon="6.03145">
        <ele>1103.2502441406</ele>
        <time>2011-10-23T08:49:31Z</time>
      </trkpt>
      <trkpt lat="45.33113" lon="6.03141">
        <ele>1103.7309570312</ele>
        <time>2011-10-23T08:49:45Z</time>
      </trkpt>
      <trkpt lat="45.33113" lon="6.0314">
        <ele>1104.6921386719</ele>
        <time>2011-10-23T08:49:47Z</time>
      </trkpt>
      <trkpt lat="45.33113" lon="6.03141">
        <ele>1108.5373535156</ele>
        <time>2011-10-23T08:49:54Z</time>
      </trkpt>
      <trkpt lat="45.33114" lon="6.0314">
        <ele>1105.6535644531</ele>
        <time>2011-10-23T08:50:00Z</time>
      </trkpt>
      <trkpt lat="45.33112" lon="6.0314">
        <ele>1106.6147460938</ele>
        <time>2011-10-23T08:50:03Z</time>
      </trkpt>
      <trkpt lat="45.33106" lon="6.03136">
        <ele>1106.1340332031</ele>
        <time>2011-10-23T08:50:16Z</time>
      </trkpt>
      <trkpt lat="45.33103" lon="6.03136">
        <ele>1107.576171875</ele>
        <time>2011-10-23T08:50:21Z</time>
      </trkpt>
      <trkpt lat="45.33099" lon="6.03139">
        <ele>1108.5373535156</ele>
        <time>2011-10-23T08:50:29Z</time>
      </trkpt>
      <trkpt lat="45.33093" lon="6.03138">
        <ele>1115.7473144531</ele>
        <time>2011-10-23T08:50:40Z</time>
      </trkpt>
      <trkpt lat="45.33097" lon="6.03138">
        <ele>1115.2666015625</ele>
        <time>2011-10-23T08:50:55Z</time>
      </trkpt>
      <trkpt lat="45.331" lon="6.03135">
        <ele>1109.4987792969</ele>
        <time>2011-10-23T08:51:13Z</time>
      </trkpt>
      <trkpt lat="45.33102" lon="6.03138">
        <ele>1110.9406738281</ele>
        <time>2011-10-23T08:51:21Z</time>
      </trkpt>
      <trkpt lat="45.331" lon="6.03137">
        <ele>1103.2502441406</ele>
        <time>2011-10-23T08:51:36Z</time>
      </trkpt>
      <trkpt lat="45.33101" lon="6.03139">
        <ele>1101.8083496094</ele>
        <time>2011-10-23T08:51:46Z</time>
      </trkpt>
      <trkpt lat="45.33102" lon="6.03137">
        <ele>1105.1728515625</ele>
        <time>2011-10-23T08:52:02Z</time>
      </trkpt>
      <trkpt lat="45.33104" lon="6.03139">
        <ele>1119.5927734375</ele>
        <time>2011-10-23T08:52:19Z</time>
      </trkpt>
      <trkpt lat="45.33102" lon="6.03138">
        <ele>1119.5927734375</ele>
        <time>2011-10-23T08:52:26Z</time>
      </trkpt>
      <trkpt lat="45.3311" lon="6.03141">
        <ele>1110.9406738281</ele>
        <time>2011-10-23T08:52:33Z</time>
      </trkpt>
      <trkpt lat="45.33112" lon="6.03141">
        <ele>1109.0180664062</ele>
        <time>2011-10-23T08:52:36Z</time>
      </trkpt>
      <trkpt lat="45.33113" lon="6.03139">
        <ele>1118.1506347656</ele>
        <time>2011-10-23T08:52:47Z</time>
      </trkpt>
      <trkpt lat="45.33107" lon="6.03135">
        <ele>1120.5539550781</ele>
        <time>2011-10-23T08:52:54Z</time>
      </trkpt>
      <trkpt lat="45.33098" lon="6.03128">
        <ele>1118.6313476562</ele>
        <time>2011-10-23T08:53:28Z</time>
      </trkpt>
      <trkpt lat="45.331" lon="6.03132">
        <ele>1117.669921875</ele>
        <time>2011-10-23T08:53:33Z</time>
      </trkpt>
      <trkpt lat="45.33104" lon="6.03134">
        <ele>1114.7858886719</ele>
        <time>2011-10-23T08:53:36Z</time>
      </trkpt>
      <trkpt lat="45.33114" lon="6.03138">
        <ele>1103.2502441406</ele>
        <time>2011-10-23T08:53:44Z</time>
      </trkpt>
      <trkpt lat="45.33116" lon="6.03138">
        <ele>1100.8469238281</ele>
        <time>2011-10-23T08:53:58Z</time>
      </trkpt>
      <trkpt lat="45.33113" lon="6.03137">
        <ele>1108.5373535156</ele>
        <time>2011-10-23T08:54:14Z</time>
      </trkpt>
      <trkpt lat="45.33107" lon="6.03131">
        <ele>1117.189453125</ele>
        <time>2011-10-23T08:54:29Z</time>
      </trkpt>
      <trkpt lat="45.33101" lon="6.0313">
        <ele>1119.5927734375</ele>
        <time>2011-10-23T08:54:38Z</time>
      </trkpt>
      <trkpt lat="45.33096" lon="6.03124">
        <ele>1125.8410644531</ele>
        <time>2011-10-23T08:55:03Z</time>
      </trkpt>
      <trkpt lat="45.33098" lon="6.03125">
        <ele>1113.3439941406</ele>
        <time>2011-10-23T08:55:17Z</time>
      </trkpt>
      <trkpt lat="45.331" lon="6.03126">
        <ele>1109.4987792969</ele>
        <time>2011-10-23T08:55:22Z</time>
      </trkpt>
      <trkpt lat="45.33098" lon="6.03136">
        <ele>1098.9240722656</ele>
        <time>2011-10-23T08:55:46Z</time>
      </trkpt>
      <trkpt lat="45.33094" lon="6.03135">
        <ele>1100.3664550781</ele>
        <time>2011-10-23T08:55:56Z</time>
      </trkpt>
      <trkpt lat="45.33094" lon="6.03135">
        <ele>1105.1728515625</ele>
        <time>2011-10-23T08:56:10Z</time>
      </trkpt>
      <trkpt lat="45.33092" lon="6.03134">
        <ele>1107.0954589844</ele>
        <time>2011-10-23T08:56:13Z</time>
      </trkpt>
      <trkpt lat="45.33102" lon="6.03136">
        <ele>1104.6921386719</ele>
        <time>2011-10-23T08:56:18Z</time>
      </trkpt>
      <trkpt lat="45.33103" lon="6.03132">
        <ele>1105.1728515625</ele>
        <time>2011-10-23T08:56:20Z</time>
      </trkpt>
      <trkpt lat="45.33103" lon="6.0313">
        <ele>1105.1728515625</ele>
        <time>2011-10-23T08:56:22Z</time>
      </trkpt>
      <trkpt lat="45.33097" lon="6.03122">
        <ele>1104.6921386719</ele>
        <time>2011-10-23T08:56:27Z</time>
      </trkpt>
      <trkpt lat="45.33094" lon="6.03112">
        <ele>1101.8083496094</ele>
        <time>2011-10-23T08:56:31Z</time>
      </trkpt>
      <trkpt lat="45.33091" lon="6.03109">
        <ele>1100.3664550781</ele>
        <time>2011-10-23T08:56:34Z</time>
      </trkpt>
      <trkpt lat="45.33089" lon="6.03109">
        <ele>1100.8469238281</ele>
        <time>2011-10-23T08:56:39Z</time>
      </trkpt>
      <trkpt lat="45.33088" lon="6.03108">
        <ele>1106.1340332031</ele>
        <time>2011-10-23T08:56:51Z</time>
      </trkpt>
      <trkpt lat="45.33087" lon="6.03112">
        <ele>1107.576171875</ele>
        <time>2011-10-23T08:57:04Z</time>
      </trkpt>
      <trkpt lat="45.33088" lon="6.03112">
        <ele>1107.0954589844</ele>
        <time>2011-10-23T08:57:13Z</time>
      </trkpt>
      <trkpt lat="45.3309" lon="6.0311">
        <ele>1105.6535644531</ele>
        <time>2011-10-23T08:57:26Z</time>
      </trkpt>
      <trkpt lat="45.33089" lon="6.0311">
        <ele>1108.5373535156</ele>
        <time>2011-10-23T08:57:32Z</time>
      </trkpt>
      <trkpt lat="45.33089" lon="6.0311">
        <ele>1109.4987792969</ele>
        <time>2011-10-23T08:57:39Z</time>
      </trkpt>
      <trkpt lat="45.33091" lon="6.03112">
        <ele>1106.6147460938</ele>
        <time>2011-10-23T08:57:49Z</time>
      </trkpt>
      <trkpt lat="45.33087" lon="6.03115">
        <ele>1105.6535644531</ele>
        <time>2011-10-23T08:58:05Z</time>
      </trkpt>
      <trkpt lat="45.33087" lon="6.03117">
        <ele>1104.2116699219</ele>
        <time>2011-10-23T08:58:10Z</time>
      </trkpt>
      <trkpt lat="45.33089" lon="6.03105">
        <ele>1098.9240722656</ele>
        <time>2011-10-23T08:58:18Z</time>
      </trkpt>
      <trkpt lat="45.33088" lon="6.03094">
        <ele>1095.0788574219</ele>
        <time>2011-10-23T08:58:24Z</time>
      </trkpt>
      <trkpt lat="45.33087" lon="6.03092">
        <ele>1094.5981445312</ele>
        <time>2011-10-23T08:58:25Z</time>
      </trkpt>
      <trkpt lat="45.33087" lon="6.03087">
        <ele>1092.1950683594</ele>
        <time>2011-10-23T08:58:29Z</time>
      </trkpt>
      <trkpt lat="45.33085" lon="6.03079">
        <ele>1089.7917480469</ele>
        <time>2011-10-23T08:58:34Z</time>
      </trkpt>
      <trkpt lat="45.33084" lon="6.03078">
        <ele>1089.3110351562</ele>
        <time>2011-10-23T08:58:35Z</time>
      </trkpt>
      <trkpt lat="45.33083" lon="6.03074">
        <ele>1090.2724609375</ele>
        <time>2011-10-23T08:58:37Z</time>
      </trkpt>
      <trkpt lat="45.33082" lon="6.03065">
        <ele>1094.1176757812</ele>
        <time>2011-10-23T08:58:41Z</time>
      </trkpt>
      <trkpt lat="45.33083" lon="6.0306">
        <ele>1093.6369628906</ele>
        <time>2011-10-23T08:58:47Z</time>
      </trkpt>
      <trkpt lat="45.33084" lon="6.03061">
        <ele>1094.1176757812</ele>
        <time>2011-10-23T08:58:48Z</time>
      </trkpt>
      <trkpt lat="45.33084" lon="6.03061">
        <ele>1094.1176757812</ele>
        <time>2011-10-23T08:58:48Z</time>
      </trkpt>
      <trkpt lat="45.33085" lon="6.0306">
        <ele>1094.1176757812</ele>
        <time>2011-10-23T08:58:53Z</time>
      </trkpt>
      <trkpt lat="45.33088" lon="6.03058">
        <ele>1097.962890625</ele>
        <time>2011-10-23T08:59:07Z</time>
      </trkpt>
      <trkpt lat="45.33088" lon="6.03062">
        <ele>1098.443359375</ele>
        <time>2011-10-23T08:59:14Z</time>
      </trkpt>
      <trkpt lat="45.33086" lon="6.03064">
        <ele>1097.0014648438</ele>
        <time>2011-10-23T08:59:20Z</time>
      </trkpt>
      <trkpt lat="45.33084" lon="6.03069">
        <ele>1097.0014648438</ele>
        <time>2011-10-23T08:59:26Z</time>
      </trkpt>
      <trkpt lat="45.33083" lon="6.03074">
        <ele>1097.962890625</ele>
        <time>2011-10-23T08:59:32Z</time>
      </trkpt>
      <trkpt lat="45.3308" lon="6.03075">
        <ele>1099.4047851562</ele>
        <time>2011-10-23T08:59:41Z</time>
      </trkpt>
      <trkpt lat="45.3308" lon="6.03075">
        <ele>1100.3664550781</ele>
        <time>2011-10-23T08:59:56Z</time>
      </trkpt>
      <trkpt lat="45.33079" lon="6.03075">
        <ele>1100.8469238281</ele>
        <time>2011-10-23T09:00:04Z</time>
      </trkpt>
      <trkpt lat="45.3308" lon="6.03074">
        <ele>1097.4821777344</ele>
        <time>2011-10-23T09:00:16Z</time>
      </trkpt>
      <trkpt lat="45.3308" lon="6.03076">
        <ele>1095.0788574219</ele>
        <time>2011-10-23T09:00:29Z</time>
      </trkpt>
      <trkpt lat="45.33078" lon="6.0308">
        <ele>1097.0014648438</ele>
        <time>2011-10-23T09:00:43Z</time>
      </trkpt>
      <trkpt lat="45.33079" lon="6.03079">
        <ele>1097.0014648438</ele>
        <time>2011-10-23T09:00:45Z</time>
      </trkpt>
      <trkpt lat="45.33084" lon="6.03078">
        <ele>1096.0402832031</ele>
        <time>2011-10-23T09:00:53Z</time>
      </trkpt>
      <trkpt lat="45.33084" lon="6.03077">
        <ele>1095.0788574219</ele>
        <time>2011-10-23T09:01:02Z</time>
      </trkpt>
      <trkpt lat="45.33079" lon="6.03081">
        <ele>1096.0402832031</ele>
        <time>2011-10-23T09:01:16Z</time>
      </trkpt>
      <trkpt lat="45.33077" lon="6.03079">
        <ele>1097.962890625</ele>
        <time>2011-10-23T09:01:25Z</time>
      </trkpt>
      <trkpt lat="45.33078" lon="6.03075">
        <ele>1097.4821777344</ele>
        <time>2011-10-23T09:01:29Z</time>
      </trkpt>
      <trkpt lat="45.33079" lon="6.03071">
        <ele>1096.0402832031</ele>
        <time>2011-10-23T09:01:31Z</time>
      </trkpt>
      <trkpt lat="45.33082" lon="6.03062">
        <ele>1094.5981445312</ele>
        <time>2011-10-23T09:01:37Z</time>
      </trkpt>
      <trkpt lat="45.33086" lon="6.03061">
        <ele>1095.5595703125</ele>
        <time>2011-10-23T09:01:54Z</time>
      </trkpt>
      <trkpt lat="45.33087" lon="6.03063">
        <ele>1096.5209960938</ele>
        <time>2011-10-23T09:02:05Z</time>
      </trkpt>
      <trkpt lat="45.33087" lon="6.03064">
        <ele>1096.0402832031</ele>
        <time>2011-10-23T09:02:11Z</time>
      </trkpt>
      <trkpt lat="45.33088" lon="6.03061">
        <ele>1096.0402832031</ele>
        <time>2011-10-23T09:02:22Z</time>
      </trkpt>
      <trkpt lat="45.33086" lon="6.03065">
        <ele>1095.5595703125</ele>
        <time>2011-10-23T09:02:27Z</time>
      </trkpt>
      <trkpt lat="45.33085" lon="6.03073">
        <ele>1094.5981445312</ele>
        <time>2011-10-23T09:02:33Z</time>
      </trkpt>
      <trkpt lat="45.33083" lon="6.03074">
        <ele>1093.6369628906</ele>
        <time>2011-10-23T09:02:40Z</time>
      </trkpt>
      <trkpt lat="45.33083" lon="6.03072">
        <ele>1095.5595703125</ele>
        <time>2011-10-23T09:02:46Z</time>
      </trkpt>
      <trkpt lat="45.3308" lon="6.03074">
        <ele>1097.962890625</ele>
        <time>2011-10-23T09:02:55Z</time>
      </trkpt>
      <trkpt lat="45.3308" lon="6.03075">
        <ele>1099.4047851562</ele>
        <time>2011-10-23T09:02:58Z</time>
      </trkpt>
      <trkpt lat="45.3308" lon="6.03075">
        <ele>1099.4047851562</ele>
        <time>2011-10-23T09:02:58Z</time>
      </trkpt>
      <trkpt lat="45.33079" lon="6.03076">
        <ele>1099.8854980469</ele>
        <time>2011-10-23T09:03:05Z</time>
      </trkpt>
      <trkpt lat="45.33079" lon="6.03078">
        <ele>1100.3664550781</ele>
        <time>2011-10-23T09:03:06Z</time>
      </trkpt>
      <trkpt lat="45.33075" lon="6.03092">
        <ele>1102.76953125</ele>
        <time>2011-10-23T09:03:15Z</time>
      </trkpt>
      <trkpt lat="45.33072" lon="6.03101">
        <ele>1103.2502441406</ele>
        <time>2011-10-23T09:03:22Z</time>
      </trkpt>
      <trkpt lat="45.33074" lon="6.03109">
        <ele>1105.6535644531</ele>
        <time>2011-10-23T09:03:28Z</time>
      </trkpt>
      <trkpt lat="45.33075" lon="6.03113">
        <ele>1107.576171875</ele>
        <time>2011-10-23T09:03:34Z</time>
      </trkpt>
      <trkpt lat="45.33073" lon="6.03119">
        <ele>1109.4987792969</ele>
        <time>2011-10-23T09:03:42Z</time>
      </trkpt>
      <trkpt lat="45.33071" lon="6.03121">
        <ele>1111.9020996094</ele>
        <time>2011-10-23T09:03:47Z</time>
      </trkpt>
      <trkpt lat="45.3307" lon="6.03124">
        <ele>1110.4599609375</ele>
        <time>2011-10-23T09:03:54Z</time>
      </trkpt>
      <trkpt lat="45.33069" lon="6.0313">
        <ele>1109.4987792969</ele>
        <time>2011-10-23T09:04:00Z</time>
      </trkpt>
      <trkpt lat="45.33067" lon="6.03134">
        <ele>1109.4987792969</ele>
        <time>2011-10-23T09:04:07Z</time>
      </trkpt>
      <trkpt lat="45.33067" lon="6.03134">
        <ele>1110.4599609375</ele>
        <time>2011-10-23T09:04:14Z</time>
      </trkpt>
      <trkpt lat="45.33066" lon="6.03135">
        <ele>1111.9020996094</ele>
        <time>2011-10-23T09:04:19Z</time>
      </trkpt>
      <trkpt lat="45.33062" lon="6.03139">
        <ele>1116.2280273438</ele>
        <time>2011-10-23T09:04:28Z</time>
      </trkpt>
      <trkpt lat="45.33059" lon="6.03143">
        <ele>1118.6313476562</ele>
        <time>2011-10-23T09:04:34Z</time>
      </trkpt>
      <trkpt lat="45.33057" lon="6.03149">
        <ele>1118.6313476562</ele>
        <time>2011-10-23T09:04:49Z</time>
      </trkpt>
      <trkpt lat="45.33053" lon="6.03152">
        <ele>1120.5539550781</ele>
        <time>2011-10-23T09:04:56Z</time>
      </trkpt>
      <trkpt lat="45.33049" lon="6.03155">
        <ele>1123.9184570312</ele>
        <time>2011-10-23T09:05:04Z</time>
      </trkpt>
      <trkpt lat="45.33047" lon="6.03158">
        <ele>1124.8798828125</ele>
        <time>2011-10-23T09:05:11Z</time>
      </trkpt>
      <trkpt lat="45.33047" lon="6.03164">
        <ele>1125.3603515625</ele>
        <time>2011-10-23T09:05:19Z</time>
      </trkpt>
      <trkpt lat="45.33046" lon="6.0317">
        <ele>1125.3603515625</ele>
        <time>2011-10-23T09:05:25Z</time>
      </trkpt>
      <trkpt lat="45.33043" lon="6.03183">
        <ele>1125.3603515625</ele>
        <time>2011-10-23T09:05:34Z</time>
      </trkpt>
      <trkpt lat="45.3304" lon="6.03193">
        <ele>1125.3603515625</ele>
        <time>2011-10-23T09:05:41Z</time>
      </trkpt>
      <trkpt lat="45.33032" lon="6.03202">
        <ele>1125.3603515625</ele>
        <time>2011-10-23T09:05:47Z</time>
      </trkpt>
      <trkpt lat="45.33022" lon="6.03211">
        <ele>1123.4379882812</ele>
        <time>2011-10-23T09:05:52Z</time>
      </trkpt>
      <trkpt lat="45.33007" lon="6.03216">
        <ele>1123.4379882812</ele>
        <time>2011-10-23T09:05:58Z</time>
      </trkpt>
      <trkpt lat="45.32999" lon="6.03219">
        <ele>1123.9184570312</ele>
        <time>2011-10-23T09:06:03Z</time>
      </trkpt>
      <trkpt lat="45.32991" lon="6.03219">
        <ele>1123.9184570312</ele>
        <time>2011-10-23T09:06:09Z</time>
      </trkpt>
      <trkpt lat="45.32986" lon="6.03217">
        <ele>1124.3991699219</ele>
        <time>2011-10-23T09:06:15Z</time>
      </trkpt>
      <trkpt lat="45.32985" lon="6.03216">
        <ele>1124.8798828125</ele>
        <time>2011-10-23T09:06:24Z</time>
      </trkpt>
      <trkpt lat="45.32977" lon="6.03215">
        <ele>1125.8410644531</ele>
        <time>2011-10-23T09:06:29Z</time>
      </trkpt>
      <trkpt lat="45.32966" lon="6.03213">
        <ele>1125.8410644531</ele>
        <time>2011-10-23T09:06:34Z</time>
      </trkpt>
      <trkpt lat="45.32953" lon="6.03209">
        <ele>1125.8410644531</ele>
        <time>2011-10-23T09:06:41Z</time>
      </trkpt>
      <trkpt lat="45.32951" lon="6.03209">
        <ele>1125.8410644531</ele>
        <time>2011-10-23T09:06:43Z</time>
      </trkpt>
      <trkpt lat="45.32938" lon="6.03205">
        <ele>1126.3217773438</ele>
        <time>2011-10-23T09:06:51Z</time>
      </trkpt>
      <trkpt lat="45.32926" lon="6.032">
        <ele>1128.2443847656</ele>
        <time>2011-10-23T09:06:57Z</time>
      </trkpt>
      <trkpt lat="45.32912" lon="6.03191">
        <ele>1132.08984375</ele>
        <time>2011-10-23T09:07:05Z</time>
      </trkpt>
      <trkpt lat="45.329" lon="6.03185">
        <ele>1134.4931640625</ele>
        <time>2011-10-23T09:07:11Z</time>
      </trkpt>
      <trkpt lat="45.32887" lon="6.03181">
        <ele>1136.4157714844</ele>
        <time>2011-10-23T09:07:18Z</time>
      </trkpt>
      <trkpt lat="45.32875" lon="6.03182">
        <ele>1137.376953125</ele>
        <time>2011-10-23T09:07:25Z</time>
      </trkpt>
      <trkpt lat="45.32863" lon="6.03186">
        <ele>1137.8576660156</ele>
        <time>2011-10-23T09:07:32Z</time>
      </trkpt>
      <trkpt lat="45.32852" lon="6.0319">
        <ele>1137.376953125</ele>
        <time>2011-10-23T09:07:38Z</time>
      </trkpt>
      <trkpt lat="45.32839" lon="6.03199">
        <ele>1138.3383789062</ele>
        <time>2011-10-23T09:07:45Z</time>
      </trkpt>
      <trkpt lat="45.32826" lon="6.03213">
        <ele>1140.2609863281</ele>
        <time>2011-10-23T09:07:53Z</time>
      </trkpt>
      <trkpt lat="45.32816" lon="6.03225">
        <ele>1142.6643066406</ele>
        <time>2011-10-23T09:08:00Z</time>
      </trkpt>
      <trkpt lat="45.32814" lon="6.03227">
        <ele>1143.1447753906</ele>
        <time>2011-10-23T09:08:01Z</time>
      </trkpt>
      <trkpt lat="45.32804" lon="6.03238">
        <ele>1145.5480957031</ele>
        <time>2011-10-23T09:08:08Z</time>
      </trkpt>
      <trkpt lat="45.32803" lon="6.0324">
        <ele>1146.0288085938</ele>
        <time>2011-10-23T09:08:09Z</time>
      </trkpt>
      <trkpt lat="45.32796" lon="6.03245">
        <ele>1148.4321289062</ele>
        <time>2011-10-23T09:08:13Z</time>
      </trkpt>
      <trkpt lat="45.32781" lon="6.03254">
        <ele>1154.2001953125</ele>
        <time>2011-10-23T09:08:21Z</time>
      </trkpt>
      <trkpt lat="45.3277" lon="6.03262">
        <ele>1155.6420898438</ele>
        <time>2011-10-23T09:08:28Z</time>
      </trkpt>
      <trkpt lat="45.32755" lon="6.03268">
        <ele>1157.083984375</ele>
        <time>2011-10-23T09:08:36Z</time>
      </trkpt>
      <trkpt lat="45.32744" lon="6.03275">
        <ele>1153.2387695312</ele>
        <time>2011-10-23T09:08:44Z</time>
      </trkpt>
      <trkpt lat="45.32731" lon="6.0328">
        <ele>1155.1613769531</ele>
        <time>2011-10-23T09:08:52Z</time>
      </trkpt>
      <trkpt lat="45.32729" lon="6.03282">
        <ele>1156.1225585938</ele>
        <time>2011-10-23T09:08:54Z</time>
      </trkpt>
      <trkpt lat="45.32719" lon="6.0329">
        <ele>1158.0454101562</ele>
        <time>2011-10-23T09:09:00Z</time>
      </trkpt>
      <trkpt lat="45.3271" lon="6.03295">
        <ele>1156.6032714844</ele>
        <time>2011-10-23T09:09:06Z</time>
      </trkpt>
      <trkpt lat="45.32698" lon="6.03298">
        <ele>1158.5258789062</ele>
        <time>2011-10-23T09:09:12Z</time>
      </trkpt>
      <trkpt lat="45.3269" lon="6.03298">
        <ele>1158.5258789062</ele>
        <time>2011-10-23T09:09:17Z</time>
      </trkpt>
      <trkpt lat="45.3268" lon="6.033">
        <ele>1159.9677734375</ele>
        <time>2011-10-23T09:09:23Z</time>
      </trkpt>
      <trkpt lat="45.32674" lon="6.03304">
        <ele>1161.4099121094</ele>
        <time>2011-10-23T09:09:26Z</time>
      </trkpt>
      <trkpt lat="45.32663" lon="6.03305">
        <ele>1160.9291992188</ele>
        <time>2011-10-23T09:09:33Z</time>
      </trkpt>
      <trkpt lat="45.32653" lon="6.03308">
        <ele>1159.9677734375</ele>
        <time>2011-10-23T09:09:39Z</time>
      </trkpt>
      <trkpt lat="45.32651" lon="6.0331">
        <ele>1159.4873046875</ele>
        <time>2011-10-23T09:09:42Z</time>
      </trkpt>
      <trkpt lat="45.32644" lon="6.03315">
        <ele>1158.5258789062</ele>
        <time>2011-10-23T09:09:47Z</time>
      </trkpt>
      <trkpt lat="45.32635" lon="6.03326">
        <ele>1158.0454101562</ele>
        <time>2011-10-23T09:09:53Z</time>
      </trkpt>
      <trkpt lat="45.32626" lon="6.03342">
        <ele>1158.5258789062</ele>
        <time>2011-10-23T09:10:00Z</time>
      </trkpt>
      <trkpt lat="45.32617" lon="6.03355">
        <ele>1160.4484863281</ele>
        <time>2011-10-23T09:10:07Z</time>
      </trkpt>
      <trkpt lat="45.32607" lon="6.03358">
        <ele>1164.7746582031</ele>
        <time>2011-10-23T09:10:13Z</time>
      </trkpt>
      <trkpt lat="45.32598" lon="6.03356">
        <ele>1171.0231933594</ele>
        <time>2011-10-23T09:10:19Z</time>
      </trkpt>
      <trkpt lat="45.32588" lon="6.03348">
        <ele>1177.7521972656</ele>
        <time>2011-10-23T09:10:25Z</time>
      </trkpt>
      <trkpt lat="45.32575" lon="6.03341">
        <ele>1183.0395507812</ele>
        <time>2011-10-23T09:10:31Z</time>
      </trkpt>
      <trkpt lat="45.3256" lon="6.03335">
        <ele>1183.0395507812</ele>
        <time>2011-10-23T09:10:39Z</time>
      </trkpt>
      <trkpt lat="45.3255" lon="6.03336">
        <ele>1183.0395507812</ele>
        <time>2011-10-23T09:10:45Z</time>
      </trkpt>
      <trkpt lat="45.32536" lon="6.03334">
        <ele>1180.1557617188</ele>
        <time>2011-10-23T09:10:53Z</time>
      </trkpt>
      <trkpt lat="45.3252" lon="6.03334">
        <ele>1178.7136230469</ele>
        <time>2011-10-23T09:11:01Z</time>
      </trkpt>
      <trkpt lat="45.32504" lon="6.03334">
        <ele>1180.6364746094</ele>
        <time>2011-10-23T09:11:09Z</time>
      </trkpt>
      <trkpt lat="45.32491" lon="6.03331">
        <ele>1185.9235839844</ele>
        <time>2011-10-23T09:11:15Z</time>
      </trkpt>
      <trkpt lat="45.32477" lon="6.03333">
        <ele>1185.9235839844</ele>
        <time>2011-10-23T09:11:23Z</time>
      </trkpt>
      <trkpt lat="45.32466" lon="6.03333">
        <ele>1185.4428710938</ele>
        <time>2011-10-23T09:11:29Z</time>
      </trkpt>
      <trkpt lat="45.32447" lon="6.0333">
        <ele>1189.7687988281</ele>
        <time>2011-10-23T09:11:38Z</time>
      </trkpt>
      <trkpt lat="45.32431" lon="6.03329">
        <ele>1194.0947265625</ele>
        <time>2011-10-23T09:11:46Z</time>
      </trkpt>
      <trkpt lat="45.32424" lon="6.03333">
        <ele>1190.7299804688</ele>
        <time>2011-10-23T09:11:51Z</time>
      </trkpt>
      <trkpt lat="45.32413" lon="6.03339">
        <ele>1187.3654785156</ele>
        <time>2011-10-23T09:11:59Z</time>
      </trkpt>
      <trkpt lat="45.32403" lon="6.0334">
        <ele>1186.884765625</ele>
        <time>2011-10-23T09:12:05Z</time>
      </trkpt>
      <trkpt lat="45.32391" lon="6.03342">
        <ele>1187.3654785156</ele>
        <time>2011-10-23T09:12:12Z</time>
      </trkpt>
      <trkpt lat="45.32379" lon="6.03342">
        <ele>1192.6528320312</ele>
        <time>2011-10-23T09:12:19Z</time>
      </trkpt>
      <trkpt lat="45.32372" lon="6.03342">
        <ele>1192.1721191406</ele>
        <time>2011-10-23T09:12:24Z</time>
      </trkpt>
      <trkpt lat="45.32371" lon="6.03342">
        <ele>1192.6528320312</ele>
        <time>2011-10-23T09:12:25Z</time>
      </trkpt>
      <trkpt lat="45.32362" lon="6.03344">
        <ele>1193.1333007812</ele>
        <time>2011-10-23T09:12:31Z</time>
      </trkpt>
      <trkpt lat="45.3235" lon="6.03349">
        <ele>1195.5366210938</ele>
        <time>2011-10-23T09:12:39Z</time>
      </trkpt>
      <trkpt lat="45.32336" lon="6.03356">
        <ele>1196.017578125</ele>
        <time>2011-10-23T09:12:46Z</time>
      </trkpt>
      <trkpt lat="45.32323" lon="6.03362">
        <ele>1195.5366210938</ele>
        <time>2011-10-23T09:12:53Z</time>
      </trkpt>
      <trkpt lat="45.32318" lon="6.03363">
        <ele>1198.4206542969</ele>
        <time>2011-10-23T09:12:55Z</time>
      </trkpt>
      <trkpt lat="45.32309" lon="6.03367">
        <ele>1201.3046875</ele>
        <time>2011-10-23T09:13:01Z</time>
      </trkpt>
      <trkpt lat="45.323" lon="6.03373">
        <ele>1199.3820800781</ele>
        <time>2011-10-23T09:13:06Z</time>
      </trkpt>
      <trkpt lat="45.32294" lon="6.03383">
        <ele>1195.5366210938</ele>
        <time>2011-10-23T09:13:11Z</time>
      </trkpt>
      <trkpt lat="45.32285" lon="6.03394">
        <ele>1193.6140136719</ele>
        <time>2011-10-23T09:13:18Z</time>
      </trkpt>
      <trkpt lat="45.32279" lon="6.03406">
        <ele>1190.2495117188</ele>
        <time>2011-10-23T09:13:24Z</time>
      </trkpt>
      <trkpt lat="45.32272" lon="6.03423">
        <ele>1192.1721191406</ele>
        <time>2011-10-23T09:13:32Z</time>
      </trkpt>
      <trkpt lat="45.3227" lon="6.0343">
        <ele>1193.6140136719</ele>
        <time>2011-10-23T09:13:35Z</time>
      </trkpt>
      <trkpt lat="45.32269" lon="6.03451">
        <ele>1202.7465820312</ele>
        <time>2011-10-23T09:13:44Z</time>
      </trkpt>
      <trkpt lat="45.32272" lon="6.03465">
        <ele>1206.591796875</ele>
        <time>2011-10-23T09:13:50Z</time>
      </trkpt>
      <trkpt lat="45.32272" lon="6.0348">
        <ele>1209.4758300781</ele>
        <time>2011-10-23T09:13:56Z</time>
      </trkpt>
      <trkpt lat="45.32269" lon="6.03495">
        <ele>1210.9177246094</ele>
        <time>2011-10-23T09:14:02Z</time>
      </trkpt>
      <trkpt lat="45.32261" lon="6.03505">
        <ele>1212.8405761719</ele>
        <time>2011-10-23T09:14:08Z</time>
      </trkpt>
      <trkpt lat="45.32251" lon="6.03506">
        <ele>1217.6469726562</ele>
        <time>2011-10-23T09:14:13Z</time>
      </trkpt>
      <trkpt lat="45.32239" lon="6.03506">
        <ele>1220.0502929688</ele>
        <time>2011-10-23T09:14:18Z</time>
      </trkpt>
      <trkpt lat="45.3222" lon="6.03514">
        <ele>1224.3762207031</ele>
        <time>2011-10-23T09:14:25Z</time>
      </trkpt>
      <trkpt lat="45.32212" lon="6.03528">
        <ele>1222.4536132812</ele>
        <time>2011-10-23T09:14:30Z</time>
      </trkpt>
      <trkpt lat="45.32199" lon="6.03543">
        <ele>1227.7407226562</ele>
        <time>2011-10-23T09:14:37Z</time>
      </trkpt>
      <trkpt lat="45.3219" lon="6.03547">
        <ele>1228.7023925781</ele>
        <time>2011-10-23T09:14:41Z</time>
      </trkpt>
      <trkpt lat="45.32175" lon="6.03549">
        <ele>1233.5087890625</ele>
        <time>2011-10-23T09:14:47Z</time>
      </trkpt>
      <trkpt lat="45.32162" lon="6.03554">
        <ele>1237.3540039062</ele>
        <time>2011-10-23T09:14:53Z</time>
      </trkpt>
      <trkpt lat="45.32151" lon="6.03565">
        <ele>1235.912109375</ele>
        <time>2011-10-23T09:14:59Z</time>
      </trkpt>
      <trkpt lat="45.32143" lon="6.03576">
        <ele>1233.9895019531</ele>
        <time>2011-10-23T09:15:04Z</time>
      </trkpt>
      <trkpt lat="45.32129" lon="6.03597">
        <ele>1229.6635742188</ele>
        <time>2011-10-23T09:15:13Z</time>
      </trkpt>
      <trkpt lat="45.32118" lon="6.03613">
        <ele>1227.2602539062</ele>
        <time>2011-10-23T09:15:20Z</time>
      </trkpt>
      <trkpt lat="45.32107" lon="6.03632">
        <ele>1225.3374023438</ele>
        <time>2011-10-23T09:15:28Z</time>
      </trkpt>
      <trkpt lat="45.32098" lon="6.03649">
        <ele>1223.4150390625</ele>
        <time>2011-10-23T09:15:34Z</time>
      </trkpt>
      <trkpt lat="45.3209" lon="6.03667">
        <ele>1221.4921875</ele>
        <time>2011-10-23T09:15:41Z</time>
      </trkpt>
      <trkpt lat="45.32084" lon="6.03684">
        <ele>1220.0502929688</ele>
        <time>2011-10-23T09:15:48Z</time>
      </trkpt>
      <trkpt lat="45.32077" lon="6.03695">
        <ele>1218.1276855469</ele>
        <time>2011-10-23T09:15:53Z</time>
      </trkpt>
      <trkpt lat="45.32071" lon="6.03713">
        <ele>1218.6083984375</ele>
        <time>2011-10-23T09:16:00Z</time>
      </trkpt>
      <trkpt lat="45.32064" lon="6.03722">
        <ele>1222.9343261719</ele>
        <time>2011-10-23T09:16:05Z</time>
      </trkpt>
      <trkpt lat="45.32055" lon="6.03724">
        <ele>1229.1828613281</ele>
        <time>2011-10-23T09:16:09Z</time>
      </trkpt>
      <trkpt lat="45.32048" lon="6.03725">
        <ele>1230.625</ele>
        <time>2011-10-23T09:16:12Z</time>
      </trkpt>
      <trkpt lat="45.32035" lon="6.0373">
        <ele>1235.912109375</ele>
        <time>2011-10-23T09:16:18Z</time>
      </trkpt>
      <trkpt lat="45.32021" lon="6.03745">
        <ele>1237.8347167969</ele>
        <time>2011-10-23T09:16:25Z</time>
      </trkpt>
      <trkpt lat="45.32018" lon="6.03756">
        <ele>1235.4313964844</ele>
        <time>2011-10-23T09:16:29Z</time>
      </trkpt>
      <trkpt lat="45.32011" lon="6.03778">
        <ele>1231.5861816406</ele>
        <time>2011-10-23T09:16:37Z</time>
      </trkpt>
      <trkpt lat="45.32006" lon="6.03792">
        <ele>1230.1442871094</ele>
        <time>2011-10-23T09:16:42Z</time>
      </trkpt>
      <trkpt lat="45.31998" lon="6.03807">
        <ele>1231.5861816406</ele>
        <time>2011-10-23T09:16:50Z</time>
      </trkpt>
      <trkpt lat="45.31987" lon="6.03811">
        <ele>1237.8347167969</ele>
        <time>2011-10-23T09:16:55Z</time>
      </trkpt>
      <trkpt lat="45.31978" lon="6.03813">
        <ele>1240.7185058594</ele>
        <time>2011-10-23T09:17:00Z</time>
      </trkpt>
      <trkpt lat="45.3196" lon="6.03804">
        <ele>1248.8898925781</ele>
        <time>2011-10-23T09:17:06Z</time>
      </trkpt>
      <trkpt lat="45.31945" lon="6.03794">
        <ele>1250.33203125</ele>
        <time>2011-10-23T09:17:11Z</time>
      </trkpt>
      <trkpt lat="45.31934" lon="6.03777">
        <ele>1247.4479980469</ele>
        <time>2011-10-23T09:17:17Z</time>
      </trkpt>
      <trkpt lat="45.3192" lon="6.03762">
        <ele>1245.525390625</ele>
        <time>2011-10-23T09:17:23Z</time>
      </trkpt>
      <trkpt lat="45.31902" lon="6.03747">
        <ele>1246.9672851562</ele>
        <time>2011-10-23T09:17:30Z</time>
      </trkpt>
      <trkpt lat="45.31888" lon="6.03728">
        <ele>1245.525390625</ele>
        <time>2011-10-23T09:17:37Z</time>
      </trkpt>
      <trkpt lat="45.31876" lon="6.03703">
        <ele>1247.4479980469</ele>
        <time>2011-10-23T09:17:44Z</time>
      </trkpt>
      <trkpt lat="45.31866" lon="6.03684">
        <ele>1249.8513183594</ele>
        <time>2011-10-23T09:17:50Z</time>
      </trkpt>
      <trkpt lat="45.31853" lon="6.03665">
        <ele>1248.4091796875</ele>
        <time>2011-10-23T09:17:57Z</time>
      </trkpt>
      <trkpt lat="45.31838" lon="6.03649">
        <ele>1245.0446777344</ele>
        <time>2011-10-23T09:18:03Z</time>
      </trkpt>
      <trkpt lat="45.31829" lon="6.0363">
        <ele>1243.6025390625</ele>
        <time>2011-10-23T09:18:09Z</time>
      </trkpt>
      <trkpt lat="45.31821" lon="6.03604">
        <ele>1239.2766113281</ele>
        <time>2011-10-23T09:18:17Z</time>
      </trkpt>
      <trkpt lat="45.31817" lon="6.03591">
        <ele>1239.7573242188</ele>
        <time>2011-10-23T09:18:23Z</time>
      </trkpt>
      <trkpt lat="45.31817" lon="6.03591">
        <ele>1240.2380371094</ele>
        <time>2011-10-23T09:18:28Z</time>
      </trkpt>
      <trkpt lat="45.3182" lon="6.03586">
        <ele>1237.8347167969</ele>
        <time>2011-10-23T09:18:37Z</time>
      </trkpt>
      <trkpt lat="45.31819" lon="6.03586">
        <ele>1237.8347167969</ele>
        <time>2011-10-23T09:18:38Z</time>
      </trkpt>
      <trkpt lat="45.31801" lon="6.03579">
        <ele>1233.0280761719</ele>
        <time>2011-10-23T09:18:45Z</time>
      </trkpt>
      <trkpt lat="45.31787" lon="6.03578">
        <ele>1231.5861816406</ele>
        <time>2011-10-23T09:18:50Z</time>
      </trkpt>
      <trkpt lat="45.3177" lon="6.03578">
        <ele>1236.8732910156</ele>
        <time>2011-10-23T09:18:56Z</time>
      </trkpt>
      <trkpt lat="45.31755" lon="6.03585">
        <ele>1243.6025390625</ele>
        <time>2011-10-23T09:19:02Z</time>
      </trkpt>
      <trkpt lat="45.31746" lon="6.03601">
        <ele>1248.4091796875</ele>
        <time>2011-10-23T09:19:08Z</time>
      </trkpt>
      <trkpt lat="45.31739" lon="6.03618">
        <ele>1252.7351074219</ele>
        <time>2011-10-23T09:19:14Z</time>
      </trkpt>
      <trkpt lat="45.3173" lon="6.03623">
        <ele>1251.7739257812</ele>
        <time>2011-10-23T09:19:19Z</time>
      </trkpt>
      <trkpt lat="45.31721" lon="6.03613">
        <ele>1250.8125</ele>
        <time>2011-10-23T09:19:24Z</time>
      </trkpt>
      <trkpt lat="45.31716" lon="6.03594">
        <ele>1250.8125</ele>
        <time>2011-10-23T09:19:30Z</time>
      </trkpt>
      <trkpt lat="45.3171" lon="6.03567">
        <ele>1251.2932128906</ele>
        <time>2011-10-23T09:19:38Z</time>
      </trkpt>
      <trkpt lat="45.31701" lon="6.0355">
        <ele>1259.9448242188</ele>
        <time>2011-10-23T09:19:44Z</time>
      </trkpt>
      <trkpt lat="45.31686" lon="6.03541">
        <ele>1260.42578125</ele>
        <time>2011-10-23T09:19:50Z</time>
      </trkpt>
      <trkpt lat="45.3166" lon="6.03535">
        <ele>1257.0610351562</ele>
        <time>2011-10-23T09:20:00Z</time>
      </trkpt>
      <trkpt lat="45.31642" lon="6.03535">
        <ele>1258.5029296875</ele>
        <time>2011-10-23T09:20:08Z</time>
      </trkpt>
      <trkpt lat="45.31633" lon="6.03539">
        <ele>1260.9064941406</ele>
        <time>2011-10-23T09:20:13Z</time>
      </trkpt>
      <trkpt lat="45.31621" lon="6.03535">
        <ele>1268.1162109375</ele>
        <time>2011-10-23T09:20:19Z</time>
      </trkpt>
      <trkpt lat="45.31617" lon="6.03531">
        <ele>1270.0388183594</ele>
        <time>2011-10-23T09:20:21Z</time>
      </trkpt>
      <trkpt lat="45.31607" lon="6.03525">
        <ele>1273.8840332031</ele>
        <time>2011-10-23T09:20:28Z</time>
      </trkpt>
      <trkpt lat="45.31589" lon="6.03515">
        <ele>1280.6135253906</ele>
        <time>2011-10-23T09:20:36Z</time>
      </trkpt>
      <trkpt lat="45.31578" lon="6.03514">
        <ele>1278.2102050781</ele>
        <time>2011-10-23T09:20:42Z</time>
      </trkpt>
      <trkpt lat="45.31567" lon="6.03514">
        <ele>1278.2102050781</ele>
        <time>2011-10-23T09:20:49Z</time>
      </trkpt>
      <trkpt lat="45.31554" lon="6.03515">
        <ele>1277.7294921875</ele>
        <time>2011-10-23T09:20:57Z</time>
      </trkpt>
      <trkpt lat="45.31543" lon="6.03518">
        <ele>1280.6135253906</ele>
        <time>2011-10-23T09:21:03Z</time>
      </trkpt>
      <trkpt lat="45.31529" lon="6.03517">
        <ele>1282.5361328125</ele>
        <time>2011-10-23T09:21:11Z</time>
      </trkpt>
      <trkpt lat="45.31517" lon="6.0352">
        <ele>1281.5747070312</ele>
        <time>2011-10-23T09:21:19Z</time>
      </trkpt>
      <trkpt lat="45.31509" lon="6.0352">
        <ele>1277.2490234375</ele>
        <time>2011-10-23T09:21:26Z</time>
      </trkpt>
      <trkpt lat="45.31497" lon="6.03515">
        <ele>1281.5747070312</ele>
        <time>2011-10-23T09:21:33Z</time>
      </trkpt>
      <trkpt lat="45.3148" lon="6.03506">
        <ele>1285.9006347656</ele>
        <time>2011-10-23T09:21:41Z</time>
      </trkpt>
      <trkpt lat="45.31468" lon="6.03502">
        <ele>1283.0166015625</ele>
        <time>2011-10-23T09:21:48Z</time>
      </trkpt>
      <trkpt lat="45.31454" lon="6.03502">
        <ele>1284.4587402344</ele>
        <time>2011-10-23T09:21:55Z</time>
      </trkpt>
      <trkpt lat="45.31441" lon="6.03506">
        <ele>1288.3039550781</ele>
        <time>2011-10-23T09:22:02Z</time>
      </trkpt>
      <trkpt lat="45.31438" lon="6.03507">
        <ele>1289.2651367188</ele>
        <time>2011-10-23T09:22:05Z</time>
      </trkpt>
      <trkpt lat="45.31431" lon="6.03509">
        <ele>1291.6684570312</ele>
        <time>2011-10-23T09:22:11Z</time>
      </trkpt>
      <trkpt lat="45.31429" lon="6.03508">
        <ele>1292.6301269531</ele>
        <time>2011-10-23T09:22:12Z</time>
      </trkpt>
      <trkpt lat="45.31418" lon="6.03503">
        <ele>1294.0720214844</ele>
        <time>2011-10-23T09:22:20Z</time>
      </trkpt>
      <trkpt lat="45.31406" lon="6.03502">
        <ele>1291.6684570312</ele>
        <time>2011-10-23T09:22:28Z</time>
      </trkpt>
      <trkpt lat="45.31397" lon="6.03502">
        <ele>1282.5361328125</ele>
        <time>2011-10-23T09:22:35Z</time>
      </trkpt>
      <trkpt lat="45.3139" lon="6.03499">
        <ele>1277.2490234375</ele>
        <time>2011-10-23T09:22:41Z</time>
      </trkpt>
      <trkpt lat="45.31379" lon="6.03491">
        <ele>1282.0554199219</ele>
        <time>2011-10-23T09:22:50Z</time>
      </trkpt>
      <trkpt lat="45.31375" lon="6.03483">
        <ele>1285.9006347656</ele>
        <time>2011-10-23T09:22:55Z</time>
      </trkpt>
      <trkpt lat="45.31367" lon="6.03471">
        <ele>1290.2265625</ele>
        <time>2011-10-23T09:23:02Z</time>
      </trkpt>
      <trkpt lat="45.3135" lon="6.03459">
        <ele>1296.4753417969</ele>
        <time>2011-10-23T09:23:10Z</time>
      </trkpt>
      <trkpt lat="45.31338" lon="6.03453">
        <ele>1304.6462402344</ele>
        <time>2011-10-23T09:23:17Z</time>
      </trkpt>
      <trkpt lat="45.31325" lon="6.03451">
        <ele>1306.5688476562</ele>
        <time>2011-10-23T09:23:22Z</time>
      </trkpt>
      <trkpt lat="45.31311" lon="6.03446">
        <ele>1310.8950195312</ele>
        <time>2011-10-23T09:23:28Z</time>
      </trkpt>
      <trkpt lat="45.31301" lon="6.03444">
        <ele>1308.0112304688</ele>
        <time>2011-10-23T09:23:34Z</time>
      </trkpt>
      <trkpt lat="45.31289" lon="6.03443">
        <ele>1310.4143066406</ele>
        <time>2011-10-23T09:23:41Z</time>
      </trkpt>
      <trkpt lat="45.3128" lon="6.03442">
        <ele>1312.8176269531</ele>
        <time>2011-10-23T09:23:48Z</time>
      </trkpt>
      <trkpt lat="45.31271" lon="6.03437">
        <ele>1310.8950195312</ele>
        <time>2011-10-23T09:23:53Z</time>
      </trkpt>
      <trkpt lat="45.31262" lon="6.0343">
        <ele>1308.0112304688</ele>
        <time>2011-10-23T09:23:59Z</time>
      </trkpt>
      <trkpt lat="45.31251" lon="6.03424">
        <ele>1305.6076660156</ele>
        <time>2011-10-23T09:24:06Z</time>
      </trkpt>
      <trkpt lat="45.31239" lon="6.03419">
        <ele>1303.6850585938</ele>
        <time>2011-10-23T09:24:13Z</time>
      </trkpt>
      <trkpt lat="45.31232" lon="6.03409">
        <ele>1303.2043457031</ele>
        <time>2011-10-23T09:24:21Z</time>
      </trkpt>
      <trkpt lat="45.31227" lon="6.03397">
        <ele>1305.6076660156</ele>
        <time>2011-10-23T09:24:28Z</time>
      </trkpt>
      <trkpt lat="45.31214" lon="6.0338">
        <ele>1300.8010253906</ele>
        <time>2011-10-23T09:24:37Z</time>
      </trkpt>
      <trkpt lat="45.31209" lon="6.03371">
        <ele>1297.9172363281</ele>
        <time>2011-10-23T09:24:42Z</time>
      </trkpt>
      <trkpt lat="45.31208" lon="6.0336">
        <ele>1299.3591308594</ele>
        <time>2011-10-23T09:24:48Z</time>
      </trkpt>
      <trkpt lat="45.31205" lon="6.03348">
        <ele>1300.3205566406</ele>
        <time>2011-10-23T09:24:55Z</time>
      </trkpt>
      <trkpt lat="45.312" lon="6.03339">
        <ele>1300.8010253906</ele>
        <time>2011-10-23T09:25:01Z</time>
      </trkpt>
      <trkpt lat="45.31194" lon="6.03332">
        <ele>1300.8010253906</ele>
        <time>2011-10-23T09:25:06Z</time>
      </trkpt>
      <trkpt lat="45.31194" lon="6.0333">
        <ele>1300.8010253906</ele>
        <time>2011-10-23T09:25:07Z</time>
      </trkpt>
      <trkpt lat="45.31189" lon="6.03325">
        <ele>1301.2817382812</ele>
        <time>2011-10-23T09:25:11Z</time>
      </trkpt>
      <trkpt lat="45.31178" lon="6.03317">
        <ele>1302.2429199219</ele>
        <time>2011-10-23T09:25:18Z</time>
      </trkpt>
      <trkpt lat="45.31176" lon="6.03313">
        <ele>1304.1657714844</ele>
        <time>2011-10-23T09:25:21Z</time>
      </trkpt>
      <trkpt lat="45.31165" lon="6.03306">
        <ele>1304.6462402344</ele>
        <time>2011-10-23T09:25:28Z</time>
      </trkpt>
      <trkpt lat="45.31155" lon="6.03298">
        <ele>1304.6462402344</ele>
        <time>2011-10-23T09:25:35Z</time>
      </trkpt>
      <trkpt lat="45.31145" lon="6.03296">
        <ele>1307.0495605469</ele>
        <time>2011-10-23T09:25:42Z</time>
      </trkpt>
      <trkpt lat="45.31138" lon="6.03293">
        <ele>1310.4143066406</ele>
        <time>2011-10-23T09:25:46Z</time>
      </trkpt>
      <trkpt lat="45.3112" lon="6.03283">
        <ele>1320.5080566406</ele>
        <time>2011-10-23T09:25:53Z</time>
      </trkpt>
      <trkpt lat="45.31105" lon="6.03274">
        <ele>1327.7180175781</ele>
        <time>2011-10-23T09:26:00Z</time>
      </trkpt>
      <trkpt lat="45.31097" lon="6.03265">
        <ele>1334.9279785156</ele>
        <time>2011-10-23T09:26:05Z</time>
      </trkpt>
      <trkpt lat="45.31092" lon="6.03262">
        <ele>1336.8503417969</ele>
        <time>2011-10-23T09:26:07Z</time>
      </trkpt>
      <trkpt lat="45.3109" lon="6.03259">
        <ele>1336.8503417969</ele>
        <time>2011-10-23T09:26:09Z</time>
      </trkpt>
      <trkpt lat="45.31082" lon="6.03255">
        <ele>1339.734375</ele>
        <time>2011-10-23T09:26:15Z</time>
      </trkpt>
      <trkpt lat="45.31076" lon="6.03253">
        <ele>1339.2536621094</ele>
        <time>2011-10-23T09:26:19Z</time>
      </trkpt>
      <trkpt lat="45.31069" lon="6.03247">
        <ele>1338.7731933594</ele>
        <time>2011-10-23T09:26:24Z</time>
      </trkpt>
      <trkpt lat="45.31068" lon="6.03245">
        <ele>1339.2536621094</ele>
        <time>2011-10-23T09:26:25Z</time>
      </trkpt>
      <trkpt lat="45.31059" lon="6.03238">
        <ele>1333.9665527344</ele>
        <time>2011-10-23T09:26:31Z</time>
      </trkpt>
      <trkpt lat="45.31052" lon="6.03235">
        <ele>1329.1599121094</ele>
        <time>2011-10-23T09:26:35Z</time>
      </trkpt>
      <trkpt lat="45.31051" lon="6.03235">
        <ele>1327.2375488281</ele>
        <time>2011-10-23T09:26:37Z</time>
      </trkpt>
      <trkpt lat="45.31044" lon="6.03234">
        <ele>1325.3146972656</ele>
        <time>2011-10-23T09:26:43Z</time>
      </trkpt>
      <trkpt lat="45.31041" lon="6.03231">
        <ele>1327.2375488281</ele>
        <time>2011-10-23T09:26:48Z</time>
      </trkpt>
      <trkpt lat="45.31038" lon="6.03228">
        <ele>1327.2375488281</ele>
        <time>2011-10-23T09:26:52Z</time>
      </trkpt>
      <trkpt lat="45.31026" lon="6.03221">
        <ele>1325.7954101562</ele>
        <time>2011-10-23T09:26:58Z</time>
      </trkpt>
      <trkpt lat="45.31022" lon="6.0322">
        <ele>1326.2761230469</ele>
        <time>2011-10-23T09:27:01Z</time>
      </trkpt>
      <trkpt lat="45.31015" lon="6.03216">
        <ele>1328.1987304688</ele>
        <time>2011-10-23T09:27:06Z</time>
      </trkpt>
      <trkpt lat="45.3101" lon="6.03204">
        <ele>1334.9279785156</ele>
        <time>2011-10-23T09:27:13Z</time>
      </trkpt>
      <trkpt lat="45.31006" lon="6.03191">
        <ele>1340.2153320312</ele>
        <time>2011-10-23T09:27:20Z</time>
      </trkpt>
      <trkpt lat="45.30999" lon="6.0318">
        <ele>1345.0217285156</ele>
        <time>2011-10-23T09:27:26Z</time>
      </trkpt>
      <trkpt lat="45.30994" lon="6.03166">
        <ele>1342.6186523438</ele>
        <time>2011-10-23T09:27:34Z</time>
      </trkpt>
      <trkpt lat="45.30989" lon="6.03156">
        <ele>1341.6572265625</ele>
        <time>2011-10-23T09:27:40Z</time>
      </trkpt>
      <trkpt lat="45.30982" lon="6.03144">
        <ele>1341.1765136719</ele>
        <time>2011-10-23T09:27:47Z</time>
      </trkpt>
      <trkpt lat="45.30972" lon="6.03133">
        <ele>1338.2924804688</ele>
        <time>2011-10-23T09:27:53Z</time>
      </trkpt>
      <trkpt lat="45.30965" lon="6.03123">
        <ele>1338.2924804688</ele>
        <time>2011-10-23T09:27:59Z</time>
      </trkpt>
      <trkpt lat="45.3096" lon="6.03117">
        <ele>1338.2924804688</ele>
        <time>2011-10-23T09:28:03Z</time>
      </trkpt>
      <trkpt lat="45.30952" lon="6.03108">
        <ele>1336.8503417969</ele>
        <time>2011-10-23T09:28:09Z</time>
      </trkpt>
      <trkpt lat="45.30945" lon="6.03098">
        <ele>1336.3698730469</ele>
        <time>2011-10-23T09:28:15Z</time>
      </trkpt>
      <trkpt lat="45.30938" lon="6.0309">
        <ele>1336.3698730469</ele>
        <time>2011-10-23T09:28:20Z</time>
      </trkpt>
      <trkpt lat="45.30925" lon="6.03076">
        <ele>1337.8117675781</ele>
        <time>2011-10-23T09:28:28Z</time>
      </trkpt>
      <trkpt lat="45.30916" lon="6.03067">
        <ele>1337.8117675781</ele>
        <time>2011-10-23T09:28:34Z</time>
      </trkpt>
      <trkpt lat="45.30907" lon="6.0306">
        <ele>1334.9279785156</ele>
        <time>2011-10-23T09:28:39Z</time>
      </trkpt>
      <trkpt lat="45.30898" lon="6.03055">
        <ele>1333.9665527344</ele>
        <time>2011-10-23T09:28:44Z</time>
      </trkpt>
      <trkpt lat="45.30886" lon="6.0305">
        <ele>1332.5246582031</ele>
        <time>2011-10-23T09:28:50Z</time>
      </trkpt>
      <trkpt lat="45.30878" lon="6.03043">
        <ele>1335.8891601562</ele>
        <time>2011-10-23T09:28:56Z</time>
      </trkpt>
      <trkpt lat="45.30866" lon="6.03035">
        <ele>1340.2153320312</ele>
        <time>2011-10-23T09:29:02Z</time>
      </trkpt>
      <trkpt lat="45.30856" lon="6.03024">
        <ele>1345.0217285156</ele>
        <time>2011-10-23T09:29:09Z</time>
      </trkpt>
      <trkpt lat="45.30845" lon="6.03019">
        <ele>1348.8669433594</ele>
        <time>2011-10-23T09:29:14Z</time>
      </trkpt>
      <trkpt lat="45.3084" lon="6.03016">
        <ele>1350.3090820312</ele>
        <time>2011-10-23T09:29:17Z</time>
      </trkpt>
      <trkpt lat="45.30827" lon="6.0301">
        <ele>1353.6735839844</ele>
        <time>2011-10-23T09:29:23Z</time>
      </trkpt>
      <trkpt lat="45.30816" lon="6.03005">
        <ele>1356.0769042969</ele>
        <time>2011-10-23T09:29:29Z</time>
      </trkpt>
      <trkpt lat="45.30803" lon="6.03002">
        <ele>1355.5961914062</ele>
        <time>2011-10-23T09:29:37Z</time>
      </trkpt>
      <trkpt lat="45.30795" lon="6.03002">
        <ele>1351.7509765625</ele>
        <time>2011-10-23T09:29:43Z</time>
      </trkpt>
      <trkpt lat="45.30785" lon="6.03002">
        <ele>1352.7121582031</ele>
        <time>2011-10-23T09:29:49Z</time>
      </trkpt>
      <trkpt lat="45.30775" lon="6.03003">
        <ele>1354.154296875</ele>
        <time>2011-10-23T09:29:55Z</time>
      </trkpt>
      <trkpt lat="45.30773" lon="6.03003">
        <ele>1354.634765625</ele>
        <time>2011-10-23T09:29:56Z</time>
      </trkpt>
      <trkpt lat="45.30765" lon="6.03004">
        <ele>1355.1154785156</ele>
        <time>2011-10-23T09:30:01Z</time>
      </trkpt>
      <trkpt lat="45.30745" lon="6.03005">
        <ele>1361.3642578125</ele>
        <time>2011-10-23T09:30:12Z</time>
      </trkpt>
      <trkpt lat="45.30736" lon="6.03007">
        <ele>1359.4416503906</ele>
        <time>2011-10-23T09:30:18Z</time>
      </trkpt>
      <trkpt lat="45.30726" lon="6.03008">
        <ele>1360.8835449219</ele>
        <time>2011-10-23T09:30:24Z</time>
      </trkpt>
      <trkpt lat="45.30722" lon="6.03015">
        <ele>1365.2094726562</ele>
        <time>2011-10-23T09:30:28Z</time>
      </trkpt>
      <trkpt lat="45.3073" lon="6.03023">
        <ele>1367.6125488281</ele>
        <time>2011-10-23T09:30:34Z</time>
      </trkpt>
      <trkpt lat="45.30736" lon="6.03024">
        <ele>1369.0546875</ele>
        <time>2011-10-23T09:30:37Z</time>
      </trkpt>
      <trkpt lat="45.30756" lon="6.03027">
        <ele>1367.1320800781</ele>
        <time>2011-10-23T09:30:45Z</time>
      </trkpt>
      <trkpt lat="45.30776" lon="6.03032">
        <ele>1366.1706542969</ele>
        <time>2011-10-23T09:30:53Z</time>
      </trkpt>
      <trkpt lat="45.30786" lon="6.03038">
        <ele>1366.6513671875</ele>
        <time>2011-10-23T09:30:58Z</time>
      </trkpt>
      <trkpt lat="45.30804" lon="6.03047">
        <ele>1364.7287597656</ele>
        <time>2011-10-23T09:31:04Z</time>
      </trkpt>
      <trkpt lat="45.30818" lon="6.03054">
        <ele>1362.8061523438</ele>
        <time>2011-10-23T09:31:09Z</time>
      </trkpt>
      <trkpt lat="45.30832" lon="6.03063">
        <ele>1361.3642578125</ele>
        <time>2011-10-23T09:31:14Z</time>
      </trkpt>
      <trkpt lat="45.3085" lon="6.0308">
        <ele>1360.8835449219</ele>
        <time>2011-10-23T09:31:22Z</time>
      </trkpt>
      <trkpt lat="45.30866" lon="6.031">
        <ele>1363.2868652344</ele>
        <time>2011-10-23T09:31:30Z</time>
      </trkpt>
      <trkpt lat="45.30874" lon="6.03118">
        <ele>1364.7287597656</ele>
        <time>2011-10-23T09:31:36Z</time>
      </trkpt>
      <trkpt lat="45.30882" lon="6.03136">
        <ele>1367.1320800781</ele>
        <time>2011-10-23T09:31:43Z</time>
      </trkpt>
      <trkpt lat="45.30891" lon="6.03151">
        <ele>1368.5739746094</ele>
        <time>2011-10-23T09:31:49Z</time>
      </trkpt>
      <trkpt lat="45.30898" lon="6.03167">
        <ele>1371.9384765625</ele>
        <time>2011-10-23T09:31:56Z</time>
      </trkpt>
      <trkpt lat="45.30906" lon="6.03183">
        <ele>1376.7453613281</ele>
        <time>2011-10-23T09:32:03Z</time>
      </trkpt>
      <trkpt lat="45.3091" lon="6.03199">
        <ele>1378.1872558594</ele>
        <time>2011-10-23T09:32:09Z</time>
      </trkpt>
      <trkpt lat="45.30912" lon="6.03218">
        <ele>1377.7065429688</ele>
        <time>2011-10-23T09:32:16Z</time>
      </trkpt>
      <trkpt lat="45.30909" lon="6.03235">
        <ele>1378.1872558594</ele>
        <time>2011-10-23T09:32:22Z</time>
      </trkpt>
      <trkpt lat="45.30907" lon="6.03254">
        <ele>1380.5905761719</ele>
        <time>2011-10-23T09:32:29Z</time>
      </trkpt>
      <trkpt lat="45.30909" lon="6.03268">
        <ele>1380.5905761719</ele>
        <time>2011-10-23T09:32:34Z</time>
      </trkpt>
      <trkpt lat="45.3091" lon="6.03293">
        <ele>1386.8388671875</ele>
        <time>2011-10-23T09:32:43Z</time>
      </trkpt>
      <trkpt lat="45.30912" lon="6.03315">
        <ele>1388.7619628906</ele>
        <time>2011-10-23T09:32:50Z</time>
      </trkpt>
      <trkpt lat="45.30916" lon="6.03334">
        <ele>1388.7619628906</ele>
        <time>2011-10-23T09:32:56Z</time>
      </trkpt>
      <trkpt lat="45.30934" lon="6.03357">
        <ele>1388.7619628906</ele>
        <time>2011-10-23T09:33:03Z</time>
      </trkpt>
      <trkpt lat="45.30951" lon="6.0337">
        <ele>1387.8002929688</ele>
        <time>2011-10-23T09:33:09Z</time>
      </trkpt>
      <trkpt lat="45.30965" lon="6.03385">
        <ele>1387.8002929688</ele>
        <time>2011-10-23T09:33:15Z</time>
      </trkpt>
      <trkpt lat="45.30978" lon="6.03402">
        <ele>1387.8002929688</ele>
        <time>2011-10-23T09:33:21Z</time>
      </trkpt>
      <trkpt lat="45.30989" lon="6.03417">
        <ele>1387.8002929688</ele>
        <time>2011-10-23T09:33:26Z</time>
      </trkpt>
      <trkpt lat="45.31001" lon="6.03437">
        <ele>1390.2038574219</ele>
        <time>2011-10-23T09:33:32Z</time>
      </trkpt>
      <trkpt lat="45.31018" lon="6.03455">
        <ele>1393.568359375</ele>
        <time>2011-10-23T09:33:38Z</time>
      </trkpt>
      <trkpt lat="45.31026" lon="6.0348">
        <ele>1396.9328613281</ele>
        <time>2011-10-23T09:33:44Z</time>
      </trkpt>
      <trkpt lat="45.31025" lon="6.03497">
        <ele>1399.3361816406</ele>
        <time>2011-10-23T09:33:48Z</time>
      </trkpt>
      <trkpt lat="45.3102" lon="6.03516">
        <ele>1402.7006835938</ele>
        <time>2011-10-23T09:33:53Z</time>
      </trkpt>
      <trkpt lat="45.3102" lon="6.03541">
        <ele>1405.1042480469</ele>
        <time>2011-10-23T09:34:00Z</time>
      </trkpt>
      <trkpt lat="45.31026" lon="6.0356">
        <ele>1407.5075683594</ele>
        <time>2011-10-23T09:34:06Z</time>
      </trkpt>
      <trkpt lat="45.31027" lon="6.03585">
        <ele>1407.5075683594</ele>
        <time>2011-10-23T09:34:13Z</time>
      </trkpt>
      <trkpt lat="45.31027" lon="6.0361">
        <ele>1410.8720703125</ele>
        <time>2011-10-23T09:34:20Z</time>
      </trkpt>
      <trkpt lat="45.31027" lon="6.03629">
        <ele>1414.2365722656</ele>
        <time>2011-10-23T09:34:25Z</time>
      </trkpt>
      <trkpt lat="45.31027" lon="6.03652">
        <ele>1419.5239257812</ele>
        <time>2011-10-23T09:34:31Z</time>
      </trkpt>
      <trkpt lat="45.31033" lon="6.03681">
        <ele>1420.0046386719</ele>
        <time>2011-10-23T09:34:39Z</time>
      </trkpt>
      <trkpt lat="45.3105" lon="6.037">
        <ele>1426.7338867188</ele>
        <time>2011-10-23T09:34:46Z</time>
      </trkpt>
      <trkpt lat="45.3107" lon="6.03703">
        <ele>1423.8498535156</ele>
        <time>2011-10-23T09:34:51Z</time>
      </trkpt>
      <trkpt lat="45.31082" lon="6.03706">
        <ele>1417.6010742188</ele>
        <time>2011-10-23T09:34:56Z</time>
      </trkpt>
      <trkpt lat="45.31095" lon="6.03712">
        <ele>1412.3139648438</ele>
        <time>2011-10-23T09:35:01Z</time>
      </trkpt>
      <trkpt lat="45.31106" lon="6.03716">
        <ele>1410.8720703125</ele>
        <time>2011-10-23T09:35:06Z</time>
      </trkpt>
      <trkpt lat="45.31121" lon="6.0372">
        <ele>1404.6235351562</ele>
        <time>2011-10-23T09:35:11Z</time>
      </trkpt>
      <trkpt lat="45.31137" lon="6.03726">
        <ele>1399.8168945312</ele>
        <time>2011-10-23T09:35:17Z</time>
      </trkpt>
      <trkpt lat="45.31148" lon="6.03734">
        <ele>1395.9716796875</ele>
        <time>2011-10-23T09:35:22Z</time>
      </trkpt>
      <trkpt lat="45.31161" lon="6.03748">
        <ele>1394.5295410156</ele>
        <time>2011-10-23T09:35:28Z</time>
      </trkpt>
      <trkpt lat="45.31165" lon="6.03764">
        <ele>1401.2587890625</ele>
        <time>2011-10-23T09:35:33Z</time>
      </trkpt>
      <trkpt lat="45.31173" lon="6.0378">
        <ele>1402.7006835938</ele>
        <time>2011-10-23T09:35:38Z</time>
      </trkpt>
      <trkpt lat="45.31185" lon="6.03797">
        <ele>1397.8942871094</ele>
        <time>2011-10-23T09:35:44Z</time>
      </trkpt>
      <trkpt lat="45.31203" lon="6.03816">
        <ele>1390.2038574219</ele>
        <time>2011-10-23T09:35:51Z</time>
      </trkpt>
      <trkpt lat="45.31221" lon="6.03835">
        <ele>1389.7231445312</ele>
        <time>2011-10-23T09:35:58Z</time>
      </trkpt>
      <trkpt lat="45.31243" lon="6.03847">
        <ele>1387.8002929688</ele>
        <time>2011-10-23T09:36:03Z</time>
      </trkpt>
      <trkpt lat="45.31251" lon="6.03854">
        <ele>1388.7619628906</ele>
        <time>2011-10-23T09:36:07Z</time>
      </trkpt>
      <trkpt lat="45.31253" lon="6.03856">
        <ele>1388.7619628906</ele>
        <time>2011-10-23T09:36:08Z</time>
      </trkpt>
      <trkpt lat="45.31267" lon="6.03865">
        <ele>1392.1264648438</ele>
        <time>2011-10-23T09:36:16Z</time>
      </trkpt>
      <trkpt lat="45.31275" lon="6.0387">
        <ele>1393.0876464844</ele>
        <time>2011-10-23T09:36:20Z</time>
      </trkpt>
      <trkpt lat="45.31283" lon="6.03877">
        <ele>1397.8942871094</ele>
        <time>2011-10-23T09:36:25Z</time>
      </trkpt>
      <trkpt lat="45.31297" lon="6.03891">
        <ele>1396.4523925781</ele>
        <time>2011-10-23T09:36:31Z</time>
      </trkpt>
      <trkpt lat="45.31306" lon="6.03901">
        <ele>1395.9716796875</ele>
        <time>2011-10-23T09:36:35Z</time>
      </trkpt>
      <trkpt lat="45.3132" lon="6.03917">
        <ele>1396.4523925781</ele>
        <time>2011-10-23T09:36:41Z</time>
      </trkpt>
      <trkpt lat="45.31329" lon="6.03931">
        <ele>1395.9716796875</ele>
        <time>2011-10-23T09:36:46Z</time>
      </trkpt>
      <trkpt lat="45.3134" lon="6.03946">
        <ele>1397.4135742188</ele>
        <time>2011-10-23T09:36:52Z</time>
      </trkpt>
      <trkpt lat="45.31356" lon="6.03961">
        <ele>1397.4135742188</ele>
        <time>2011-10-23T09:36:58Z</time>
      </trkpt>
      <trkpt lat="45.31371" lon="6.0397">
        <ele>1394.0490722656</ele>
        <time>2011-10-23T09:37:04Z</time>
      </trkpt>
      <trkpt lat="45.31377" lon="6.03969">
        <ele>1396.9328613281</ele>
        <time>2011-10-23T09:37:09Z</time>
      </trkpt>
      <trkpt lat="45.31379" lon="6.03964">
        <ele>1400.7780761719</ele>
        <time>2011-10-23T09:37:14Z</time>
      </trkpt>
      <trkpt lat="45.3139" lon="6.03958">
        <ele>1403.662109375</ele>
        <time>2011-10-23T09:37:20Z</time>
      </trkpt>
      <trkpt lat="45.31404" lon="6.03953">
        <ele>1406.5461425781</ele>
        <time>2011-10-23T09:37:26Z</time>
      </trkpt>
      <trkpt lat="45.31419" lon="6.03941">
        <ele>1409.4301757812</ele>
        <time>2011-10-23T09:37:33Z</time>
      </trkpt>
      <trkpt lat="45.3143" lon="6.03926">
        <ele>1410.8720703125</ele>
        <time>2011-10-23T09:37:39Z</time>
      </trkpt>
      <trkpt lat="45.31454" lon="6.03909">
        <ele>1412.3139648438</ele>
        <time>2011-10-23T09:37:49Z</time>
      </trkpt>
      <trkpt lat="45.31465" lon="6.039">
        <ele>1413.755859375</ele>
        <time>2011-10-23T09:37:54Z</time>
      </trkpt>
      <trkpt lat="45.31485" lon="6.03897">
        <ele>1414.2365722656</ele>
        <time>2011-10-23T09:38:01Z</time>
      </trkpt>
      <trkpt lat="45.31504" lon="6.03903">
        <ele>1412.3139648438</ele>
        <time>2011-10-23T09:38:08Z</time>
      </trkpt>
      <trkpt lat="45.31521" lon="6.03916">
        <ele>1412.3139648438</ele>
        <time>2011-10-23T09:38:15Z</time>
      </trkpt>
      <trkpt lat="45.31532" lon="6.03924">
        <ele>1413.275390625</ele>
        <time>2011-10-23T09:38:20Z</time>
      </trkpt>
      <trkpt lat="45.31548" lon="6.03935">
        <ele>1412.3139648438</ele>
        <time>2011-10-23T09:38:27Z</time>
      </trkpt>
      <trkpt lat="45.31562" lon="6.03946">
        <ele>1410.8720703125</ele>
        <time>2011-10-23T09:38:33Z</time>
      </trkpt>
      <trkpt lat="45.31575" lon="6.03954">
        <ele>1412.7946777344</ele>
        <time>2011-10-23T09:38:39Z</time>
      </trkpt>
      <trkpt lat="45.3159" lon="6.03964">
        <ele>1410.8720703125</ele>
        <time>2011-10-23T09:38:45Z</time>
      </trkpt>
      <trkpt lat="45.316" lon="6.03977">
        <ele>1410.8720703125</ele>
        <time>2011-10-23T09:38:51Z</time>
      </trkpt>
      <trkpt lat="45.31606" lon="6.0399">
        <ele>1410.8720703125</ele>
        <time>2011-10-23T09:38:56Z</time>
      </trkpt>
      <trkpt lat="45.31612" lon="6.0401">
        <ele>1413.275390625</ele>
        <time>2011-10-23T09:39:04Z</time>
      </trkpt>
      <trkpt lat="45.31619" lon="6.04029">
        <ele>1414.7172851562</ele>
        <time>2011-10-23T09:39:12Z</time>
      </trkpt>
      <trkpt lat="45.31627" lon="6.04044">
        <ele>1416.1591796875</ele>
        <time>2011-10-23T09:39:19Z</time>
      </trkpt>
      <trkpt lat="45.31643" lon="6.04054">
        <ele>1415.1979980469</ele>
        <time>2011-10-23T09:39:25Z</time>
      </trkpt>
      <trkpt lat="45.31664" lon="6.04063">
        <ele>1411.8334960938</ele>
        <time>2011-10-23T09:39:32Z</time>
      </trkpt>
      <trkpt lat="45.31672" lon="6.04065">
        <ele>1411.8334960938</ele>
        <time>2011-10-23T09:39:37Z</time>
      </trkpt>
      <trkpt lat="45.31688" lon="6.04068">
        <ele>1411.8334960938</ele>
        <time>2011-10-23T09:39:44Z</time>
      </trkpt>
      <trkpt lat="45.31701" lon="6.04069">
        <ele>1413.755859375</ele>
        <time>2011-10-23T09:39:50Z</time>
      </trkpt>
      <trkpt lat="45.31723" lon="6.04062">
        <ele>1415.1979980469</ele>
        <time>2011-10-23T09:39:59Z</time>
      </trkpt>
      <trkpt lat="45.31738" lon="6.04056">
        <ele>1416.1591796875</ele>
        <time>2011-10-23T09:40:05Z</time>
      </trkpt>
      <trkpt lat="45.31757" lon="6.0406">
        <ele>1414.7172851562</ele>
        <time>2011-10-23T09:40:12Z</time>
      </trkpt>
      <trkpt lat="45.3177" lon="6.04067">
        <ele>1416.6398925781</ele>
        <time>2011-10-23T09:40:17Z</time>
      </trkpt>
      <trkpt lat="45.31783" lon="6.04084">
        <ele>1420.4853515625</ele>
        <time>2011-10-23T09:40:24Z</time>
      </trkpt>
      <trkpt lat="45.31799" lon="6.04104">
        <ele>1418.5625</ele>
        <time>2011-10-23T09:40:31Z</time>
      </trkpt>
      <trkpt lat="45.31815" lon="6.04125">
        <ele>1415.1979980469</ele>
        <time>2011-10-23T09:40:38Z</time>
      </trkpt>
      <trkpt lat="45.31821" lon="6.04145">
        <ele>1415.1979980469</ele>
        <time>2011-10-23T09:40:44Z</time>
      </trkpt>
      <trkpt lat="45.31824" lon="6.04164">
        <ele>1415.1979980469</ele>
        <time>2011-10-23T09:40:50Z</time>
      </trkpt>
      <trkpt lat="45.31827" lon="6.04185">
        <ele>1414.7172851562</ele>
        <time>2011-10-23T09:40:56Z</time>
      </trkpt>
      <trkpt lat="45.31828" lon="6.04191">
        <ele>1414.2365722656</ele>
        <time>2011-10-23T09:40:58Z</time>
      </trkpt>
      <trkpt lat="45.31842" lon="6.04212">
        <ele>1407.0268554688</ele>
        <time>2011-10-23T09:41:05Z</time>
      </trkpt>
      <trkpt lat="45.31858" lon="6.04229">
        <ele>1406.0654296875</ele>
        <time>2011-10-23T09:41:12Z</time>
      </trkpt>
      <trkpt lat="45.31873" lon="6.04239">
        <ele>1403.1813964844</ele>
        <time>2011-10-23T09:41:18Z</time>
      </trkpt>
      <trkpt lat="45.3188" lon="6.04244">
        <ele>1405.1042480469</ele>
        <time>2011-10-23T09:41:23Z</time>
      </trkpt>
      <trkpt lat="45.3189" lon="6.04243">
        <ele>1408.46875</ele>
        <time>2011-10-23T09:41:28Z</time>
      </trkpt>
      <trkpt lat="45.31904" lon="6.04236">
        <ele>1411.8334960938</ele>
        <time>2011-10-23T09:41:34Z</time>
      </trkpt>
      <trkpt lat="45.31919" lon="6.04222">
        <ele>1417.6010742188</ele>
        <time>2011-10-23T09:41:41Z</time>
      </trkpt>
      <trkpt lat="45.31934" lon="6.04218">
        <ele>1420.4853515625</ele>
        <time>2011-10-23T09:41:46Z</time>
      </trkpt>
      <trkpt lat="45.31954" lon="6.04222">
        <ele>1422.888671875</ele>
        <time>2011-10-23T09:41:52Z</time>
      </trkpt>
      <trkpt lat="45.31974" lon="6.04225">
        <ele>1427.6950683594</ele>
        <time>2011-10-23T09:41:58Z</time>
      </trkpt>
      <trkpt lat="45.31998" lon="6.04224">
        <ele>1434.9050292969</ele>
        <time>2011-10-23T09:42:05Z</time>
      </trkpt>
      <trkpt lat="45.32015" lon="6.04213">
        <ele>1435.3854980469</ele>
        <time>2011-10-23T09:42:10Z</time>
      </trkpt>
      <trkpt lat="45.3204" lon="6.04191">
        <ele>1434.4243164062</ele>
        <time>2011-10-23T09:42:18Z</time>
      </trkpt>
      <trkpt lat="45.3206" lon="6.04179">
        <ele>1433.9436035156</ele>
        <time>2011-10-23T09:42:24Z</time>
      </trkpt>
      <trkpt lat="45.3208" lon="6.04183">
        <ele>1433.462890625</ele>
        <time>2011-10-23T09:42:29Z</time>
      </trkpt>
      <trkpt lat="45.32101" lon="6.04191">
        <ele>1433.9436035156</ele>
        <time>2011-10-23T09:42:34Z</time>
      </trkpt>
      <trkpt lat="45.32119" lon="6.04207">
        <ele>1431.5402832031</ele>
        <time>2011-10-23T09:42:39Z</time>
      </trkpt>
      <trkpt lat="45.32126" lon="6.04214">
        <ele>1429.6176757812</ele>
        <time>2011-10-23T09:42:41Z</time>
      </trkpt>
      <trkpt lat="45.32141" lon="6.0423">
        <ele>1430.0983886719</ele>
        <time>2011-10-23T09:42:47Z</time>
      </trkpt>
      <trkpt lat="45.32159" lon="6.04238">
        <ele>1433.9436035156</ele>
        <time>2011-10-23T09:42:53Z</time>
      </trkpt>
      <trkpt lat="45.32178" lon="6.04235">
        <ele>1442.595703125</ele>
        <time>2011-10-23T09:42:59Z</time>
      </trkpt>
      <trkpt lat="45.322" lon="6.04236">
        <ele>1445.4794921875</ele>
        <time>2011-10-23T09:43:05Z</time>
      </trkpt>
      <trkpt lat="45.32226" lon="6.04241">
        <ele>1445.9602050781</ele>
        <time>2011-10-23T09:43:11Z</time>
      </trkpt>
      <trkpt lat="45.32246" lon="6.04237">
        <ele>1445.9602050781</ele>
        <time>2011-10-23T09:43:15Z</time>
      </trkpt>
      <trkpt lat="45.32267" lon="6.04239">
        <ele>1444.5180664062</ele>
        <time>2011-10-23T09:43:19Z</time>
      </trkpt>
      <trkpt lat="45.32283" lon="6.04246">
        <ele>1442.1149902344</ele>
        <time>2011-10-23T09:43:22Z</time>
      </trkpt>
      <trkpt lat="45.32303" lon="6.04258">
        <ele>1440.6728515625</ele>
        <time>2011-10-23T09:43:26Z</time>
      </trkpt>
      <trkpt lat="45.32312" lon="6.04267">
        <ele>1439.7116699219</ele>
        <time>2011-10-23T09:43:28Z</time>
      </trkpt>
      <trkpt lat="45.32333" lon="6.04289">
        <ele>1441.1535644531</ele>
        <time>2011-10-23T09:43:33Z</time>
      </trkpt>
      <trkpt lat="45.32345" lon="6.04304">
        <ele>1442.1149902344</ele>
        <time>2011-10-23T09:43:36Z</time>
      </trkpt>
      <trkpt lat="45.32352" lon="6.04321">
        <ele>1442.1149902344</ele>
        <time>2011-10-23T09:43:39Z</time>
      </trkpt>
      <trkpt lat="45.32357" lon="6.04337">
        <ele>1442.1149902344</ele>
        <time>2011-10-23T09:43:45Z</time>
      </trkpt>
      <trkpt lat="45.32362" lon="6.04349">
        <ele>1441.1535644531</ele>
        <time>2011-10-23T09:43:50Z</time>
      </trkpt>
      <trkpt lat="45.32363" lon="6.04354">
        <ele>1441.6342773438</ele>
        <time>2011-10-23T09:43:54Z</time>
      </trkpt>
      <trkpt lat="45.32362" lon="6.0435">
        <ele>1444.0375976562</ele>
        <time>2011-10-23T09:44:00Z</time>
      </trkpt>
      <trkpt lat="45.32362" lon="6.04347">
        <ele>1446.4409179688</ele>
        <time>2011-10-23T09:44:09Z</time>
      </trkpt>
      <trkpt lat="45.32355" lon="6.04344">
        <ele>1464.2250976562</ele>
        <time>2011-10-23T09:44:19Z</time>
      </trkpt>
      <trkpt lat="45.32354" lon="6.04345">
        <ele>1465.1865234375</ele>
        <time>2011-10-23T09:44:24Z</time>
      </trkpt>
      <trkpt lat="45.32346" lon="6.04346">
        <ele>1489.2194824219</ele>
        <time>2011-10-23T09:44:34Z</time>
      </trkpt>
      <trkpt lat="45.32346" lon="6.04347">
        <ele>1492.103515625</ele>
        <time>2011-10-23T09:44:41Z</time>
      </trkpt>
      <trkpt lat="45.32347" lon="6.04341">
        <ele>1484.4130859375</ele>
        <time>2011-10-23T09:45:05Z</time>
      </trkpt>
      <trkpt lat="45.32351" lon="6.04345">
        <ele>1474.7998046875</ele>
        <time>2011-10-23T09:45:18Z</time>
      </trkpt>
      <trkpt lat="45.32354" lon="6.04346">
        <ele>1470.9545898438</ele>
        <time>2011-10-23T09:45:49Z</time>
      </trkpt>
      <trkpt lat="45.32353" lon="6.04345">
        <ele>1470.4738769531</ele>
        <time>2011-10-23T09:45:58Z</time>
      </trkpt>
      <trkpt lat="45.32352" lon="6.04346">
        <ele>1470.9545898438</ele>
        <time>2011-10-23T09:46:03Z</time>
      </trkpt>
      <trkpt lat="45.32353" lon="6.04348">
        <ele>1470.9545898438</ele>
        <time>2011-10-23T09:46:05Z</time>
      </trkpt>
      <trkpt lat="45.32355" lon="6.04354">
        <ele>1469.5126953125</ele>
        <time>2011-10-23T09:46:12Z</time>
      </trkpt>
      <trkpt lat="45.32355" lon="6.04354">
        <ele>1469.5126953125</ele>
        <time>2011-10-23T09:46:13Z</time>
      </trkpt>
      <trkpt lat="45.32352" lon="6.04349">
        <ele>1470.4738769531</ele>
        <time>2011-10-23T09:46:17Z</time>
      </trkpt>
      <trkpt lat="45.32353" lon="6.0435">
        <ele>1471.4350585938</ele>
        <time>2011-10-23T09:46:20Z</time>
      </trkpt>
      <trkpt lat="45.32353" lon="6.04349">
        <ele>1470.4738769531</ele>
        <time>2011-10-23T09:46:24Z</time>
      </trkpt>
      <trkpt lat="45.32353" lon="6.0435">
        <ele>1468.0705566406</ele>
        <time>2011-10-23T09:46:29Z</time>
      </trkpt>
      <trkpt lat="45.32347" lon="6.04348">
        <ele>1490.1809082031</ele>
        <time>2011-10-23T09:46:52Z</time>
      </trkpt>
      <trkpt lat="45.32354" lon="6.04354">
        <ele>1473.3579101562</ele>
        <time>2011-10-23T09:47:03Z</time>
      </trkpt>
      <trkpt lat="45.32356" lon="6.04357">
        <ele>1471.4350585938</ele>
        <time>2011-10-23T09:47:04Z</time>
      </trkpt>
      <trkpt lat="45.3236" lon="6.04365">
        <ele>1465.6672363281</ele>
        <time>2011-10-23T09:47:08Z</time>
      </trkpt>
      <trkpt lat="45.32367" lon="6.04373">
        <ele>1460.3798828125</ele>
        <time>2011-10-23T09:47:15Z</time>
      </trkpt>
      <trkpt lat="45.32368" lon="6.04372">
        <ele>1455.0927734375</ele>
        <time>2011-10-23T09:47:23Z</time>
      </trkpt>
      <trkpt lat="45.32367" lon="6.04376">
        <ele>1447.8828125</ele>
        <time>2011-10-23T09:47:38Z</time>
      </trkpt>
      <trkpt lat="45.32368" lon="6.04373">
        <ele>1447.4020996094</ele>
        <time>2011-10-23T09:47:42Z</time>
      </trkpt>
      <trkpt lat="45.32368" lon="6.04372">
        <ele>1445.9602050781</ele>
        <time>2011-10-23T09:47:56Z</time>
      </trkpt>
      <trkpt lat="45.32367" lon="6.0437">
        <ele>1448.36328125</ele>
        <time>2011-10-23T09:48:04Z</time>
      </trkpt>
      <trkpt lat="45.32367" lon="6.04368">
        <ele>1447.4020996094</ele>
        <time>2011-10-23T09:48:18Z</time>
      </trkpt>
      <trkpt lat="45.32369" lon="6.04368">
        <ele>1447.4020996094</ele>
        <time>2011-10-23T09:48:24Z</time>
      </trkpt>
      <trkpt lat="45.32369" lon="6.04373">
        <ele>1445.9602050781</ele>
        <time>2011-10-23T09:48:31Z</time>
      </trkpt>
      <trkpt lat="45.3237" lon="6.04374">
        <ele>1445.4794921875</ele>
        <time>2011-10-23T09:48:32Z</time>
      </trkpt>
      <trkpt lat="45.32365" lon="6.04379">
        <ele>1444.5180664062</ele>
        <time>2011-10-23T09:48:37Z</time>
      </trkpt>
      <trkpt lat="45.32364" lon="6.04378">
        <ele>1444.0375976562</ele>
        <time>2011-10-23T09:48:42Z</time>
      </trkpt>
      <trkpt lat="45.32365" lon="6.04381">
        <ele>1444.0375976562</ele>
        <time>2011-10-23T09:48:44Z</time>
      </trkpt>
      <trkpt lat="45.32361" lon="6.04391">
        <ele>1443.076171875</ele>
        <time>2011-10-23T09:48:49Z</time>
      </trkpt>
      <trkpt lat="45.32354" lon="6.04398">
        <ele>1443.076171875</ele>
        <time>2011-10-23T09:48:54Z</time>
      </trkpt>
      <trkpt lat="45.32342" lon="6.04396">
        <ele>1442.595703125</ele>
        <time>2011-10-23T09:49:00Z</time>
      </trkpt>
      <trkpt lat="45.3233" lon="6.04393">
        <ele>1444.5180664062</ele>
        <time>2011-10-23T09:49:06Z</time>
      </trkpt>
      <trkpt lat="45.32327" lon="6.04391">
        <ele>1444.0375976562</ele>
        <time>2011-10-23T09:49:08Z</time>
      </trkpt>
      <trkpt lat="45.32316" lon="6.04389">
        <ele>1447.4020996094</ele>
        <time>2011-10-23T09:49:15Z</time>
      </trkpt>
      <trkpt lat="45.32312" lon="6.04387">
        <ele>1447.8828125</ele>
        <time>2011-10-23T09:49:19Z</time>
      </trkpt>
      <trkpt lat="45.32309" lon="6.04386">
        <ele>1452.689453125</ele>
        <time>2011-10-23T09:49:23Z</time>
      </trkpt>
      <trkpt lat="45.32302" lon="6.04384">
        <ele>1458.4572753906</ele>
        <time>2011-10-23T09:49:30Z</time>
      </trkpt>
      <trkpt lat="45.32296" lon="6.04384">
        <ele>1463.7443847656</ele>
        <time>2011-10-23T09:49:38Z</time>
      </trkpt>
      <trkpt lat="45.32291" lon="6.04384">
        <ele>1464.7058105469</ele>
        <time>2011-10-23T09:49:43Z</time>
      </trkpt>
      <trkpt lat="45.32291" lon="6.04383">
        <ele>1465.6672363281</ele>
        <time>2011-10-23T09:49:44Z</time>
      </trkpt>
      <trkpt lat="45.32291" lon="6.04383">
        <ele>1465.6672363281</ele>
        <time>2011-10-23T09:49:44Z</time>
      </trkpt>
      <trkpt lat="45.32287" lon="6.04382">
        <ele>1468.0705566406</ele>
        <time>2011-10-23T09:49:49Z</time>
      </trkpt>
      <trkpt lat="45.32283" lon="6.04383">
        <ele>1467.5895996094</ele>
        <time>2011-10-23T09:49:56Z</time>
      </trkpt>
      <trkpt lat="45.32276" lon="6.04379">
        <ele>1468.5512695312</ele>
        <time>2011-10-23T09:50:03Z</time>
      </trkpt>
      <trkpt lat="45.32272" lon="6.04378">
        <ele>1469.0319824219</ele>
        <time>2011-10-23T09:50:07Z</time>
      </trkpt>
      <trkpt lat="45.32265" lon="6.04375">
        <ele>1469.9931640625</ele>
        <time>2011-10-23T09:50:14Z</time>
      </trkpt>
      <trkpt lat="45.32259" lon="6.04373">
        <ele>1469.5126953125</ele>
        <time>2011-10-23T09:50:22Z</time>
      </trkpt>
      <trkpt lat="45.32255" lon="6.04373">
        <ele>1467.5895996094</ele>
        <time>2011-10-23T09:50:28Z</time>
      </trkpt>
      <trkpt lat="45.32252" lon="6.04375">
        <ele>1466.1477050781</ele>
        <time>2011-10-23T09:50:32Z</time>
      </trkpt>
      <trkpt lat="45.32248" lon="6.04377">
        <ele>1466.1477050781</ele>
        <time>2011-10-23T09:50:37Z</time>
      </trkpt>
      <trkpt lat="45.32244" lon="6.04377">
        <ele>1468.0705566406</ele>
        <time>2011-10-23T09:50:41Z</time>
      </trkpt>
      <trkpt lat="45.3224" lon="6.0438">
        <ele>1469.0319824219</ele>
        <time>2011-10-23T09:50:46Z</time>
      </trkpt>
      <trkpt lat="45.32235" lon="6.04382">
        <ele>1470.4738769531</ele>
        <time>2011-10-23T09:50:52Z</time>
      </trkpt>
      <trkpt lat="45.3223" lon="6.04385">
        <ele>1472.8771972656</ele>
        <time>2011-10-23T09:50:57Z</time>
      </trkpt>
      <trkpt lat="45.32225" lon="6.04387">
        <ele>1474.7998046875</ele>
        <time>2011-10-23T09:51:02Z</time>
      </trkpt>
      <trkpt lat="45.3222" lon="6.04389">
        <ele>1476.7224121094</ele>
        <time>2011-10-23T09:51:07Z</time>
      </trkpt>
      <trkpt lat="45.32217" lon="6.04391">
        <ele>1476.2416992188</ele>
        <time>2011-10-23T09:51:09Z</time>
      </trkpt>
      <trkpt lat="45.32211" lon="6.04393">
        <ele>1476.7224121094</ele>
        <time>2011-10-23T09:51:15Z</time>
      </trkpt>
      <trkpt lat="45.32206" lon="6.04392">
        <ele>1478.1643066406</ele>
        <time>2011-10-23T09:51:20Z</time>
      </trkpt>
      <trkpt lat="45.32204" lon="6.04393">
        <ele>1478.6450195312</ele>
        <time>2011-10-23T09:51:22Z</time>
      </trkpt>
      <trkpt lat="45.32202" lon="6.04393">
        <ele>1479.6062011719</ele>
        <time>2011-10-23T09:51:24Z</time>
      </trkpt>
      <trkpt lat="45.32195" lon="6.04399">
        <ele>1481.5288085938</ele>
        <time>2011-10-23T09:51:29Z</time>
      </trkpt>
      <trkpt lat="45.32184" lon="6.04401">
        <ele>1482.970703125</ele>
        <time>2011-10-23T09:51:35Z</time>
      </trkpt>
      <trkpt lat="45.32174" lon="6.04405">
        <ele>1481.5288085938</ele>
        <time>2011-10-23T09:51:41Z</time>
      </trkpt>
      <trkpt lat="45.32165" lon="6.04402">
        <ele>1482.0095214844</ele>
        <time>2011-10-23T09:51:46Z</time>
      </trkpt>
      <trkpt lat="45.32154" lon="6.04396">
        <ele>1483.4514160156</ele>
        <time>2011-10-23T09:51:52Z</time>
      </trkpt>
      <trkpt lat="45.32146" lon="6.04388">
        <ele>1485.8549804688</ele>
        <time>2011-10-23T09:51:58Z</time>
      </trkpt>
      <trkpt lat="45.32139" lon="6.04381">
        <ele>1488.7390136719</ele>
        <time>2011-10-23T09:52:03Z</time>
      </trkpt>
      <trkpt lat="45.32129" lon="6.04377">
        <ele>1489.7001953125</ele>
        <time>2011-10-23T09:52:09Z</time>
      </trkpt>
      <trkpt lat="45.3212" lon="6.04376">
        <ele>1492.103515625</ele>
        <time>2011-10-23T09:52:14Z</time>
      </trkpt>
      <trkpt lat="45.32115" lon="6.04379">
        <ele>1494.0261230469</ele>
        <time>2011-10-23T09:52:18Z</time>
      </trkpt>
      <trkpt lat="45.32111" lon="6.0438">
        <ele>1495.4680175781</ele>
        <time>2011-10-23T09:52:21Z</time>
      </trkpt>
      <trkpt lat="45.32104" lon="6.04382">
        <ele>1494.9873046875</ele>
        <time>2011-10-23T09:52:28Z</time>
      </trkpt>
      <trkpt lat="45.32102" lon="6.04383">
        <ele>1494.9873046875</ele>
        <time>2011-10-23T09:52:31Z</time>
      </trkpt>
      <trkpt lat="45.321" lon="6.04382">
        <ele>1496.9099121094</ele>
        <time>2011-10-23T09:52:33Z</time>
      </trkpt>
      <trkpt lat="45.32091" lon="6.04386">
        <ele>1499.7939453125</ele>
        <time>2011-10-23T09:52:40Z</time>
      </trkpt>
      <trkpt lat="45.32083" lon="6.04389">
        <ele>1500.7553710938</ele>
        <time>2011-10-23T09:52:45Z</time>
      </trkpt>
      <trkpt lat="45.32079" lon="6.0439">
        <ele>1499.3132324219</ele>
        <time>2011-10-23T09:52:48Z</time>
      </trkpt>
      <trkpt lat="45.32074" lon="6.0439">
        <ele>1497.8713378906</ele>
        <time>2011-10-23T09:52:51Z</time>
      </trkpt>
      <trkpt lat="45.32065" lon="6.04396">
        <ele>1498.8325195312</ele>
        <time>2011-10-23T09:52:56Z</time>
      </trkpt>
      <trkpt lat="45.32061" lon="6.04399">
        <ele>1498.8325195312</ele>
        <time>2011-10-23T09:52:58Z</time>
      </trkpt>
      <trkpt lat="45.32047" lon="6.04401">
        <ele>1501.716796875</ele>
        <time>2011-10-23T09:53:04Z</time>
      </trkpt>
      <trkpt lat="45.32034" lon="6.04396">
        <ele>1506.5231933594</ele>
        <time>2011-10-23T09:53:09Z</time>
      </trkpt>
      <trkpt lat="45.32024" lon="6.04388">
        <ele>1511.3298339844</ele>
        <time>2011-10-23T09:53:15Z</time>
      </trkpt>
      <trkpt lat="45.32024" lon="6.04386">
        <ele>1510.3684082031</ele>
        <time>2011-10-23T09:53:16Z</time>
      </trkpt>
      <trkpt lat="45.32019" lon="6.04382">
        <ele>1511.810546875</ele>
        <time>2011-10-23T09:53:20Z</time>
      </trkpt>
      <trkpt lat="45.32013" lon="6.04378">
        <ele>1513.2524414062</ele>
        <time>2011-10-23T09:53:25Z</time>
      </trkpt>
      <trkpt lat="45.32007" lon="6.04376">
        <ele>1512.291015625</ele>
        <time>2011-10-23T09:53:30Z</time>
      </trkpt>
      <trkpt lat="45.32002" lon="6.04376">
        <ele>1511.810546875</ele>
        <time>2011-10-23T09:53:33Z</time>
      </trkpt>
      <trkpt lat="45.3199" lon="6.04376">
        <ele>1512.291015625</ele>
        <time>2011-10-23T09:53:40Z</time>
      </trkpt>
      <trkpt lat="45.31982" lon="6.04377">
        <ele>1512.7717285156</ele>
        <time>2011-10-23T09:53:44Z</time>
      </trkpt>
      <trkpt lat="45.31974" lon="6.04376">
        <ele>1515.6557617188</ele>
        <time>2011-10-23T09:53:49Z</time>
      </trkpt>
      <trkpt lat="45.31971" lon="6.04375">
        <ele>1516.1364746094</ele>
        <time>2011-10-23T09:53:51Z</time>
      </trkpt>
      <trkpt lat="45.31966" lon="6.04377">
        <ele>1512.291015625</ele>
        <time>2011-10-23T09:53:58Z</time>
      </trkpt>
      <trkpt lat="45.31963" lon="6.04382">
        <ele>1511.810546875</ele>
        <time>2011-10-23T09:54:03Z</time>
      </trkpt>
      <trkpt lat="45.3196" lon="6.04385">
        <ele>1512.7717285156</ele>
        <time>2011-10-23T09:54:06Z</time>
      </trkpt>
      <trkpt lat="45.31956" lon="6.04387">
        <ele>1515.6557617188</ele>
        <time>2011-10-23T09:54:09Z</time>
      </trkpt>
      <trkpt lat="45.3195" lon="6.0439">
        <ele>1517.5783691406</ele>
        <time>2011-10-23T09:54:14Z</time>
      </trkpt>
      <trkpt lat="45.31946" lon="6.04392">
        <ele>1518.5397949219</ele>
        <time>2011-10-23T09:54:16Z</time>
      </trkpt>
      <trkpt lat="45.31936" lon="6.044">
        <ele>1523.8269042969</ele>
        <time>2011-10-23T09:54:22Z</time>
      </trkpt>
      <trkpt lat="45.31928" lon="6.04405">
        <ele>1524.7883300781</ele>
        <time>2011-10-23T09:54:27Z</time>
      </trkpt>
      <trkpt lat="45.31926" lon="6.04408">
        <ele>1524.7883300781</ele>
        <time>2011-10-23T09:54:29Z</time>
      </trkpt>
      <trkpt lat="45.31919" lon="6.04411">
        <ele>1526.2302246094</ele>
        <time>2011-10-23T09:54:33Z</time>
      </trkpt>
      <trkpt lat="45.3191" lon="6.04416">
        <ele>1530.0754394531</ele>
        <time>2011-10-23T09:54:38Z</time>
      </trkpt>
      <trkpt lat="45.31903" lon="6.04422">
        <ele>1533.4401855469</ele>
        <time>2011-10-23T09:54:43Z</time>
      </trkpt>
      <trkpt lat="45.31896" lon="6.04426">
        <ele>1535.8435058594</ele>
        <time>2011-10-23T09:54:47Z</time>
      </trkpt>
      <trkpt lat="45.31889" lon="6.04431">
        <ele>1534.8823242188</ele>
        <time>2011-10-23T09:54:52Z</time>
      </trkpt>
      <trkpt lat="45.31888" lon="6.04432">
        <ele>1535.3627929688</ele>
        <time>2011-10-23T09:54:53Z</time>
      </trkpt>
      <trkpt lat="45.31882" lon="6.04433">
        <ele>1536.32421875</ele>
        <time>2011-10-23T09:54:57Z</time>
      </trkpt>
      <trkpt lat="45.31876" lon="6.04438">
        <ele>1532.4790039062</ele>
        <time>2011-10-23T09:55:02Z</time>
      </trkpt>
      <trkpt lat="45.31869" lon="6.04436">
        <ele>1535.3627929688</ele>
        <time>2011-10-23T09:55:06Z</time>
      </trkpt>
      <trkpt lat="45.31863" lon="6.04438">
        <ele>1532.9594726562</ele>
        <time>2011-10-23T09:55:11Z</time>
      </trkpt>
      <trkpt lat="45.31861" lon="6.04438">
        <ele>1532.9594726562</ele>
        <time>2011-10-23T09:55:12Z</time>
      </trkpt>
      <trkpt lat="45.31854" lon="6.04439">
        <ele>1533.9208984375</ele>
        <time>2011-10-23T09:55:17Z</time>
      </trkpt>
      <trkpt lat="45.31845" lon="6.0444">
        <ele>1532.9594726562</ele>
        <time>2011-10-23T09:55:22Z</time>
      </trkpt>
      <trkpt lat="45.31844" lon="6.04441">
        <ele>1532.9594726562</ele>
        <time>2011-10-23T09:55:24Z</time>
      </trkpt>
      <trkpt lat="45.3184" lon="6.04453">
        <ele>1535.3627929688</ele>
        <time>2011-10-23T09:55:29Z</time>
      </trkpt>
      <trkpt lat="45.31832" lon="6.04466">
        <ele>1535.3627929688</ele>
        <time>2011-10-23T09:55:35Z</time>
      </trkpt>
      <trkpt lat="45.31822" lon="6.04477">
        <ele>1536.8046875</ele>
        <time>2011-10-23T09:55:41Z</time>
      </trkpt>
      <trkpt lat="45.31814" lon="6.04481">
        <ele>1540.1694335938</ele>
        <time>2011-10-23T09:55:46Z</time>
      </trkpt>
      <trkpt lat="45.31814" lon="6.04482">
        <ele>1543.5339355469</ele>
        <time>2011-10-23T09:55:50Z</time>
      </trkpt>
      <trkpt lat="45.31814" lon="6.04483">
        <ele>1543.5339355469</ele>
        <time>2011-10-23T09:55:51Z</time>
      </trkpt>
      <trkpt lat="45.31815" lon="6.04488">
        <ele>1542.5727539062</ele>
        <time>2011-10-23T09:55:54Z</time>
      </trkpt>
      <trkpt lat="45.31818" lon="6.04496">
        <ele>1541.611328125</ele>
        <time>2011-10-23T09:55:59Z</time>
      </trkpt>
      <trkpt lat="45.31821" lon="6.04503">
        <ele>1541.1306152344</ele>
        <time>2011-10-23T09:56:02Z</time>
      </trkpt>
      <trkpt lat="45.31827" lon="6.0451">
        <ele>1540.1694335938</ele>
        <time>2011-10-23T09:56:06Z</time>
      </trkpt>
      <trkpt lat="45.31836" lon="6.0452">
        <ele>1541.1306152344</ele>
        <time>2011-10-23T09:56:12Z</time>
      </trkpt>
      <trkpt lat="45.31842" lon="6.04527">
        <ele>1543.0532226562</ele>
        <time>2011-10-23T09:56:17Z</time>
      </trkpt>
      <trkpt lat="45.31845" lon="6.04534">
        <ele>1543.5339355469</ele>
        <time>2011-10-23T09:56:21Z</time>
      </trkpt>
      <trkpt lat="45.31847" lon="6.04535">
        <ele>1544.0146484375</ele>
        <time>2011-10-23T09:56:23Z</time>
      </trkpt>
      <trkpt lat="45.31851" lon="6.04544">
        <ele>1544.9758300781</ele>
        <time>2011-10-23T09:56:31Z</time>
      </trkpt>
      <trkpt lat="45.31854" lon="6.04548">
        <ele>1546.41796875</ele>
        <time>2011-10-23T09:56:36Z</time>
      </trkpt>
      <trkpt lat="45.31858" lon="6.04558">
        <ele>1547.3791503906</ele>
        <time>2011-10-23T09:56:43Z</time>
      </trkpt>
      <trkpt lat="45.31861" lon="6.04564">
        <ele>1547.8598632812</ele>
        <time>2011-10-23T09:56:48Z</time>
      </trkpt>
      <trkpt lat="45.31863" lon="6.0457">
        <ele>1548.3405761719</ele>
        <time>2011-10-23T09:56:54Z</time>
      </trkpt>
      <trkpt lat="45.31867" lon="6.04579">
        <ele>1547.3791503906</ele>
        <time>2011-10-23T09:57:00Z</time>
      </trkpt>
      <trkpt lat="45.3187" lon="6.04587">
        <ele>1548.8212890625</ele>
        <time>2011-10-23T09:57:05Z</time>
      </trkpt>
      <trkpt lat="45.31871" lon="6.04592">
        <ele>1548.8212890625</ele>
        <time>2011-10-23T09:57:09Z</time>
      </trkpt>
      <trkpt lat="45.31872" lon="6.046">
        <ele>1548.8212890625</ele>
        <time>2011-10-23T09:57:14Z</time>
      </trkpt>
      <trkpt lat="45.31877" lon="6.04612">
        <ele>1550.2634277344</ele>
        <time>2011-10-23T09:57:22Z</time>
      </trkpt>
      <trkpt lat="45.31879" lon="6.04615">
        <ele>1550.7438964844</ele>
        <time>2011-10-23T09:57:25Z</time>
      </trkpt>
      <trkpt lat="45.31884" lon="6.04619">
        <ele>1552.1857910156</ele>
        <time>2011-10-23T09:57:31Z</time>
      </trkpt>
      <trkpt lat="45.3189" lon="6.04624">
        <ele>1555.0698242188</ele>
        <time>2011-10-23T09:57:37Z</time>
      </trkpt>
      <trkpt lat="45.31892" lon="6.04626">
        <ele>1555.5505371094</ele>
        <time>2011-10-23T09:57:39Z</time>
      </trkpt>
      <trkpt lat="45.31893" lon="6.04629">
        <ele>1555.5505371094</ele>
        <time>2011-10-23T09:57:41Z</time>
      </trkpt>
      <trkpt lat="45.31898" lon="6.04634">
        <ele>1556.0310058594</ele>
        <time>2011-10-23T09:57:47Z</time>
      </trkpt>
      <trkpt lat="45.31899" lon="6.04635">
        <ele>1556.0310058594</ele>
        <time>2011-10-23T09:57:48Z</time>
      </trkpt>
      <trkpt lat="45.31901" lon="6.04638">
        <ele>1556.9924316406</ele>
        <time>2011-10-23T09:57:51Z</time>
      </trkpt>
      <trkpt lat="45.31906" lon="6.04646">
        <ele>1557.9538574219</ele>
        <time>2011-10-23T09:57:58Z</time>
      </trkpt>
      <trkpt lat="45.31908" lon="6.0465">
        <ele>1558.4343261719</ele>
        <time>2011-10-23T09:58:01Z</time>
      </trkpt>
      <trkpt lat="45.31911" lon="6.04658">
        <ele>1560.3569335938</ele>
        <time>2011-10-23T09:58:09Z</time>
      </trkpt>
      <trkpt lat="45.31916" lon="6.04664">
        <ele>1561.7990722656</ele>
        <time>2011-10-23T09:58:16Z</time>
      </trkpt>
      <trkpt lat="45.3192" lon="6.04667">
        <ele>1562.7602539062</ele>
        <time>2011-10-23T09:58:20Z</time>
      </trkpt>
      <trkpt lat="45.31924" lon="6.04668">
        <ele>1564.6831054688</ele>
        <time>2011-10-23T09:58:24Z</time>
      </trkpt>
      <trkpt lat="45.31927" lon="6.04676">
        <ele>1567.5668945312</ele>
        <time>2011-10-23T09:58:31Z</time>
      </trkpt>
      <trkpt lat="45.31929" lon="6.04682">
        <ele>1568.5283203125</ele>
        <time>2011-10-23T09:58:35Z</time>
      </trkpt>
      <trkpt lat="45.31936" lon="6.04689">
        <ele>1570.4509277344</ele>
        <time>2011-10-23T09:58:43Z</time>
      </trkpt>
      <trkpt lat="45.31938" lon="6.04697">
        <ele>1571.8928222656</ele>
        <time>2011-10-23T09:58:47Z</time>
      </trkpt>
      <trkpt lat="45.31945" lon="6.04711">
        <ele>1574.7768554688</ele>
        <time>2011-10-23T09:58:54Z</time>
      </trkpt>
      <trkpt lat="45.31948" lon="6.04719">
        <ele>1575.2573242188</ele>
        <time>2011-10-23T09:58:57Z</time>
      </trkpt>
      <trkpt lat="45.3196" lon="6.0473">
        <ele>1579.1025390625</ele>
        <time>2011-10-23T09:59:03Z</time>
      </trkpt>
      <trkpt lat="45.31968" lon="6.04735">
        <ele>1579.5832519531</ele>
        <time>2011-10-23T09:59:07Z</time>
      </trkpt>
      <trkpt lat="45.31972" lon="6.04746">
        <ele>1580.0642089844</ele>
        <time>2011-10-23T09:59:12Z</time>
      </trkpt>
      <trkpt lat="45.31973" lon="6.04747">
        <ele>1580.544921875</ele>
        <time>2011-10-23T09:59:13Z</time>
      </trkpt>
      <trkpt lat="45.31982" lon="6.04757">
        <ele>1581.5061035156</ele>
        <time>2011-10-23T09:59:20Z</time>
      </trkpt>
      <trkpt lat="45.31989" lon="6.04763">
        <ele>1582.4675292969</ele>
        <time>2011-10-23T09:59:23Z</time>
      </trkpt>
      <trkpt lat="45.31997" lon="6.04775">
        <ele>1581.9868164062</ele>
        <time>2011-10-23T09:59:28Z</time>
      </trkpt>
      <trkpt lat="45.31999" lon="6.04785">
        <ele>1582.4675292969</ele>
        <time>2011-10-23T09:59:33Z</time>
      </trkpt>
      <trkpt lat="45.32002" lon="6.04799">
        <ele>1584.8708496094</ele>
        <time>2011-10-23T09:59:40Z</time>
      </trkpt>
      <trkpt lat="45.32001" lon="6.04812">
        <ele>1582.9479980469</ele>
        <time>2011-10-23T09:59:45Z</time>
      </trkpt>
      <trkpt lat="45.32006" lon="6.04822">
        <ele>1583.9094238281</ele>
        <time>2011-10-23T09:59:50Z</time>
      </trkpt>
      <trkpt lat="45.32006" lon="6.04827">
        <ele>1584.8708496094</ele>
        <time>2011-10-23T09:59:52Z</time>
      </trkpt>
      <trkpt lat="45.32009" lon="6.04841">
        <ele>1587.2739257812</ele>
        <time>2011-10-23T09:59:57Z</time>
      </trkpt>
      <trkpt lat="45.32004" lon="6.04858">
        <ele>1589.1965332031</ele>
        <time>2011-10-23T10:00:03Z</time>
      </trkpt>
      <trkpt lat="45.32001" lon="6.04868">
        <ele>1588.7160644531</ele>
        <time>2011-10-23T10:00:06Z</time>
      </trkpt>
      <trkpt lat="45.32002" lon="6.04879">
        <ele>1589.6772460938</ele>
        <time>2011-10-23T10:00:13Z</time>
      </trkpt>
      <trkpt lat="45.32003" lon="6.04882">
        <ele>1589.6772460938</ele>
        <time>2011-10-23T10:00:15Z</time>
      </trkpt>
      <trkpt lat="45.32005" lon="6.04893">
        <ele>1591.5998535156</ele>
        <time>2011-10-23T10:00:21Z</time>
      </trkpt>
      <trkpt lat="45.32009" lon="6.04903">
        <ele>1593.0417480469</ele>
        <time>2011-10-23T10:00:26Z</time>
      </trkpt>
      <trkpt lat="45.32017" lon="6.04913">
        <ele>1596.8872070312</ele>
        <time>2011-10-23T10:00:31Z</time>
      </trkpt>
      <trkpt lat="45.32021" lon="6.04917">
        <ele>1601.6938476562</ele>
        <time>2011-10-23T10:00:35Z</time>
      </trkpt>
      <trkpt lat="45.32026" lon="6.04919">
        <ele>1605.5390625</ele>
        <time>2011-10-23T10:00:38Z</time>
      </trkpt>
      <trkpt lat="45.32028" lon="6.04933">
        <ele>1605.0583496094</ele>
        <time>2011-10-23T10:00:44Z</time>
      </trkpt>
      <trkpt lat="45.32031" lon="6.04935">
        <ele>1604.0971679688</ele>
        <time>2011-10-23T10:00:47Z</time>
      </trkpt>
      <trkpt lat="45.32033" lon="6.04939">
        <ele>1605.0583496094</ele>
        <time>2011-10-23T10:00:51Z</time>
      </trkpt>
      <trkpt lat="45.32036" lon="6.0495">
        <ele>1602.1743164062</ele>
        <time>2011-10-23T10:00:57Z</time>
      </trkpt>
      <trkpt lat="45.32038" lon="6.04959">
        <ele>1601.6938476562</ele>
        <time>2011-10-23T10:01:02Z</time>
      </trkpt>
      <trkpt lat="45.32044" lon="6.04965">
        <ele>1602.6550292969</ele>
        <time>2011-10-23T10:01:06Z</time>
      </trkpt>
      <trkpt lat="45.32053" lon="6.04973">
        <ele>1607.4616699219</ele>
        <time>2011-10-23T10:01:11Z</time>
      </trkpt>
      <trkpt lat="45.32059" lon="6.04979">
        <ele>1612.7490234375</ele>
        <time>2011-10-23T10:01:16Z</time>
      </trkpt>
      <trkpt lat="45.32061" lon="6.04983">
        <ele>1613.2297363281</ele>
        <time>2011-10-23T10:01:18Z</time>
      </trkpt>
      <trkpt lat="45.32062" lon="6.04997">
        <ele>1612.2683105469</ele>
        <time>2011-10-23T10:01:24Z</time>
      </trkpt>
      <trkpt lat="45.32062" lon="6.04999">
        <ele>1611.7875976562</ele>
        <time>2011-10-23T10:01:25Z</time>
      </trkpt>
      <trkpt lat="45.32065" lon="6.05009">
        <ele>1612.7490234375</ele>
        <time>2011-10-23T10:01:30Z</time>
      </trkpt>
      <trkpt lat="45.32071" lon="6.05019">
        <ele>1613.2297363281</ele>
        <time>2011-10-23T10:01:36Z</time>
      </trkpt>
      <trkpt lat="45.32071" lon="6.0503">
        <ele>1611.3068847656</ele>
        <time>2011-10-23T10:01:40Z</time>
      </trkpt>
      <trkpt lat="45.32074" lon="6.0504">
        <ele>1608.9035644531</ele>
        <time>2011-10-23T10:01:45Z</time>
      </trkpt>
      <trkpt lat="45.32076" lon="6.05047">
        <ele>1607.9423828125</ele>
        <time>2011-10-23T10:01:48Z</time>
      </trkpt>
      <trkpt lat="45.3208" lon="6.05057">
        <ele>1607.4616699219</ele>
        <time>2011-10-23T10:01:54Z</time>
      </trkpt>
      <trkpt lat="45.32086" lon="6.05067">
        <ele>1604.5776367188</ele>
        <time>2011-10-23T10:02:00Z</time>
      </trkpt>
      <trkpt lat="45.32092" lon="6.05074">
        <ele>1606.9809570312</ele>
        <time>2011-10-23T10:02:04Z</time>
      </trkpt>
      <trkpt lat="45.32098" lon="6.05079">
        <ele>1610.3454589844</ele>
        <time>2011-10-23T10:02:08Z</time>
      </trkpt>
      <trkpt lat="45.32101" lon="6.05085">
        <ele>1610.3454589844</ele>
        <time>2011-10-23T10:02:11Z</time>
      </trkpt>
      <trkpt lat="45.32108" lon="6.0509">
        <ele>1615.15234375</ele>
        <time>2011-10-23T10:02:15Z</time>
      </trkpt>
      <trkpt lat="45.32112" lon="6.05104">
        <ele>1613.2297363281</ele>
        <time>2011-10-23T10:02:22Z</time>
      </trkpt>
      <trkpt lat="45.32116" lon="6.05118">
        <ele>1609.8647460938</ele>
        <time>2011-10-23T10:02:28Z</time>
      </trkpt>
      <trkpt lat="45.32118" lon="6.05126">
        <ele>1609.3842773438</ele>
        <time>2011-10-23T10:02:32Z</time>
      </trkpt>
      <trkpt lat="45.32121" lon="6.05137">
        <ele>1609.8647460938</ele>
        <time>2011-10-23T10:02:38Z</time>
      </trkpt>
      <trkpt lat="45.32124" lon="6.05144">
        <ele>1609.3842773438</ele>
        <time>2011-10-23T10:02:41Z</time>
      </trkpt>
      <trkpt lat="45.32129" lon="6.05159">
        <ele>1608.9035644531</ele>
        <time>2011-10-23T10:02:47Z</time>
      </trkpt>
      <trkpt lat="45.32135" lon="6.05173">
        <ele>1609.3842773438</ele>
        <time>2011-10-23T10:02:53Z</time>
      </trkpt>
      <trkpt lat="45.32136" lon="6.05175">
        <ele>1609.8647460938</ele>
        <time>2011-10-23T10:02:54Z</time>
      </trkpt>
      <trkpt lat="45.32141" lon="6.05182">
        <ele>1609.8647460938</ele>
        <time>2011-10-23T10:02:58Z</time>
      </trkpt>
      <trkpt lat="45.32153" lon="6.05197">
        <ele>1608.9035644531</ele>
        <time>2011-10-23T10:03:04Z</time>
      </trkpt>
      <trkpt lat="45.32159" lon="6.05206">
        <ele>1608.4228515625</ele>
        <time>2011-10-23T10:03:08Z</time>
      </trkpt>
      <trkpt lat="45.32167" lon="6.05219">
        <ele>1606.9809570312</ele>
        <time>2011-10-23T10:03:14Z</time>
      </trkpt>
      <trkpt lat="45.32172" lon="6.05226">
        <ele>1606.9809570312</ele>
        <time>2011-10-23T10:03:18Z</time>
      </trkpt>
      <trkpt lat="45.32176" lon="6.05234">
        <ele>1606.9809570312</ele>
        <time>2011-10-23T10:03:22Z</time>
      </trkpt>
      <trkpt lat="45.32178" lon="6.05244">
        <ele>1608.4228515625</ele>
        <time>2011-10-23T10:03:28Z</time>
      </trkpt>
      <trkpt lat="45.32178" lon="6.05252">
        <ele>1609.8647460938</ele>
        <time>2011-10-23T10:03:34Z</time>
      </trkpt>
      <trkpt lat="45.32177" lon="6.05265">
        <ele>1611.3068847656</ele>
        <time>2011-10-23T10:03:43Z</time>
      </trkpt>
      <trkpt lat="45.3218" lon="6.05271">
        <ele>1613.2297363281</ele>
        <time>2011-10-23T10:03:49Z</time>
      </trkpt>
      <trkpt lat="45.32183" lon="6.05278">
        <ele>1614.6716308594</ele>
        <time>2011-10-23T10:03:57Z</time>
      </trkpt>
      <trkpt lat="45.32192" lon="6.05285">
        <ele>1613.7102050781</ele>
        <time>2011-10-23T10:04:03Z</time>
      </trkpt>
      <trkpt lat="45.32193" lon="6.05287">
        <ele>1613.7102050781</ele>
        <time>2011-10-23T10:04:04Z</time>
      </trkpt>
      <trkpt lat="45.32199" lon="6.0529">
        <ele>1614.6716308594</ele>
        <time>2011-10-23T10:04:09Z</time>
      </trkpt>
      <trkpt lat="45.32209" lon="6.05302">
        <ele>1616.5942382812</ele>
        <time>2011-10-23T10:04:17Z</time>
      </trkpt>
      <trkpt lat="45.32211" lon="6.05307">
        <ele>1617.0749511719</ele>
        <time>2011-10-23T10:04:19Z</time>
      </trkpt>
      <trkpt lat="45.32215" lon="6.05324">
        <ele>1618.9975585938</ele>
        <time>2011-10-23T10:04:26Z</time>
      </trkpt>
      <trkpt lat="45.32218" lon="6.05335">
        <ele>1620.439453125</ele>
        <time>2011-10-23T10:04:31Z</time>
      </trkpt>
      <trkpt lat="45.32219" lon="6.05338">
        <ele>1620.9201660156</ele>
        <time>2011-10-23T10:04:32Z</time>
      </trkpt>
      <trkpt lat="45.32219" lon="6.05342">
        <ele>1620.9201660156</ele>
        <time>2011-10-23T10:04:34Z</time>
      </trkpt>
      <trkpt lat="45.32221" lon="6.05354">
        <ele>1622.3620605469</ele>
        <time>2011-10-23T10:04:40Z</time>
      </trkpt>
      <trkpt lat="45.32221" lon="6.05366">
        <ele>1623.3234863281</ele>
        <time>2011-10-23T10:04:48Z</time>
      </trkpt>
      <trkpt lat="45.3222" lon="6.0537">
        <ele>1623.3234863281</ele>
        <time>2011-10-23T10:04:52Z</time>
      </trkpt>
      <trkpt lat="45.32219" lon="6.05379">
        <ele>1622.8427734375</ele>
        <time>2011-10-23T10:04:59Z</time>
      </trkpt>
      <trkpt lat="45.32217" lon="6.05382">
        <ele>1622.3620605469</ele>
        <time>2011-10-23T10:05:03Z</time>
      </trkpt>
      <trkpt lat="45.32215" lon="6.05388">
        <ele>1622.8427734375</ele>
        <time>2011-10-23T10:05:08Z</time>
      </trkpt>
      <trkpt lat="45.32215" lon="6.05391">
        <ele>1623.8039550781</ele>
        <time>2011-10-23T10:05:10Z</time>
      </trkpt>
      <trkpt lat="45.32217" lon="6.05399">
        <ele>1626.2072753906</ele>
        <time>2011-10-23T10:05:14Z</time>
      </trkpt>
      <trkpt lat="45.32222" lon="6.05409">
        <ele>1628.1301269531</ele>
        <time>2011-10-23T10:05:20Z</time>
      </trkpt>
      <trkpt lat="45.32227" lon="6.05414">
        <ele>1629.5720214844</ele>
        <time>2011-10-23T10:05:25Z</time>
      </trkpt>
      <trkpt lat="45.32233" lon="6.05419">
        <ele>1630.5334472656</ele>
        <time>2011-10-23T10:05:29Z</time>
      </trkpt>
      <trkpt lat="45.32238" lon="6.05435">
        <ele>1631.9753417969</ele>
        <time>2011-10-23T10:05:35Z</time>
      </trkpt>
      <trkpt lat="45.3224" lon="6.05439">
        <ele>1631.9753417969</ele>
        <time>2011-10-23T10:05:37Z</time>
      </trkpt>
      <trkpt lat="45.32244" lon="6.05452">
        <ele>1632.9365234375</ele>
        <time>2011-10-23T10:05:43Z</time>
      </trkpt>
      <trkpt lat="45.32247" lon="6.05456">
        <ele>1634.859375</ele>
        <time>2011-10-23T10:05:48Z</time>
      </trkpt>
      <trkpt lat="45.32247" lon="6.05458">
        <ele>1633.8979492188</ele>
        <time>2011-10-23T10:05:50Z</time>
      </trkpt>
      <trkpt lat="45.32254" lon="6.0546">
        <ele>1635.8205566406</ele>
        <time>2011-10-23T10:05:55Z</time>
      </trkpt>
      <trkpt lat="45.32261" lon="6.05463">
        <ele>1637.7431640625</ele>
        <time>2011-10-23T10:06:01Z</time>
      </trkpt>
      <trkpt lat="45.32266" lon="6.05465">
        <ele>1638.2238769531</ele>
        <time>2011-10-23T10:06:05Z</time>
      </trkpt>
      <trkpt lat="45.32273" lon="6.0547">
        <ele>1638.7045898438</ele>
        <time>2011-10-23T10:06:09Z</time>
      </trkpt>
      <trkpt lat="45.32282" lon="6.05476">
        <ele>1640.626953125</ele>
        <time>2011-10-23T10:06:15Z</time>
      </trkpt>
      <trkpt lat="45.32286" lon="6.05481">
        <ele>1640.626953125</ele>
        <time>2011-10-23T10:06:19Z</time>
      </trkpt>
      <trkpt lat="45.32296" lon="6.05483">
        <ele>1641.5883789062</ele>
        <time>2011-10-23T10:06:26Z</time>
      </trkpt>
      <trkpt lat="45.32304" lon="6.05488">
        <ele>1643.9916992188</ele>
        <time>2011-10-23T10:06:33Z</time>
      </trkpt>
      <trkpt lat="45.32307" lon="6.05491">
        <ele>1645.4338378906</ele>
        <time>2011-10-23T10:06:38Z</time>
      </trkpt>
      <trkpt lat="45.32309" lon="6.05492">
        <ele>1645.4338378906</ele>
        <time>2011-10-23T10:06:40Z</time>
      </trkpt>
      <trkpt lat="45.32319" lon="6.05491">
        <ele>1647.3564453125</ele>
        <time>2011-10-23T10:06:46Z</time>
      </trkpt>
      <trkpt lat="45.32328" lon="6.05494">
        <ele>1647.3564453125</ele>
        <time>2011-10-23T10:06:51Z</time>
      </trkpt>
      <trkpt lat="45.32341" lon="6.05499">
        <ele>1647.8371582031</ele>
        <time>2011-10-23T10:06:57Z</time>
      </trkpt>
      <trkpt lat="45.32348" lon="6.05507">
        <ele>1651.2016601562</ele>
        <time>2011-10-23T10:07:02Z</time>
      </trkpt>
      <trkpt lat="45.32351" lon="6.05509">
        <ele>1651.6823730469</ele>
        <time>2011-10-23T10:07:03Z</time>
      </trkpt>
      <trkpt lat="45.32364" lon="6.05517">
        <ele>1652.6435546875</ele>
        <time>2011-10-23T10:07:09Z</time>
      </trkpt>
      <trkpt lat="45.32373" lon="6.05521">
        <ele>1655.046875</ele>
        <time>2011-10-23T10:07:13Z</time>
      </trkpt>
      <trkpt lat="45.32381" lon="6.05527">
        <ele>1656.9694824219</ele>
        <time>2011-10-23T10:07:18Z</time>
      </trkpt>
      <trkpt lat="45.32389" lon="6.05531">
        <ele>1660.8149414062</ele>
        <time>2011-10-23T10:07:23Z</time>
      </trkpt>
      <trkpt lat="45.32397" lon="6.05536">
        <ele>1660.3342285156</ele>
        <time>2011-10-23T10:07:28Z</time>
      </trkpt>
      <trkpt lat="45.32402" lon="6.05538">
        <ele>1661.7763671875</ele>
        <time>2011-10-23T10:07:31Z</time>
      </trkpt>
      <trkpt lat="45.32409" lon="6.05542">
        <ele>1664.1794433594</ele>
        <time>2011-10-23T10:07:37Z</time>
      </trkpt>
      <trkpt lat="45.32415" lon="6.05543">
        <ele>1667.0634765625</ele>
        <time>2011-10-23T10:07:42Z</time>
      </trkpt>
      <trkpt lat="45.32418" lon="6.05544">
        <ele>1667.5439453125</ele>
        <time>2011-10-23T10:07:44Z</time>
      </trkpt>
      <trkpt lat="45.32422" lon="6.05549">
        <ele>1668.5053710938</ele>
        <time>2011-10-23T10:07:47Z</time>
      </trkpt>
      <trkpt lat="45.32427" lon="6.05553">
        <ele>1668.5053710938</ele>
        <time>2011-10-23T10:07:51Z</time>
      </trkpt>
      <trkpt lat="45.3243" lon="6.05555">
        <ele>1668.0246582031</ele>
        <time>2011-10-23T10:07:53Z</time>
      </trkpt>
      <trkpt lat="45.32436" lon="6.05557">
        <ele>1666.5827636719</ele>
        <time>2011-10-23T10:07:59Z</time>
      </trkpt>
      <trkpt lat="45.32442" lon="6.05559">
        <ele>1666.1020507812</ele>
        <time>2011-10-23T10:08:06Z</time>
      </trkpt>
      <trkpt lat="45.32444" lon="6.0556">
        <ele>1667.5439453125</ele>
        <time>2011-10-23T10:08:11Z</time>
      </trkpt>
      <trkpt lat="45.32449" lon="6.05565">
        <ele>1667.0634765625</ele>
        <time>2011-10-23T10:08:17Z</time>
      </trkpt>
      <trkpt lat="45.32453" lon="6.05569">
        <ele>1666.1020507812</ele>
        <time>2011-10-23T10:08:23Z</time>
      </trkpt>
      <trkpt lat="45.32457" lon="6.0557">
        <ele>1668.0246582031</ele>
        <time>2011-10-23T10:08:29Z</time>
      </trkpt>
      <trkpt lat="45.32463" lon="6.05575">
        <ele>1668.0246582031</ele>
        <time>2011-10-23T10:08:34Z</time>
      </trkpt>
      <trkpt lat="45.32469" lon="6.05583">
        <ele>1668.5053710938</ele>
        <time>2011-10-23T10:08:39Z</time>
      </trkpt>
      <trkpt lat="45.32471" lon="6.05585">
        <ele>1668.5053710938</ele>
        <time>2011-10-23T10:08:40Z</time>
      </trkpt>
      <trkpt lat="45.32476" lon="6.05591">
        <ele>1668.5053710938</ele>
        <time>2011-10-23T10:08:45Z</time>
      </trkpt>
      <trkpt lat="45.3248" lon="6.05593">
        <ele>1668.5053710938</ele>
        <time>2011-10-23T10:08:49Z</time>
      </trkpt>
      <trkpt lat="45.32482" lon="6.05593">
        <ele>1668.9860839844</ele>
        <time>2011-10-23T10:08:51Z</time>
      </trkpt>
      <trkpt lat="45.32487" lon="6.05596">
        <ele>1670.4279785156</ele>
        <time>2011-10-23T10:08:56Z</time>
      </trkpt>
      <trkpt lat="45.32494" lon="6.05602">
        <ele>1670.9086914062</ele>
        <time>2011-10-23T10:09:03Z</time>
      </trkpt>
      <trkpt lat="45.325" lon="6.05608">
        <ele>1670.9086914062</ele>
        <time>2011-10-23T10:09:07Z</time>
      </trkpt>
      <trkpt lat="45.32504" lon="6.05613">
        <ele>1670.4279785156</ele>
        <time>2011-10-23T10:09:11Z</time>
      </trkpt>
      <trkpt lat="45.32507" lon="6.05615">
        <ele>1670.4279785156</ele>
        <time>2011-10-23T10:09:14Z</time>
      </trkpt>
      <trkpt lat="45.3251" lon="6.05619">
        <ele>1670.4279785156</ele>
        <time>2011-10-23T10:09:18Z</time>
      </trkpt>
      <trkpt lat="45.32512" lon="6.05623">
        <ele>1670.4279785156</ele>
        <time>2011-10-23T10:09:21Z</time>
      </trkpt>
      <trkpt lat="45.32512" lon="6.05626">
        <ele>1670.9086914062</ele>
        <time>2011-10-23T10:09:23Z</time>
      </trkpt>
      <trkpt lat="45.32517" lon="6.05635">
        <ele>1671.8698730469</ele>
        <time>2011-10-23T10:09:30Z</time>
      </trkpt>
      <trkpt lat="45.32518" lon="6.05642">
        <ele>1672.3505859375</ele>
        <time>2011-10-23T10:09:36Z</time>
      </trkpt>
      <trkpt lat="45.32523" lon="6.05646">
        <ele>1674.2731933594</ele>
        <time>2011-10-23T10:09:43Z</time>
      </trkpt>
      <trkpt lat="45.32528" lon="6.0565">
        <ele>1675.7150878906</ele>
        <time>2011-10-23T10:09:50Z</time>
      </trkpt>
      <trkpt lat="45.32531" lon="6.05653">
        <ele>1677.6379394531</ele>
        <time>2011-10-23T10:09:55Z</time>
      </trkpt>
      <trkpt lat="45.32532" lon="6.05658">
        <ele>1678.5993652344</ele>
        <time>2011-10-23T10:10:01Z</time>
      </trkpt>
      <trkpt lat="45.32535" lon="6.05664">
        <ele>1680.0412597656</ele>
        <time>2011-10-23T10:10:08Z</time>
      </trkpt>
      <trkpt lat="45.32538" lon="6.05671">
        <ele>1681.0026855469</ele>
        <time>2011-10-23T10:10:14Z</time>
      </trkpt>
      <trkpt lat="45.32539" lon="6.05679">
        <ele>1681.4831542969</ele>
        <time>2011-10-23T10:10:19Z</time>
      </trkpt>
      <trkpt lat="45.32539" lon="6.05687">
        <ele>1682.4445800781</ele>
        <time>2011-10-23T10:10:25Z</time>
      </trkpt>
      <trkpt lat="45.32539" lon="6.05695">
        <ele>1682.4445800781</ele>
        <time>2011-10-23T10:10:31Z</time>
      </trkpt>
      <trkpt lat="45.32539" lon="6.05703">
        <ele>1683.4057617188</ele>
        <time>2011-10-23T10:10:37Z</time>
      </trkpt>
      <trkpt lat="45.32541" lon="6.05708">
        <ele>1683.4057617188</ele>
        <time>2011-10-23T10:10:41Z</time>
      </trkpt>
      <trkpt lat="45.32544" lon="6.05718">
        <ele>1684.3671875</ele>
        <time>2011-10-23T10:10:48Z</time>
      </trkpt>
      <trkpt lat="45.3255" lon="6.05728">
        <ele>1686.7702636719</ele>
        <time>2011-10-23T10:10:54Z</time>
      </trkpt>
      <trkpt lat="45.32558" lon="6.05738">
        <ele>1689.654296875</ele>
        <time>2011-10-23T10:10:59Z</time>
      </trkpt>
      <trkpt lat="45.32564" lon="6.05746">
        <ele>1691.0961914062</ele>
        <time>2011-10-23T10:11:03Z</time>
      </trkpt>
      <trkpt lat="45.32569" lon="6.05751">
        <ele>1692.0578613281</ele>
        <time>2011-10-23T10:11:06Z</time>
      </trkpt>
      <trkpt lat="45.32576" lon="6.05759">
        <ele>1692.5385742188</ele>
        <time>2011-10-23T10:11:11Z</time>
      </trkpt>
      <trkpt lat="45.32585" lon="6.05764">
        <ele>1693.4997558594</ele>
        <time>2011-10-23T10:11:16Z</time>
      </trkpt>
      <trkpt lat="45.32593" lon="6.05767">
        <ele>1693.98046875</ele>
        <time>2011-10-23T10:11:20Z</time>
      </trkpt>
      <trkpt lat="45.32607" lon="6.0578">
        <ele>1693.98046875</ele>
        <time>2011-10-23T10:11:28Z</time>
      </trkpt>
      <trkpt lat="45.32613" lon="6.05795">
        <ele>1693.98046875</ele>
        <time>2011-10-23T10:11:34Z</time>
      </trkpt>
      <trkpt lat="45.32621" lon="6.0581">
        <ele>1693.0190429688</ele>
        <time>2011-10-23T10:11:40Z</time>
      </trkpt>
      <trkpt lat="45.32622" lon="6.05813">
        <ele>1693.0190429688</ele>
        <time>2011-10-23T10:11:41Z</time>
      </trkpt>
      <trkpt lat="45.32631" lon="6.05827">
        <ele>1692.5385742188</ele>
        <time>2011-10-23T10:11:48Z</time>
      </trkpt>
      <trkpt lat="45.32642" lon="6.05834">
        <ele>1692.5385742188</ele>
        <time>2011-10-23T10:11:53Z</time>
      </trkpt>
      <trkpt lat="45.32652" lon="6.05834">
        <ele>1692.0578613281</ele>
        <time>2011-10-23T10:11:59Z</time>
      </trkpt>
      <trkpt lat="45.32661" lon="6.05834">
        <ele>1692.0578613281</ele>
        <time>2011-10-23T10:12:03Z</time>
      </trkpt>
      <trkpt lat="45.32672" lon="6.05833">
        <ele>1692.0578613281</ele>
        <time>2011-10-23T10:12:08Z</time>
      </trkpt>
      <trkpt lat="45.32682" lon="6.05836">
        <ele>1693.0190429688</ele>
        <time>2011-10-23T10:12:13Z</time>
      </trkpt>
      <trkpt lat="45.32693" lon="6.05836">
        <ele>1693.98046875</ele>
        <time>2011-10-23T10:12:18Z</time>
      </trkpt>
      <trkpt lat="45.32705" lon="6.05839">
        <ele>1693.98046875</ele>
        <time>2011-10-23T10:12:23Z</time>
      </trkpt>
      <trkpt lat="45.32717" lon="6.05842">
        <ele>1694.4609375</ele>
        <time>2011-10-23T10:12:28Z</time>
      </trkpt>
      <trkpt lat="45.32729" lon="6.05844">
        <ele>1694.4609375</ele>
        <time>2011-10-23T10:12:33Z</time>
      </trkpt>
      <trkpt lat="45.32742" lon="6.05845">
        <ele>1695.9030761719</ele>
        <time>2011-10-23T10:12:38Z</time>
      </trkpt>
      <trkpt lat="45.32755" lon="6.05841">
        <ele>1696.3837890625</ele>
        <time>2011-10-23T10:12:43Z</time>
      </trkpt>
      <trkpt lat="45.32765" lon="6.05841">
        <ele>1695.9030761719</ele>
        <time>2011-10-23T10:12:48Z</time>
      </trkpt>
      <trkpt lat="45.32777" lon="6.05853">
        <ele>1696.8642578125</ele>
        <time>2011-10-23T10:12:54Z</time>
      </trkpt>
      <trkpt lat="45.32782" lon="6.0586">
        <ele>1696.8642578125</ele>
        <time>2011-10-23T10:12:57Z</time>
      </trkpt>
      <trkpt lat="45.32792" lon="6.05871">
        <ele>1696.8642578125</ele>
        <time>2011-10-23T10:13:03Z</time>
      </trkpt>
      <trkpt lat="45.328" lon="6.05878">
        <ele>1696.8642578125</ele>
        <time>2011-10-23T10:13:07Z</time>
      </trkpt>
      <trkpt lat="45.32811" lon="6.05891">
        <ele>1696.8642578125</ele>
        <time>2011-10-23T10:13:13Z</time>
      </trkpt>
      <trkpt lat="45.32812" lon="6.05893">
        <ele>1696.3837890625</ele>
        <time>2011-10-23T10:13:14Z</time>
      </trkpt>
      <trkpt lat="45.32819" lon="6.05904">
        <ele>1694.4609375</ele>
        <time>2011-10-23T10:13:19Z</time>
      </trkpt>
      <trkpt lat="45.32827" lon="6.05912">
        <ele>1693.4997558594</ele>
        <time>2011-10-23T10:13:24Z</time>
      </trkpt>
      <trkpt lat="45.32835" lon="6.05921">
        <ele>1694.4609375</ele>
        <time>2011-10-23T10:13:29Z</time>
      </trkpt>
      <trkpt lat="45.32841" lon="6.05928">
        <ele>1694.9416503906</ele>
        <time>2011-10-23T10:13:34Z</time>
      </trkpt>
      <trkpt lat="45.32849" lon="6.0594">
        <ele>1695.9030761719</ele>
        <time>2011-10-23T10:13:42Z</time>
      </trkpt>
      <trkpt lat="45.32858" lon="6.05952">
        <ele>1697.3449707031</ele>
        <time>2011-10-23T10:13:51Z</time>
      </trkpt>
      <trkpt lat="45.32866" lon="6.05957">
        <ele>1698.3061523438</ele>
        <time>2011-10-23T10:13:59Z</time>
      </trkpt>
      <trkpt lat="45.32869" lon="6.05962">
        <ele>1699.267578125</ele>
        <time>2011-10-23T10:14:05Z</time>
      </trkpt>
      <trkpt lat="45.32872" lon="6.05966">
        <ele>1699.267578125</ele>
        <time>2011-10-23T10:14:10Z</time>
      </trkpt>
      <trkpt lat="45.32871" lon="6.0596">
        <ele>1698.7868652344</ele>
        <time>2011-10-23T10:14:15Z</time>
      </trkpt>
      <trkpt lat="45.32871" lon="6.0596">
        <ele>1700.2290039062</ele>
        <time>2011-10-23T10:14:20Z</time>
      </trkpt>
      <trkpt lat="45.32867" lon="6.05968">
        <ele>1704.07421875</ele>
        <time>2011-10-23T10:14:31Z</time>
      </trkpt>
      <trkpt lat="45.32864" lon="6.05972">
        <ele>1707.9194335938</ele>
        <time>2011-10-23T10:14:48Z</time>
      </trkpt>
      <trkpt lat="45.32865" lon="6.05975">
        <ele>1720.8972167969</ele>
        <time>2011-10-23T10:15:05Z</time>
      </trkpt>
      <trkpt lat="45.32868" lon="6.05967">
        <ele>1707.9194335938</ele>
        <time>2011-10-23T10:15:41Z</time>
      </trkpt>
      <trkpt lat="45.3287" lon="6.05967">
        <ele>1709.3615722656</ele>
        <time>2011-10-23T10:16:21Z</time>
      </trkpt>
      <trkpt lat="45.32865" lon="6.05973">
        <ele>1706.9580078125</ele>
        <time>2011-10-23T10:17:08Z</time>
      </trkpt>
      <trkpt lat="45.32869" lon="6.05965">
        <ele>1707.9194335938</ele>
        <time>2011-10-23T10:18:22Z</time>
      </trkpt>
      <trkpt lat="45.32871" lon="6.05967">
        <ele>1706.9580078125</ele>
        <time>2011-10-23T10:19:54Z</time>
      </trkpt>
      <trkpt lat="45.32869" lon="6.05974">
        <ele>1713.2067871094</ele>
        <time>2011-10-23T10:20:09Z</time>
      </trkpt>
      <trkpt lat="45.3287" lon="6.05973">
        <ele>1712.7260742188</ele>
        <time>2011-10-23T10:20:18Z</time>
      </trkpt>
      <trkpt lat="45.32872" lon="6.05974">
        <ele>1710.3227539062</ele>
        <time>2011-10-23T10:20:27Z</time>
      </trkpt>
      <trkpt lat="45.32874" lon="6.05974">
        <ele>1708.880859375</ele>
        <time>2011-10-23T10:20:35Z</time>
      </trkpt>
      <trkpt lat="45.32875" lon="6.05972">
        <ele>1706.4772949219</ele>
        <time>2011-10-23T10:20:52Z</time>
      </trkpt>
      <trkpt lat="45.32874" lon="6.05968">
        <ele>1706.4772949219</ele>
        <time>2011-10-23T10:21:03Z</time>
      </trkpt>
      <trkpt lat="45.3288" lon="6.05963">
        <ele>1706.4772949219</ele>
        <time>2011-10-23T10:21:11Z</time>
      </trkpt>
      <trkpt lat="45.32882" lon="6.05962">
        <ele>1706.4772949219</ele>
        <time>2011-10-23T10:21:12Z</time>
      </trkpt>
      <trkpt lat="45.32889" lon="6.05956">
        <ele>1706.4772949219</ele>
        <time>2011-10-23T10:21:17Z</time>
      </trkpt>
      <trkpt lat="45.32893" lon="6.0595">
        <ele>1707.9194335938</ele>
        <time>2011-10-23T10:21:22Z</time>
      </trkpt>
      <trkpt lat="45.32896" lon="6.05944">
        <ele>1707.9194335938</ele>
        <time>2011-10-23T10:21:28Z</time>
      </trkpt>
      <trkpt lat="45.32896" lon="6.05939">
        <ele>1707.4387207031</ele>
        <time>2011-10-23T10:21:34Z</time>
      </trkpt>
      <trkpt lat="45.32898" lon="6.05936">
        <ele>1707.4387207031</ele>
        <time>2011-10-23T10:21:39Z</time>
      </trkpt>
      <trkpt lat="45.32901" lon="6.05936">
        <ele>1710.3227539062</ele>
        <time>2011-10-23T10:21:45Z</time>
      </trkpt>
      <trkpt lat="45.32903" lon="6.05933">
        <ele>1712.7260742188</ele>
        <time>2011-10-23T10:21:52Z</time>
      </trkpt>
      <trkpt lat="45.32906" lon="6.0593">
        <ele>1714.16796875</ele>
        <time>2011-10-23T10:21:59Z</time>
      </trkpt>
      <trkpt lat="45.32907" lon="6.05927">
        <ele>1714.6486816406</ele>
        <time>2011-10-23T10:22:05Z</time>
      </trkpt>
      <trkpt lat="45.32908" lon="6.05921">
        <ele>1715.6101074219</ele>
        <time>2011-10-23T10:22:15Z</time>
      </trkpt>
      <trkpt lat="45.3291" lon="6.05917">
        <ele>1718.0131835938</ele>
        <time>2011-10-23T10:22:21Z</time>
      </trkpt>
      <trkpt lat="45.32914" lon="6.05912">
        <ele>1719.9357910156</ele>
        <time>2011-10-23T10:22:28Z</time>
      </trkpt>
      <trkpt lat="45.32919" lon="6.05908">
        <ele>1720.8972167969</ele>
        <time>2011-10-23T10:22:35Z</time>
      </trkpt>
      <trkpt lat="45.32928" lon="6.05902">
        <ele>1722.8198242188</ele>
        <time>2011-10-23T10:22:41Z</time>
      </trkpt>
      <trkpt lat="45.32941" lon="6.05893">
        <ele>1724.7426757812</ele>
        <time>2011-10-23T10:22:48Z</time>
      </trkpt>
      <trkpt lat="45.32953" lon="6.0588">
        <ele>1725.2231445312</ele>
        <time>2011-10-23T10:22:54Z</time>
      </trkpt>
      <trkpt lat="45.32959" lon="6.0587">
        <ele>1725.7038574219</ele>
        <time>2011-10-23T10:22:59Z</time>
      </trkpt>
      <trkpt lat="45.32961" lon="6.05871">
        <ele>1725.7038574219</ele>
        <time>2011-10-23T10:23:04Z</time>
      </trkpt>
      <trkpt lat="45.32962" lon="6.05873">
        <ele>1725.7038574219</ele>
        <time>2011-10-23T10:23:06Z</time>
      </trkpt>
      <trkpt lat="45.32973" lon="6.05883">
        <ele>1726.1845703125</ele>
        <time>2011-10-23T10:23:13Z</time>
      </trkpt>
      <trkpt lat="45.32988" lon="6.05898">
        <ele>1726.6652832031</ele>
        <time>2011-10-23T10:23:21Z</time>
      </trkpt>
      <trkpt lat="45.32993" lon="6.05903">
        <ele>1726.1845703125</ele>
        <time>2011-10-23T10:23:24Z</time>
      </trkpt>
      <trkpt lat="45.33001" lon="6.05921">
        <ele>1725.7038574219</ele>
        <time>2011-10-23T10:23:29Z</time>
      </trkpt>
      <trkpt lat="45.33" lon="6.05932">
        <ele>1726.1845703125</ele>
        <time>2011-10-23T10:23:33Z</time>
      </trkpt>
      <trkpt lat="45.33001" lon="6.05934">
        <ele>1726.1845703125</ele>
        <time>2011-10-23T10:23:34Z</time>
      </trkpt>
      <trkpt lat="45.33003" lon="6.05944">
        <ele>1727.6264648438</ele>
        <time>2011-10-23T10:23:38Z</time>
      </trkpt>
      <trkpt lat="45.33002" lon="6.05953">
        <ele>1729.5490722656</ele>
        <time>2011-10-23T10:23:44Z</time>
      </trkpt>
      <trkpt lat="45.33004" lon="6.0597">
        <ele>1730.9912109375</ele>
        <time>2011-10-23T10:23:50Z</time>
      </trkpt>
      <trkpt lat="45.33004" lon="6.05983">
        <ele>1731.9523925781</ele>
        <time>2011-10-23T10:23:54Z</time>
      </trkpt>
      <trkpt lat="45.33004" lon="6.05997">
        <ele>1732.9135742188</ele>
        <time>2011-10-23T10:24:00Z</time>
      </trkpt>
      <trkpt lat="45.33004" lon="6.05999">
        <ele>1733.3942871094</ele>
        <time>2011-10-23T10:24:06Z</time>
      </trkpt>
      <trkpt lat="45.33003" lon="6.06">
        <ele>1733.3942871094</ele>
        <time>2011-10-23T10:24:14Z</time>
      </trkpt>
      <trkpt lat="45.32999" lon="6.06001">
        <ele>1732.9135742188</ele>
        <time>2011-10-23T10:24:18Z</time>
      </trkpt>
      <trkpt lat="45.32994" lon="6.06002">
        <ele>1730.9912109375</ele>
        <time>2011-10-23T10:24:24Z</time>
      </trkpt>
      <trkpt lat="45.32984" lon="6.06008">
        <ele>1726.1845703125</ele>
        <time>2011-10-23T10:24:32Z</time>
      </trkpt>
      <trkpt lat="45.32979" lon="6.06012">
        <ele>1722.3391113281</ele>
        <time>2011-10-23T10:24:37Z</time>
      </trkpt>
      <trkpt lat="45.32974" lon="6.06019">
        <ele>1718.4938964844</ele>
        <time>2011-10-23T10:24:43Z</time>
      </trkpt>
      <trkpt lat="45.32968" lon="6.06023">
        <ele>1715.1293945312</ele>
        <time>2011-10-23T10:24:49Z</time>
      </trkpt>
      <trkpt lat="45.32965" lon="6.06026">
        <ele>1713.2067871094</ele>
        <time>2011-10-23T10:24:52Z</time>
      </trkpt>
      <trkpt lat="45.3296" lon="6.06028">
        <ele>1710.8034667969</ele>
        <time>2011-10-23T10:24:56Z</time>
      </trkpt>
      <trkpt lat="45.32957" lon="6.06029">
        <ele>1709.3615722656</ele>
        <time>2011-10-23T10:24:58Z</time>
      </trkpt>
      <trkpt lat="45.32946" lon="6.06031">
        <ele>1705.0354003906</ele>
        <time>2011-10-23T10:25:04Z</time>
      </trkpt>
      <trkpt lat="45.32934" lon="6.0603">
        <ele>1701.6708984375</ele>
        <time>2011-10-23T10:25:09Z</time>
      </trkpt>
      <trkpt lat="45.32925" lon="6.06028">
        <ele>1700.2290039062</ele>
        <time>2011-10-23T10:25:12Z</time>
      </trkpt>
      <trkpt lat="45.32915" lon="6.06029">
        <ele>1697.3449707031</ele>
        <time>2011-10-23T10:25:17Z</time>
      </trkpt>
      <trkpt lat="45.32904" lon="6.06025">
        <ele>1695.9030761719</ele>
        <time>2011-10-23T10:25:25Z</time>
      </trkpt>
      <trkpt lat="45.32903" lon="6.06025">
        <ele>1696.3837890625</ele>
        <time>2011-10-23T10:25:26Z</time>
      </trkpt>
      <trkpt lat="45.32898" lon="6.06027">
        <ele>1697.3449707031</ele>
        <time>2011-10-23T10:25:33Z</time>
      </trkpt>
      <trkpt lat="45.32897" lon="6.06029">
        <ele>1701.6708984375</ele>
        <time>2011-10-23T10:25:42Z</time>
      </trkpt>
      <trkpt lat="45.32896" lon="6.06029">
        <ele>1701.6708984375</ele>
        <time>2011-10-23T10:25:47Z</time>
      </trkpt>
      <trkpt lat="45.32892" lon="6.06046">
        <ele>1699.267578125</ele>
        <time>2011-10-23T10:25:52Z</time>
      </trkpt>
      <trkpt lat="45.32886" lon="6.06069">
        <ele>1694.9416503906</ele>
        <time>2011-10-23T10:25:58Z</time>
      </trkpt>
      <trkpt lat="45.32883" lon="6.06089">
        <ele>1692.0578613281</ele>
        <time>2011-10-23T10:26:03Z</time>
      </trkpt>
      <trkpt lat="45.32881" lon="6.0611">
        <ele>1690.6154785156</ele>
        <time>2011-10-23T10:26:08Z</time>
      </trkpt>
      <trkpt lat="45.32881" lon="6.06134">
        <ele>1689.654296875</ele>
        <time>2011-10-23T10:26:13Z</time>
      </trkpt>
      <trkpt lat="45.3288" lon="6.0615">
        <ele>1690.1350097656</ele>
        <time>2011-10-23T10:26:17Z</time>
      </trkpt>
      <trkpt lat="45.32882" lon="6.06173">
        <ele>1689.654296875</ele>
        <time>2011-10-23T10:26:23Z</time>
      </trkpt>
      <trkpt lat="45.32885" lon="6.06186">
        <ele>1689.654296875</ele>
        <time>2011-10-23T10:26:27Z</time>
      </trkpt>
      <trkpt lat="45.32885" lon="6.06186">
        <ele>1689.654296875</ele>
        <time>2011-10-23T10:26:28Z</time>
      </trkpt>
      <trkpt lat="45.32882" lon="6.06174">
        <ele>1690.1350097656</ele>
        <time>2011-10-23T10:26:33Z</time>
      </trkpt>
      <trkpt lat="45.32876" lon="6.06164">
        <ele>1690.1350097656</ele>
        <time>2011-10-23T10:26:37Z</time>
      </trkpt>
      <trkpt lat="45.32873" lon="6.06158">
        <ele>1691.0961914062</ele>
        <time>2011-10-23T10:26:43Z</time>
      </trkpt>
      <trkpt lat="45.32871" lon="6.06156">
        <ele>1692.0578613281</ele>
        <time>2011-10-23T10:26:51Z</time>
      </trkpt>
      <trkpt lat="45.32858" lon="6.06148">
        <ele>1694.4609375</ele>
        <time>2011-10-23T10:27:02Z</time>
      </trkpt>
      <trkpt lat="45.32849" lon="6.06142">
        <ele>1696.3837890625</ele>
        <time>2011-10-23T10:27:09Z</time>
      </trkpt>
      <trkpt lat="45.32841" lon="6.06136">
        <ele>1697.8256835938</ele>
        <time>2011-10-23T10:27:16Z</time>
      </trkpt>
      <trkpt lat="45.32836" lon="6.06133">
        <ele>1697.8256835938</ele>
        <time>2011-10-23T10:27:20Z</time>
      </trkpt>
      <trkpt lat="45.32835" lon="6.06125">
        <ele>1697.3449707031</ele>
        <time>2011-10-23T10:27:24Z</time>
      </trkpt>
      <trkpt lat="45.32827" lon="6.0611">
        <ele>1698.7868652344</ele>
        <time>2011-10-23T10:27:33Z</time>
      </trkpt>
      <trkpt lat="45.32825" lon="6.06108">
        <ele>1698.7868652344</ele>
        <time>2011-10-23T10:27:35Z</time>
      </trkpt>
      <trkpt lat="45.32809" lon="6.06101">
        <ele>1699.7482910156</ele>
        <time>2011-10-23T10:27:42Z</time>
      </trkpt>
      <trkpt lat="45.32797" lon="6.06096">
        <ele>1699.7482910156</ele>
        <time>2011-10-23T10:27:48Z</time>
      </trkpt>
      <trkpt lat="45.32785" lon="6.06095">
        <ele>1699.7482910156</ele>
        <time>2011-10-23T10:27:56Z</time>
      </trkpt>
      <trkpt lat="45.32775" lon="6.0609">
        <ele>1699.7482910156</ele>
        <time>2011-10-23T10:28:03Z</time>
      </trkpt>
      <trkpt lat="45.32769" lon="6.06086">
        <ele>1700.2290039062</ele>
        <time>2011-10-23T10:28:08Z</time>
      </trkpt>
      <trkpt lat="45.32755" lon="6.06078">
        <ele>1700.2290039062</ele>
        <time>2011-10-23T10:28:14Z</time>
      </trkpt>
      <trkpt lat="45.32738" lon="6.06074">
        <ele>1700.7094726562</ele>
        <time>2011-10-23T10:28:22Z</time>
      </trkpt>
      <trkpt lat="45.32737" lon="6.06074">
        <ele>1701.1901855469</ele>
        <time>2011-10-23T10:28:23Z</time>
      </trkpt>
      <trkpt lat="45.3273" lon="6.06074">
        <ele>1700.7094726562</ele>
        <time>2011-10-23T10:28:29Z</time>
      </trkpt>
      <trkpt lat="45.32719" lon="6.06077">
        <ele>1699.7482910156</ele>
        <time>2011-10-23T10:28:36Z</time>
      </trkpt>
      <trkpt lat="45.32713" lon="6.06081">
        <ele>1698.3061523438</ele>
        <time>2011-10-23T10:28:40Z</time>
      </trkpt>
      <trkpt lat="45.32705" lon="6.06083">
        <ele>1697.3449707031</ele>
        <time>2011-10-23T10:28:45Z</time>
      </trkpt>
      <trkpt lat="45.32703" lon="6.06083">
        <ele>1696.8642578125</ele>
        <time>2011-10-23T10:28:51Z</time>
      </trkpt>
      <trkpt lat="45.32702" lon="6.06084">
        <ele>1696.8642578125</ele>
        <time>2011-10-23T10:28:56Z</time>
      </trkpt>
      <trkpt lat="45.32691" lon="6.06089">
        <ele>1695.4223632812</ele>
        <time>2011-10-23T10:29:02Z</time>
      </trkpt>
      <trkpt lat="45.32679" lon="6.06092">
        <ele>1694.9416503906</ele>
        <time>2011-10-23T10:29:08Z</time>
      </trkpt>
      <trkpt lat="45.32667" lon="6.06093">
        <ele>1693.4997558594</ele>
        <time>2011-10-23T10:29:13Z</time>
      </trkpt>
      <trkpt lat="45.3266" lon="6.06091">
        <ele>1693.0190429688</ele>
        <time>2011-10-23T10:29:18Z</time>
      </trkpt>
      <trkpt lat="45.32654" lon="6.0609">
        <ele>1692.5385742188</ele>
        <time>2011-10-23T10:29:22Z</time>
      </trkpt>
      <trkpt lat="45.3265" lon="6.06091">
        <ele>1692.0578613281</ele>
        <time>2011-10-23T10:29:27Z</time>
      </trkpt>
      <trkpt lat="45.3265" lon="6.06092">
        <ele>1693.0190429688</ele>
        <time>2011-10-23T10:29:42Z</time>
      </trkpt>
      <trkpt lat="45.3265" lon="6.06092">
        <ele>1693.0190429688</ele>
        <time>2011-10-23T10:29:52Z</time>
      </trkpt>
      <trkpt lat="45.32651" lon="6.06093">
        <ele>1694.4609375</ele>
        <time>2011-10-23T10:30:04Z</time>
      </trkpt>
      <trkpt lat="45.32649" lon="6.06096">
        <ele>1696.8642578125</ele>
        <time>2011-10-23T10:30:16Z</time>
      </trkpt>
      <trkpt lat="45.32642" lon="6.06093">
        <ele>1694.4609375</ele>
        <time>2011-10-23T10:30:22Z</time>
      </trkpt>
      <trkpt lat="45.32634" lon="6.06089">
        <ele>1693.4997558594</ele>
        <time>2011-10-23T10:30:26Z</time>
      </trkpt>
      <trkpt lat="45.32624" lon="6.06084">
        <ele>1693.4997558594</ele>
        <time>2011-10-23T10:30:30Z</time>
      </trkpt>
      <trkpt lat="45.32618" lon="6.0608">
        <ele>1693.4997558594</ele>
        <time>2011-10-23T10:30:34Z</time>
      </trkpt>
      <trkpt lat="45.3261" lon="6.06075">
        <ele>1693.4997558594</ele>
        <time>2011-10-23T10:30:40Z</time>
      </trkpt>
      <trkpt lat="45.32604" lon="6.06065">
        <ele>1692.0578613281</ele>
        <time>2011-10-23T10:30:45Z</time>
      </trkpt>
      <trkpt lat="45.32602" lon="6.06063">
        <ele>1691.5769042969</ele>
        <time>2011-10-23T10:30:47Z</time>
      </trkpt>
      <trkpt lat="45.32596" lon="6.06059">
        <ele>1692.0578613281</ele>
        <time>2011-10-23T10:30:52Z</time>
      </trkpt>
      <trkpt lat="45.32595" lon="6.06056">
        <ele>1690.1350097656</ele>
        <time>2011-10-23T10:30:55Z</time>
      </trkpt>
      <trkpt lat="45.32592" lon="6.0605">
        <ele>1690.6154785156</ele>
        <time>2011-10-23T10:31:01Z</time>
      </trkpt>
      <trkpt lat="45.32588" lon="6.06045">
        <ele>1691.0961914062</ele>
        <time>2011-10-23T10:31:05Z</time>
      </trkpt>
      <trkpt lat="45.3258" lon="6.06038">
        <ele>1691.5769042969</ele>
        <time>2011-10-23T10:31:10Z</time>
      </trkpt>
      <trkpt lat="45.32575" lon="6.06033">
        <ele>1692.0578613281</ele>
        <time>2011-10-23T10:31:14Z</time>
      </trkpt>
      <trkpt lat="45.32574" lon="6.06025">
        <ele>1692.0578613281</ele>
        <time>2011-10-23T10:31:19Z</time>
      </trkpt>
      <trkpt lat="45.3257" lon="6.06021">
        <ele>1694.9416503906</ele>
        <time>2011-10-23T10:31:24Z</time>
      </trkpt>
      <trkpt lat="45.32563" lon="6.0602">
        <ele>1697.3449707031</ele>
        <time>2011-10-23T10:31:31Z</time>
      </trkpt>
      <trkpt lat="45.32562" lon="6.0602">
        <ele>1697.3449707031</ele>
        <time>2011-10-23T10:31:32Z</time>
      </trkpt>
      <trkpt lat="45.32557" lon="6.06009">
        <ele>1698.3061523438</ele>
        <time>2011-10-23T10:31:38Z</time>
      </trkpt>
      <trkpt lat="45.32557" lon="6.06006">
        <ele>1697.3449707031</ele>
        <time>2011-10-23T10:31:40Z</time>
      </trkpt>
      <trkpt lat="45.32555" lon="6.06004">
        <ele>1697.3449707031</ele>
        <time>2011-10-23T10:31:42Z</time>
      </trkpt>
      <trkpt lat="45.32552" lon="6.05999">
        <ele>1697.3449707031</ele>
        <time>2011-10-23T10:31:47Z</time>
      </trkpt>
      <trkpt lat="45.32553" lon="6.05994">
        <ele>1701.6708984375</ele>
        <time>2011-10-23T10:31:54Z</time>
      </trkpt>
      <trkpt lat="45.32554" lon="6.05984">
        <ele>1704.5546875</ele>
        <time>2011-10-23T10:32:02Z</time>
      </trkpt>
      <trkpt lat="45.32555" lon="6.05982">
        <ele>1705.9965820312</ele>
        <time>2011-10-23T10:32:07Z</time>
      </trkpt>
      <trkpt lat="45.32555" lon="6.05978">
        <ele>1708.880859375</ele>
        <time>2011-10-23T10:32:12Z</time>
      </trkpt>
      <trkpt lat="45.32557" lon="6.05971">
        <ele>1709.8420410156</ele>
        <time>2011-10-23T10:32:18Z</time>
      </trkpt>
      <trkpt lat="45.32558" lon="6.05964">
        <ele>1709.3615722656</ele>
        <time>2011-10-23T10:32:23Z</time>
      </trkpt>
      <trkpt lat="45.32559" lon="6.05954">
        <ele>1710.3227539062</ele>
        <time>2011-10-23T10:32:29Z</time>
      </trkpt>
      <trkpt lat="45.32564" lon="6.05949">
        <ele>1710.8034667969</ele>
        <time>2011-10-23T10:32:33Z</time>
      </trkpt>
      <trkpt lat="45.3257" lon="6.05951">
        <ele>1710.3227539062</ele>
        <time>2011-10-23T10:32:38Z</time>
      </trkpt>
      <trkpt lat="45.32574" lon="6.05949">
        <ele>1712.7260742188</ele>
        <time>2011-10-23T10:32:46Z</time>
      </trkpt>
      <trkpt lat="45.32576" lon="6.05945">
        <ele>1712.2453613281</ele>
        <time>2011-10-23T10:32:51Z</time>
      </trkpt>
      <trkpt lat="45.32581" lon="6.05943">
        <ele>1713.6872558594</ele>
        <time>2011-10-23T10:32:56Z</time>
      </trkpt>
      <trkpt lat="45.32582" lon="6.05939">
        <ele>1714.6486816406</ele>
        <time>2011-10-23T10:33:01Z</time>
      </trkpt>
      <trkpt lat="45.32583" lon="6.05935">
        <ele>1716.5712890625</ele>
        <time>2011-10-23T10:33:06Z</time>
      </trkpt>
      <trkpt lat="45.32583" lon="6.05935">
        <ele>1718.4938964844</ele>
        <time>2011-10-23T10:33:23Z</time>
      </trkpt>
      <trkpt lat="45.32594" lon="6.05938">
        <ele>1719.4553222656</ele>
        <time>2011-10-23T10:33:29Z</time>
      </trkpt>
      <trkpt lat="45.32608" lon="6.05946">
        <ele>1719.4553222656</ele>
        <time>2011-10-23T10:33:36Z</time>
      </trkpt>
      <trkpt lat="45.32621" lon="6.05952">
        <ele>1719.9357910156</ele>
        <time>2011-10-23T10:33:42Z</time>
      </trkpt>
      <trkpt lat="45.32629" lon="6.05956">
        <ele>1719.9357910156</ele>
        <time>2011-10-23T10:33:48Z</time>
      </trkpt>
      <trkpt lat="45.32636" lon="6.05964">
        <ele>1719.4553222656</ele>
        <time>2011-10-23T10:33:54Z</time>
      </trkpt>
      <trkpt lat="45.32639" lon="6.05965">
        <ele>1718.974609375</ele>
        <time>2011-10-23T10:33:56Z</time>
      </trkpt>
      <trkpt lat="45.32641" lon="6.05965">
        <ele>1718.974609375</ele>
        <time>2011-10-23T10:34:02Z</time>
      </trkpt>
      <trkpt lat="45.32641" lon="6.05965">
        <ele>1721.3776855469</ele>
        <time>2011-10-23T10:34:19Z</time>
      </trkpt>
      <trkpt lat="45.32637" lon="6.05964">
        <ele>1721.8583984375</ele>
        <time>2011-10-23T10:34:25Z</time>
      </trkpt>
      <trkpt lat="45.32634" lon="6.05961">
        <ele>1721.8583984375</ele>
        <time>2011-10-23T10:34:28Z</time>
      </trkpt>
      <trkpt lat="45.32623" lon="6.05954">
        <ele>1721.8583984375</ele>
        <time>2011-10-23T10:34:36Z</time>
      </trkpt>
      <trkpt lat="45.32621" lon="6.05952">
        <ele>1721.8583984375</ele>
        <time>2011-10-23T10:34:37Z</time>
      </trkpt>
      <trkpt lat="45.32606" lon="6.05947">
        <ele>1720.8972167969</ele>
        <time>2011-10-23T10:34:44Z</time>
      </trkpt>
      <trkpt lat="45.32598" lon="6.05944">
        <ele>1719.9357910156</ele>
        <time>2011-10-23T10:34:48Z</time>
      </trkpt>
      <trkpt lat="45.3259" lon="6.05942">
        <ele>1718.0131835938</ele>
        <time>2011-10-23T10:34:52Z</time>
      </trkpt>
      <trkpt lat="45.32587" lon="6.05939">
        <ele>1718.0131835938</ele>
        <time>2011-10-23T10:34:55Z</time>
      </trkpt>
      <trkpt lat="45.32587" lon="6.05937">
        <ele>1717.5324707031</ele>
        <time>2011-10-23T10:34:57Z</time>
      </trkpt>
      <trkpt lat="45.32584" lon="6.05922">
        <ele>1717.0520019531</ele>
        <time>2011-10-23T10:35:02Z</time>
      </trkpt>
      <trkpt lat="45.32581" lon="6.05916">
        <ele>1717.5324707031</ele>
        <time>2011-10-23T10:35:04Z</time>
      </trkpt>
      <trkpt lat="45.32566" lon="6.05901">
        <ele>1718.0131835938</ele>
        <time>2011-10-23T10:35:11Z</time>
      </trkpt>
      <trkpt lat="45.32557" lon="6.05895">
        <ele>1717.5324707031</ele>
        <time>2011-10-23T10:35:15Z</time>
      </trkpt>
      <trkpt lat="45.32543" lon="6.05881">
        <ele>1716.5712890625</ele>
        <time>2011-10-23T10:35:21Z</time>
      </trkpt>
      <trkpt lat="45.32531" lon="6.05866">
        <ele>1716.5712890625</ele>
        <time>2011-10-23T10:35:27Z</time>
      </trkpt>
      <trkpt lat="45.32521" lon="6.05853">
        <ele>1717.5324707031</ele>
        <time>2011-10-23T10:35:33Z</time>
      </trkpt>
      <trkpt lat="45.32512" lon="6.05838">
        <ele>1718.974609375</ele>
        <time>2011-10-23T10:35:39Z</time>
      </trkpt>
      <trkpt lat="45.32502" lon="6.0582">
        <ele>1721.8583984375</ele>
        <time>2011-10-23T10:35:46Z</time>
      </trkpt>
      <trkpt lat="45.32495" lon="6.0581">
        <ele>1722.8198242188</ele>
        <time>2011-10-23T10:35:52Z</time>
      </trkpt>
      <trkpt lat="45.32487" lon="6.058">
        <ele>1721.8583984375</ele>
        <time>2011-10-23T10:35:57Z</time>
      </trkpt>
      <trkpt lat="45.32481" lon="6.05785">
        <ele>1721.8583984375</ele>
        <time>2011-10-23T10:36:02Z</time>
      </trkpt>
      <trkpt lat="45.3248" lon="6.05779">
        <ele>1721.8583984375</ele>
        <time>2011-10-23T10:36:05Z</time>
      </trkpt>
      <trkpt lat="45.32478" lon="6.05774">
        <ele>1721.8583984375</ele>
        <time>2011-10-23T10:36:11Z</time>
      </trkpt>
      <trkpt lat="45.32477" lon="6.05775">
        <ele>1719.9357910156</ele>
        <time>2011-10-23T10:36:26Z</time>
      </trkpt>
      <trkpt lat="45.32476" lon="6.05777">
        <ele>1718.974609375</ele>
        <time>2011-10-23T10:36:28Z</time>
      </trkpt>
      <trkpt lat="45.32473" lon="6.05785">
        <ele>1717.0520019531</ele>
        <time>2011-10-23T10:36:33Z</time>
      </trkpt>
      <trkpt lat="45.32472" lon="6.05793">
        <ele>1716.0905761719</ele>
        <time>2011-10-23T10:36:37Z</time>
      </trkpt>
      <trkpt lat="45.32468" lon="6.05798">
        <ele>1715.1293945312</ele>
        <time>2011-10-23T10:36:40Z</time>
      </trkpt>
      <trkpt lat="45.32466" lon="6.05798">
        <ele>1715.1293945312</ele>
        <time>2011-10-23T10:36:42Z</time>
      </trkpt>
      <trkpt lat="45.32465" lon="6.05799">
        <ele>1715.1293945312</ele>
        <time>2011-10-23T10:36:45Z</time>
      </trkpt>
      <trkpt lat="45.32463" lon="6.05801">
        <ele>1715.1293945312</ele>
        <time>2011-10-23T10:36:53Z</time>
      </trkpt>
      <trkpt lat="45.32462" lon="6.05803">
        <ele>1715.1293945312</ele>
        <time>2011-10-23T10:36:59Z</time>
      </trkpt>
      <trkpt lat="45.32461" lon="6.05804">
        <ele>1715.6101074219</ele>
        <time>2011-10-23T10:37:14Z</time>
      </trkpt>
      <trkpt lat="45.32456" lon="6.05806">
        <ele>1714.6486816406</ele>
        <time>2011-10-23T10:37:17Z</time>
      </trkpt>
      <trkpt lat="45.32445" lon="6.05804">
        <ele>1716.0905761719</ele>
        <time>2011-10-23T10:37:24Z</time>
      </trkpt>
      <trkpt lat="45.32444" lon="6.05806">
        <ele>1717.5324707031</ele>
        <time>2011-10-23T10:37:27Z</time>
      </trkpt>
      <trkpt lat="45.32439" lon="6.05811">
        <ele>1718.0131835938</ele>
        <time>2011-10-23T10:37:32Z</time>
      </trkpt>
      <trkpt lat="45.3243" lon="6.05809">
        <ele>1717.5324707031</ele>
        <time>2011-10-23T10:37:36Z</time>
      </trkpt>
      <trkpt lat="45.32426" lon="6.05809">
        <ele>1718.0131835938</ele>
        <time>2011-10-23T10:37:38Z</time>
      </trkpt>
      <trkpt lat="45.32413" lon="6.05814">
        <ele>1718.0131835938</ele>
        <time>2011-10-23T10:37:43Z</time>
      </trkpt>
      <trkpt lat="45.32397" lon="6.05815">
        <ele>1716.5712890625</ele>
        <time>2011-10-23T10:37:49Z</time>
      </trkpt>
      <trkpt lat="45.32388" lon="6.05816">
        <ele>1717.5324707031</ele>
        <time>2011-10-23T10:37:54Z</time>
      </trkpt>
      <trkpt lat="45.32388" lon="6.05819">
        <ele>1718.4938964844</ele>
        <time>2011-10-23T10:37:57Z</time>
      </trkpt>
      <trkpt lat="45.32386" lon="6.05823">
        <ele>1720.4165039062</ele>
        <time>2011-10-23T10:38:03Z</time>
      </trkpt>
      <trkpt lat="45.32387" lon="6.05827">
        <ele>1724.7426757812</ele>
        <time>2011-10-23T10:38:14Z</time>
      </trkpt>
      <trkpt lat="45.32378" lon="6.05827">
        <ele>1723.3005371094</ele>
        <time>2011-10-23T10:38:26Z</time>
      </trkpt>
      <trkpt lat="45.32369" lon="6.05833">
        <ele>1720.4165039062</ele>
        <time>2011-10-23T10:38:31Z</time>
      </trkpt>
      <trkpt lat="45.32359" lon="6.05838">
        <ele>1718.0131835938</ele>
        <time>2011-10-23T10:38:36Z</time>
      </trkpt>
      <trkpt lat="45.3235" lon="6.05837">
        <ele>1716.5712890625</ele>
        <time>2011-10-23T10:38:40Z</time>
      </trkpt>
      <trkpt lat="45.32332" lon="6.05826">
        <ele>1712.2453613281</ele>
        <time>2011-10-23T10:38:47Z</time>
      </trkpt>
      <trkpt lat="45.32322" lon="6.05818">
        <ele>1710.3227539062</ele>
        <time>2011-10-23T10:38:51Z</time>
      </trkpt>
      <trkpt lat="45.32312" lon="6.05809">
        <ele>1709.8420410156</ele>
        <time>2011-10-23T10:38:55Z</time>
      </trkpt>
      <trkpt lat="45.32303" lon="6.05797">
        <ele>1709.3615722656</ele>
        <time>2011-10-23T10:38:59Z</time>
      </trkpt>
      <trkpt lat="45.32294" lon="6.05781">
        <ele>1708.4001464844</ele>
        <time>2011-10-23T10:39:04Z</time>
      </trkpt>
      <trkpt lat="45.32286" lon="6.05765">
        <ele>1706.9580078125</ele>
        <time>2011-10-23T10:39:09Z</time>
      </trkpt>
      <trkpt lat="45.3228" lon="6.05754">
        <ele>1706.4772949219</ele>
        <time>2011-10-23T10:39:13Z</time>
      </trkpt>
      <trkpt lat="45.3227" lon="6.05745">
        <ele>1707.4387207031</ele>
        <time>2011-10-23T10:39:17Z</time>
      </trkpt>
      <trkpt lat="45.32263" lon="6.05739">
        <ele>1708.4001464844</ele>
        <time>2011-10-23T10:39:21Z</time>
      </trkpt>
      <trkpt lat="45.32255" lon="6.05729">
        <ele>1709.3615722656</ele>
        <time>2011-10-23T10:39:29Z</time>
      </trkpt>
      <trkpt lat="45.32248" lon="6.05718">
        <ele>1711.7648925781</ele>
        <time>2011-10-23T10:39:36Z</time>
      </trkpt>
      <trkpt lat="45.32242" lon="6.05709">
        <ele>1713.6872558594</ele>
        <time>2011-10-23T10:39:43Z</time>
      </trkpt>
      <trkpt lat="45.32235" lon="6.05705">
        <ele>1714.6486816406</ele>
        <time>2011-10-23T10:39:49Z</time>
      </trkpt>
      <trkpt lat="45.32226" lon="6.05707">
        <ele>1716.0905761719</ele>
        <time>2011-10-23T10:39:57Z</time>
      </trkpt>
      <trkpt lat="45.32225" lon="6.05712">
        <ele>1717.0520019531</ele>
        <time>2011-10-23T10:40:04Z</time>
      </trkpt>
      <trkpt lat="45.32225" lon="6.05715">
        <ele>1717.0520019531</ele>
        <time>2011-10-23T10:40:07Z</time>
      </trkpt>
      <trkpt lat="45.32221" lon="6.05731">
        <ele>1717.0520019531</ele>
        <time>2011-10-23T10:40:15Z</time>
      </trkpt>
      <trkpt lat="45.32213" lon="6.05743">
        <ele>1717.0520019531</ele>
        <time>2011-10-23T10:40:23Z</time>
      </trkpt>
      <trkpt lat="45.32202" lon="6.05742">
        <ele>1718.974609375</ele>
        <time>2011-10-23T10:40:30Z</time>
      </trkpt>
      <trkpt lat="45.32191" lon="6.05738">
        <ele>1720.4165039062</ele>
        <time>2011-10-23T10:40:39Z</time>
      </trkpt>
      <trkpt lat="45.32183" lon="6.05731">
        <ele>1722.8198242188</ele>
        <time>2011-10-23T10:40:47Z</time>
      </trkpt>
      <trkpt lat="45.32176" lon="6.05722">
        <ele>1725.2231445312</ele>
        <time>2011-10-23T10:40:54Z</time>
      </trkpt>
      <trkpt lat="45.32174" lon="6.05713">
        <ele>1725.7038574219</ele>
        <time>2011-10-23T10:40:59Z</time>
      </trkpt>
      <trkpt lat="45.32168" lon="6.05702">
        <ele>1726.1845703125</ele>
        <time>2011-10-23T10:41:03Z</time>
      </trkpt>
      <trkpt lat="45.32153" lon="6.05695">
        <ele>1723.7810058594</ele>
        <time>2011-10-23T10:41:09Z</time>
      </trkpt>
      <trkpt lat="45.32141" lon="6.05688">
        <ele>1722.8198242188</ele>
        <time>2011-10-23T10:41:13Z</time>
      </trkpt>
      <trkpt lat="45.32134" lon="6.05679">
        <ele>1722.8198242188</ele>
        <time>2011-10-23T10:41:17Z</time>
      </trkpt>
      <trkpt lat="45.32125" lon="6.05669">
        <ele>1723.7810058594</ele>
        <time>2011-10-23T10:41:22Z</time>
      </trkpt>
      <trkpt lat="45.32117" lon="6.05661">
        <ele>1724.7426757812</ele>
        <time>2011-10-23T10:41:26Z</time>
      </trkpt>
      <trkpt lat="45.32105" lon="6.05657">
        <ele>1724.2619628906</ele>
        <time>2011-10-23T10:41:32Z</time>
      </trkpt>
      <trkpt lat="45.32103" lon="6.05656">
        <ele>1723.3005371094</ele>
        <time>2011-10-23T10:41:36Z</time>
      </trkpt>
      <trkpt lat="45.32093" lon="6.05648">
        <ele>1721.8583984375</ele>
        <time>2011-10-23T10:41:40Z</time>
      </trkpt>
      <trkpt lat="45.32084" lon="6.05637">
        <ele>1722.3391113281</ele>
        <time>2011-10-23T10:41:45Z</time>
      </trkpt>
      <trkpt lat="45.32074" lon="6.05628">
        <ele>1723.3005371094</ele>
        <time>2011-10-23T10:41:50Z</time>
      </trkpt>
      <trkpt lat="45.32062" lon="6.05612">
        <ele>1723.7810058594</ele>
        <time>2011-10-23T10:41:56Z</time>
      </trkpt>
      <trkpt lat="45.32053" lon="6.05601">
        <ele>1722.8198242188</ele>
        <time>2011-10-23T10:42:00Z</time>
      </trkpt>
      <trkpt lat="45.32045" lon="6.05585">
        <ele>1722.3391113281</ele>
        <time>2011-10-23T10:42:05Z</time>
      </trkpt>
      <trkpt lat="45.32038" lon="6.05574">
        <ele>1721.8583984375</ele>
        <time>2011-10-23T10:42:10Z</time>
      </trkpt>
      <trkpt lat="45.32029" lon="6.05564">
        <ele>1723.3005371094</ele>
        <time>2011-10-23T10:42:18Z</time>
      </trkpt>
      <trkpt lat="45.32021" lon="6.05553">
        <ele>1723.7810058594</ele>
        <time>2011-10-23T10:42:23Z</time>
      </trkpt>
      <trkpt lat="45.32014" lon="6.05537">
        <ele>1724.7426757812</ele>
        <time>2011-10-23T10:42:29Z</time>
      </trkpt>
      <trkpt lat="45.32008" lon="6.05527">
        <ele>1726.1845703125</ele>
        <time>2011-10-23T10:42:36Z</time>
      </trkpt>
      <trkpt lat="45.31998" lon="6.05518">
        <ele>1726.1845703125</ele>
        <time>2011-10-23T10:42:41Z</time>
      </trkpt>
      <trkpt lat="45.31995" lon="6.05514">
        <ele>1725.7038574219</ele>
        <time>2011-10-23T10:42:44Z</time>
      </trkpt>
      <trkpt lat="45.31993" lon="6.05508">
        <ele>1724.7426757812</ele>
        <time>2011-10-23T10:42:49Z</time>
      </trkpt>
      <trkpt lat="45.31989" lon="6.05501">
        <ele>1722.3391113281</ele>
        <time>2011-10-23T10:42:55Z</time>
      </trkpt>
      <trkpt lat="45.31984" lon="6.05494">
        <ele>1721.3776855469</ele>
        <time>2011-10-23T10:43:00Z</time>
      </trkpt>
      <trkpt lat="45.31979" lon="6.05487">
        <ele>1721.3776855469</ele>
        <time>2011-10-23T10:43:06Z</time>
      </trkpt>
      <trkpt lat="45.31979" lon="6.05486">
        <ele>1723.3005371094</ele>
        <time>2011-10-23T10:43:12Z</time>
      </trkpt>
      <trkpt lat="45.31978" lon="6.05484">
        <ele>1725.7038574219</ele>
        <time>2011-10-23T10:43:28Z</time>
      </trkpt>
      <trkpt lat="45.31978" lon="6.05484">
        <ele>1727.6264648438</ele>
        <time>2011-10-23T10:43:52Z</time>
      </trkpt>
      <trkpt lat="45.31976" lon="6.05485">
        <ele>1727.6264648438</ele>
        <time>2011-10-23T10:44:08Z</time>
      </trkpt>
      <trkpt lat="45.31976" lon="6.05484">
        <ele>1727.6264648438</ele>
        <time>2011-10-23T10:44:09Z</time>
      </trkpt>
      <trkpt lat="45.31967" lon="6.05475">
        <ele>1726.1845703125</ele>
        <time>2011-10-23T10:44:16Z</time>
      </trkpt>
      <trkpt lat="45.31963" lon="6.05466">
        <ele>1726.1845703125</ele>
        <time>2011-10-23T10:44:20Z</time>
      </trkpt>
      <trkpt lat="45.31954" lon="6.0545">
        <ele>1725.2231445312</ele>
        <time>2011-10-23T10:44:26Z</time>
      </trkpt>
      <trkpt lat="45.31949" lon="6.0544">
        <ele>1724.7426757812</ele>
        <time>2011-10-23T10:44:31Z</time>
      </trkpt>
      <trkpt lat="45.31947" lon="6.05437">
        <ele>1724.2619628906</ele>
        <time>2011-10-23T10:44:36Z</time>
      </trkpt>
      <trkpt lat="45.31946" lon="6.05426">
        <ele>1723.7810058594</ele>
        <time>2011-10-23T10:44:41Z</time>
      </trkpt>
      <trkpt lat="45.31946" lon="6.05417">
        <ele>1723.3005371094</ele>
        <time>2011-10-23T10:44:49Z</time>
      </trkpt>
      <trkpt lat="45.31944" lon="6.05421">
        <ele>1719.4553222656</ele>
        <time>2011-10-23T10:45:24Z</time>
      </trkpt>
      <trkpt lat="45.31942" lon="6.05422">
        <ele>1720.4165039062</ele>
        <time>2011-10-23T10:45:29Z</time>
      </trkpt>
      <trkpt lat="45.31937" lon="6.05424">
        <ele>1720.8972167969</ele>
        <time>2011-10-23T10:45:34Z</time>
      </trkpt>
      <trkpt lat="45.31934" lon="6.05428">
        <ele>1721.8583984375</ele>
        <time>2011-10-23T10:45:39Z</time>
      </trkpt>
      <trkpt lat="45.31932" lon="6.0543">
        <ele>1723.3005371094</ele>
        <time>2011-10-23T10:45:44Z</time>
      </trkpt>
      <trkpt lat="45.31933" lon="6.05438">
        <ele>1725.7038574219</ele>
        <time>2011-10-23T10:45:51Z</time>
      </trkpt>
      <trkpt lat="45.31935" lon="6.05444">
        <ele>1727.6264648438</ele>
        <time>2011-10-23T10:45:58Z</time>
      </trkpt>
      <trkpt lat="45.31934" lon="6.0545">
        <ele>1728.1071777344</ele>
        <time>2011-10-23T10:46:03Z</time>
      </trkpt>
      <trkpt lat="45.31931" lon="6.05453">
        <ele>1728.587890625</ele>
        <time>2011-10-23T10:46:08Z</time>
      </trkpt>
      <trkpt lat="45.31927" lon="6.05458">
        <ele>1728.587890625</ele>
        <time>2011-10-23T10:46:15Z</time>
      </trkpt>
      <trkpt lat="45.31925" lon="6.05461">
        <ele>1730.0297851562</ele>
        <time>2011-10-23T10:46:21Z</time>
      </trkpt>
      <trkpt lat="45.31925" lon="6.05469">
        <ele>1734.8364257812</ele>
        <time>2011-10-23T10:46:29Z</time>
      </trkpt>
      <trkpt lat="45.31925" lon="6.05474">
        <ele>1735.7976074219</ele>
        <time>2011-10-23T10:46:35Z</time>
      </trkpt>
      <trkpt lat="45.31926" lon="6.0548">
        <ele>1739.162109375</ele>
        <time>2011-10-23T10:46:43Z</time>
      </trkpt>
      <trkpt lat="45.31926" lon="6.05482">
        <ele>1738.681640625</ele>
        <time>2011-10-23T10:46:47Z</time>
      </trkpt>
      <trkpt lat="45.31928" lon="6.0549">
        <ele>1737.2395019531</ele>
        <time>2011-10-23T10:46:52Z</time>
      </trkpt>
      <trkpt lat="45.31931" lon="6.05501">
        <ele>1737.7202148438</ele>
        <time>2011-10-23T10:47:00Z</time>
      </trkpt>
      <trkpt lat="45.31931" lon="6.05506">
        <ele>1737.7202148438</ele>
        <time>2011-10-23T10:47:04Z</time>
      </trkpt>
      <trkpt lat="45.31931" lon="6.05513">
        <ele>1737.7202148438</ele>
        <time>2011-10-23T10:47:10Z</time>
      </trkpt>
      <trkpt lat="45.31931" lon="6.05519">
        <ele>1738.681640625</ele>
        <time>2011-10-23T10:47:15Z</time>
      </trkpt>
      <trkpt lat="45.31929" lon="6.05525">
        <ele>1740.1237792969</ele>
        <time>2011-10-23T10:47:22Z</time>
      </trkpt>
      <trkpt lat="45.31926" lon="6.0553">
        <ele>1741.0849609375</ele>
        <time>2011-10-23T10:47:28Z</time>
      </trkpt>
      <trkpt lat="45.31928" lon="6.05538">
        <ele>1742.5270996094</ele>
        <time>2011-10-23T10:47:32Z</time>
      </trkpt>
      <trkpt lat="45.31931" lon="6.05546">
        <ele>1742.5270996094</ele>
        <time>2011-10-23T10:47:38Z</time>
      </trkpt>
      <trkpt lat="45.31931" lon="6.05552">
        <ele>1743.0075683594</ele>
        <time>2011-10-23T10:47:43Z</time>
      </trkpt>
      <trkpt lat="45.31929" lon="6.05555">
        <ele>1742.5270996094</ele>
        <time>2011-10-23T10:47:47Z</time>
      </trkpt>
      <trkpt lat="45.3193" lon="6.05564">
        <ele>1741.0849609375</ele>
        <time>2011-10-23T10:47:52Z</time>
      </trkpt>
      <trkpt lat="45.31927" lon="6.0556">
        <ele>1739.6428222656</ele>
        <time>2011-10-23T10:47:57Z</time>
      </trkpt>
      <trkpt lat="45.31926" lon="6.05557">
        <ele>1739.6428222656</ele>
        <time>2011-10-23T10:48:02Z</time>
      </trkpt>
      <trkpt lat="45.31926" lon="6.05557">
        <ele>1740.1237792969</ele>
        <time>2011-10-23T10:48:04Z</time>
      </trkpt>
      <trkpt lat="45.31923" lon="6.05555">
        <ele>1740.6042480469</ele>
        <time>2011-10-23T10:48:07Z</time>
      </trkpt>
      <trkpt lat="45.31919" lon="6.05549">
        <ele>1742.0463867188</ele>
        <time>2011-10-23T10:48:14Z</time>
      </trkpt>
      <trkpt lat="45.31915" lon="6.05548">
        <ele>1743.0075683594</ele>
        <time>2011-10-23T10:48:19Z</time>
      </trkpt>
      <trkpt lat="45.31911" lon="6.05547">
        <ele>1744.4494628906</ele>
        <time>2011-10-23T10:48:24Z</time>
      </trkpt>
      <trkpt lat="45.31907" lon="6.05545">
        <ele>1745.8916015625</ele>
        <time>2011-10-23T10:48:30Z</time>
      </trkpt>
      <trkpt lat="45.31902" lon="6.05544">
        <ele>1747.3334960938</ele>
        <time>2011-10-23T10:48:36Z</time>
      </trkpt>
      <trkpt lat="45.31898" lon="6.05542">
        <ele>1750.2175292969</ele>
        <time>2011-10-23T10:48:43Z</time>
      </trkpt>
      <trkpt lat="45.31898" lon="6.05536">
        <ele>1751.1787109375</ele>
        <time>2011-10-23T10:48:48Z</time>
      </trkpt>
      <trkpt lat="45.31893" lon="6.05534">
        <ele>1753.1013183594</ele>
        <time>2011-10-23T10:48:56Z</time>
      </trkpt>
      <trkpt lat="45.31891" lon="6.05532">
        <ele>1754.0627441406</ele>
        <time>2011-10-23T10:49:02Z</time>
      </trkpt>
      <trkpt lat="45.31887" lon="6.0553">
        <ele>1755.9851074219</ele>
        <time>2011-10-23T10:49:10Z</time>
      </trkpt>
      <trkpt lat="45.31885" lon="6.05527">
        <ele>1758.388671875</ele>
        <time>2011-10-23T10:49:17Z</time>
      </trkpt>
      <trkpt lat="45.31883" lon="6.05523">
        <ele>1758.8693847656</ele>
        <time>2011-10-23T10:49:24Z</time>
      </trkpt>
      <trkpt lat="45.31881" lon="6.05521">
        <ele>1759.8305664062</ele>
        <time>2011-10-23T10:49:30Z</time>
      </trkpt>
      <trkpt lat="45.31877" lon="6.05521">
        <ele>1761.7534179688</ele>
        <time>2011-10-23T10:49:37Z</time>
      </trkpt>
      <trkpt lat="45.31875" lon="6.05521">
        <ele>1763.67578125</ele>
        <time>2011-10-23T10:49:43Z</time>
      </trkpt>
      <trkpt lat="45.31874" lon="6.05523">
        <ele>1765.1179199219</ele>
        <time>2011-10-23T10:49:48Z</time>
      </trkpt>
      <trkpt lat="45.31874" lon="6.05522">
        <ele>1766.0791015625</ele>
        <time>2011-10-23T10:49:52Z</time>
      </trkpt>
      <trkpt lat="45.31872" lon="6.05522">
        <ele>1767.0405273438</ele>
        <time>2011-10-23T10:49:57Z</time>
      </trkpt>
      <trkpt lat="45.31869" lon="6.05522">
        <ele>1768.0017089844</ele>
        <time>2011-10-23T10:50:03Z</time>
      </trkpt>
      <trkpt lat="45.31866" lon="6.05523">
        <ele>1768.482421875</ele>
        <time>2011-10-23T10:50:08Z</time>
      </trkpt>
      <trkpt lat="45.31862" lon="6.05523">
        <ele>1768.9631347656</ele>
        <time>2011-10-23T10:50:13Z</time>
      </trkpt>
      <trkpt lat="45.31859" lon="6.05525">
        <ele>1769.9243164062</ele>
        <time>2011-10-23T10:50:18Z</time>
      </trkpt>
      <trkpt lat="45.31855" lon="6.05526">
        <ele>1770.4050292969</ele>
        <time>2011-10-23T10:50:23Z</time>
      </trkpt>
      <trkpt lat="45.31851" lon="6.05523">
        <ele>1771.3662109375</ele>
        <time>2011-10-23T10:50:28Z</time>
      </trkpt>
      <trkpt lat="45.31849" lon="6.05524">
        <ele>1771.3662109375</ele>
        <time>2011-10-23T10:50:30Z</time>
      </trkpt>
      <trkpt lat="45.31847" lon="6.05521">
        <ele>1770.8857421875</ele>
        <time>2011-10-23T10:50:35Z</time>
      </trkpt>
      <trkpt lat="45.31844" lon="6.0552">
        <ele>1772.80859375</ele>
        <time>2011-10-23T10:50:41Z</time>
      </trkpt>
      <trkpt lat="45.31843" lon="6.05518">
        <ele>1774.2504882812</ele>
        <time>2011-10-23T10:50:47Z</time>
      </trkpt>
      <trkpt lat="45.31842" lon="6.05515">
        <ele>1775.6923828125</ele>
        <time>2011-10-23T10:50:52Z</time>
      </trkpt>
      <trkpt lat="45.31839" lon="6.05513">
        <ele>1777.6149902344</ele>
        <time>2011-10-23T10:50:59Z</time>
      </trkpt>
      <trkpt lat="45.31836" lon="6.05513">
        <ele>1779.0568847656</ele>
        <time>2011-10-23T10:51:05Z</time>
      </trkpt>
      <trkpt lat="45.31834" lon="6.05512">
        <ele>1780.9797363281</ele>
        <time>2011-10-23T10:51:11Z</time>
      </trkpt>
      <trkpt lat="45.3183" lon="6.05511">
        <ele>1781.9409179688</ele>
        <time>2011-10-23T10:51:16Z</time>
      </trkpt>
      <trkpt lat="45.31827" lon="6.05507">
        <ele>1783.3828125</ele>
        <time>2011-10-23T10:51:22Z</time>
      </trkpt>
      <trkpt lat="45.31829" lon="6.05504">
        <ele>1783.8635253906</ele>
        <time>2011-10-23T10:51:27Z</time>
      </trkpt>
      <trkpt lat="45.31833" lon="6.05501">
        <ele>1784.8249511719</ele>
        <time>2011-10-23T10:51:35Z</time>
      </trkpt>
      <trkpt lat="45.31831" lon="6.05497">
        <ele>1786.2668457031</ele>
        <time>2011-10-23T10:51:42Z</time>
      </trkpt>
      <trkpt lat="45.31833" lon="6.05494">
        <ele>1787.7087402344</ele>
        <time>2011-10-23T10:51:48Z</time>
      </trkpt>
      <trkpt lat="45.31834" lon="6.05492">
        <ele>1790.1123046875</ele>
        <time>2011-10-23T10:51:52Z</time>
      </trkpt>
      <trkpt lat="45.31837" lon="6.05491">
        <ele>1791.0734863281</ele>
        <time>2011-10-23T10:51:58Z</time>
      </trkpt>
      <trkpt lat="45.31836" lon="6.0549">
        <ele>1792.515625</ele>
        <time>2011-10-23T10:52:02Z</time>
      </trkpt>
      <trkpt lat="45.31833" lon="6.05487">
        <ele>1793.9575195312</ele>
        <time>2011-10-23T10:52:08Z</time>
      </trkpt>
      <trkpt lat="45.31829" lon="6.05486">
        <ele>1796.3608398438</ele>
        <time>2011-10-23T10:52:15Z</time>
      </trkpt>
      <trkpt lat="45.31827" lon="6.05482">
        <ele>1797.3220214844</ele>
        <time>2011-10-23T10:52:21Z</time>
      </trkpt>
      <trkpt lat="45.31822" lon="6.05478">
        <ele>1798.7639160156</ele>
        <time>2011-10-23T10:52:27Z</time>
      </trkpt>
      <trkpt lat="45.31817" lon="6.0548">
        <ele>1800.2060546875</ele>
        <time>2011-10-23T10:52:34Z</time>
      </trkpt>
      <trkpt lat="45.31812" lon="6.05479">
        <ele>1800.6865234375</ele>
        <time>2011-10-23T10:52:39Z</time>
      </trkpt>
      <trkpt lat="45.31808" lon="6.05482">
        <ele>1802.6091308594</ele>
        <time>2011-10-23T10:52:44Z</time>
      </trkpt>
      <trkpt lat="45.31806" lon="6.05483">
        <ele>1803.08984375</ele>
        <time>2011-10-23T10:52:49Z</time>
      </trkpt>
      <trkpt lat="45.31804" lon="6.05481">
        <ele>1803.08984375</ele>
        <time>2011-10-23T10:52:53Z</time>
      </trkpt>
      <trkpt lat="45.31802" lon="6.0548">
        <ele>1803.5705566406</ele>
        <time>2011-10-23T10:53:00Z</time>
      </trkpt>
      <trkpt lat="45.318" lon="6.0548">
        <ele>1803.5705566406</ele>
        <time>2011-10-23T10:53:04Z</time>
      </trkpt>
      <trkpt lat="45.31794" lon="6.05476">
        <ele>1803.08984375</ele>
        <time>2011-10-23T10:53:10Z</time>
      </trkpt>
      <trkpt lat="45.31789" lon="6.05474">
        <ele>1802.6091308594</ele>
        <time>2011-10-23T10:53:16Z</time>
      </trkpt>
      <trkpt lat="45.31781" lon="6.0547">
        <ele>1802.6091308594</ele>
        <time>2011-10-23T10:53:21Z</time>
      </trkpt>
      <trkpt lat="45.31779" lon="6.05468">
        <ele>1802.6091308594</ele>
        <time>2011-10-23T10:53:23Z</time>
      </trkpt>
      <trkpt lat="45.31775" lon="6.05462">
        <ele>1801.6479492188</ele>
        <time>2011-10-23T10:53:28Z</time>
      </trkpt>
      <trkpt lat="45.31768" lon="6.05461">
        <ele>1799.7253417969</ele>
        <time>2011-10-23T10:53:33Z</time>
      </trkpt>
      <trkpt lat="45.31762" lon="6.05455">
        <ele>1798.283203125</ele>
        <time>2011-10-23T10:53:37Z</time>
      </trkpt>
      <trkpt lat="45.31755" lon="6.05453">
        <ele>1796.8413085938</ele>
        <time>2011-10-23T10:53:42Z</time>
      </trkpt>
      <trkpt lat="45.31754" lon="6.05453">
        <ele>1795.8801269531</ele>
        <time>2011-10-23T10:53:46Z</time>
      </trkpt>
      <trkpt lat="45.31746" lon="6.05446">
        <ele>1796.3608398438</ele>
        <time>2011-10-23T10:53:51Z</time>
      </trkpt>
      <trkpt lat="45.31737" lon="6.05441">
        <ele>1795.8801269531</ele>
        <time>2011-10-23T10:53:55Z</time>
      </trkpt>
      <trkpt lat="45.31731" lon="6.05439">
        <ele>1795.3994140625</ele>
        <time>2011-10-23T10:53:58Z</time>
      </trkpt>
      <trkpt lat="45.31726" lon="6.05432">
        <ele>1792.515625</ele>
        <time>2011-10-23T10:54:03Z</time>
      </trkpt>
      <trkpt lat="45.31717" lon="6.05427">
        <ele>1788.6704101562</ele>
        <time>2011-10-23T10:54:08Z</time>
      </trkpt>
      <trkpt lat="45.3171" lon="6.05426">
        <ele>1784.8249511719</ele>
        <time>2011-10-23T10:54:12Z</time>
      </trkpt>
      <trkpt lat="45.31703" lon="6.05421">
        <ele>1781.9409179688</ele>
        <time>2011-10-23T10:54:16Z</time>
      </trkpt>
      <trkpt lat="45.31694" lon="6.05417">
        <ele>1780.0183105469</ele>
        <time>2011-10-23T10:54:19Z</time>
      </trkpt>
      <trkpt lat="45.31679" lon="6.05409">
        <ele>1777.1345214844</ele>
        <time>2011-10-23T10:54:26Z</time>
      </trkpt>
      <trkpt lat="45.31676" lon="6.05407">
        <ele>1777.1345214844</ele>
        <time>2011-10-23T10:54:32Z</time>
      </trkpt>
      <trkpt lat="45.31674" lon="6.05406">
        <ele>1776.6538085938</ele>
        <time>2011-10-23T10:54:41Z</time>
      </trkpt>
      <trkpt lat="45.3167" lon="6.05405">
        <ele>1776.1730957031</ele>
        <time>2011-10-23T10:54:47Z</time>
      </trkpt>
      <trkpt lat="45.3167" lon="6.05406">
        <ele>1776.6538085938</ele>
        <time>2011-10-23T10:54:55Z</time>
      </trkpt>
      <trkpt lat="45.31671" lon="6.05407">
        <ele>1776.6538085938</ele>
        <time>2011-10-23T10:54:58Z</time>
      </trkpt>
      <trkpt lat="45.3166" lon="6.05412">
        <ele>1775.2116699219</ele>
        <time>2011-10-23T10:55:03Z</time>
      </trkpt>
      <trkpt lat="45.31655" lon="6.05409">
        <ele>1774.2504882812</ele>
        <time>2011-10-23T10:55:05Z</time>
      </trkpt>
      <trkpt lat="45.31648" lon="6.05405">
        <ele>1773.7697753906</ele>
        <time>2011-10-23T10:55:12Z</time>
      </trkpt>
      <trkpt lat="45.3164" lon="6.054">
        <ele>1774.2504882812</ele>
        <time>2011-10-23T10:55:17Z</time>
      </trkpt>
      <trkpt lat="45.31638" lon="6.05397">
        <ele>1774.7312011719</ele>
        <time>2011-10-23T10:55:20Z</time>
      </trkpt>
      <trkpt lat="45.31638" lon="6.05395">
        <ele>1773.7697753906</ele>
        <time>2011-10-23T10:55:33Z</time>
      </trkpt>
      <trkpt lat="45.31639" lon="6.05397">
        <ele>1773.7697753906</ele>
        <time>2011-10-23T10:55:35Z</time>
      </trkpt>
      <trkpt lat="45.31649" lon="6.05401">
        <ele>1772.80859375</ele>
        <time>2011-10-23T10:55:40Z</time>
      </trkpt>
      <trkpt lat="45.31649" lon="6.05398">
        <ele>1774.2504882812</ele>
        <time>2011-10-23T10:55:43Z</time>
      </trkpt>
      <trkpt lat="45.31649" lon="6.05393">
        <ele>1774.2504882812</ele>
        <time>2011-10-23T10:55:45Z</time>
      </trkpt>
      <trkpt lat="45.31649" lon="6.05387">
        <ele>1773.2893066406</ele>
        <time>2011-10-23T10:55:47Z</time>
      </trkpt>
      <trkpt lat="45.31647" lon="6.05372">
        <ele>1771.3662109375</ele>
        <time>2011-10-23T10:55:52Z</time>
      </trkpt>
      <trkpt lat="45.31644" lon="6.05367">
        <ele>1769.9243164062</ele>
        <time>2011-10-23T10:55:54Z</time>
      </trkpt>
      <trkpt lat="45.31641" lon="6.05359">
        <ele>1768.0017089844</ele>
        <time>2011-10-23T10:55:57Z</time>
      </trkpt>
      <trkpt lat="45.31643" lon="6.0535">
        <ele>1764.6372070312</ele>
        <time>2011-10-23T10:56:03Z</time>
      </trkpt>
      <trkpt lat="45.31642" lon="6.05347">
        <ele>1763.1953125</ele>
        <time>2011-10-23T10:56:06Z</time>
      </trkpt>
      <trkpt lat="45.31636" lon="6.05343">
        <ele>1760.3112792969</ele>
        <time>2011-10-23T10:56:10Z</time>
      </trkpt>
      <trkpt lat="45.31632" lon="6.05333">
        <ele>1756.9467773438</ele>
        <time>2011-10-23T10:56:15Z</time>
      </trkpt>
      <trkpt lat="45.31639" lon="6.05328">
        <ele>1754.5432128906</ele>
        <time>2011-10-23T10:56:20Z</time>
      </trkpt>
      <trkpt lat="45.31643" lon="6.05323">
        <ele>1753.1013183594</ele>
        <time>2011-10-23T10:56:23Z</time>
      </trkpt>
      <trkpt lat="45.31647" lon="6.05314">
        <ele>1750.2175292969</ele>
        <time>2011-10-23T10:56:28Z</time>
      </trkpt>
      <trkpt lat="45.31647" lon="6.05311">
        <ele>1748.775390625</ele>
        <time>2011-10-23T10:56:30Z</time>
      </trkpt>
      <trkpt lat="45.31647" lon="6.05307">
        <ele>1747.8142089844</ele>
        <time>2011-10-23T10:56:32Z</time>
      </trkpt>
      <trkpt lat="45.31651" lon="6.05296">
        <ele>1745.4108886719</ele>
        <time>2011-10-23T10:56:37Z</time>
      </trkpt>
      <trkpt lat="45.31652" lon="6.05296">
        <ele>1743.48828125</ele>
        <time>2011-10-23T10:56:43Z</time>
      </trkpt>
      <trkpt lat="45.31652" lon="6.05295">
        <ele>1743.9689941406</ele>
        <time>2011-10-23T10:56:50Z</time>
      </trkpt>
      <trkpt lat="45.3165" lon="6.05295">
        <ele>1743.9689941406</ele>
        <time>2011-10-23T10:56:55Z</time>
      </trkpt>
      <trkpt lat="45.31648" lon="6.05292">
        <ele>1743.48828125</ele>
        <time>2011-10-23T10:56:58Z</time>
      </trkpt>
      <trkpt lat="45.31644" lon="6.05292">
        <ele>1742.5270996094</ele>
        <time>2011-10-23T10:57:01Z</time>
      </trkpt>
      <trkpt lat="45.31642" lon="6.0529">
        <ele>1742.0463867188</ele>
        <time>2011-10-23T10:57:03Z</time>
      </trkpt>
      <trkpt lat="45.31645" lon="6.0528">
        <ele>1740.6042480469</ele>
        <time>2011-10-23T10:57:08Z</time>
      </trkpt>
      <trkpt lat="45.31653" lon="6.05273">
        <ele>1738.2009277344</ele>
        <time>2011-10-23T10:57:13Z</time>
      </trkpt>
      <trkpt lat="45.31661" lon="6.05278">
        <ele>1735.7976074219</ele>
        <time>2011-10-23T10:57:17Z</time>
      </trkpt>
      <trkpt lat="45.31667" lon="6.0528">
        <ele>1733.3942871094</ele>
        <time>2011-10-23T10:57:21Z</time>
      </trkpt>
      <trkpt lat="45.31677" lon="6.05282">
        <ele>1730.0297851562</ele>
        <time>2011-10-23T10:57:26Z</time>
      </trkpt>
      <trkpt lat="45.31678" lon="6.05282">
        <ele>1728.587890625</ele>
        <time>2011-10-23T10:57:28Z</time>
      </trkpt>
      <trkpt lat="45.31673" lon="6.05283">
        <ele>1728.1071777344</ele>
        <time>2011-10-23T10:57:32Z</time>
      </trkpt>
      <trkpt lat="45.31669" lon="6.05283">
        <ele>1729.068359375</ele>
        <time>2011-10-23T10:57:34Z</time>
      </trkpt>
      <trkpt lat="45.31664" lon="6.05284">
        <ele>1732.9135742188</ele>
        <time>2011-10-23T10:57:39Z</time>
      </trkpt>
      <trkpt lat="45.31661" lon="6.05284">
        <ele>1735.3168945312</ele>
        <time>2011-10-23T10:57:45Z</time>
      </trkpt>
      <trkpt lat="45.31662" lon="6.05286">
        <ele>1737.7202148438</ele>
        <time>2011-10-23T10:57:50Z</time>
      </trkpt>
      <trkpt lat="45.31662" lon="6.05288">
        <ele>1739.6428222656</ele>
        <time>2011-10-23T10:57:56Z</time>
      </trkpt>
      <trkpt lat="45.31662" lon="6.05291">
        <ele>1741.0849609375</ele>
        <time>2011-10-23T10:58:01Z</time>
      </trkpt>
      <trkpt lat="45.31663" lon="6.05292">
        <ele>1743.0075683594</ele>
        <time>2011-10-23T10:58:09Z</time>
      </trkpt>
      <trkpt lat="45.31661" lon="6.05294">
        <ele>1742.5270996094</ele>
        <time>2011-10-23T10:58:14Z</time>
      </trkpt>
      <trkpt lat="45.31662" lon="6.05296">
        <ele>1743.9689941406</ele>
        <time>2011-10-23T10:58:20Z</time>
      </trkpt>
      <trkpt lat="45.31662" lon="6.05298">
        <ele>1745.4108886719</ele>
        <time>2011-10-23T10:58:25Z</time>
      </trkpt>
      <trkpt lat="45.31661" lon="6.053">
        <ele>1745.4108886719</ele>
        <time>2011-10-23T10:58:30Z</time>
      </trkpt>
      <trkpt lat="45.3166" lon="6.05302">
        <ele>1745.8916015625</ele>
        <time>2011-10-23T10:58:36Z</time>
      </trkpt>
      <trkpt lat="45.3166" lon="6.05303">
        <ele>1746.3723144531</ele>
        <time>2011-10-23T10:58:42Z</time>
      </trkpt>
      <trkpt lat="45.31659" lon="6.05301">
        <ele>1745.8916015625</ele>
        <time>2011-10-23T10:58:47Z</time>
      </trkpt>
      <trkpt lat="45.31655" lon="6.05294">
        <ele>1746.3723144531</ele>
        <time>2011-10-23T10:58:53Z</time>
      </trkpt>
      <trkpt lat="45.31652" lon="6.05292">
        <ele>1746.3723144531</ele>
        <time>2011-10-23T10:58:58Z</time>
      </trkpt>
      <trkpt lat="45.31651" lon="6.05294">
        <ele>1745.8916015625</ele>
        <time>2011-10-23T10:59:02Z</time>
      </trkpt>
      <trkpt lat="45.31651" lon="6.05297">
        <ele>1746.3723144531</ele>
        <time>2011-10-23T10:59:06Z</time>
      </trkpt>
      <trkpt lat="45.3165" lon="6.053">
        <ele>1746.3723144531</ele>
        <time>2011-10-23T10:59:11Z</time>
      </trkpt>
      <trkpt lat="45.31648" lon="6.05304">
        <ele>1745.8916015625</ele>
        <time>2011-10-23T10:59:15Z</time>
      </trkpt>
      <trkpt lat="45.31644" lon="6.05304">
        <ele>1744.9301757812</ele>
        <time>2011-10-23T10:59:19Z</time>
      </trkpt>
      <trkpt lat="45.31646" lon="6.05305">
        <ele>1743.9689941406</ele>
        <time>2011-10-23T10:59:24Z</time>
      </trkpt>
      <trkpt lat="45.31649" lon="6.05308">
        <ele>1744.4494628906</ele>
        <time>2011-10-23T10:59:29Z</time>
      </trkpt>
      <trkpt lat="45.3165" lon="6.05314">
        <ele>1744.9301757812</ele>
        <time>2011-10-23T10:59:35Z</time>
      </trkpt>
      <trkpt lat="45.3165" lon="6.05316">
        <ele>1747.3334960938</ele>
        <time>2011-10-23T10:59:41Z</time>
      </trkpt>
      <trkpt lat="45.31649" lon="6.05318">
        <ele>1747.8142089844</ele>
        <time>2011-10-23T10:59:44Z</time>
      </trkpt>
      <trkpt lat="45.31647" lon="6.05324">
        <ele>1746.3723144531</ele>
        <time>2011-10-23T10:59:49Z</time>
      </trkpt>
      <trkpt lat="45.31646" lon="6.05328">
        <ele>1746.8527832031</ele>
        <time>2011-10-23T10:59:55Z</time>
      </trkpt>
      <trkpt lat="45.31642" lon="6.05329">
        <ele>1748.2946777344</ele>
        <time>2011-10-23T11:00:00Z</time>
      </trkpt>
      <trkpt lat="45.31642" lon="6.05332">
        <ele>1751.1787109375</ele>
        <time>2011-10-23T11:00:06Z</time>
      </trkpt>
      <trkpt lat="45.31638" lon="6.05334">
        <ele>1753.58203125</ele>
        <time>2011-10-23T11:00:12Z</time>
      </trkpt>
      <trkpt lat="45.31634" lon="6.05337">
        <ele>1754.0627441406</ele>
        <time>2011-10-23T11:00:20Z</time>
      </trkpt>
      <trkpt lat="45.31634" lon="6.05341">
        <ele>1755.5046386719</ele>
        <time>2011-10-23T11:00:25Z</time>
      </trkpt>
      <trkpt lat="45.31633" lon="6.05343">
        <ele>1757.4274902344</ele>
        <time>2011-10-23T11:00:30Z</time>
      </trkpt>
      <trkpt lat="45.31631" lon="6.05345">
        <ele>1759.3500976562</ele>
        <time>2011-10-23T11:00:35Z</time>
      </trkpt>
      <trkpt lat="45.31627" lon="6.05347">
        <ele>1759.8305664062</ele>
        <time>2011-10-23T11:00:42Z</time>
      </trkpt>
      <trkpt lat="45.31623" lon="6.05348">
        <ele>1759.8305664062</ele>
        <time>2011-10-23T11:00:48Z</time>
      </trkpt>
      <trkpt lat="45.31619" lon="6.05347">
        <ele>1759.8305664062</ele>
        <time>2011-10-23T11:00:54Z</time>
      </trkpt>
      <trkpt lat="45.31614" lon="6.05347">
        <ele>1760.7919921875</ele>
        <time>2011-10-23T11:01:01Z</time>
      </trkpt>
      <trkpt lat="45.31612" lon="6.05349">
        <ele>1761.2727050781</ele>
        <time>2011-10-23T11:01:06Z</time>
      </trkpt>
      <trkpt lat="45.3161" lon="6.05352">
        <ele>1763.67578125</ele>
        <time>2011-10-23T11:01:12Z</time>
      </trkpt>
      <trkpt lat="45.31609" lon="6.05357">
        <ele>1765.5986328125</ele>
        <time>2011-10-23T11:01:19Z</time>
      </trkpt>
      <trkpt lat="45.31606" lon="6.05362">
        <ele>1768.0017089844</ele>
        <time>2011-10-23T11:01:26Z</time>
      </trkpt>
      <trkpt lat="45.31602" lon="6.05363">
        <ele>1768.9631347656</ele>
        <time>2011-10-23T11:01:32Z</time>
      </trkpt>
      <trkpt lat="45.31596" lon="6.05365">
        <ele>1769.4438476562</ele>
        <time>2011-10-23T11:01:39Z</time>
      </trkpt>
      <trkpt lat="45.31592" lon="6.05366">
        <ele>1769.9243164062</ele>
        <time>2011-10-23T11:01:42Z</time>
      </trkpt>
      <trkpt lat="45.31588" lon="6.05368">
        <ele>1771.8469238281</ele>
        <time>2011-10-23T11:01:49Z</time>
      </trkpt>
      <trkpt lat="45.3159" lon="6.05369">
        <ele>1776.1730957031</ele>
        <time>2011-10-23T11:02:15Z</time>
      </trkpt>
      <trkpt lat="45.31588" lon="6.05369">
        <ele>1775.2116699219</ele>
        <time>2011-10-23T11:02:27Z</time>
      </trkpt>
      <trkpt lat="45.31591" lon="6.05369">
        <ele>1776.1730957031</ele>
        <time>2011-10-23T11:02:39Z</time>
      </trkpt>
      <trkpt lat="45.31591" lon="6.05368">
        <ele>1777.1345214844</ele>
        <time>2011-10-23T11:02:50Z</time>
      </trkpt>
      <trkpt lat="45.31591" lon="6.05362">
        <ele>1786.7473144531</ele>
        <time>2011-10-23T11:03:17Z</time>
      </trkpt>
      <trkpt lat="45.31585" lon="6.05364">
        <ele>1782.4216308594</ele>
        <time>2011-10-23T11:03:26Z</time>
      </trkpt>
      <trkpt lat="45.31583" lon="6.05364">
        <ele>1781.4602050781</ele>
        <time>2011-10-23T11:03:28Z</time>
      </trkpt>
      <trkpt lat="45.31575" lon="6.0536">
        <ele>1779.5375976562</ele>
        <time>2011-10-23T11:03:34Z</time>
      </trkpt>
      <trkpt lat="45.31574" lon="6.05359">
        <ele>1779.0568847656</ele>
        <time>2011-10-23T11:03:35Z</time>
      </trkpt>
      <trkpt lat="45.31565" lon="6.05353">
        <ele>1776.6538085938</ele>
        <time>2011-10-23T11:03:44Z</time>
      </trkpt>
      <trkpt lat="45.31562" lon="6.05352">
        <ele>1776.1730957031</ele>
        <time>2011-10-23T11:03:47Z</time>
      </trkpt>
      <trkpt lat="45.31561" lon="6.05352">
        <ele>1775.2116699219</ele>
        <time>2011-10-23T11:03:57Z</time>
      </trkpt>
      <trkpt lat="45.31561" lon="6.05352">
        <ele>1777.1345214844</ele>
        <time>2011-10-23T11:04:10Z</time>
      </trkpt>
      <trkpt lat="45.31561" lon="6.05353">
        <ele>1781.4602050781</ele>
        <time>2011-10-23T11:04:29Z</time>
      </trkpt>
      <trkpt lat="45.31562" lon="6.05353">
        <ele>1780.9797363281</ele>
        <time>2011-10-23T11:04:30Z</time>
      </trkpt>
      <trkpt lat="45.31567" lon="6.05356">
        <ele>1780.0183105469</ele>
        <time>2011-10-23T11:04:34Z</time>
      </trkpt>
      <trkpt lat="45.3158" lon="6.0537">
        <ele>1779.0568847656</ele>
        <time>2011-10-23T11:04:41Z</time>
      </trkpt>
      <trkpt lat="45.31591" lon="6.05383">
        <ele>1779.5375976562</ele>
        <time>2011-10-23T11:04:46Z</time>
      </trkpt>
      <trkpt lat="45.31601" lon="6.05388">
        <ele>1780.4990234375</ele>
        <time>2011-10-23T11:04:51Z</time>
      </trkpt>
      <trkpt lat="45.3161" lon="6.05398">
        <ele>1781.4602050781</ele>
        <time>2011-10-23T11:04:57Z</time>
      </trkpt>
      <trkpt lat="45.31618" lon="6.05414">
        <ele>1781.9409179688</ele>
        <time>2011-10-23T11:05:03Z</time>
      </trkpt>
      <trkpt lat="45.3162" lon="6.05418">
        <ele>1781.4602050781</ele>
        <time>2011-10-23T11:05:06Z</time>
      </trkpt>
      <trkpt lat="45.31619" lon="6.05421">
        <ele>1781.4602050781</ele>
        <time>2011-10-23T11:05:13Z</time>
      </trkpt>
      <trkpt lat="45.31617" lon="6.05429">
        <ele>1780.4990234375</ele>
        <time>2011-10-23T11:05:19Z</time>
      </trkpt>
      <trkpt lat="45.31616" lon="6.05438">
        <ele>1779.5375976562</ele>
        <time>2011-10-23T11:05:25Z</time>
      </trkpt>
      <trkpt lat="45.31614" lon="6.05443">
        <ele>1779.0568847656</ele>
        <time>2011-10-23T11:05:31Z</time>
      </trkpt>
      <trkpt lat="45.31615" lon="6.05444">
        <ele>1779.0568847656</ele>
        <time>2011-10-23T11:05:37Z</time>
      </trkpt>
      <trkpt lat="45.31615" lon="6.05445">
        <ele>1779.0568847656</ele>
        <time>2011-10-23T11:05:44Z</time>
      </trkpt>
      <trkpt lat="45.31614" lon="6.05445">
        <ele>1778.095703125</ele>
        <time>2011-10-23T11:05:52Z</time>
      </trkpt>
      <trkpt lat="45.31615" lon="6.0545">
        <ele>1777.6149902344</ele>
        <time>2011-10-23T11:05:56Z</time>
      </trkpt>
      <trkpt lat="45.31614" lon="6.05464">
        <ele>1775.2116699219</ele>
        <time>2011-10-23T11:06:02Z</time>
      </trkpt>
      <trkpt lat="45.31614" lon="6.05465">
        <ele>1774.7312011719</ele>
        <time>2011-10-23T11:06:03Z</time>
      </trkpt>
      <trkpt lat="45.31613" lon="6.05487">
        <ele>1771.8469238281</ele>
        <time>2011-10-23T11:06:09Z</time>
      </trkpt>
      <trkpt lat="45.31612" lon="6.05498">
        <ele>1771.3662109375</ele>
        <time>2011-10-23T11:06:12Z</time>
      </trkpt>
      <trkpt lat="45.31608" lon="6.0552">
        <ele>1771.8469238281</ele>
        <time>2011-10-23T11:06:18Z</time>
      </trkpt>
      <trkpt lat="45.31604" lon="6.05529">
        <ele>1771.3662109375</ele>
        <time>2011-10-23T11:06:23Z</time>
      </trkpt>
      <trkpt lat="45.31599" lon="6.05546">
        <ele>1770.4050292969</ele>
        <time>2011-10-23T11:06:28Z</time>
      </trkpt>
      <trkpt lat="45.31596" lon="6.05568">
        <ele>1768.482421875</ele>
        <time>2011-10-23T11:06:32Z</time>
      </trkpt>
      <trkpt lat="45.31598" lon="6.05577">
        <ele>1768.482421875</ele>
        <time>2011-10-23T11:06:36Z</time>
      </trkpt>
      <trkpt lat="45.31598" lon="6.05579">
        <ele>1768.482421875</ele>
        <time>2011-10-23T11:06:37Z</time>
      </trkpt>
      <trkpt lat="45.31598" lon="6.0558">
        <ele>1768.482421875</ele>
        <time>2011-10-23T11:06:39Z</time>
      </trkpt>
      <trkpt lat="45.31595" lon="6.05568">
        <ele>1767.0405273438</ele>
        <time>2011-10-23T11:06:45Z</time>
      </trkpt>
      <trkpt lat="45.31594" lon="6.05563">
        <ele>1766.0791015625</ele>
        <time>2011-10-23T11:06:48Z</time>
      </trkpt>
      <trkpt lat="45.31594" lon="6.0556">
        <ele>1765.5986328125</ele>
        <time>2011-10-23T11:06:54Z</time>
      </trkpt>
      <trkpt lat="45.31593" lon="6.05556">
        <ele>1766.0791015625</ele>
        <time>2011-10-23T11:07:00Z</time>
      </trkpt>
      <trkpt lat="45.31595" lon="6.05555">
        <ele>1767.5209960938</ele>
        <time>2011-10-23T11:07:36Z</time>
      </trkpt>
      <trkpt lat="45.31595" lon="6.0556">
        <ele>1768.9631347656</ele>
        <time>2011-10-23T11:07:57Z</time>
      </trkpt>
      <trkpt lat="45.31594" lon="6.05558">
        <ele>1768.9631347656</ele>
        <time>2011-10-23T11:08:01Z</time>
      </trkpt>
      <trkpt lat="45.31589" lon="6.05546">
        <ele>1770.8857421875</ele>
        <time>2011-10-23T11:08:08Z</time>
      </trkpt>
      <trkpt lat="45.31587" lon="6.05543">
        <ele>1772.3278808594</ele>
        <time>2011-10-23T11:08:11Z</time>
      </trkpt>
      <trkpt lat="45.31583" lon="6.05539">
        <ele>1773.7697753906</ele>
        <time>2011-10-23T11:08:16Z</time>
      </trkpt>
      <trkpt lat="45.31578" lon="6.05542">
        <ele>1775.6923828125</ele>
        <time>2011-10-23T11:08:23Z</time>
      </trkpt>
      <trkpt lat="45.31574" lon="6.05545">
        <ele>1777.1345214844</ele>
        <time>2011-10-23T11:08:29Z</time>
      </trkpt>
      <trkpt lat="45.31568" lon="6.05543">
        <ele>1778.095703125</ele>
        <time>2011-10-23T11:08:36Z</time>
      </trkpt>
      <trkpt lat="45.31564" lon="6.05541">
        <ele>1779.0568847656</ele>
        <time>2011-10-23T11:08:42Z</time>
      </trkpt>
      <trkpt lat="45.31559" lon="6.05545">
        <ele>1780.0183105469</ele>
        <time>2011-10-23T11:08:48Z</time>
      </trkpt>
      <trkpt lat="45.31555" lon="6.05544">
        <ele>1780.0183105469</ele>
        <time>2011-10-23T11:08:52Z</time>
      </trkpt>
      <trkpt lat="45.31549" lon="6.05543">
        <ele>1780.9797363281</ele>
        <time>2011-10-23T11:08:58Z</time>
      </trkpt>
      <trkpt lat="45.31547" lon="6.05544">
        <ele>1780.9797363281</ele>
        <time>2011-10-23T11:09:00Z</time>
      </trkpt>
      <trkpt lat="45.31541" lon="6.05542">
        <ele>1781.9409179688</ele>
        <time>2011-10-23T11:09:06Z</time>
      </trkpt>
      <trkpt lat="45.31538" lon="6.0554">
        <ele>1782.9020996094</ele>
        <time>2011-10-23T11:09:10Z</time>
      </trkpt>
      <trkpt lat="45.31533" lon="6.05538">
        <ele>1784.3442382812</ele>
        <time>2011-10-23T11:09:16Z</time>
      </trkpt>
      <trkpt lat="45.3153" lon="6.05535">
        <ele>1785.7861328125</ele>
        <time>2011-10-23T11:09:20Z</time>
      </trkpt>
      <trkpt lat="45.31524" lon="6.05533">
        <ele>1786.7473144531</ele>
        <time>2011-10-23T11:09:26Z</time>
      </trkpt>
      <trkpt lat="45.31516" lon="6.05533">
        <ele>1787.7087402344</ele>
        <time>2011-10-23T11:09:32Z</time>
      </trkpt>
      <trkpt lat="45.31512" lon="6.05532">
        <ele>1787.7087402344</ele>
        <time>2011-10-23T11:09:34Z</time>
      </trkpt>
      <trkpt lat="45.3151" lon="6.05522">
        <ele>1786.7473144531</ele>
        <time>2011-10-23T11:09:38Z</time>
      </trkpt>
      <trkpt lat="45.31512" lon="6.05518">
        <ele>1786.2668457031</ele>
        <time>2011-10-23T11:09:42Z</time>
      </trkpt>
      <trkpt lat="45.31507" lon="6.05521">
        <ele>1787.2280273438</ele>
        <time>2011-10-23T11:09:48Z</time>
      </trkpt>
      <trkpt lat="45.31504" lon="6.05519">
        <ele>1788.1896972656</ele>
        <time>2011-10-23T11:09:53Z</time>
      </trkpt>
      <trkpt lat="45.31502" lon="6.05513">
        <ele>1789.1508789062</ele>
        <time>2011-10-23T11:10:00Z</time>
      </trkpt>
      <trkpt lat="45.315" lon="6.05508">
        <ele>1791.5541992188</ele>
        <time>2011-10-23T11:10:07Z</time>
      </trkpt>
      <trkpt lat="45.31498" lon="6.05508">
        <ele>1792.515625</ele>
        <time>2011-10-23T11:10:12Z</time>
      </trkpt>
      <trkpt lat="45.31497" lon="6.05504">
        <ele>1793.4768066406</ele>
        <time>2011-10-23T11:10:18Z</time>
      </trkpt>
      <trkpt lat="45.31495" lon="6.05501">
        <ele>1794.9187011719</ele>
        <time>2011-10-23T11:10:24Z</time>
      </trkpt>
      <trkpt lat="45.31494" lon="6.05499">
        <ele>1795.8801269531</ele>
        <time>2011-10-23T11:10:29Z</time>
      </trkpt>
      <trkpt lat="45.31493" lon="6.05494">
        <ele>1796.8413085938</ele>
        <time>2011-10-23T11:10:35Z</time>
      </trkpt>
      <trkpt lat="45.31494" lon="6.05489">
        <ele>1798.283203125</ele>
        <time>2011-10-23T11:10:42Z</time>
      </trkpt>
      <trkpt lat="45.31493" lon="6.05485">
        <ele>1800.2060546875</ele>
        <time>2011-10-23T11:10:48Z</time>
      </trkpt>
      <trkpt lat="45.31492" lon="6.05482">
        <ele>1801.6479492188</ele>
        <time>2011-10-23T11:10:55Z</time>
      </trkpt>
      <trkpt lat="45.31492" lon="6.0548">
        <ele>1803.5705566406</ele>
        <time>2011-10-23T11:11:03Z</time>
      </trkpt>
      <trkpt lat="45.31491" lon="6.05477">
        <ele>1804.5319824219</ele>
        <time>2011-10-23T11:11:10Z</time>
      </trkpt>
      <trkpt lat="45.31489" lon="6.05476">
        <ele>1806.4545898438</ele>
        <time>2011-10-23T11:11:16Z</time>
      </trkpt>
      <trkpt lat="45.31487" lon="6.05475">
        <ele>1807.8967285156</ele>
        <time>2011-10-23T11:11:21Z</time>
      </trkpt>
      <trkpt lat="45.31486" lon="6.05471">
        <ele>1809.3386230469</ele>
        <time>2011-10-23T11:11:27Z</time>
      </trkpt>
      <trkpt lat="45.31485" lon="6.05467">
        <ele>1810.7805175781</ele>
        <time>2011-10-23T11:11:34Z</time>
      </trkpt>
      <trkpt lat="45.3148" lon="6.05466">
        <ele>1812.2224121094</ele>
        <time>2011-10-23T11:11:41Z</time>
      </trkpt>
      <trkpt lat="45.31478" lon="6.05461">
        <ele>1813.6643066406</ele>
        <time>2011-10-23T11:11:47Z</time>
      </trkpt>
      <trkpt lat="45.31475" lon="6.05457">
        <ele>1814.1450195312</ele>
        <time>2011-10-23T11:11:54Z</time>
      </trkpt>
      <trkpt lat="45.31471" lon="6.05451">
        <ele>1815.5871582031</ele>
        <time>2011-10-23T11:12:01Z</time>
      </trkpt>
      <trkpt lat="45.31466" lon="6.05447">
        <ele>1816.0676269531</ele>
        <time>2011-10-23T11:12:08Z</time>
      </trkpt>
      <trkpt lat="45.31461" lon="6.05442">
        <ele>1817.5095214844</ele>
        <time>2011-10-23T11:12:14Z</time>
      </trkpt>
      <trkpt lat="45.31458" lon="6.05436">
        <ele>1818.4709472656</ele>
        <time>2011-10-23T11:12:20Z</time>
      </trkpt>
      <trkpt lat="45.31456" lon="6.05435">
        <ele>1818.4709472656</ele>
        <time>2011-10-23T11:12:21Z</time>
      </trkpt>
      <trkpt lat="45.31449" lon="6.0542">
        <ele>1818.9516601562</ele>
        <time>2011-10-23T11:12:31Z</time>
      </trkpt>
      <trkpt lat="45.31442" lon="6.05409">
        <ele>1818.9516601562</ele>
        <time>2011-10-23T11:12:38Z</time>
      </trkpt>
      <trkpt lat="45.3144" lon="6.05406">
        <ele>1819.4323730469</ele>
        <time>2011-10-23T11:12:41Z</time>
      </trkpt>
      <trkpt lat="45.31435" lon="6.05404">
        <ele>1821.3549804688</ele>
        <time>2011-10-23T11:12:45Z</time>
      </trkpt>
      <trkpt lat="45.31433" lon="6.05404">
        <ele>1822.31640625</ele>
        <time>2011-10-23T11:12:48Z</time>
      </trkpt>
      <trkpt lat="45.31429" lon="6.05401">
        <ele>1824.2390136719</ele>
        <time>2011-10-23T11:12:55Z</time>
      </trkpt>
      <trkpt lat="45.31425" lon="6.054">
        <ele>1825.6809082031</ele>
        <time>2011-10-23T11:13:01Z</time>
      </trkpt>
      <trkpt lat="45.31421" lon="6.054">
        <ele>1827.603515625</ele>
        <time>2011-10-23T11:13:08Z</time>
      </trkpt>
      <trkpt lat="45.31416" lon="6.05397">
        <ele>1829.0454101562</ele>
        <time>2011-10-23T11:13:15Z</time>
      </trkpt>
      <trkpt lat="45.31409" lon="6.05391">
        <ele>1830.4875488281</ele>
        <time>2011-10-23T11:13:25Z</time>
      </trkpt>
      <trkpt lat="45.31403" lon="6.05387">
        <ele>1832.41015625</ele>
        <time>2011-10-23T11:13:33Z</time>
      </trkpt>
      <trkpt lat="45.31396" lon="6.05383">
        <ele>1833.8520507812</ele>
        <time>2011-10-23T11:13:41Z</time>
      </trkpt>
      <trkpt lat="45.31389" lon="6.05381">
        <ele>1835.7746582031</ele>
        <time>2011-10-23T11:13:48Z</time>
      </trkpt>
      <trkpt lat="45.31384" lon="6.0538">
        <ele>1836.2556152344</ele>
        <time>2011-10-23T11:13:53Z</time>
      </trkpt>
      <trkpt lat="45.31378" lon="6.05381">
        <ele>1836.7360839844</ele>
        <time>2011-10-23T11:13:59Z</time>
      </trkpt>
      <trkpt lat="45.31372" lon="6.05381">
        <ele>1837.216796875</ele>
        <time>2011-10-23T11:14:05Z</time>
      </trkpt>
      <trkpt lat="45.31363" lon="6.05377">
        <ele>1837.216796875</ele>
        <time>2011-10-23T11:14:13Z</time>
      </trkpt>
      <trkpt lat="45.31356" lon="6.05375">
        <ele>1838.1782226562</ele>
        <time>2011-10-23T11:14:18Z</time>
      </trkpt>
      <trkpt lat="45.31345" lon="6.05369">
        <ele>1838.6589355469</ele>
        <time>2011-10-23T11:14:25Z</time>
      </trkpt>
      <trkpt lat="45.31332" lon="6.05366">
        <ele>1838.6589355469</ele>
        <time>2011-10-23T11:14:31Z</time>
      </trkpt>
      <trkpt lat="45.31325" lon="6.05361">
        <ele>1836.2556152344</ele>
        <time>2011-10-23T11:14:35Z</time>
      </trkpt>
      <trkpt lat="45.31312" lon="6.05358">
        <ele>1833.3713378906</ele>
        <time>2011-10-23T11:14:39Z</time>
      </trkpt>
      <trkpt lat="45.31303" lon="6.05359">
        <ele>1832.890625</ele>
        <time>2011-10-23T11:14:43Z</time>
      </trkpt>
      <trkpt lat="45.31293" lon="6.05362">
        <ele>1834.8134765625</ele>
        <time>2011-10-23T11:14:50Z</time>
      </trkpt>
      <trkpt lat="45.31286" lon="6.05362">
        <ele>1836.7360839844</ele>
        <time>2011-10-23T11:14:56Z</time>
      </trkpt>
      <trkpt lat="45.31281" lon="6.05361">
        <ele>1837.216796875</ele>
        <time>2011-10-23T11:15:00Z</time>
      </trkpt>
      <trkpt lat="45.31276" lon="6.0536">
        <ele>1838.1782226562</ele>
        <time>2011-10-23T11:15:04Z</time>
      </trkpt>
      <trkpt lat="45.31273" lon="6.05356">
        <ele>1838.1782226562</ele>
        <time>2011-10-23T11:15:08Z</time>
      </trkpt>
      <trkpt lat="45.31269" lon="6.05353">
        <ele>1838.6589355469</ele>
        <time>2011-10-23T11:15:11Z</time>
      </trkpt>
      <trkpt lat="45.31263" lon="6.05351">
        <ele>1840.1008300781</ele>
        <time>2011-10-23T11:15:17Z</time>
      </trkpt>
      <trkpt lat="45.31262" lon="6.0535">
        <ele>1840.1008300781</ele>
        <time>2011-10-23T11:15:18Z</time>
      </trkpt>
      <trkpt lat="45.31254" lon="6.05345">
        <ele>1841.0620117188</ele>
        <time>2011-10-23T11:15:26Z</time>
      </trkpt>
      <trkpt lat="45.31247" lon="6.05341">
        <ele>1842.0234375</ele>
        <time>2011-10-23T11:15:32Z</time>
      </trkpt>
      <trkpt lat="45.3124" lon="6.05336">
        <ele>1843.4653320312</ele>
        <time>2011-10-23T11:15:39Z</time>
      </trkpt>
      <trkpt lat="45.31232" lon="6.05331">
        <ele>1843.9460449219</ele>
        <time>2011-10-23T11:15:46Z</time>
      </trkpt>
      <trkpt lat="45.31226" lon="6.05328">
        <ele>1844.9072265625</ele>
        <time>2011-10-23T11:15:52Z</time>
      </trkpt>
      <trkpt lat="45.3122" lon="6.05325">
        <ele>1846.3493652344</ele>
        <time>2011-10-23T11:15:58Z</time>
      </trkpt>
      <trkpt lat="45.31213" lon="6.05319">
        <ele>1847.7912597656</ele>
        <time>2011-10-23T11:16:05Z</time>
      </trkpt>
      <trkpt lat="45.31203" lon="6.05314">
        <ele>1849.2331542969</ele>
        <time>2011-10-23T11:16:13Z</time>
      </trkpt>
      <trkpt lat="45.31198" lon="6.05309">
        <ele>1849.7138671875</ele>
        <time>2011-10-23T11:16:18Z</time>
      </trkpt>
      <trkpt lat="45.3119" lon="6.05302">
        <ele>1850.1945800781</ele>
        <time>2011-10-23T11:16:25Z</time>
      </trkpt>
      <trkpt lat="45.31182" lon="6.05297">
        <ele>1851.1557617188</ele>
        <time>2011-10-23T11:16:31Z</time>
      </trkpt>
      <trkpt lat="45.31179" lon="6.05295">
        <ele>1851.1557617188</ele>
        <time>2011-10-23T11:16:36Z</time>
      </trkpt>
      <trkpt lat="45.31178" lon="6.05291">
        <ele>1851.1557617188</ele>
        <time>2011-10-23T11:16:40Z</time>
      </trkpt>
      <trkpt lat="45.31177" lon="6.05289">
        <ele>1851.1557617188</ele>
        <time>2011-10-23T11:16:46Z</time>
      </trkpt>
      <trkpt lat="45.31177" lon="6.05289">
        <ele>1850.6750488281</ele>
        <time>2011-10-23T11:16:53Z</time>
      </trkpt>
      <trkpt lat="45.31178" lon="6.05288">
        <ele>1849.2331542969</ele>
        <time>2011-10-23T11:17:25Z</time>
      </trkpt>
      <trkpt lat="45.31177" lon="6.05285">
        <ele>1849.2331542969</ele>
        <time>2011-10-23T11:17:36Z</time>
      </trkpt>
      <trkpt lat="45.31166" lon="6.05271">
        <ele>1848.2717285156</ele>
        <time>2011-10-23T11:17:43Z</time>
      </trkpt>
      <trkpt lat="45.31159" lon="6.05266">
        <ele>1846.3493652344</ele>
        <time>2011-10-23T11:17:47Z</time>
      </trkpt>
      <trkpt lat="45.31153" lon="6.05255">
        <ele>1844.4265136719</ele>
        <time>2011-10-23T11:17:52Z</time>
      </trkpt>
      <trkpt lat="45.31147" lon="6.0525">
        <ele>1842.5041503906</ele>
        <time>2011-10-23T11:17:55Z</time>
      </trkpt>
      <trkpt lat="45.31139" lon="6.05244">
        <ele>1840.5812988281</ele>
        <time>2011-10-23T11:17:58Z</time>
      </trkpt>
      <trkpt lat="45.3112" lon="6.05236">
        <ele>1837.6975097656</ele>
        <time>2011-10-23T11:18:05Z</time>
      </trkpt>
      <trkpt lat="45.31107" lon="6.05232">
        <ele>1838.1782226562</ele>
        <time>2011-10-23T11:18:11Z</time>
      </trkpt>
      <trkpt lat="45.31095" lon="6.05226">
        <ele>1841.0620117188</ele>
        <time>2011-10-23T11:18:17Z</time>
      </trkpt>
      <trkpt lat="45.31079" lon="6.05214">
        <ele>1842.5041503906</ele>
        <time>2011-10-23T11:18:25Z</time>
      </trkpt>
      <trkpt lat="45.31073" lon="6.05203">
        <ele>1842.9846191406</ele>
        <time>2011-10-23T11:18:30Z</time>
      </trkpt>
      <trkpt lat="45.31069" lon="6.05196">
        <ele>1843.9460449219</ele>
        <time>2011-10-23T11:18:35Z</time>
      </trkpt>
      <trkpt lat="45.31066" lon="6.05184">
        <ele>1843.4653320312</ele>
        <time>2011-10-23T11:18:40Z</time>
      </trkpt>
      <trkpt lat="45.31058" lon="6.05171">
        <ele>1844.4265136719</ele>
        <time>2011-10-23T11:18:45Z</time>
      </trkpt>
      <trkpt lat="45.31052" lon="6.05165">
        <ele>1844.9072265625</ele>
        <time>2011-10-23T11:18:48Z</time>
      </trkpt>
      <trkpt lat="45.31035" lon="6.05148">
        <ele>1844.9072265625</ele>
        <time>2011-10-23T11:18:55Z</time>
      </trkpt>
      <trkpt lat="45.31024" lon="6.05137">
        <ele>1844.4265136719</ele>
        <time>2011-10-23T11:19:01Z</time>
      </trkpt>
      <trkpt lat="45.31011" lon="6.05125">
        <ele>1842.0234375</ele>
        <time>2011-10-23T11:19:07Z</time>
      </trkpt>
      <trkpt lat="45.30993" lon="6.05114">
        <ele>1840.5812988281</ele>
        <time>2011-10-23T11:19:14Z</time>
      </trkpt>
      <trkpt lat="45.3098" lon="6.05109">
        <ele>1839.6201171875</ele>
        <time>2011-10-23T11:19:19Z</time>
      </trkpt>
      <trkpt lat="45.30977" lon="6.0511">
        <ele>1839.1394042969</ele>
        <time>2011-10-23T11:19:21Z</time>
      </trkpt>
      <trkpt lat="45.30975" lon="6.05112">
        <ele>1838.6589355469</ele>
        <time>2011-10-23T11:19:27Z</time>
      </trkpt>
      <trkpt lat="45.30971" lon="6.05113">
        <ele>1837.6975097656</ele>
        <time>2011-10-23T11:19:33Z</time>
      </trkpt>
      <trkpt lat="45.3097" lon="6.05113">
        <ele>1837.6975097656</ele>
        <time>2011-10-23T11:19:36Z</time>
      </trkpt>
      <trkpt lat="45.30959" lon="6.05114">
        <ele>1837.216796875</ele>
        <time>2011-10-23T11:19:42Z</time>
      </trkpt>
      <trkpt lat="45.30948" lon="6.05117">
        <ele>1837.216796875</ele>
        <time>2011-10-23T11:19:47Z</time>
      </trkpt>
      <trkpt lat="45.30944" lon="6.05114">
        <ele>1836.7360839844</ele>
        <time>2011-10-23T11:19:49Z</time>
      </trkpt>
      <trkpt lat="45.30935" lon="6.05112">
        <ele>1836.7360839844</ele>
        <time>2011-10-23T11:19:54Z</time>
      </trkpt>
      <trkpt lat="45.30919" lon="6.05112">
        <ele>1837.216796875</ele>
        <time>2011-10-23T11:20:00Z</time>
      </trkpt>
      <trkpt lat="45.30905" lon="6.05111">
        <ele>1838.1782226562</ele>
        <time>2011-10-23T11:20:06Z</time>
      </trkpt>
      <trkpt lat="45.30894" lon="6.05106">
        <ele>1839.1394042969</ele>
        <time>2011-10-23T11:20:12Z</time>
      </trkpt>
      <trkpt lat="45.30885" lon="6.05107">
        <ele>1839.6201171875</ele>
        <time>2011-10-23T11:20:17Z</time>
      </trkpt>
      <trkpt lat="45.30872" lon="6.05107">
        <ele>1840.1008300781</ele>
        <time>2011-10-23T11:20:23Z</time>
      </trkpt>
      <trkpt lat="45.30859" lon="6.051">
        <ele>1842.0234375</ele>
        <time>2011-10-23T11:20:29Z</time>
      </trkpt>
      <trkpt lat="45.30847" lon="6.05089">
        <ele>1843.9460449219</ele>
        <time>2011-10-23T11:20:37Z</time>
      </trkpt>
      <trkpt lat="45.30844" lon="6.05087">
        <ele>1843.4653320312</ele>
        <time>2011-10-23T11:20:42Z</time>
      </trkpt>
      <trkpt lat="45.30838" lon="6.05082">
        <ele>1844.4265136719</ele>
        <time>2011-10-23T11:20:48Z</time>
      </trkpt>
      <trkpt lat="45.30833" lon="6.05078">
        <ele>1844.9072265625</ele>
        <time>2011-10-23T11:20:55Z</time>
      </trkpt>
      <trkpt lat="45.30827" lon="6.05076">
        <ele>1844.9072265625</ele>
        <time>2011-10-23T11:21:01Z</time>
      </trkpt>
      <trkpt lat="45.30821" lon="6.05073">
        <ele>1844.9072265625</ele>
        <time>2011-10-23T11:21:07Z</time>
      </trkpt>
      <trkpt lat="45.30812" lon="6.05072">
        <ele>1845.8686523438</ele>
        <time>2011-10-23T11:21:16Z</time>
      </trkpt>
      <trkpt lat="45.30805" lon="6.05069">
        <ele>1846.8298339844</ele>
        <time>2011-10-23T11:21:24Z</time>
      </trkpt>
      <trkpt lat="45.30798" lon="6.05068">
        <ele>1847.7912597656</ele>
        <time>2011-10-23T11:21:32Z</time>
      </trkpt>
      <trkpt lat="45.30791" lon="6.05067">
        <ele>1849.2331542969</ele>
        <time>2011-10-23T11:21:41Z</time>
      </trkpt>
      <trkpt lat="45.30785" lon="6.05068">
        <ele>1850.1945800781</ele>
        <time>2011-10-23T11:21:49Z</time>
      </trkpt>
      <trkpt lat="45.3078" lon="6.0507">
        <ele>1851.6364746094</ele>
        <time>2011-10-23T11:21:55Z</time>
      </trkpt>
      <trkpt lat="45.30775" lon="6.05074">
        <ele>1853.0786132812</ele>
        <time>2011-10-23T11:22:04Z</time>
      </trkpt>
      <trkpt lat="45.30768" lon="6.05072">
        <ele>1854.5205078125</ele>
        <time>2011-10-23T11:22:13Z</time>
      </trkpt>
      <trkpt lat="45.30762" lon="6.05072">
        <ele>1855.9624023438</ele>
        <time>2011-10-23T11:22:21Z</time>
      </trkpt>
      <trkpt lat="45.30757" lon="6.05072">
        <ele>1856.4431152344</ele>
        <time>2011-10-23T11:22:28Z</time>
      </trkpt>
      <trkpt lat="45.3075" lon="6.05072">
        <ele>1857.4045410156</ele>
        <time>2011-10-23T11:22:37Z</time>
      </trkpt>
      <trkpt lat="45.30743" lon="6.05068">
        <ele>1858.8464355469</ele>
        <time>2011-10-23T11:22:46Z</time>
      </trkpt>
      <trkpt lat="45.30739" lon="6.05067">
        <ele>1859.8076171875</ele>
        <time>2011-10-23T11:22:51Z</time>
      </trkpt>
      <trkpt lat="45.30734" lon="6.05064">
        <ele>1861.2497558594</ele>
        <time>2011-10-23T11:22:59Z</time>
      </trkpt>
      <trkpt lat="45.30729" lon="6.05065">
        <ele>1862.6916503906</ele>
        <time>2011-10-23T11:23:06Z</time>
      </trkpt>
      <trkpt lat="45.30722" lon="6.05064">
        <ele>1863.6528320312</ele>
        <time>2011-10-23T11:23:14Z</time>
      </trkpt>
      <trkpt lat="45.30717" lon="6.05063">
        <ele>1865.0949707031</ele>
        <time>2011-10-23T11:23:21Z</time>
      </trkpt>
      <trkpt lat="45.3071" lon="6.05062">
        <ele>1866.0561523438</ele>
        <time>2011-10-23T11:23:28Z</time>
      </trkpt>
      <trkpt lat="45.30703" lon="6.05059">
        <ele>1867.498046875</ele>
        <time>2011-10-23T11:23:37Z</time>
      </trkpt>
      <trkpt lat="45.30695" lon="6.05059">
        <ele>1869.4211425781</ele>
        <time>2011-10-23T11:23:47Z</time>
      </trkpt>
      <trkpt lat="45.30688" lon="6.05059">
        <ele>1871.3435058594</ele>
        <time>2011-10-23T11:23:56Z</time>
      </trkpt>
      <trkpt lat="45.30682" lon="6.05058">
        <ele>1872.7856445312</ele>
        <time>2011-10-23T11:24:03Z</time>
      </trkpt>
      <trkpt lat="45.30673" lon="6.05055">
        <ele>1874.2275390625</ele>
        <time>2011-10-23T11:24:13Z</time>
      </trkpt>
      <trkpt lat="45.30666" lon="6.05054">
        <ele>1875.6694335938</ele>
        <time>2011-10-23T11:24:21Z</time>
      </trkpt>
      <trkpt lat="45.30657" lon="6.05055">
        <ele>1877.5920410156</ele>
        <time>2011-10-23T11:24:31Z</time>
      </trkpt>
      <trkpt lat="45.30652" lon="6.05057">
        <ele>1879.5146484375</ele>
        <time>2011-10-23T11:24:38Z</time>
      </trkpt>
      <trkpt lat="45.30645" lon="6.05056">
        <ele>1880.9567871094</ele>
        <time>2011-10-23T11:24:45Z</time>
      </trkpt>
      <trkpt lat="45.3064" lon="6.05057">
        <ele>1881.4372558594</ele>
        <time>2011-10-23T11:24:51Z</time>
      </trkpt>
      <trkpt lat="45.30633" lon="6.05055">
        <ele>1883.3598632812</ele>
        <time>2011-10-23T11:24:59Z</time>
      </trkpt>
      <trkpt lat="45.30626" lon="6.05055">
        <ele>1885.7634277344</ele>
        <time>2011-10-23T11:25:09Z</time>
      </trkpt>
      <trkpt lat="45.30621" lon="6.05056">
        <ele>1887.2053222656</ele>
        <time>2011-10-23T11:25:16Z</time>
      </trkpt>
      <trkpt lat="45.30616" lon="6.05056">
        <ele>1889.1279296875</ele>
        <time>2011-10-23T11:25:23Z</time>
      </trkpt>
      <trkpt lat="45.3061" lon="6.05057">
        <ele>1890.0893554688</ele>
        <time>2011-10-23T11:25:30Z</time>
      </trkpt>
      <trkpt lat="45.30604" lon="6.05058">
        <ele>1892.0119628906</ele>
        <time>2011-10-23T11:25:39Z</time>
      </trkpt>
      <trkpt lat="45.30597" lon="6.05057">
        <ele>1893.9345703125</ele>
        <time>2011-10-23T11:25:48Z</time>
      </trkpt>
      <trkpt lat="45.30591" lon="6.05056">
        <ele>1894.8957519531</ele>
        <time>2011-10-23T11:25:55Z</time>
      </trkpt>
      <trkpt lat="45.30585" lon="6.05057">
        <ele>1896.818359375</ele>
        <time>2011-10-23T11:26:03Z</time>
      </trkpt>
      <trkpt lat="45.30576" lon="6.05054">
        <ele>1898.2602539062</ele>
        <time>2011-10-23T11:26:11Z</time>
      </trkpt>
      <trkpt lat="45.30565" lon="6.05051">
        <ele>1900.1833496094</ele>
        <time>2011-10-23T11:26:21Z</time>
      </trkpt>
      <trkpt lat="45.30557" lon="6.05047">
        <ele>1901.14453125</ele>
        <time>2011-10-23T11:26:28Z</time>
      </trkpt>
      <trkpt lat="45.30552" lon="6.05044">
        <ele>1901.14453125</ele>
        <time>2011-10-23T11:26:33Z</time>
      </trkpt>
      <trkpt lat="45.30547" lon="6.05042">
        <ele>1902.1057128906</ele>
        <time>2011-10-23T11:26:39Z</time>
      </trkpt>
      <trkpt lat="45.30544" lon="6.05046">
        <ele>1902.5864257812</ele>
        <time>2011-10-23T11:26:45Z</time>
      </trkpt>
      <trkpt lat="45.3054" lon="6.0505">
        <ele>1903.5478515625</ele>
        <time>2011-10-23T11:26:51Z</time>
      </trkpt>
      <trkpt lat="45.30536" lon="6.05052">
        <ele>1904.0285644531</ele>
        <time>2011-10-23T11:26:59Z</time>
      </trkpt>
      <trkpt lat="45.30536" lon="6.05053">
        <ele>1904.9897460938</ele>
        <time>2011-10-23T11:27:07Z</time>
      </trkpt>
      <trkpt lat="45.30536" lon="6.05054">
        <ele>1905.9509277344</ele>
        <time>2011-10-23T11:27:17Z</time>
      </trkpt>
      <trkpt lat="45.30533" lon="6.05055">
        <ele>1906.9123535156</ele>
        <time>2011-10-23T11:27:31Z</time>
      </trkpt>
      <trkpt lat="45.30525" lon="6.05054">
        <ele>1906.9123535156</ele>
        <time>2011-10-23T11:27:39Z</time>
      </trkpt>
      <trkpt lat="45.30519" lon="6.05049">
        <ele>1906.9123535156</ele>
        <time>2011-10-23T11:27:46Z</time>
      </trkpt>
      <trkpt lat="45.30512" lon="6.05042">
        <ele>1905.9509277344</ele>
        <time>2011-10-23T11:27:53Z</time>
      </trkpt>
      <trkpt lat="45.30505" lon="6.05038">
        <ele>1904.9897460938</ele>
        <time>2011-10-23T11:27:59Z</time>
      </trkpt>
      <trkpt lat="45.30499" lon="6.05038">
        <ele>1904.9897460938</ele>
        <time>2011-10-23T11:28:05Z</time>
      </trkpt>
      <trkpt lat="45.30492" lon="6.05035">
        <ele>1905.9509277344</ele>
        <time>2011-10-23T11:28:12Z</time>
      </trkpt>
      <trkpt lat="45.30486" lon="6.05034">
        <ele>1907.8737792969</ele>
        <time>2011-10-23T11:28:21Z</time>
      </trkpt>
      <trkpt lat="45.30479" lon="6.05032">
        <ele>1909.7961425781</ele>
        <time>2011-10-23T11:28:29Z</time>
      </trkpt>
      <trkpt lat="45.30474" lon="6.0503">
        <ele>1911.23828125</ele>
        <time>2011-10-23T11:28:35Z</time>
      </trkpt>
      <trkpt lat="45.30469" lon="6.05025">
        <ele>1911.23828125</ele>
        <time>2011-10-23T11:28:41Z</time>
      </trkpt>
      <trkpt lat="45.30462" lon="6.05022">
        <ele>1912.1994628906</ele>
        <time>2011-10-23T11:28:49Z</time>
      </trkpt>
      <trkpt lat="45.30457" lon="6.05023">
        <ele>1913.1608886719</ele>
        <time>2011-10-23T11:28:54Z</time>
      </trkpt>
      <trkpt lat="45.30452" lon="6.05024">
        <ele>1914.6027832031</ele>
        <time>2011-10-23T11:29:00Z</time>
      </trkpt>
      <trkpt lat="45.30447" lon="6.05022">
        <ele>1916.044921875</ele>
        <time>2011-10-23T11:29:08Z</time>
      </trkpt>
      <trkpt lat="45.30442" lon="6.05026">
        <ele>1917.4868164062</ele>
        <time>2011-10-23T11:29:17Z</time>
      </trkpt>
      <trkpt lat="45.30435" lon="6.05026">
        <ele>1918.9289550781</ele>
        <time>2011-10-23T11:29:25Z</time>
      </trkpt>
      <trkpt lat="45.30429" lon="6.05025">
        <ele>1920.3708496094</ele>
        <time>2011-10-23T11:29:31Z</time>
      </trkpt>
      <trkpt lat="45.30424" lon="6.05023">
        <ele>1920.8515625</ele>
        <time>2011-10-23T11:29:36Z</time>
      </trkpt>
      <trkpt lat="45.30422" lon="6.05023">
        <ele>1921.8127441406</ele>
        <time>2011-10-23T11:29:41Z</time>
      </trkpt>
      <trkpt lat="45.30422" lon="6.05024">
        <ele>1922.2934570312</ele>
        <time>2011-10-23T11:29:54Z</time>
      </trkpt>
      <trkpt lat="45.30421" lon="6.05025">
        <ele>1921.8127441406</ele>
        <time>2011-10-23T11:30:08Z</time>
      </trkpt>
      <trkpt lat="45.30418" lon="6.05025">
        <ele>1921.33203125</ele>
        <time>2011-10-23T11:30:23Z</time>
      </trkpt>
      <trkpt lat="45.30415" lon="6.05024">
        <ele>1920.3708496094</ele>
        <time>2011-10-23T11:30:25Z</time>
      </trkpt>
      <trkpt lat="45.30408" lon="6.05023">
        <ele>1920.3708496094</ele>
        <time>2011-10-23T11:30:30Z</time>
      </trkpt>
      <trkpt lat="45.30402" lon="6.05021">
        <ele>1919.8901367188</ele>
        <time>2011-10-23T11:30:34Z</time>
      </trkpt>
      <trkpt lat="45.30394" lon="6.05017">
        <ele>1921.33203125</ele>
        <time>2011-10-23T11:30:40Z</time>
      </trkpt>
      <trkpt lat="45.30388" lon="6.05013">
        <ele>1921.8127441406</ele>
        <time>2011-10-23T11:30:44Z</time>
      </trkpt>
      <trkpt lat="45.3038" lon="6.05011">
        <ele>1923.2548828125</ele>
        <time>2011-10-23T11:30:51Z</time>
      </trkpt>
      <trkpt lat="45.30378" lon="6.0501">
        <ele>1923.7353515625</ele>
        <time>2011-10-23T11:30:53Z</time>
      </trkpt>
      <trkpt lat="45.3037" lon="6.05004">
        <ele>1926.138671875</ele>
        <time>2011-10-23T11:31:01Z</time>
      </trkpt>
      <trkpt lat="45.30365" lon="6.05003">
        <ele>1926.6193847656</ele>
        <time>2011-10-23T11:31:04Z</time>
      </trkpt>
      <trkpt lat="45.30359" lon="6.05002">
        <ele>1927.1000976562</ele>
        <time>2011-10-23T11:31:09Z</time>
      </trkpt>
      <trkpt lat="45.30356" lon="6.05002">
        <ele>1928.0612792969</ele>
        <time>2011-10-23T11:31:14Z</time>
      </trkpt>
      <trkpt lat="45.30355" lon="6.04999">
        <ele>1927.5805664062</ele>
        <time>2011-10-23T11:31:19Z</time>
      </trkpt>
      <trkpt lat="45.30354" lon="6.04993">
        <ele>1926.138671875</ele>
        <time>2011-10-23T11:31:24Z</time>
      </trkpt>
      <trkpt lat="45.30357" lon="6.04985">
        <ele>1924.2160644531</ele>
        <time>2011-10-23T11:31:29Z</time>
      </trkpt>
      <trkpt lat="45.30354" lon="6.04978">
        <ele>1923.2548828125</ele>
        <time>2011-10-23T11:31:34Z</time>
      </trkpt>
      <trkpt lat="45.30355" lon="6.04975">
        <ele>1922.7741699219</ele>
        <time>2011-10-23T11:31:36Z</time>
      </trkpt>
      <trkpt lat="45.30355" lon="6.04974">
        <ele>1922.7741699219</ele>
        <time>2011-10-23T11:31:38Z</time>
      </trkpt>
      <trkpt lat="45.30354" lon="6.04967">
        <ele>1919.8901367188</ele>
        <time>2011-10-23T11:31:44Z</time>
      </trkpt>
      <trkpt lat="45.30353" lon="6.0496">
        <ele>1918.4482421875</ele>
        <time>2011-10-23T11:31:48Z</time>
      </trkpt>
      <trkpt lat="45.30356" lon="6.04953">
        <ele>1917.0063476562</ele>
        <time>2011-10-23T11:31:51Z</time>
      </trkpt>
      <trkpt lat="45.30358" lon="6.04945">
        <ele>1916.044921875</ele>
        <time>2011-10-23T11:31:55Z</time>
      </trkpt>
      <trkpt lat="45.30362" lon="6.04938">
        <ele>1914.6027832031</ele>
        <time>2011-10-23T11:31:59Z</time>
      </trkpt>
      <trkpt lat="45.30359" lon="6.0493">
        <ele>1912.6801757812</ele>
        <time>2011-10-23T11:32:05Z</time>
      </trkpt>
      <trkpt lat="45.30356" lon="6.04922">
        <ele>1910.7575683594</ele>
        <time>2011-10-23T11:32:09Z</time>
      </trkpt>
      <trkpt lat="45.30355" lon="6.04909">
        <ele>1909.3156738281</ele>
        <time>2011-10-23T11:32:14Z</time>
      </trkpt>
      <trkpt lat="45.30354" lon="6.04906">
        <ele>1909.3156738281</ele>
        <time>2011-10-23T11:32:15Z</time>
      </trkpt>
      <trkpt lat="45.30351" lon="6.049">
        <ele>1909.3156738281</ele>
        <time>2011-10-23T11:32:17Z</time>
      </trkpt>
      <trkpt lat="45.30339" lon="6.0489">
        <ele>1910.7575683594</ele>
        <time>2011-10-23T11:32:25Z</time>
      </trkpt>
      <trkpt lat="45.30338" lon="6.04887">
        <ele>1911.23828125</ele>
        <time>2011-10-23T11:32:27Z</time>
      </trkpt>
      <trkpt lat="45.30332" lon="6.04878">
        <ele>1910.7575683594</ele>
        <time>2011-10-23T11:32:34Z</time>
      </trkpt>
      <trkpt lat="45.30331" lon="6.04875">
        <ele>1910.7575683594</ele>
        <time>2011-10-23T11:32:36Z</time>
      </trkpt>
      <trkpt lat="45.30321" lon="6.04859">
        <ele>1910.7575683594</ele>
        <time>2011-10-23T11:32:45Z</time>
      </trkpt>
      <trkpt lat="45.30312" lon="6.04849">
        <ele>1910.2768554688</ele>
        <time>2011-10-23T11:32:50Z</time>
      </trkpt>
      <trkpt lat="45.30303" lon="6.04838">
        <ele>1911.23828125</ele>
        <time>2011-10-23T11:32:56Z</time>
      </trkpt>
      <trkpt lat="45.30294" lon="6.0483">
        <ele>1912.1994628906</ele>
        <time>2011-10-23T11:33:02Z</time>
      </trkpt>
      <trkpt lat="45.3029" lon="6.04819">
        <ele>1914.1220703125</ele>
        <time>2011-10-23T11:33:09Z</time>
      </trkpt>
      <trkpt lat="45.30289" lon="6.04816">
        <ele>1915.0834960938</ele>
        <time>2011-10-23T11:33:11Z</time>
      </trkpt>
      <trkpt lat="45.30283" lon="6.04815">
        <ele>1915.0834960938</ele>
        <time>2011-10-23T11:33:18Z</time>
      </trkpt>
      <trkpt lat="45.30277" lon="6.04809">
        <ele>1915.0834960938</ele>
        <time>2011-10-23T11:33:24Z</time>
      </trkpt>
      <trkpt lat="45.30275" lon="6.04807">
        <ele>1915.0834960938</ele>
        <time>2011-10-23T11:33:26Z</time>
      </trkpt>
      <trkpt lat="45.30268" lon="6.048">
        <ele>1915.0834960938</ele>
        <time>2011-10-23T11:33:31Z</time>
      </trkpt>
      <trkpt lat="45.30257" lon="6.04793">
        <ele>1915.5642089844</ele>
        <time>2011-10-23T11:33:38Z</time>
      </trkpt>
      <trkpt lat="45.30256" lon="6.04792">
        <ele>1916.044921875</ele>
        <time>2011-10-23T11:33:39Z</time>
      </trkpt>
      <trkpt lat="45.3024" lon="6.04787">
        <ele>1914.1220703125</ele>
        <time>2011-10-23T11:33:48Z</time>
      </trkpt>
      <trkpt lat="45.30227" lon="6.04783">
        <ele>1912.6801757812</ele>
        <time>2011-10-23T11:33:54Z</time>
      </trkpt>
      <trkpt lat="45.30218" lon="6.04776">
        <ele>1912.6801757812</ele>
        <time>2011-10-23T11:34:00Z</time>
      </trkpt>
      <trkpt lat="45.30204" lon="6.04763">
        <ele>1911.7189941406</ele>
        <time>2011-10-23T11:34:07Z</time>
      </trkpt>
      <trkpt lat="45.30198" lon="6.0476">
        <ele>1911.23828125</ele>
        <time>2011-10-23T11:34:10Z</time>
      </trkpt>
      <trkpt lat="45.3019" lon="6.04752">
        <ele>1910.7575683594</ele>
        <time>2011-10-23T11:34:16Z</time>
      </trkpt>
      <trkpt lat="45.30183" lon="6.04741">
        <ele>1909.7961425781</ele>
        <time>2011-10-23T11:34:22Z</time>
      </trkpt>
      <trkpt lat="45.30177" lon="6.04733">
        <ele>1908.3542480469</ele>
        <time>2011-10-23T11:34:27Z</time>
      </trkpt>
      <trkpt lat="45.30169" lon="6.04727">
        <ele>1907.3930664062</ele>
        <time>2011-10-23T11:34:33Z</time>
      </trkpt>
      <trkpt lat="45.30162" lon="6.0472">
        <ele>1904.9897460938</ele>
        <time>2011-10-23T11:34:39Z</time>
      </trkpt>
      <trkpt lat="45.30153" lon="6.04712">
        <ele>1901.6252441406</ele>
        <time>2011-10-23T11:34:46Z</time>
      </trkpt>
      <trkpt lat="45.30145" lon="6.04706">
        <ele>1899.7023925781</ele>
        <time>2011-10-23T11:34:51Z</time>
      </trkpt>
      <trkpt lat="45.30141" lon="6.04703">
        <ele>1899.2216796875</ele>
        <time>2011-10-23T11:34:53Z</time>
      </trkpt>
      <trkpt lat="45.3013" lon="6.04698">
        <ele>1898.2602539062</ele>
        <time>2011-10-23T11:34:59Z</time>
      </trkpt>
      <trkpt lat="45.30114" lon="6.04693">
        <ele>1897.7797851562</ele>
        <time>2011-10-23T11:35:07Z</time>
      </trkpt>
      <trkpt lat="45.30104" lon="6.04689">
        <ele>1899.2216796875</ele>
        <time>2011-10-23T11:35:13Z</time>
      </trkpt>
      <trkpt lat="45.30095" lon="6.04686">
        <ele>1901.14453125</ele>
        <time>2011-10-23T11:35:19Z</time>
      </trkpt>
      <trkpt lat="45.30085" lon="6.04679">
        <ele>1902.1057128906</ele>
        <time>2011-10-23T11:35:25Z</time>
      </trkpt>
      <trkpt lat="45.30074" lon="6.04673">
        <ele>1904.0285644531</ele>
        <time>2011-10-23T11:35:31Z</time>
      </trkpt>
      <trkpt lat="45.30062" lon="6.04667">
        <ele>1904.5090332031</ele>
        <time>2011-10-23T11:35:38Z</time>
      </trkpt>
      <trkpt lat="45.30048" lon="6.04659">
        <ele>1903.5478515625</ele>
        <time>2011-10-23T11:35:47Z</time>
      </trkpt>
      <trkpt lat="45.30043" lon="6.04656">
        <ele>1903.0671386719</ele>
        <time>2011-10-23T11:35:50Z</time>
      </trkpt>
      <trkpt lat="45.30039" lon="6.0465">
        <ele>1902.1057128906</ele>
        <time>2011-10-23T11:35:54Z</time>
      </trkpt>
      <trkpt lat="45.30028" lon="6.0464">
        <ele>1901.14453125</ele>
        <time>2011-10-23T11:36:01Z</time>
      </trkpt>
      <trkpt lat="45.30019" lon="6.04629">
        <ele>1900.1833496094</ele>
        <time>2011-10-23T11:36:07Z</time>
      </trkpt>
      <trkpt lat="45.30009" lon="6.04619">
        <ele>1900.1833496094</ele>
        <time>2011-10-23T11:36:13Z</time>
      </trkpt>
      <trkpt lat="45.29999" lon="6.0461">
        <ele>1898.7409667969</ele>
        <time>2011-10-23T11:36:19Z</time>
      </trkpt>
      <trkpt lat="45.2999" lon="6.04599">
        <ele>1897.2990722656</ele>
        <time>2011-10-23T11:36:26Z</time>
      </trkpt>
      <trkpt lat="45.29982" lon="6.04588">
        <ele>1896.818359375</ele>
        <time>2011-10-23T11:36:32Z</time>
      </trkpt>
      <trkpt lat="45.29972" lon="6.04578">
        <ele>1896.337890625</ele>
        <time>2011-10-23T11:36:37Z</time>
      </trkpt>
      <trkpt lat="45.29961" lon="6.04565">
        <ele>1895.8571777344</ele>
        <time>2011-10-23T11:36:44Z</time>
      </trkpt>
      <trkpt lat="45.29951" lon="6.04557">
        <ele>1895.8571777344</ele>
        <time>2011-10-23T11:36:49Z</time>
      </trkpt>
      <trkpt lat="45.2994" lon="6.04545">
        <ele>1895.8571777344</ele>
        <time>2011-10-23T11:36:55Z</time>
      </trkpt>
      <trkpt lat="45.2993" lon="6.04533">
        <ele>1895.8571777344</ele>
        <time>2011-10-23T11:37:01Z</time>
      </trkpt>
      <trkpt lat="45.29919" lon="6.04523">
        <ele>1895.3764648438</ele>
        <time>2011-10-23T11:37:07Z</time>
      </trkpt>
      <trkpt lat="45.29911" lon="6.04518">
        <ele>1895.8571777344</ele>
        <time>2011-10-23T11:37:12Z</time>
      </trkpt>
      <trkpt lat="45.29906" lon="6.04515">
        <ele>1895.8571777344</ele>
        <time>2011-10-23T11:37:18Z</time>
      </trkpt>
      <trkpt lat="45.2991" lon="6.04517">
        <ele>1894.8957519531</ele>
        <time>2011-10-23T11:37:27Z</time>
      </trkpt>
      <trkpt lat="45.29908" lon="6.04514">
        <ele>1894.8957519531</ele>
        <time>2011-10-23T11:37:30Z</time>
      </trkpt>
      <trkpt lat="45.299" lon="6.04501">
        <ele>1894.8957519531</ele>
        <time>2011-10-23T11:37:36Z</time>
      </trkpt>
      <trkpt lat="45.29895" lon="6.04496">
        <ele>1895.8571777344</ele>
        <time>2011-10-23T11:37:39Z</time>
      </trkpt>
      <trkpt lat="45.29883" lon="6.04483">
        <ele>1897.2990722656</ele>
        <time>2011-10-23T11:37:46Z</time>
      </trkpt>
      <trkpt lat="45.29878" lon="6.04475">
        <ele>1898.2602539062</ele>
        <time>2011-10-23T11:37:50Z</time>
      </trkpt>
      <trkpt lat="45.29871" lon="6.04471">
        <ele>1898.7409667969</ele>
        <time>2011-10-23T11:37:54Z</time>
      </trkpt>
      <trkpt lat="45.29862" lon="6.04459">
        <ele>1898.2602539062</ele>
        <time>2011-10-23T11:38:00Z</time>
      </trkpt>
      <trkpt lat="45.29853" lon="6.04456">
        <ele>1898.7409667969</ele>
        <time>2011-10-23T11:38:05Z</time>
      </trkpt>
      <trkpt lat="45.29842" lon="6.04454">
        <ele>1898.7409667969</ele>
        <time>2011-10-23T11:38:12Z</time>
      </trkpt>
      <trkpt lat="45.29836" lon="6.04449">
        <ele>1898.2602539062</ele>
        <time>2011-10-23T11:38:16Z</time>
      </trkpt>
      <trkpt lat="45.2983" lon="6.04448">
        <ele>1896.337890625</ele>
        <time>2011-10-23T11:38:21Z</time>
      </trkpt>
      <trkpt lat="45.29825" lon="6.04445">
        <ele>1894.4150390625</ele>
        <time>2011-10-23T11:38:25Z</time>
      </trkpt>
      <trkpt lat="45.29815" lon="6.04441">
        <ele>1891.53125</ele>
        <time>2011-10-23T11:38:32Z</time>
      </trkpt>
      <trkpt lat="45.29812" lon="6.04442">
        <ele>1891.0505371094</ele>
        <time>2011-10-23T11:38:34Z</time>
      </trkpt>
      <trkpt lat="45.29801" lon="6.0444">
        <ele>1888.6474609375</ele>
        <time>2011-10-23T11:38:40Z</time>
      </trkpt>
      <trkpt lat="45.29796" lon="6.04439">
        <ele>1887.6860351562</ele>
        <time>2011-10-23T11:38:42Z</time>
      </trkpt>
      <trkpt lat="45.29791" lon="6.04438">
        <ele>1886.724609375</ele>
        <time>2011-10-23T11:38:44Z</time>
      </trkpt>
      <trkpt lat="45.29786" lon="6.04431">
        <ele>1885.2827148438</ele>
        <time>2011-10-23T11:38:48Z</time>
      </trkpt>
      <trkpt lat="45.29777" lon="6.04425">
        <ele>1882.8791503906</ele>
        <time>2011-10-23T11:38:55Z</time>
      </trkpt>
      <trkpt lat="45.29776" lon="6.04425">
        <ele>1882.3986816406</ele>
        <time>2011-10-23T11:38:56Z</time>
      </trkpt>
      <trkpt lat="45.29775" lon="6.04422">
        <ele>1881.4372558594</ele>
        <time>2011-10-23T11:39:03Z</time>
      </trkpt>
      <trkpt lat="45.29776" lon="6.04416">
        <ele>1880.9567871094</ele>
        <time>2011-10-23T11:39:08Z</time>
      </trkpt>
      <trkpt lat="45.29774" lon="6.04414">
        <ele>1881.91796875</ele>
        <time>2011-10-23T11:39:14Z</time>
      </trkpt>
      <trkpt lat="45.29774" lon="6.04413">
        <ele>1881.91796875</ele>
        <time>2011-10-23T11:39:21Z</time>
      </trkpt>
      <trkpt lat="45.29772" lon="6.04415">
        <ele>1886.724609375</ele>
        <time>2011-10-23T11:39:51Z</time>
      </trkpt>
      <trkpt lat="45.29771" lon="6.04416">
        <ele>1885.7634277344</ele>
        <time>2011-10-23T11:39:57Z</time>
      </trkpt>
      <trkpt lat="45.29771" lon="6.04417">
        <ele>1884.8022460938</ele>
        <time>2011-10-23T11:40:07Z</time>
      </trkpt>
      <trkpt lat="45.29767" lon="6.04422">
        <ele>1884.8022460938</ele>
        <time>2011-10-23T11:40:33Z</time>
      </trkpt>
      <trkpt lat="45.29755" lon="6.04424">
        <ele>1881.91796875</ele>
        <time>2011-10-23T11:40:40Z</time>
      </trkpt>
      <trkpt lat="45.29745" lon="6.04418">
        <ele>1881.4372558594</ele>
        <time>2011-10-23T11:40:46Z</time>
      </trkpt>
      <trkpt lat="45.29741" lon="6.04414">
        <ele>1880.9567871094</ele>
        <time>2011-10-23T11:40:49Z</time>
      </trkpt>
      <trkpt lat="45.29738" lon="6.04407">
        <ele>1879.0339355469</ele>
        <time>2011-10-23T11:40:57Z</time>
      </trkpt>
      <trkpt lat="45.29739" lon="6.04407">
        <ele>1878.5534667969</ele>
        <time>2011-10-23T11:41:06Z</time>
      </trkpt>
      <trkpt lat="45.29739" lon="6.04405">
        <ele>1878.5534667969</ele>
        <time>2011-10-23T11:41:14Z</time>
      </trkpt>
      <trkpt lat="45.29744" lon="6.04396">
        <ele>1876.1501464844</ele>
        <time>2011-10-23T11:41:20Z</time>
      </trkpt>
      <trkpt lat="45.2975" lon="6.0439">
        <ele>1872.7856445312</ele>
        <time>2011-10-23T11:41:25Z</time>
      </trkpt>
      <trkpt lat="45.29753" lon="6.04387">
        <ele>1870.3823242188</ele>
        <time>2011-10-23T11:41:28Z</time>
      </trkpt>
      <trkpt lat="45.29755" lon="6.04385">
        <ele>1869.4211425781</ele>
        <time>2011-10-23T11:41:30Z</time>
      </trkpt>
      <trkpt lat="45.29759" lon="6.0438">
        <ele>1865.0949707031</ele>
        <time>2011-10-23T11:41:35Z</time>
      </trkpt>
      <trkpt lat="45.29765" lon="6.04373">
        <ele>1860.2883300781</ele>
        <time>2011-10-23T11:41:41Z</time>
      </trkpt>
      <trkpt lat="45.2977" lon="6.04369">
        <ele>1856.4431152344</ele>
        <time>2011-10-23T11:41:46Z</time>
      </trkpt>
      <trkpt lat="45.29771" lon="6.04367">
        <ele>1855.9624023438</ele>
        <time>2011-10-23T11:41:48Z</time>
      </trkpt>
      <trkpt lat="45.29773" lon="6.04363">
        <ele>1855.4819335938</ele>
        <time>2011-10-23T11:41:53Z</time>
      </trkpt>
      <trkpt lat="45.29776" lon="6.04362">
        <ele>1854.0400390625</ele>
        <time>2011-10-23T11:41:57Z</time>
      </trkpt>
      <trkpt lat="45.29776" lon="6.04363">
        <ele>1855.4819335938</ele>
        <time>2011-10-23T11:42:02Z</time>
      </trkpt>
      <trkpt lat="45.29773" lon="6.04366">
        <ele>1855.0012207031</ele>
        <time>2011-10-23T11:42:07Z</time>
      </trkpt>
      <trkpt lat="45.29771" lon="6.04369">
        <ele>1855.9624023438</ele>
        <time>2011-10-23T11:42:13Z</time>
      </trkpt>
      <trkpt lat="45.29768" lon="6.0437">
        <ele>1857.4045410156</ele>
        <time>2011-10-23T11:42:20Z</time>
      </trkpt>
      <trkpt lat="45.29766" lon="6.04372">
        <ele>1859.8076171875</ele>
        <time>2011-10-23T11:42:31Z</time>
      </trkpt>
      <trkpt lat="45.29766" lon="6.04375">
        <ele>1860.7690429688</ele>
        <time>2011-10-23T11:42:35Z</time>
      </trkpt>
      <trkpt lat="45.29762" lon="6.04378">
        <ele>1865.0949707031</ele>
        <time>2011-10-23T11:42:42Z</time>
      </trkpt>
      <trkpt lat="45.29759" lon="6.04378">
        <ele>1867.498046875</ele>
        <time>2011-10-23T11:42:47Z</time>
      </trkpt>
      <trkpt lat="45.29757" lon="6.0438">
        <ele>1869.4211425781</ele>
        <time>2011-10-23T11:42:53Z</time>
      </trkpt>
      <trkpt lat="45.29756" lon="6.04383">
        <ele>1869.9016113281</ele>
        <time>2011-10-23T11:42:58Z</time>
      </trkpt>
      <trkpt lat="45.29753" lon="6.04386">
        <ele>1870.8630371094</ele>
        <time>2011-10-23T11:43:09Z</time>
      </trkpt>
      <trkpt lat="45.29752" lon="6.04389">
        <ele>1871.3435058594</ele>
        <time>2011-10-23T11:43:15Z</time>
      </trkpt>
      <trkpt lat="45.2975" lon="6.04389">
        <ele>1872.7856445312</ele>
        <time>2011-10-23T11:43:22Z</time>
      </trkpt>
      <trkpt lat="45.29749" lon="6.04392">
        <ele>1874.2275390625</ele>
        <time>2011-10-23T11:43:28Z</time>
      </trkpt>
      <trkpt lat="45.29748" lon="6.04393">
        <ele>1873.7468261719</ele>
        <time>2011-10-23T11:43:32Z</time>
      </trkpt>
      <trkpt lat="45.29746" lon="6.04396">
        <ele>1874.7082519531</ele>
        <time>2011-10-23T11:43:39Z</time>
      </trkpt>
      <trkpt lat="45.29745" lon="6.04398">
        <ele>1875.1887207031</ele>
        <time>2011-10-23T11:43:46Z</time>
      </trkpt>
      <trkpt lat="45.29741" lon="6.044">
        <ele>1877.1115722656</ele>
        <time>2011-10-23T11:43:53Z</time>
      </trkpt>
      <trkpt lat="45.29739" lon="6.04405">
        <ele>1875.1887207031</ele>
        <time>2011-10-23T11:44:01Z</time>
      </trkpt>
      <trkpt lat="45.29737" lon="6.04406">
        <ele>1877.1115722656</ele>
        <time>2011-10-23T11:44:08Z</time>
      </trkpt>
      <trkpt lat="45.29737" lon="6.04404">
        <ele>1877.5920410156</ele>
        <time>2011-10-23T11:44:29Z</time>
      </trkpt>
      <trkpt lat="45.29737" lon="6.04403">
        <ele>1879.0339355469</ele>
        <time>2011-10-23T11:44:44Z</time>
      </trkpt>
      <trkpt lat="45.29736" lon="6.04402">
        <ele>1881.4372558594</ele>
        <time>2011-10-23T11:45:03Z</time>
      </trkpt>
      <trkpt lat="45.29737" lon="6.04397">
        <ele>1879.5146484375</ele>
        <time>2011-10-23T11:45:09Z</time>
      </trkpt>
      <trkpt lat="45.29736" lon="6.04392">
        <ele>1876.630859375</ele>
        <time>2011-10-23T11:45:14Z</time>
      </trkpt>
      <trkpt lat="45.29739" lon="6.04391">
        <ele>1874.7082519531</ele>
        <time>2011-10-23T11:45:17Z</time>
      </trkpt>
      <trkpt lat="45.29742" lon="6.04391">
        <ele>1873.7468261719</ele>
        <time>2011-10-23T11:45:19Z</time>
      </trkpt>
      <trkpt lat="45.29745" lon="6.04388">
        <ele>1871.3435058594</ele>
        <time>2011-10-23T11:45:23Z</time>
      </trkpt>
      <trkpt lat="45.29752" lon="6.04385">
        <ele>1866.0561523438</ele>
        <time>2011-10-23T11:45:30Z</time>
      </trkpt>
      <trkpt lat="45.29758" lon="6.04382">
        <ele>1863.6528320312</ele>
        <time>2011-10-23T11:45:35Z</time>
      </trkpt>
      <trkpt lat="45.29758" lon="6.04382">
        <ele>1864.6142578125</ele>
        <time>2011-10-23T11:45:40Z</time>
      </trkpt>
      <trkpt lat="45.29761" lon="6.04377">
        <ele>1863.6528320312</ele>
        <time>2011-10-23T11:45:47Z</time>
      </trkpt>
      <trkpt lat="45.29763" lon="6.04368">
        <ele>1861.2497558594</ele>
        <time>2011-10-23T11:45:53Z</time>
      </trkpt>
      <trkpt lat="45.29764" lon="6.04363">
        <ele>1860.2883300781</ele>
        <time>2011-10-23T11:45:57Z</time>
      </trkpt>
      <trkpt lat="45.29765" lon="6.0436">
        <ele>1858.8464355469</ele>
        <time>2011-10-23T11:46:01Z</time>
      </trkpt>
      <trkpt lat="45.29764" lon="6.04359">
        <ele>1856.4431152344</ele>
        <time>2011-10-23T11:46:06Z</time>
      </trkpt>
      <trkpt lat="45.29763" lon="6.04354">
        <ele>1855.0012207031</ele>
        <time>2011-10-23T11:46:11Z</time>
      </trkpt>
      <trkpt lat="45.29764" lon="6.04352">
        <ele>1852.5979003906</ele>
        <time>2011-10-23T11:46:15Z</time>
      </trkpt>
      <trkpt lat="45.2976" lon="6.04347">
        <ele>1850.6750488281</ele>
        <time>2011-10-23T11:46:22Z</time>
      </trkpt>
      <trkpt lat="45.2976" lon="6.04344">
        <ele>1848.2717285156</ele>
        <time>2011-10-23T11:46:27Z</time>
      </trkpt>
      <trkpt lat="45.29761" lon="6.04341">
        <ele>1845.8686523438</ele>
        <time>2011-10-23T11:46:32Z</time>
      </trkpt>
      <trkpt lat="45.29758" lon="6.04336">
        <ele>1843.9460449219</ele>
        <time>2011-10-23T11:46:38Z</time>
      </trkpt>
      <trkpt lat="45.29756" lon="6.04327">
        <ele>1842.0234375</ele>
        <time>2011-10-23T11:46:44Z</time>
      </trkpt>
      <trkpt lat="45.29758" lon="6.04323">
        <ele>1841.0620117188</ele>
        <time>2011-10-23T11:46:50Z</time>
      </trkpt>
      <trkpt lat="45.29759" lon="6.04325">
        <ele>1833.8520507812</ele>
        <time>2011-10-23T11:46:52Z</time>
      </trkpt>
      <trkpt lat="45.29755" lon="6.04316">
        <ele>1831.9294433594</ele>
        <time>2011-10-23T11:46:58Z</time>
      </trkpt>
      <trkpt lat="45.2975" lon="6.04314">
        <ele>1831.9294433594</ele>
        <time>2011-10-23T11:47:03Z</time>
      </trkpt>
      <trkpt lat="45.29746" lon="6.0431">
        <ele>1835.7746582031</ele>
        <time>2011-10-23T11:47:07Z</time>
      </trkpt>
      <trkpt lat="45.29744" lon="6.04308">
        <ele>1835.7746582031</ele>
        <time>2011-10-23T11:47:09Z</time>
      </trkpt>
      <trkpt lat="45.2974" lon="6.043">
        <ele>1835.7746582031</ele>
        <time>2011-10-23T11:47:14Z</time>
      </trkpt>
      <trkpt lat="45.2974" lon="6.04298">
        <ele>1835.2939453125</ele>
        <time>2011-10-23T11:47:15Z</time>
      </trkpt>
      <trkpt lat="45.29741" lon="6.04295">
        <ele>1834.8134765625</ele>
        <time>2011-10-23T11:47:17Z</time>
      </trkpt>
      <trkpt lat="45.29741" lon="6.0429">
        <ele>1833.8520507812</ele>
        <time>2011-10-23T11:47:22Z</time>
      </trkpt>
      <trkpt lat="45.2974" lon="6.04292">
        <ele>1830.9682617188</ele>
        <time>2011-10-23T11:47:28Z</time>
      </trkpt>
      <trkpt lat="45.29738" lon="6.0429">
        <ele>1830.0068359375</ele>
        <time>2011-10-23T11:47:36Z</time>
      </trkpt>
      <trkpt lat="45.29731" lon="6.0428">
        <ele>1831.4487304688</ele>
        <time>2011-10-23T11:47:41Z</time>
      </trkpt>
      <trkpt lat="45.29727" lon="6.04272">
        <ele>1830.9682617188</ele>
        <time>2011-10-23T11:47:46Z</time>
      </trkpt>
      <trkpt lat="45.29725" lon="6.04269">
        <ele>1831.4487304688</ele>
        <time>2011-10-23T11:47:48Z</time>
      </trkpt>
      <trkpt lat="45.29721" lon="6.04257">
        <ele>1830.4875488281</ele>
        <time>2011-10-23T11:47:54Z</time>
      </trkpt>
      <trkpt lat="45.29718" lon="6.04251">
        <ele>1830.0068359375</ele>
        <time>2011-10-23T11:47:57Z</time>
      </trkpt>
      <trkpt lat="45.29716" lon="6.04238">
        <ele>1829.0454101562</ele>
        <time>2011-10-23T11:48:04Z</time>
      </trkpt>
      <trkpt lat="45.29716" lon="6.04237">
        <ele>1829.0454101562</ele>
        <time>2011-10-23T11:48:05Z</time>
      </trkpt>
      <trkpt lat="45.29716" lon="6.0423">
        <ele>1828.0842285156</ele>
        <time>2011-10-23T11:48:10Z</time>
      </trkpt>
      <trkpt lat="45.29717" lon="6.04226">
        <ele>1822.31640625</ele>
        <time>2011-10-23T11:48:14Z</time>
      </trkpt>
      <trkpt lat="45.29718" lon="6.04219">
        <ele>1818.4709472656</ele>
        <time>2011-10-23T11:48:19Z</time>
      </trkpt>
      <trkpt lat="45.29718" lon="6.04218">
        <ele>1817.0290527344</ele>
        <time>2011-10-23T11:48:20Z</time>
      </trkpt>
      <trkpt lat="45.29723" lon="6.04213">
        <ele>1810.7805175781</ele>
        <time>2011-10-23T11:48:25Z</time>
      </trkpt>
      <trkpt lat="45.29729" lon="6.04206">
        <ele>1805.4934082031</ele>
        <time>2011-10-23T11:48:31Z</time>
      </trkpt>
      <trkpt lat="45.29741" lon="6.04207">
        <ele>1797.3220214844</ele>
        <time>2011-10-23T11:48:39Z</time>
      </trkpt>
      <trkpt lat="45.29749" lon="6.04196">
        <ele>1793.4768066406</ele>
        <time>2011-10-23T11:48:44Z</time>
      </trkpt>
      <trkpt lat="45.29751" lon="6.04194">
        <ele>1793.4768066406</ele>
        <time>2011-10-23T11:48:45Z</time>
      </trkpt>
      <trkpt lat="45.29757" lon="6.04189">
        <ele>1790.1123046875</ele>
        <time>2011-10-23T11:48:50Z</time>
      </trkpt>
      <trkpt lat="45.29762" lon="6.04186">
        <ele>1787.7087402344</ele>
        <time>2011-10-23T11:48:55Z</time>
      </trkpt>
      <trkpt lat="45.29767" lon="6.04187">
        <ele>1785.7861328125</ele>
        <time>2011-10-23T11:48:59Z</time>
      </trkpt>
      <trkpt lat="45.29771" lon="6.04176">
        <ele>1781.9409179688</ele>
        <time>2011-10-23T11:49:03Z</time>
      </trkpt>
      <trkpt lat="45.29771" lon="6.04165">
        <ele>1781.4602050781</ele>
        <time>2011-10-23T11:49:06Z</time>
      </trkpt>
      <trkpt lat="45.29773" lon="6.04162">
        <ele>1780.4990234375</ele>
        <time>2011-10-23T11:49:09Z</time>
      </trkpt>
      <trkpt lat="45.29774" lon="6.04154">
        <ele>1778.5764160156</ele>
        <time>2011-10-23T11:49:14Z</time>
      </trkpt>
      <trkpt lat="45.29778" lon="6.04152">
        <ele>1776.6538085938</ele>
        <time>2011-10-23T11:49:17Z</time>
      </trkpt>
      <trkpt lat="45.29781" lon="6.04141">
        <ele>1774.2504882812</ele>
        <time>2011-10-23T11:49:23Z</time>
      </trkpt>
      <trkpt lat="45.29778" lon="6.04135">
        <ele>1769.4438476562</ele>
        <time>2011-10-23T11:49:29Z</time>
      </trkpt>
      <trkpt lat="45.29777" lon="6.04134">
        <ele>1768.9631347656</ele>
        <time>2011-10-23T11:49:30Z</time>
      </trkpt>
      <trkpt lat="45.29778" lon="6.04128">
        <ele>1766.5598144531</ele>
        <time>2011-10-23T11:49:34Z</time>
      </trkpt>
      <trkpt lat="45.29778" lon="6.04118">
        <ele>1762.2338867188</ele>
        <time>2011-10-23T11:49:40Z</time>
      </trkpt>
      <trkpt lat="45.29773" lon="6.04107">
        <ele>1758.388671875</ele>
        <time>2011-10-23T11:49:45Z</time>
      </trkpt>
      <trkpt lat="45.29777" lon="6.04094">
        <ele>1755.5046386719</ele>
        <time>2011-10-23T11:49:53Z</time>
      </trkpt>
      <trkpt lat="45.29777" lon="6.04084">
        <ele>1754.0627441406</ele>
        <time>2011-10-23T11:49:57Z</time>
      </trkpt>
      <trkpt lat="45.29776" lon="6.04068">
        <ele>1749.7368164062</ele>
        <time>2011-10-23T11:50:05Z</time>
      </trkpt>
      <trkpt lat="45.29776" lon="6.04063">
        <ele>1748.2946777344</ele>
        <time>2011-10-23T11:50:08Z</time>
      </trkpt>
      <trkpt lat="45.29774" lon="6.04052">
        <ele>1744.9301757812</ele>
        <time>2011-10-23T11:50:14Z</time>
      </trkpt>
      <trkpt lat="45.29774" lon="6.04047">
        <ele>1743.48828125</ele>
        <time>2011-10-23T11:50:17Z</time>
      </trkpt>
      <trkpt lat="45.29766" lon="6.04037">
        <ele>1739.162109375</ele>
        <time>2011-10-23T11:50:23Z</time>
      </trkpt>
      <trkpt lat="45.29765" lon="6.04036">
        <ele>1738.2009277344</ele>
        <time>2011-10-23T11:50:24Z</time>
      </trkpt>
      <trkpt lat="45.29765" lon="6.04022">
        <ele>1734.8364257812</ele>
        <time>2011-10-23T11:50:30Z</time>
      </trkpt>
      <trkpt lat="45.29765" lon="6.0402">
        <ele>1734.3557128906</ele>
        <time>2011-10-23T11:50:31Z</time>
      </trkpt>
      <trkpt lat="45.29759" lon="6.04013">
        <ele>1730.9912109375</ele>
        <time>2011-10-23T11:50:36Z</time>
      </trkpt>
      <trkpt lat="45.29759" lon="6.04014">
        <ele>1730.0297851562</ele>
        <time>2011-10-23T11:50:40Z</time>
      </trkpt>
      <trkpt lat="45.29765" lon="6.04014">
        <ele>1730.5104980469</ele>
        <time>2011-10-23T11:50:45Z</time>
      </trkpt>
      <trkpt lat="45.29766" lon="6.04013">
        <ele>1730.5104980469</ele>
        <time>2011-10-23T11:50:46Z</time>
      </trkpt>
      <trkpt lat="45.29769" lon="6.04011">
        <ele>1730.0297851562</ele>
        <time>2011-10-23T11:50:49Z</time>
      </trkpt>
      <trkpt lat="45.29774" lon="6.04001">
        <ele>1729.5490722656</ele>
        <time>2011-10-23T11:50:56Z</time>
      </trkpt>
      <trkpt lat="45.29776" lon="6.03998">
        <ele>1730.0297851562</ele>
        <time>2011-10-23T11:51:01Z</time>
      </trkpt>
      <trkpt lat="45.29779" lon="6.03992">
        <ele>1730.0297851562</ele>
        <time>2011-10-23T11:51:06Z</time>
      </trkpt>
      <trkpt lat="45.29784" lon="6.0399">
        <ele>1729.5490722656</ele>
        <time>2011-10-23T11:51:11Z</time>
      </trkpt>
      <trkpt lat="45.2979" lon="6.03988">
        <ele>1730.5104980469</ele>
        <time>2011-10-23T11:51:17Z</time>
      </trkpt>
      <trkpt lat="45.29793" lon="6.03983">
        <ele>1730.9912109375</ele>
        <time>2011-10-23T11:51:21Z</time>
      </trkpt>
      <trkpt lat="45.29798" lon="6.03978">
        <ele>1731.4716796875</ele>
        <time>2011-10-23T11:51:25Z</time>
      </trkpt>
      <trkpt lat="45.29805" lon="6.03973">
        <ele>1730.5104980469</ele>
        <time>2011-10-23T11:51:32Z</time>
      </trkpt>
      <trkpt lat="45.29811" lon="6.03971">
        <ele>1729.068359375</ele>
        <time>2011-10-23T11:51:37Z</time>
      </trkpt>
      <trkpt lat="45.29811" lon="6.0397">
        <ele>1730.5104980469</ele>
        <time>2011-10-23T11:51:42Z</time>
      </trkpt>
      <trkpt lat="45.29811" lon="6.0397">
        <ele>1730.9912109375</ele>
        <time>2011-10-23T11:51:44Z</time>
      </trkpt>
      <trkpt lat="45.29814" lon="6.03972">
        <ele>1728.587890625</ele>
        <time>2011-10-23T11:51:50Z</time>
      </trkpt>
      <trkpt lat="45.29816" lon="6.03968">
        <ele>1728.1071777344</ele>
        <time>2011-10-23T11:51:58Z</time>
      </trkpt>
      <trkpt lat="45.29822" lon="6.03965">
        <ele>1728.1071777344</ele>
        <time>2011-10-23T11:52:03Z</time>
      </trkpt>
      <trkpt lat="45.29834" lon="6.03965">
        <ele>1728.1071777344</ele>
        <time>2011-10-23T11:52:11Z</time>
      </trkpt>
      <trkpt lat="45.29842" lon="6.03959">
        <ele>1723.7810058594</ele>
        <time>2011-10-23T11:52:17Z</time>
      </trkpt>
      <trkpt lat="45.29848" lon="6.03954">
        <ele>1721.3776855469</ele>
        <time>2011-10-23T11:52:22Z</time>
      </trkpt>
      <trkpt lat="45.2985" lon="6.03955">
        <ele>1721.3776855469</ele>
        <time>2011-10-23T11:52:23Z</time>
      </trkpt>
      <trkpt lat="45.29867" lon="6.03958">
        <ele>1718.0131835938</ele>
        <time>2011-10-23T11:52:30Z</time>
      </trkpt>
      <trkpt lat="45.29878" lon="6.0396">
        <ele>1718.4938964844</ele>
        <time>2011-10-23T11:52:35Z</time>
      </trkpt>
      <trkpt lat="45.29883" lon="6.03964">
        <ele>1718.0131835938</ele>
        <time>2011-10-23T11:52:39Z</time>
      </trkpt>
      <trkpt lat="45.29889" lon="6.03968">
        <ele>1718.0131835938</ele>
        <time>2011-10-23T11:52:43Z</time>
      </trkpt>
      <trkpt lat="45.29896" lon="6.0397">
        <ele>1717.5324707031</ele>
        <time>2011-10-23T11:52:48Z</time>
      </trkpt>
      <trkpt lat="45.29898" lon="6.03969">
        <ele>1717.5324707031</ele>
        <time>2011-10-23T11:52:53Z</time>
      </trkpt>
      <trkpt lat="45.29903" lon="6.03974">
        <ele>1714.6486816406</ele>
        <time>2011-10-23T11:52:59Z</time>
      </trkpt>
      <trkpt lat="45.29908" lon="6.03977">
        <ele>1713.6872558594</ele>
        <time>2011-10-23T11:53:03Z</time>
      </trkpt>
      <trkpt lat="45.29916" lon="6.03984">
        <ele>1710.8034667969</ele>
        <time>2011-10-23T11:53:08Z</time>
      </trkpt>
      <trkpt lat="45.29921" lon="6.0399">
        <ele>1709.3615722656</ele>
        <time>2011-10-23T11:53:13Z</time>
      </trkpt>
      <trkpt lat="45.29925" lon="6.03994">
        <ele>1708.880859375</ele>
        <time>2011-10-23T11:53:17Z</time>
      </trkpt>
      <trkpt lat="45.29929" lon="6.03996">
        <ele>1709.3615722656</ele>
        <time>2011-10-23T11:53:21Z</time>
      </trkpt>
      <trkpt lat="45.29936" lon="6.04002">
        <ele>1709.3615722656</ele>
        <time>2011-10-23T11:53:25Z</time>
      </trkpt>
      <trkpt lat="45.2994" lon="6.04003">
        <ele>1708.880859375</ele>
        <time>2011-10-23T11:53:29Z</time>
      </trkpt>
      <trkpt lat="45.29938" lon="6.03999">
        <ele>1714.16796875</ele>
        <time>2011-10-23T11:53:41Z</time>
      </trkpt>
      <trkpt lat="45.29949" lon="6.04001">
        <ele>1711.7648925781</ele>
        <time>2011-10-23T11:54:06Z</time>
      </trkpt>
      <trkpt lat="45.29952" lon="6.03999">
        <ele>1711.2841796875</ele>
        <time>2011-10-23T11:54:09Z</time>
      </trkpt>
      <trkpt lat="45.29955" lon="6.03999">
        <ele>1711.2841796875</ele>
        <time>2011-10-23T11:54:13Z</time>
      </trkpt>
      <trkpt lat="45.29958" lon="6.03998">
        <ele>1709.8420410156</ele>
        <time>2011-10-23T11:54:18Z</time>
      </trkpt>
      <trkpt lat="45.29963" lon="6.03997">
        <ele>1706.9580078125</ele>
        <time>2011-10-23T11:54:22Z</time>
      </trkpt>
      <trkpt lat="45.29975" lon="6.03995">
        <ele>1704.5546875</ele>
        <time>2011-10-23T11:54:27Z</time>
      </trkpt>
      <trkpt lat="45.29983" lon="6.03996">
        <ele>1703.1127929688</ele>
        <time>2011-10-23T11:54:31Z</time>
      </trkpt>
      <trkpt lat="45.29992" lon="6.04">
        <ele>1700.7094726562</ele>
        <time>2011-10-23T11:54:35Z</time>
      </trkpt>
      <trkpt lat="45.30008" lon="6.04009">
        <ele>1695.4223632812</ele>
        <time>2011-10-23T11:54:40Z</time>
      </trkpt>
      <trkpt lat="45.30011" lon="6.0401">
        <ele>1695.9030761719</ele>
        <time>2011-10-23T11:54:45Z</time>
      </trkpt>
      <trkpt lat="45.30013" lon="6.04009">
        <ele>1694.9416503906</ele>
        <time>2011-10-23T11:54:49Z</time>
      </trkpt>
      <trkpt lat="45.30016" lon="6.04009">
        <ele>1695.4223632812</ele>
        <time>2011-10-23T11:54:53Z</time>
      </trkpt>
      <trkpt lat="45.30019" lon="6.04011">
        <ele>1694.9416503906</ele>
        <time>2011-10-23T11:54:56Z</time>
      </trkpt>
      <trkpt lat="45.3003" lon="6.04017">
        <ele>1691.0961914062</ele>
        <time>2011-10-23T11:55:02Z</time>
      </trkpt>
      <trkpt lat="45.30035" lon="6.04017">
        <ele>1689.1735839844</ele>
        <time>2011-10-23T11:55:06Z</time>
      </trkpt>
      <trkpt lat="45.30038" lon="6.04012">
        <ele>1689.654296875</ele>
        <time>2011-10-23T11:55:09Z</time>
      </trkpt>
      <trkpt lat="45.30043" lon="6.0401">
        <ele>1687.7316894531</ele>
        <time>2011-10-23T11:55:14Z</time>
      </trkpt>
      <trkpt lat="45.30046" lon="6.04009">
        <ele>1687.2509765625</ele>
        <time>2011-10-23T11:55:16Z</time>
      </trkpt>
      <trkpt lat="45.30052" lon="6.04007">
        <ele>1687.7316894531</ele>
        <time>2011-10-23T11:55:21Z</time>
      </trkpt>
      <trkpt lat="45.30061" lon="6.04002">
        <ele>1687.7316894531</ele>
        <time>2011-10-23T11:55:26Z</time>
      </trkpt>
      <trkpt lat="45.30069" lon="6.03998">
        <ele>1690.1350097656</ele>
        <time>2011-10-23T11:55:34Z</time>
      </trkpt>
      <trkpt lat="45.30071" lon="6.03998">
        <ele>1689.1735839844</ele>
        <time>2011-10-23T11:55:36Z</time>
      </trkpt>
      <trkpt lat="45.30074" lon="6.03994">
        <ele>1690.1350097656</ele>
        <time>2011-10-23T11:55:41Z</time>
      </trkpt>
      <trkpt lat="45.30075" lon="6.03991">
        <ele>1694.9416503906</ele>
        <time>2011-10-23T11:55:43Z</time>
      </trkpt>
      <trkpt lat="45.30083" lon="6.03996">
        <ele>1695.4223632812</ele>
        <time>2011-10-23T11:55:47Z</time>
      </trkpt>
      <trkpt lat="45.30093" lon="6.04003">
        <ele>1692.0578613281</ele>
        <time>2011-10-23T11:55:52Z</time>
      </trkpt>
      <trkpt lat="45.30101" lon="6.04008">
        <ele>1689.654296875</ele>
        <time>2011-10-23T11:55:56Z</time>
      </trkpt>
      <trkpt lat="45.30113" lon="6.0402">
        <ele>1688.6931152344</ele>
        <time>2011-10-23T11:56:00Z</time>
      </trkpt>
      <trkpt lat="45.30118" lon="6.04029">
        <ele>1693.0190429688</ele>
        <time>2011-10-23T11:56:05Z</time>
      </trkpt>
      <trkpt lat="45.3012" lon="6.04033">
        <ele>1691.5769042969</ele>
        <time>2011-10-23T11:56:07Z</time>
      </trkpt>
      <trkpt lat="45.30127" lon="6.04039">
        <ele>1685.3283691406</ele>
        <time>2011-10-23T11:56:12Z</time>
      </trkpt>
      <trkpt lat="45.30128" lon="6.04048">
        <ele>1680.0412597656</ele>
        <time>2011-10-23T11:56:17Z</time>
      </trkpt>
      <trkpt lat="45.30129" lon="6.0405">
        <ele>1679.0798339844</ele>
        <time>2011-10-23T11:56:18Z</time>
      </trkpt>
      <trkpt lat="45.30131" lon="6.04055">
        <ele>1676.1960449219</ele>
        <time>2011-10-23T11:56:22Z</time>
      </trkpt>
      <trkpt lat="45.30133" lon="6.04056">
        <ele>1674.2731933594</ele>
        <time>2011-10-23T11:56:28Z</time>
      </trkpt>
      <trkpt lat="45.30133" lon="6.04061">
        <ele>1673.7924804688</ele>
        <time>2011-10-23T11:56:33Z</time>
      </trkpt>
      <trkpt lat="45.30135" lon="6.04067">
        <ele>1672.3505859375</ele>
        <time>2011-10-23T11:56:38Z</time>
      </trkpt>
      <trkpt lat="45.30141" lon="6.04069">
        <ele>1670.4279785156</ele>
        <time>2011-10-23T11:56:43Z</time>
      </trkpt>
      <trkpt lat="45.30142" lon="6.04065">
        <ele>1672.3505859375</ele>
        <time>2011-10-23T11:56:45Z</time>
      </trkpt>
      <trkpt lat="45.30146" lon="6.04065">
        <ele>1674.75390625</ele>
        <time>2011-10-23T11:56:49Z</time>
      </trkpt>
      <trkpt lat="45.30146" lon="6.04056">
        <ele>1681.9638671875</ele>
        <time>2011-10-23T11:56:59Z</time>
      </trkpt>
      <trkpt lat="45.30147" lon="6.04052">
        <ele>1684.3671875</ele>
        <time>2011-10-23T11:57:02Z</time>
      </trkpt>
      <trkpt lat="45.30154" lon="6.04048">
        <ele>1685.3283691406</ele>
        <time>2011-10-23T11:57:07Z</time>
      </trkpt>
      <trkpt lat="45.30156" lon="6.04047">
        <ele>1688.2124023438</ele>
        <time>2011-10-23T11:57:10Z</time>
      </trkpt>
      <trkpt lat="45.30162" lon="6.04046">
        <ele>1682.9250488281</ele>
        <time>2011-10-23T11:57:16Z</time>
      </trkpt>
      <trkpt lat="45.30167" lon="6.04035">
        <ele>1685.3283691406</ele>
        <time>2011-10-23T11:57:22Z</time>
      </trkpt>
      <trkpt lat="45.30173" lon="6.04037">
        <ele>1681.0026855469</ele>
        <time>2011-10-23T11:57:26Z</time>
      </trkpt>
      <trkpt lat="45.30176" lon="6.04034">
        <ele>1681.4831542969</ele>
        <time>2011-10-23T11:57:31Z</time>
      </trkpt>
      <trkpt lat="45.30183" lon="6.04034">
        <ele>1676.1960449219</ele>
        <time>2011-10-23T11:57:36Z</time>
      </trkpt>
      <trkpt lat="45.30191" lon="6.04037">
        <ele>1665.1408691406</ele>
        <time>2011-10-23T11:57:41Z</time>
      </trkpt>
      <trkpt lat="45.30191" lon="6.04038">
        <ele>1662.2568359375</ele>
        <time>2011-10-23T11:57:50Z</time>
      </trkpt>
      <trkpt lat="45.30192" lon="6.04037">
        <ele>1661.7763671875</ele>
        <time>2011-10-23T11:57:51Z</time>
      </trkpt>
      <trkpt lat="45.302" lon="6.04038">
        <ele>1657.4501953125</ele>
        <time>2011-10-23T11:57:55Z</time>
      </trkpt>
      <trkpt lat="45.30212" lon="6.04031">
        <ele>1653.1242675781</ele>
        <time>2011-10-23T11:58:02Z</time>
      </trkpt>
      <trkpt lat="45.30215" lon="6.04028">
        <ele>1651.2016601562</ele>
        <time>2011-10-23T11:58:04Z</time>
      </trkpt>
      <trkpt lat="45.30221" lon="6.0403">
        <ele>1646.8757324219</ele>
        <time>2011-10-23T11:58:08Z</time>
      </trkpt>
      <trkpt lat="45.30232" lon="6.04031">
        <ele>1640.626953125</ele>
        <time>2011-10-23T11:58:14Z</time>
      </trkpt>
      <trkpt lat="45.30242" lon="6.04026">
        <ele>1633.4172363281</ele>
        <time>2011-10-23T11:58:20Z</time>
      </trkpt>
      <trkpt lat="45.30245" lon="6.04019">
        <ele>1631.4946289062</ele>
        <time>2011-10-23T11:58:24Z</time>
      </trkpt>
      <trkpt lat="45.30251" lon="6.04012">
        <ele>1629.5720214844</ele>
        <time>2011-10-23T11:58:29Z</time>
      </trkpt>
      <trkpt lat="45.30254" lon="6.04011">
        <ele>1630.5334472656</ele>
        <time>2011-10-23T11:58:30Z</time>
      </trkpt>
      <trkpt lat="45.30259" lon="6.04008">
        <ele>1630.5334472656</ele>
        <time>2011-10-23T11:58:34Z</time>
      </trkpt>
      <trkpt lat="45.30264" lon="6.04005">
        <ele>1628.6108398438</ele>
        <time>2011-10-23T11:58:39Z</time>
      </trkpt>
      <trkpt lat="45.30264" lon="6.04005">
        <ele>1628.1301269531</ele>
        <time>2011-10-23T11:58:47Z</time>
      </trkpt>
      <trkpt lat="45.30266" lon="6.04004">
        <ele>1630.052734375</ele>
        <time>2011-10-23T11:58:53Z</time>
      </trkpt>
      <trkpt lat="45.3027" lon="6.04006">
        <ele>1629.0913085938</ele>
        <time>2011-10-23T11:58:56Z</time>
      </trkpt>
      <trkpt lat="45.30277" lon="6.0401">
        <ele>1624.7653808594</ele>
        <time>2011-10-23T11:59:01Z</time>
      </trkpt>
      <trkpt lat="45.30283" lon="6.04008">
        <ele>1620.9201660156</ele>
        <time>2011-10-23T11:59:07Z</time>
      </trkpt>
      <trkpt lat="45.30283" lon="6.04005">
        <ele>1619.9587402344</ele>
        <time>2011-10-23T11:59:10Z</time>
      </trkpt>
      <trkpt lat="45.3029" lon="6.04008">
        <ele>1615.15234375</ele>
        <time>2011-10-23T11:59:13Z</time>
      </trkpt>
      <trkpt lat="45.30297" lon="6.0402">
        <ele>1611.3068847656</ele>
        <time>2011-10-23T11:59:19Z</time>
      </trkpt>
      <trkpt lat="45.303" lon="6.04022">
        <ele>1608.9035644531</ele>
        <time>2011-10-23T11:59:24Z</time>
      </trkpt>
      <trkpt lat="45.30307" lon="6.0403">
        <ele>1606.01953125</ele>
        <time>2011-10-23T11:59:31Z</time>
      </trkpt>
      <trkpt lat="45.30315" lon="6.04035">
        <ele>1603.6164550781</ele>
        <time>2011-10-23T11:59:37Z</time>
      </trkpt>
      <trkpt lat="45.30315" lon="6.04037">
        <ele>1605.5390625</ele>
        <time>2011-10-23T11:59:40Z</time>
      </trkpt>
      <trkpt lat="45.30311" lon="6.04042">
        <ele>1606.01953125</ele>
        <time>2011-10-23T11:59:45Z</time>
      </trkpt>
      <trkpt lat="45.30304" lon="6.04046">
        <ele>1611.3068847656</ele>
        <time>2011-10-23T11:59:50Z</time>
      </trkpt>
      <trkpt lat="45.30297" lon="6.04047">
        <ele>1614.1909179688</ele>
        <time>2011-10-23T11:59:55Z</time>
      </trkpt>
      <trkpt lat="45.30293" lon="6.0405">
        <ele>1622.8427734375</ele>
        <time>2011-10-23T12:00:02Z</time>
      </trkpt>
      <trkpt lat="45.3029" lon="6.04054">
        <ele>1625.2458496094</ele>
        <time>2011-10-23T12:00:07Z</time>
      </trkpt>
      <trkpt lat="45.30288" lon="6.04057">
        <ele>1626.6879882812</ele>
        <time>2011-10-23T12:00:13Z</time>
      </trkpt>
      <trkpt lat="45.30288" lon="6.04061">
        <ele>1624.2846679688</ele>
        <time>2011-10-23T12:00:20Z</time>
      </trkpt>
      <trkpt lat="45.3029" lon="6.04065">
        <ele>1622.8427734375</ele>
        <time>2011-10-23T12:00:25Z</time>
      </trkpt>
      <trkpt lat="45.30281" lon="6.04071">
        <ele>1630.052734375</ele>
        <time>2011-10-23T12:00:42Z</time>
      </trkpt>
      <trkpt lat="45.3028" lon="6.04077">
        <ele>1630.052734375</ele>
        <time>2011-10-23T12:00:55Z</time>
      </trkpt>
      <trkpt lat="45.30277" lon="6.04083">
        <ele>1631.4946289062</ele>
        <time>2011-10-23T12:01:05Z</time>
      </trkpt>
      <trkpt lat="45.30272" lon="6.04082">
        <ele>1630.052734375</ele>
        <time>2011-10-23T12:01:18Z</time>
      </trkpt>
      <trkpt lat="45.30272" lon="6.04082">
        <ele>1629.0913085938</ele>
        <time>2011-10-23T12:01:19Z</time>
      </trkpt>
      <trkpt lat="45.30268" lon="6.04074">
        <ele>1628.1301269531</ele>
        <time>2011-10-23T12:01:23Z</time>
      </trkpt>
      <trkpt lat="45.30269" lon="6.04075">
        <ele>1629.0913085938</ele>
        <time>2011-10-23T12:01:28Z</time>
      </trkpt>
      <trkpt lat="45.30276" lon="6.04076">
        <ele>1629.5720214844</ele>
        <time>2011-10-23T12:01:45Z</time>
      </trkpt>
      <trkpt lat="45.30278" lon="6.04072">
        <ele>1631.4946289062</ele>
        <time>2011-10-23T12:01:52Z</time>
      </trkpt>
      <trkpt lat="45.30278" lon="6.04069">
        <ele>1630.5334472656</ele>
        <time>2011-10-23T12:01:57Z</time>
      </trkpt>
      <trkpt lat="45.30289" lon="6.04064">
        <ele>1620.9201660156</ele>
        <time>2011-10-23T12:02:10Z</time>
      </trkpt>
      <trkpt lat="45.30291" lon="6.04055">
        <ele>1618.5168457031</ele>
        <time>2011-10-23T12:02:16Z</time>
      </trkpt>
      <trkpt lat="45.30292" lon="6.04047">
        <ele>1618.0361328125</ele>
        <time>2011-10-23T12:02:20Z</time>
      </trkpt>
      <trkpt lat="45.30295" lon="6.04046">
        <ele>1617.0749511719</ele>
        <time>2011-10-23T12:02:23Z</time>
      </trkpt>
      <trkpt lat="45.30297" lon="6.04042">
        <ele>1614.6716308594</ele>
        <time>2011-10-23T12:02:27Z</time>
      </trkpt>
      <trkpt lat="45.30304" lon="6.04038">
        <ele>1610.826171875</ele>
        <time>2011-10-23T12:02:31Z</time>
      </trkpt>
      <trkpt lat="45.30307" lon="6.04034">
        <ele>1611.3068847656</ele>
        <time>2011-10-23T12:02:35Z</time>
      </trkpt>
      <trkpt lat="45.30313" lon="6.04031">
        <ele>1614.6716308594</ele>
        <time>2011-10-23T12:02:40Z</time>
      </trkpt>
      <trkpt lat="45.3033" lon="6.04038">
        <ele>1605.5390625</ele>
        <time>2011-10-23T12:02:50Z</time>
      </trkpt>
      <trkpt lat="45.30331" lon="6.04039">
        <ele>1606.01953125</ele>
        <time>2011-10-23T12:02:55Z</time>
      </trkpt>
      <trkpt lat="45.30335" lon="6.04041">
        <ele>1620.439453125</ele>
        <time>2011-10-23T12:03:20Z</time>
      </trkpt>
      <trkpt lat="45.30333" lon="6.04045">
        <ele>1621.4006347656</ele>
        <time>2011-10-23T12:03:24Z</time>
      </trkpt>
      <trkpt lat="45.30335" lon="6.04045">
        <ele>1623.8039550781</ele>
        <time>2011-10-23T12:03:31Z</time>
      </trkpt>
      <trkpt lat="45.30342" lon="6.04046">
        <ele>1626.2072753906</ele>
        <time>2011-10-23T12:03:41Z</time>
      </trkpt>
      <trkpt lat="45.30354" lon="6.04048">
        <ele>1620.9201660156</ele>
        <time>2011-10-23T12:03:47Z</time>
      </trkpt>
      <trkpt lat="45.30365" lon="6.04039">
        <ele>1625.2458496094</ele>
        <time>2011-10-23T12:04:04Z</time>
      </trkpt>
      <trkpt lat="45.30371" lon="6.0403">
        <ele>1632.4560546875</ele>
        <time>2011-10-23T12:04:22Z</time>
      </trkpt>
      <trkpt lat="45.30376" lon="6.04031">
        <ele>1632.4560546875</ele>
        <time>2011-10-23T12:04:27Z</time>
      </trkpt>
      <trkpt lat="45.30383" lon="6.0403">
        <ele>1632.9365234375</ele>
        <time>2011-10-23T12:04:35Z</time>
      </trkpt>
      <trkpt lat="45.30384" lon="6.04018">
        <ele>1640.626953125</ele>
        <time>2011-10-23T12:04:51Z</time>
      </trkpt>
      <trkpt lat="45.30407" lon="6.04015">
        <ele>1632.4560546875</ele>
        <time>2011-10-23T12:05:22Z</time>
      </trkpt>
      <trkpt lat="45.30409" lon="6.04015">
        <ele>1632.4560546875</ele>
        <time>2011-10-23T12:05:24Z</time>
      </trkpt>
      <trkpt lat="45.30415" lon="6.04012">
        <ele>1633.8979492188</ele>
        <time>2011-10-23T12:05:33Z</time>
      </trkpt>
      <trkpt lat="45.30419" lon="6.04009">
        <ele>1635.8205566406</ele>
        <time>2011-10-23T12:05:39Z</time>
      </trkpt>
      <trkpt lat="45.30421" lon="6.04006">
        <ele>1637.7431640625</ele>
        <time>2011-10-23T12:05:44Z</time>
      </trkpt>
      <trkpt lat="45.30424" lon="6.03998">
        <ele>1645.9145507812</ele>
        <time>2011-10-23T12:05:55Z</time>
      </trkpt>
      <trkpt lat="45.30427" lon="6.04">
        <ele>1645.4338378906</ele>
        <time>2011-10-23T12:05:59Z</time>
      </trkpt>
      <trkpt lat="45.30434" lon="6.03997">
        <ele>1646.3952636719</ele>
        <time>2011-10-23T12:06:08Z</time>
      </trkpt>
      <trkpt lat="45.30439" lon="6.03995">
        <ele>1646.3952636719</ele>
        <time>2011-10-23T12:06:14Z</time>
      </trkpt>
      <trkpt lat="45.30441" lon="6.03992">
        <ele>1651.6823730469</ele>
        <time>2011-10-23T12:06:20Z</time>
      </trkpt>
      <trkpt lat="45.30443" lon="6.03994">
        <ele>1650.7209472656</ele>
        <time>2011-10-23T12:06:22Z</time>
      </trkpt>
      <trkpt lat="45.30449" lon="6.03993">
        <ele>1651.6823730469</ele>
        <time>2011-10-23T12:06:30Z</time>
      </trkpt>
      <trkpt lat="45.30449" lon="6.03991">
        <ele>1653.1242675781</ele>
        <time>2011-10-23T12:06:31Z</time>
      </trkpt>
      <trkpt lat="45.30451" lon="6.03982">
        <ele>1663.2182617188</ele>
        <time>2011-10-23T12:06:42Z</time>
      </trkpt>
      <trkpt lat="45.30463" lon="6.03985">
        <ele>1662.7375488281</ele>
        <time>2011-10-23T12:07:00Z</time>
      </trkpt>
      <trkpt lat="45.30472" lon="6.03991">
        <ele>1661.2956542969</ele>
        <time>2011-10-23T12:07:06Z</time>
      </trkpt>
      <trkpt lat="45.30476" lon="6.03996">
        <ele>1665.1408691406</ele>
        <time>2011-10-23T12:07:13Z</time>
      </trkpt>
      <trkpt lat="45.30481" lon="6.04003">
        <ele>1664.66015625</ele>
        <time>2011-10-23T12:07:18Z</time>
      </trkpt>
      <trkpt lat="45.30488" lon="6.04009">
        <ele>1664.1794433594</ele>
        <time>2011-10-23T12:07:24Z</time>
      </trkpt>
      <trkpt lat="45.30491" lon="6.04011">
        <ele>1668.0246582031</ele>
        <time>2011-10-23T12:07:28Z</time>
      </trkpt>
      <trkpt lat="45.30505" lon="6.04019">
        <ele>1663.6987304688</ele>
        <time>2011-10-23T12:07:34Z</time>
      </trkpt>
      <trkpt lat="45.30512" lon="6.04027">
        <ele>1663.6987304688</ele>
        <time>2011-10-23T12:07:39Z</time>
      </trkpt>
      <trkpt lat="45.30516" lon="6.04031">
        <ele>1664.1794433594</ele>
        <time>2011-10-23T12:07:43Z</time>
      </trkpt>
      <trkpt lat="45.30523" lon="6.04036">
        <ele>1665.1408691406</ele>
        <time>2011-10-23T12:07:48Z</time>
      </trkpt>
      <trkpt lat="45.30531" lon="6.04048">
        <ele>1661.7763671875</ele>
        <time>2011-10-23T12:07:56Z</time>
      </trkpt>
      <trkpt lat="45.30534" lon="6.04053">
        <ele>1659.8532714844</ele>
        <time>2011-10-23T12:08:00Z</time>
      </trkpt>
      <trkpt lat="45.30549" lon="6.04076">
        <ele>1666.1020507812</ele>
        <time>2011-10-23T12:08:28Z</time>
      </trkpt>
      <trkpt lat="45.30548" lon="6.04077">
        <ele>1667.0634765625</ele>
        <time>2011-10-23T12:08:32Z</time>
      </trkpt>
      <trkpt lat="45.30553" lon="6.04084">
        <ele>1660.8149414062</ele>
        <time>2011-10-23T12:08:37Z</time>
      </trkpt>
      <trkpt lat="45.30558" lon="6.04089">
        <ele>1659.3728027344</ele>
        <time>2011-10-23T12:08:43Z</time>
      </trkpt>
      <trkpt lat="45.3056" lon="6.04092">
        <ele>1657.9309082031</ele>
        <time>2011-10-23T12:08:46Z</time>
      </trkpt>
      <trkpt lat="45.30561" lon="6.04096">
        <ele>1662.7375488281</ele>
        <time>2011-10-23T12:08:53Z</time>
      </trkpt>
      <trkpt lat="45.30563" lon="6.04098">
        <ele>1665.6215820312</ele>
        <time>2011-10-23T12:08:57Z</time>
      </trkpt>
      <trkpt lat="45.30575" lon="6.04101">
        <ele>1685.3283691406</ele>
        <time>2011-10-23T12:09:20Z</time>
      </trkpt>
      <trkpt lat="45.30581" lon="6.04106">
        <ele>1685.3283691406</ele>
        <time>2011-10-23T12:09:26Z</time>
      </trkpt>
      <trkpt lat="45.3059" lon="6.04116">
        <ele>1679.560546875</ele>
        <time>2011-10-23T12:09:32Z</time>
      </trkpt>
      <trkpt lat="45.30597" lon="6.04122">
        <ele>1674.75390625</ele>
        <time>2011-10-23T12:09:36Z</time>
      </trkpt>
      <trkpt lat="45.30602" lon="6.04131">
        <ele>1671.3891601562</ele>
        <time>2011-10-23T12:09:41Z</time>
      </trkpt>
      <trkpt lat="45.30607" lon="6.04139">
        <ele>1669.466796875</ele>
        <time>2011-10-23T12:09:47Z</time>
      </trkpt>
      <trkpt lat="45.30611" lon="6.04145">
        <ele>1670.4279785156</ele>
        <time>2011-10-23T12:09:53Z</time>
      </trkpt>
      <trkpt lat="45.30614" lon="6.04149">
        <ele>1666.5827636719</ele>
        <time>2011-10-23T12:09:55Z</time>
      </trkpt>
      <trkpt lat="45.30614" lon="6.04155">
        <ele>1671.3891601562</ele>
        <time>2011-10-23T12:10:00Z</time>
      </trkpt>
      <trkpt lat="45.30616" lon="6.04162">
        <ele>1676.1960449219</ele>
        <time>2011-10-23T12:10:05Z</time>
      </trkpt>
      <trkpt lat="45.30621" lon="6.04169">
        <ele>1680.0412597656</ele>
        <time>2011-10-23T12:10:09Z</time>
      </trkpt>
      <trkpt lat="45.30622" lon="6.0417">
        <ele>1681.4831542969</ele>
        <time>2011-10-23T12:10:11Z</time>
      </trkpt>
      <trkpt lat="45.30627" lon="6.04175">
        <ele>1682.9250488281</ele>
        <time>2011-10-23T12:10:15Z</time>
      </trkpt>
      <trkpt lat="45.3063" lon="6.04184">
        <ele>1688.6931152344</ele>
        <time>2011-10-23T12:10:22Z</time>
      </trkpt>
      <trkpt lat="45.30638" lon="6.04191">
        <ele>1686.7702636719</ele>
        <time>2011-10-23T12:10:27Z</time>
      </trkpt>
      <trkpt lat="45.30642" lon="6.04197">
        <ele>1686.7702636719</ele>
        <time>2011-10-23T12:10:31Z</time>
      </trkpt>
      <trkpt lat="45.30643" lon="6.04203">
        <ele>1687.7316894531</ele>
        <time>2011-10-23T12:10:36Z</time>
      </trkpt>
      <trkpt lat="45.30647" lon="6.04213">
        <ele>1686.7702636719</ele>
        <time>2011-10-23T12:10:43Z</time>
      </trkpt>
      <trkpt lat="45.3065" lon="6.04219">
        <ele>1685.8090820312</ele>
        <time>2011-10-23T12:10:47Z</time>
      </trkpt>
      <trkpt lat="45.30653" lon="6.04227">
        <ele>1685.3283691406</ele>
        <time>2011-10-23T12:10:52Z</time>
      </trkpt>
      <trkpt lat="45.30652" lon="6.04228">
        <ele>1684.3671875</ele>
        <time>2011-10-23T12:10:53Z</time>
      </trkpt>
      <trkpt lat="45.30653" lon="6.04237">
        <ele>1683.4057617188</ele>
        <time>2011-10-23T12:10:58Z</time>
      </trkpt>
      <trkpt lat="45.30653" lon="6.04244">
        <ele>1681.9638671875</ele>
        <time>2011-10-23T12:11:02Z</time>
      </trkpt>
      <trkpt lat="45.30654" lon="6.04249">
        <ele>1681.9638671875</ele>
        <time>2011-10-23T12:11:06Z</time>
      </trkpt>
      <trkpt lat="45.30657" lon="6.04257">
        <ele>1680.5219726562</ele>
        <time>2011-10-23T12:11:11Z</time>
      </trkpt>
      <trkpt lat="45.30659" lon="6.04273">
        <ele>1680.0412597656</ele>
        <time>2011-10-23T12:11:19Z</time>
      </trkpt>
      <trkpt lat="45.30661" lon="6.04285">
        <ele>1682.4445800781</ele>
        <time>2011-10-23T12:11:26Z</time>
      </trkpt>
      <trkpt lat="45.30664" lon="6.04297">
        <ele>1681.0026855469</ele>
        <time>2011-10-23T12:11:33Z</time>
      </trkpt>
      <trkpt lat="45.30664" lon="6.04302">
        <ele>1683.4057617188</ele>
        <time>2011-10-23T12:11:36Z</time>
      </trkpt>
      <trkpt lat="45.30665" lon="6.04309">
        <ele>1684.3671875</ele>
        <time>2011-10-23T12:11:41Z</time>
      </trkpt>
      <trkpt lat="45.30664" lon="6.04314">
        <ele>1685.3283691406</ele>
        <time>2011-10-23T12:11:44Z</time>
      </trkpt>
      <trkpt lat="45.30667" lon="6.04327">
        <ele>1690.1350097656</ele>
        <time>2011-10-23T12:11:51Z</time>
      </trkpt>
      <trkpt lat="45.30668" lon="6.04331">
        <ele>1691.0961914062</ele>
        <time>2011-10-23T12:11:54Z</time>
      </trkpt>
      <trkpt lat="45.30676" lon="6.04345">
        <ele>1693.4997558594</ele>
        <time>2011-10-23T12:12:02Z</time>
      </trkpt>
      <trkpt lat="45.30679" lon="6.04355">
        <ele>1694.9416503906</ele>
        <time>2011-10-23T12:12:08Z</time>
      </trkpt>
      <trkpt lat="45.30679" lon="6.04357">
        <ele>1694.9416503906</ele>
        <time>2011-10-23T12:12:09Z</time>
      </trkpt>
      <trkpt lat="45.3068" lon="6.04368">
        <ele>1696.3837890625</ele>
        <time>2011-10-23T12:12:16Z</time>
      </trkpt>
      <trkpt lat="45.30684" lon="6.04379">
        <ele>1696.8642578125</ele>
        <time>2011-10-23T12:12:23Z</time>
      </trkpt>
      <trkpt lat="45.30685" lon="6.0438">
        <ele>1696.8642578125</ele>
        <time>2011-10-23T12:12:24Z</time>
      </trkpt>
      <trkpt lat="45.30688" lon="6.04388">
        <ele>1696.3837890625</ele>
        <time>2011-10-23T12:12:28Z</time>
      </trkpt>
      <trkpt lat="45.30693" lon="6.04401">
        <ele>1695.9030761719</ele>
        <time>2011-10-23T12:12:36Z</time>
      </trkpt>
      <trkpt lat="45.30696" lon="6.04409">
        <ele>1698.3061523438</ele>
        <time>2011-10-23T12:12:42Z</time>
      </trkpt>
      <trkpt lat="45.30698" lon="6.04414">
        <ele>1697.8256835938</ele>
        <time>2011-10-23T12:12:46Z</time>
      </trkpt>
      <trkpt lat="45.307" lon="6.04417">
        <ele>1699.267578125</ele>
        <time>2011-10-23T12:12:49Z</time>
      </trkpt>
      <trkpt lat="45.30701" lon="6.04428">
        <ele>1703.5935058594</ele>
        <time>2011-10-23T12:12:55Z</time>
      </trkpt>
      <trkpt lat="45.3071" lon="6.04437">
        <ele>1702.1513671875</ele>
        <time>2011-10-23T12:13:01Z</time>
      </trkpt>
      <trkpt lat="45.30716" lon="6.04448">
        <ele>1700.7094726562</ele>
        <time>2011-10-23T12:13:07Z</time>
      </trkpt>
      <trkpt lat="45.3072" lon="6.04456">
        <ele>1701.6708984375</ele>
        <time>2011-10-23T12:13:12Z</time>
      </trkpt>
      <trkpt lat="45.30722" lon="6.0446">
        <ele>1700.7094726562</ele>
        <time>2011-10-23T12:13:16Z</time>
      </trkpt>
      <trkpt lat="45.30723" lon="6.04463">
        <ele>1703.5935058594</ele>
        <time>2011-10-23T12:13:21Z</time>
      </trkpt>
      <trkpt lat="45.30728" lon="6.04472">
        <ele>1703.5935058594</ele>
        <time>2011-10-23T12:13:27Z</time>
      </trkpt>
      <trkpt lat="45.3073" lon="6.04477">
        <ele>1705.0354003906</ele>
        <time>2011-10-23T12:13:31Z</time>
      </trkpt>
      <trkpt lat="45.30734" lon="6.04483">
        <ele>1706.9580078125</ele>
        <time>2011-10-23T12:13:36Z</time>
      </trkpt>
      <trkpt lat="45.30741" lon="6.0449">
        <ele>1707.9194335938</ele>
        <time>2011-10-23T12:13:42Z</time>
      </trkpt>
      <trkpt lat="45.30746" lon="6.04496">
        <ele>1707.9194335938</ele>
        <time>2011-10-23T12:13:47Z</time>
      </trkpt>
      <trkpt lat="45.30749" lon="6.04507">
        <ele>1706.9580078125</ele>
        <time>2011-10-23T12:13:53Z</time>
      </trkpt>
      <trkpt lat="45.30751" lon="6.04511">
        <ele>1705.9965820312</ele>
        <time>2011-10-23T12:13:55Z</time>
      </trkpt>
      <trkpt lat="45.30755" lon="6.04521">
        <ele>1705.5161132812</ele>
        <time>2011-10-23T12:14:02Z</time>
      </trkpt>
      <trkpt lat="45.30758" lon="6.04524">
        <ele>1705.9965820312</ele>
        <time>2011-10-23T12:14:04Z</time>
      </trkpt>
      <trkpt lat="45.30762" lon="6.04533">
        <ele>1708.4001464844</ele>
        <time>2011-10-23T12:14:10Z</time>
      </trkpt>
      <trkpt lat="45.30763" lon="6.04536">
        <ele>1708.880859375</ele>
        <time>2011-10-23T12:14:13Z</time>
      </trkpt>
      <trkpt lat="45.30763" lon="6.04538">
        <ele>1709.8420410156</ele>
        <time>2011-10-23T12:14:14Z</time>
      </trkpt>
      <trkpt lat="45.30765" lon="6.04543">
        <ele>1711.2841796875</ele>
        <time>2011-10-23T12:14:18Z</time>
      </trkpt>
      <trkpt lat="45.30772" lon="6.04557">
        <ele>1714.6486816406</ele>
        <time>2011-10-23T12:14:24Z</time>
      </trkpt>
      <trkpt lat="45.30772" lon="6.0456">
        <ele>1716.5712890625</ele>
        <time>2011-10-23T12:14:25Z</time>
      </trkpt>
      <trkpt lat="45.30781" lon="6.04583">
        <ele>1719.4553222656</ele>
        <time>2011-10-23T12:14:33Z</time>
      </trkpt>
      <trkpt lat="45.30788" lon="6.04592">
        <ele>1720.8972167969</ele>
        <time>2011-10-23T12:14:39Z</time>
      </trkpt>
      <trkpt lat="45.30791" lon="6.04595">
        <ele>1721.3776855469</ele>
        <time>2011-10-23T12:14:42Z</time>
      </trkpt>
      <trkpt lat="45.30795" lon="6.04598">
        <ele>1720.4165039062</ele>
        <time>2011-10-23T12:14:45Z</time>
      </trkpt>
      <trkpt lat="45.30806" lon="6.04606">
        <ele>1721.8583984375</ele>
        <time>2011-10-23T12:14:50Z</time>
      </trkpt>
      <trkpt lat="45.30811" lon="6.04611">
        <ele>1722.3391113281</ele>
        <time>2011-10-23T12:14:54Z</time>
      </trkpt>
      <trkpt lat="45.30819" lon="6.04616">
        <ele>1724.7426757812</ele>
        <time>2011-10-23T12:15:00Z</time>
      </trkpt>
      <trkpt lat="45.30823" lon="6.04625">
        <ele>1725.7038574219</ele>
        <time>2011-10-23T12:15:06Z</time>
      </trkpt>
      <trkpt lat="45.3083" lon="6.04634">
        <ele>1722.3391113281</ele>
        <time>2011-10-23T12:15:12Z</time>
      </trkpt>
      <trkpt lat="45.3083" lon="6.04637">
        <ele>1723.3005371094</ele>
        <time>2011-10-23T12:15:16Z</time>
      </trkpt>
      <trkpt lat="45.30834" lon="6.04639">
        <ele>1724.7426757812</ele>
        <time>2011-10-23T12:15:27Z</time>
      </trkpt>
      <trkpt lat="45.30834" lon="6.04643">
        <ele>1723.7810058594</ele>
        <time>2011-10-23T12:15:35Z</time>
      </trkpt>
      <trkpt lat="45.30842" lon="6.04642">
        <ele>1720.4165039062</ele>
        <time>2011-10-23T12:15:51Z</time>
      </trkpt>
      <trkpt lat="45.30841" lon="6.04642">
        <ele>1720.4165039062</ele>
        <time>2011-10-23T12:16:22Z</time>
      </trkpt>
      <trkpt lat="45.30843" lon="6.04638">
        <ele>1716.0905761719</ele>
        <time>2011-10-23T12:16:46Z</time>
      </trkpt>
      <trkpt lat="45.30839" lon="6.04632">
        <ele>1727.1459960938</ele>
        <time>2011-10-23T12:16:58Z</time>
      </trkpt>
      <trkpt lat="45.30837" lon="6.04633">
        <ele>1724.7426757812</ele>
        <time>2011-10-23T12:17:05Z</time>
      </trkpt>
      <trkpt lat="45.30836" lon="6.0463">
        <ele>1721.8583984375</ele>
        <time>2011-10-23T12:17:09Z</time>
      </trkpt>
      <trkpt lat="45.30838" lon="6.04624">
        <ele>1718.0131835938</ele>
        <time>2011-10-23T12:17:14Z</time>
      </trkpt>
      <trkpt lat="45.3084" lon="6.04623">
        <ele>1716.5712890625</ele>
        <time>2011-10-23T12:17:24Z</time>
      </trkpt>
      <trkpt lat="45.3084" lon="6.04619">
        <ele>1716.5712890625</ele>
        <time>2011-10-23T12:17:28Z</time>
      </trkpt>
      <trkpt lat="45.3084" lon="6.04615">
        <ele>1716.0905761719</ele>
        <time>2011-10-23T12:17:32Z</time>
      </trkpt>
      <trkpt lat="45.30839" lon="6.04613">
        <ele>1716.5712890625</ele>
        <time>2011-10-23T12:17:34Z</time>
      </trkpt>
      <trkpt lat="45.30841" lon="6.04632">
        <ele>1716.5712890625</ele>
        <time>2011-10-23T12:17:40Z</time>
      </trkpt>
      <trkpt lat="45.30846" lon="6.04639">
        <ele>1715.6101074219</ele>
        <time>2011-10-23T12:17:45Z</time>
      </trkpt>
      <trkpt lat="45.30846" lon="6.0464">
        <ele>1716.0905761719</ele>
        <time>2011-10-23T12:17:46Z</time>
      </trkpt>
      <trkpt lat="45.30851" lon="6.04648">
        <ele>1716.5712890625</ele>
        <time>2011-10-23T12:17:51Z</time>
      </trkpt>
      <trkpt lat="45.30854" lon="6.04654">
        <ele>1717.0520019531</ele>
        <time>2011-10-23T12:17:54Z</time>
      </trkpt>
      <trkpt lat="45.30857" lon="6.04659">
        <ele>1718.4938964844</ele>
        <time>2011-10-23T12:17:59Z</time>
      </trkpt>
      <trkpt lat="45.30861" lon="6.04663">
        <ele>1720.4165039062</ele>
        <time>2011-10-23T12:18:04Z</time>
      </trkpt>
      <trkpt lat="45.30865" lon="6.04664">
        <ele>1720.8972167969</ele>
        <time>2011-10-23T12:18:09Z</time>
      </trkpt>
      <trkpt lat="45.30866" lon="6.04664">
        <ele>1720.8972167969</ele>
        <time>2011-10-23T12:18:10Z</time>
      </trkpt>
      <trkpt lat="45.30873" lon="6.04664">
        <ele>1720.8972167969</ele>
        <time>2011-10-23T12:18:15Z</time>
      </trkpt>
      <trkpt lat="45.30877" lon="6.04665">
        <ele>1722.3391113281</ele>
        <time>2011-10-23T12:18:19Z</time>
      </trkpt>
      <trkpt lat="45.30881" lon="6.04662">
        <ele>1724.7426757812</ele>
        <time>2011-10-23T12:18:26Z</time>
      </trkpt>
      <trkpt lat="45.30887" lon="6.04655">
        <ele>1730.9912109375</ele>
        <time>2011-10-23T12:19:02Z</time>
      </trkpt>
      <trkpt lat="45.30888" lon="6.04653">
        <ele>1731.4716796875</ele>
        <time>2011-10-23T12:19:09Z</time>
      </trkpt>
      <trkpt lat="45.30892" lon="6.04652">
        <ele>1730.9912109375</ele>
        <time>2011-10-23T12:19:13Z</time>
      </trkpt>
      <trkpt lat="45.30894" lon="6.04647">
        <ele>1729.5490722656</ele>
        <time>2011-10-23T12:19:19Z</time>
      </trkpt>
      <trkpt lat="45.30899" lon="6.0464">
        <ele>1727.1459960938</ele>
        <time>2011-10-23T12:19:25Z</time>
      </trkpt>
      <trkpt lat="45.30904" lon="6.04639">
        <ele>1720.4165039062</ele>
        <time>2011-10-23T12:19:30Z</time>
      </trkpt>
      <trkpt lat="45.30909" lon="6.04641">
        <ele>1715.6101074219</ele>
        <time>2011-10-23T12:19:34Z</time>
      </trkpt>
      <trkpt lat="45.30914" lon="6.04638">
        <ele>1713.2067871094</ele>
        <time>2011-10-23T12:19:43Z</time>
      </trkpt>
      <trkpt lat="45.30914" lon="6.04638">
        <ele>1713.2067871094</ele>
        <time>2011-10-23T12:19:48Z</time>
      </trkpt>
      <trkpt lat="45.30912" lon="6.04637">
        <ele>1714.6486816406</ele>
        <time>2011-10-23T12:19:50Z</time>
      </trkpt>
      <trkpt lat="45.30911" lon="6.0463">
        <ele>1721.3776855469</ele>
        <time>2011-10-23T12:19:54Z</time>
      </trkpt>
      <trkpt lat="45.3091" lon="6.04624">
        <ele>1722.8198242188</ele>
        <time>2011-10-23T12:19:58Z</time>
      </trkpt>
      <trkpt lat="45.30909" lon="6.0462">
        <ele>1723.7810058594</ele>
        <time>2011-10-23T12:20:01Z</time>
      </trkpt>
      <trkpt lat="45.30906" lon="6.0461">
        <ele>1725.7038574219</ele>
        <time>2011-10-23T12:20:05Z</time>
      </trkpt>
      <trkpt lat="45.30907" lon="6.04604">
        <ele>1727.6264648438</ele>
        <time>2011-10-23T12:20:10Z</time>
      </trkpt>
      <trkpt lat="45.3091" lon="6.04601">
        <ele>1726.1845703125</ele>
        <time>2011-10-23T12:20:13Z</time>
      </trkpt>
      <trkpt lat="45.30912" lon="6.04599">
        <ele>1725.7038574219</ele>
        <time>2011-10-23T12:20:15Z</time>
      </trkpt>
      <trkpt lat="45.30913" lon="6.04596">
        <ele>1722.3391113281</ele>
        <time>2011-10-23T12:20:20Z</time>
      </trkpt>
      <trkpt lat="45.30912" lon="6.04594">
        <ele>1722.3391113281</ele>
        <time>2011-10-23T12:20:21Z</time>
      </trkpt>
      <trkpt lat="45.30912" lon="6.04589">
        <ele>1720.8972167969</ele>
        <time>2011-10-23T12:20:25Z</time>
      </trkpt>
      <trkpt lat="45.30913" lon="6.04586">
        <ele>1718.4938964844</ele>
        <time>2011-10-23T12:20:29Z</time>
      </trkpt>
      <trkpt lat="45.30912" lon="6.04584">
        <ele>1719.4553222656</ele>
        <time>2011-10-23T12:20:31Z</time>
      </trkpt>
      <trkpt lat="45.30914" lon="6.04579">
        <ele>1720.4165039062</ele>
        <time>2011-10-23T12:20:37Z</time>
      </trkpt>
      <trkpt lat="45.30912" lon="6.04576">
        <ele>1718.4938964844</ele>
        <time>2011-10-23T12:20:44Z</time>
      </trkpt>
      <trkpt lat="45.3091" lon="6.04578">
        <ele>1712.7260742188</ele>
        <time>2011-10-23T12:20:51Z</time>
      </trkpt>
      <trkpt lat="45.30906" lon="6.04578">
        <ele>1714.6486816406</ele>
        <time>2011-10-23T12:21:00Z</time>
      </trkpt>
      <trkpt lat="45.30903" lon="6.04573">
        <ele>1715.6101074219</ele>
        <time>2011-10-23T12:21:05Z</time>
      </trkpt>
      <trkpt lat="45.30903" lon="6.04571">
        <ele>1716.0905761719</ele>
        <time>2011-10-23T12:21:10Z</time>
      </trkpt>
      <trkpt lat="45.309" lon="6.04571">
        <ele>1716.0905761719</ele>
        <time>2011-10-23T12:21:15Z</time>
      </trkpt>
      <trkpt lat="45.30898" lon="6.04572">
        <ele>1713.6872558594</ele>
        <time>2011-10-23T12:21:20Z</time>
      </trkpt>
      <trkpt lat="45.30898" lon="6.04573">
        <ele>1713.2067871094</ele>
        <time>2011-10-23T12:21:22Z</time>
      </trkpt>
      <trkpt lat="45.30895" lon="6.04572">
        <ele>1710.8034667969</ele>
        <time>2011-10-23T12:21:28Z</time>
      </trkpt>
      <trkpt lat="45.30893" lon="6.04571">
        <ele>1708.4001464844</ele>
        <time>2011-10-23T12:21:31Z</time>
      </trkpt>
      <trkpt lat="45.30891" lon="6.04568">
        <ele>1704.07421875</ele>
        <time>2011-10-23T12:21:36Z</time>
      </trkpt>
      <trkpt lat="45.30894" lon="6.04567">
        <ele>1700.2290039062</ele>
        <time>2011-10-23T12:21:39Z</time>
      </trkpt>
      <trkpt lat="45.30892" lon="6.04565">
        <ele>1698.7868652344</ele>
        <time>2011-10-23T12:21:47Z</time>
      </trkpt>
      <trkpt lat="45.30882" lon="6.04565">
        <ele>1698.3061523438</ele>
        <time>2011-10-23T12:21:52Z</time>
      </trkpt>
      <trkpt lat="45.30877" lon="6.04566">
        <ele>1701.1901855469</ele>
        <time>2011-10-23T12:21:56Z</time>
      </trkpt>
      <trkpt lat="45.3088" lon="6.04563">
        <ele>1696.3837890625</ele>
        <time>2011-10-23T12:22:05Z</time>
      </trkpt>
      <trkpt lat="45.30884" lon="6.04559">
        <ele>1694.9416503906</ele>
        <time>2011-10-23T12:22:10Z</time>
      </trkpt>
      <trkpt lat="45.30885" lon="6.04559">
        <ele>1694.9416503906</ele>
        <time>2011-10-23T12:22:11Z</time>
      </trkpt>
      <trkpt lat="45.30893" lon="6.04555">
        <ele>1695.4223632812</ele>
        <time>2011-10-23T12:22:17Z</time>
      </trkpt>
      <trkpt lat="45.30898" lon="6.04554">
        <ele>1693.4997558594</ele>
        <time>2011-10-23T12:22:21Z</time>
      </trkpt>
      <trkpt lat="45.30902" lon="6.0455">
        <ele>1695.4223632812</ele>
        <time>2011-10-23T12:22:27Z</time>
      </trkpt>
      <trkpt lat="45.30907" lon="6.04543">
        <ele>1695.9030761719</ele>
        <time>2011-10-23T12:22:31Z</time>
      </trkpt>
      <trkpt lat="45.30915" lon="6.04538">
        <ele>1694.4609375</ele>
        <time>2011-10-23T12:22:35Z</time>
      </trkpt>
      <trkpt lat="45.30918" lon="6.04535">
        <ele>1694.4609375</ele>
        <time>2011-10-23T12:22:37Z</time>
      </trkpt>
      <trkpt lat="45.30917" lon="6.04526">
        <ele>1697.3449707031</ele>
        <time>2011-10-23T12:22:40Z</time>
      </trkpt>
      <trkpt lat="45.30927" lon="6.04513">
        <ele>1696.3837890625</ele>
        <time>2011-10-23T12:22:48Z</time>
      </trkpt>
      <trkpt lat="45.3093" lon="6.04507">
        <ele>1695.9030761719</ele>
        <time>2011-10-23T12:22:51Z</time>
      </trkpt>
      <trkpt lat="45.30935" lon="6.04503">
        <ele>1696.8642578125</ele>
        <time>2011-10-23T12:22:56Z</time>
      </trkpt>
      <trkpt lat="45.30937" lon="6.045">
        <ele>1695.9030761719</ele>
        <time>2011-10-23T12:22:58Z</time>
      </trkpt>
      <trkpt lat="45.30939" lon="6.04495">
        <ele>1695.9030761719</ele>
        <time>2011-10-23T12:23:01Z</time>
      </trkpt>
      <trkpt lat="45.30944" lon="6.0449">
        <ele>1695.4223632812</ele>
        <time>2011-10-23T12:23:06Z</time>
      </trkpt>
      <trkpt lat="45.30949" lon="6.04483">
        <ele>1696.3837890625</ele>
        <time>2011-10-23T12:23:10Z</time>
      </trkpt>
      <trkpt lat="45.30956" lon="6.04474">
        <ele>1695.4223632812</ele>
        <time>2011-10-23T12:23:16Z</time>
      </trkpt>
      <trkpt lat="45.30959" lon="6.04469">
        <ele>1695.9030761719</ele>
        <time>2011-10-23T12:23:20Z</time>
      </trkpt>
      <trkpt lat="45.3097" lon="6.04467">
        <ele>1693.0190429688</ele>
        <time>2011-10-23T12:23:25Z</time>
      </trkpt>
      <trkpt lat="45.30972" lon="6.04467">
        <ele>1692.5385742188</ele>
        <time>2011-10-23T12:23:26Z</time>
      </trkpt>
      <trkpt lat="45.3098" lon="6.04462">
        <ele>1690.6154785156</ele>
        <time>2011-10-23T12:23:31Z</time>
      </trkpt>
      <trkpt lat="45.3099" lon="6.04461">
        <ele>1689.654296875</ele>
        <time>2011-10-23T12:23:37Z</time>
      </trkpt>
      <trkpt lat="45.30998" lon="6.04457">
        <ele>1693.0190429688</ele>
        <time>2011-10-23T12:23:45Z</time>
      </trkpt>
      <trkpt lat="45.31003" lon="6.04447">
        <ele>1689.1735839844</ele>
        <time>2011-10-23T12:23:51Z</time>
      </trkpt>
      <trkpt lat="45.31007" lon="6.0444">
        <ele>1687.2509765625</ele>
        <time>2011-10-23T12:23:55Z</time>
      </trkpt>
      <trkpt lat="45.31015" lon="6.04432">
        <ele>1681.0026855469</ele>
        <time>2011-10-23T12:24:01Z</time>
      </trkpt>
      <trkpt lat="45.3102" lon="6.04431">
        <ele>1677.1574707031</ele>
        <time>2011-10-23T12:24:04Z</time>
      </trkpt>
      <trkpt lat="45.31031" lon="6.04434">
        <ele>1671.8698730469</ele>
        <time>2011-10-23T12:24:10Z</time>
      </trkpt>
      <trkpt lat="45.31037" lon="6.0444">
        <ele>1668.5053710938</ele>
        <time>2011-10-23T12:24:14Z</time>
      </trkpt>
      <trkpt lat="45.31043" lon="6.04442">
        <ele>1666.5827636719</ele>
        <time>2011-10-23T12:24:17Z</time>
      </trkpt>
      <trkpt lat="45.31051" lon="6.04448">
        <ele>1662.7375488281</ele>
        <time>2011-10-23T12:24:22Z</time>
      </trkpt>
      <trkpt lat="45.3106" lon="6.04454">
        <ele>1661.7763671875</ele>
        <time>2011-10-23T12:24:27Z</time>
      </trkpt>
      <trkpt lat="45.31062" lon="6.04454">
        <ele>1661.2956542969</ele>
        <time>2011-10-23T12:24:28Z</time>
      </trkpt>
      <trkpt lat="45.31075" lon="6.0446">
        <ele>1659.3728027344</ele>
        <time>2011-10-23T12:24:33Z</time>
      </trkpt>
      <trkpt lat="45.31082" lon="6.04465">
        <ele>1659.3728027344</ele>
        <time>2011-10-23T12:24:37Z</time>
      </trkpt>
      <trkpt lat="45.31096" lon="6.0447">
        <ele>1656.9694824219</ele>
        <time>2011-10-23T12:24:43Z</time>
      </trkpt>
      <trkpt lat="45.31096" lon="6.04477">
        <ele>1654.0856933594</ele>
        <time>2011-10-23T12:24:47Z</time>
      </trkpt>
      <trkpt lat="45.3111" lon="6.04485">
        <ele>1648.7983398438</ele>
        <time>2011-10-23T12:24:52Z</time>
      </trkpt>
      <trkpt lat="45.31113" lon="6.04484">
        <ele>1649.759765625</ele>
        <time>2011-10-23T12:24:53Z</time>
      </trkpt>
      <trkpt lat="45.31124" lon="6.04482">
        <ele>1653.6049804688</ele>
        <time>2011-10-23T12:24:58Z</time>
      </trkpt>
      <trkpt lat="45.3113" lon="6.04485">
        <ele>1654.0856933594</ele>
        <time>2011-10-23T12:25:03Z</time>
      </trkpt>
      <trkpt lat="45.31131" lon="6.04487">
        <ele>1652.6435546875</ele>
        <time>2011-10-23T12:25:05Z</time>
      </trkpt>
      <trkpt lat="45.31132" lon="6.04493">
        <ele>1649.2790527344</ele>
        <time>2011-10-23T12:25:10Z</time>
      </trkpt>
      <trkpt lat="45.31134" lon="6.04495">
        <ele>1647.3564453125</ele>
        <time>2011-10-23T12:25:13Z</time>
      </trkpt>
      <trkpt lat="45.31136" lon="6.04495">
        <ele>1647.3564453125</ele>
        <time>2011-10-23T12:25:15Z</time>
      </trkpt>
      <trkpt lat="45.31144" lon="6.04497">
        <ele>1643.0302734375</ele>
        <time>2011-10-23T12:25:22Z</time>
      </trkpt>
      <trkpt lat="45.31146" lon="6.04497">
        <ele>1641.1076660156</ele>
        <time>2011-10-23T12:25:24Z</time>
      </trkpt>
      <trkpt lat="45.3115" lon="6.04493">
        <ele>1638.7045898438</ele>
        <time>2011-10-23T12:25:29Z</time>
      </trkpt>
      <trkpt lat="45.31156" lon="6.0449">
        <ele>1634.859375</ele>
        <time>2011-10-23T12:25:37Z</time>
      </trkpt>
      <trkpt lat="45.31167" lon="6.04486">
        <ele>1636.7817382812</ele>
        <time>2011-10-23T12:25:43Z</time>
      </trkpt>
      <trkpt lat="45.31176" lon="6.04482">
        <ele>1632.9365234375</ele>
        <time>2011-10-23T12:25:49Z</time>
      </trkpt>
      <trkpt lat="45.31187" lon="6.04479">
        <ele>1631.0141601562</ele>
        <time>2011-10-23T12:25:54Z</time>
      </trkpt>
      <trkpt lat="45.31192" lon="6.04477">
        <ele>1631.4946289062</ele>
        <time>2011-10-23T12:25:58Z</time>
      </trkpt>
      <trkpt lat="45.31192" lon="6.04476">
        <ele>1631.4946289062</ele>
        <time>2011-10-23T12:25:59Z</time>
      </trkpt>
      <trkpt lat="45.31197" lon="6.04475">
        <ele>1629.0913085938</ele>
        <time>2011-10-23T12:26:04Z</time>
      </trkpt>
      <trkpt lat="45.31207" lon="6.0447">
        <ele>1628.1301269531</ele>
        <time>2011-10-23T12:26:10Z</time>
      </trkpt>
      <trkpt lat="45.31211" lon="6.04465">
        <ele>1625.7265625</ele>
        <time>2011-10-23T12:26:13Z</time>
      </trkpt>
      <trkpt lat="45.31217" lon="6.04461">
        <ele>1623.3234863281</ele>
        <time>2011-10-23T12:26:18Z</time>
      </trkpt>
      <trkpt lat="45.31219" lon="6.04455">
        <ele>1622.8427734375</ele>
        <time>2011-10-23T12:26:23Z</time>
      </trkpt>
      <trkpt lat="45.3122" lon="6.04449">
        <ele>1619.9587402344</ele>
        <time>2011-10-23T12:26:28Z</time>
      </trkpt>
      <trkpt lat="45.31228" lon="6.04449">
        <ele>1615.6330566406</ele>
        <time>2011-10-23T12:26:32Z</time>
      </trkpt>
      <trkpt lat="45.31231" lon="6.04448">
        <ele>1613.7102050781</ele>
        <time>2011-10-23T12:26:34Z</time>
      </trkpt>
      <trkpt lat="45.31232" lon="6.04444">
        <ele>1612.2683105469</ele>
        <time>2011-10-23T12:26:36Z</time>
      </trkpt>
      <trkpt lat="45.31239" lon="6.04434">
        <ele>1611.7875976562</ele>
        <time>2011-10-23T12:26:42Z</time>
      </trkpt>
      <trkpt lat="45.31248" lon="6.04426">
        <ele>1611.3068847656</ele>
        <time>2011-10-23T12:26:47Z</time>
      </trkpt>
      <trkpt lat="45.31265" lon="6.04422">
        <ele>1606.01953125</ele>
        <time>2011-10-23T12:26:54Z</time>
      </trkpt>
      <trkpt lat="45.3128" lon="6.04422">
        <ele>1601.6938476562</ele>
        <time>2011-10-23T12:26:59Z</time>
      </trkpt>
      <trkpt lat="45.31282" lon="6.04421">
        <ele>1600.251953125</ele>
        <time>2011-10-23T12:27:02Z</time>
      </trkpt>
      <trkpt lat="45.31287" lon="6.04416">
        <ele>1599.2905273438</ele>
        <time>2011-10-23T12:27:07Z</time>
      </trkpt>
      <trkpt lat="45.31296" lon="6.04413">
        <ele>1597.3679199219</ele>
        <time>2011-10-23T12:27:11Z</time>
      </trkpt>
      <trkpt lat="45.31308" lon="6.04413">
        <ele>1595.4450683594</ele>
        <time>2011-10-23T12:27:16Z</time>
      </trkpt>
      <trkpt lat="45.31318" lon="6.04407">
        <ele>1591.119140625</ele>
        <time>2011-10-23T12:27:22Z</time>
      </trkpt>
      <trkpt lat="45.31334" lon="6.04399">
        <ele>1589.6772460938</ele>
        <time>2011-10-23T12:27:28Z</time>
      </trkpt>
      <trkpt lat="45.31342" lon="6.04398">
        <ele>1588.7160644531</ele>
        <time>2011-10-23T12:27:31Z</time>
      </trkpt>
      <trkpt lat="45.31346" lon="6.04391">
        <ele>1589.1965332031</ele>
        <time>2011-10-23T12:27:34Z</time>
      </trkpt>
      <trkpt lat="45.31357" lon="6.04384">
        <ele>1591.5998535156</ele>
        <time>2011-10-23T12:27:41Z</time>
      </trkpt>
      <trkpt lat="45.31359" lon="6.04384">
        <ele>1591.119140625</ele>
        <time>2011-10-23T12:27:42Z</time>
      </trkpt>
      <trkpt lat="45.31365" lon="6.04383">
        <ele>1590.6384277344</ele>
        <time>2011-10-23T12:27:45Z</time>
      </trkpt>
      <trkpt lat="45.31373" lon="6.04382">
        <ele>1590.1579589844</ele>
        <time>2011-10-23T12:27:49Z</time>
      </trkpt>
      <trkpt lat="45.31386" lon="6.04384">
        <ele>1588.2353515625</ele>
        <time>2011-10-23T12:27:55Z</time>
      </trkpt>
      <trkpt lat="45.31394" lon="6.04381">
        <ele>1589.6772460938</ele>
        <time>2011-10-23T12:28:00Z</time>
      </trkpt>
      <trkpt lat="45.31401" lon="6.04382">
        <ele>1588.2353515625</ele>
        <time>2011-10-23T12:28:03Z</time>
      </trkpt>
      <trkpt lat="45.31414" lon="6.04379">
        <ele>1587.7546386719</ele>
        <time>2011-10-23T12:28:09Z</time>
      </trkpt>
      <trkpt lat="45.31427" lon="6.04376">
        <ele>1586.7932128906</ele>
        <time>2011-10-23T12:28:15Z</time>
      </trkpt>
      <trkpt lat="45.31445" lon="6.04376">
        <ele>1586.3127441406</ele>
        <time>2011-10-23T12:28:22Z</time>
      </trkpt>
      <trkpt lat="45.31449" lon="6.04375">
        <ele>1585.3513183594</ele>
        <time>2011-10-23T12:28:24Z</time>
      </trkpt>
      <trkpt lat="45.31463" lon="6.04369">
        <ele>1586.3127441406</ele>
        <time>2011-10-23T12:28:30Z</time>
      </trkpt>
      <trkpt lat="45.31467" lon="6.04369">
        <ele>1584.8708496094</ele>
        <time>2011-10-23T12:28:33Z</time>
      </trkpt>
      <trkpt lat="45.31487" lon="6.04368">
        <ele>1585.83203125</ele>
        <time>2011-10-23T12:28:40Z</time>
      </trkpt>
      <trkpt lat="45.31493" lon="6.04366">
        <ele>1585.83203125</ele>
        <time>2011-10-23T12:28:45Z</time>
      </trkpt>
      <trkpt lat="45.31497" lon="6.04367">
        <ele>1583.9094238281</ele>
        <time>2011-10-23T12:28:49Z</time>
      </trkpt>
      <trkpt lat="45.31509" lon="6.0437">
        <ele>1578.6220703125</ele>
        <time>2011-10-23T12:28:54Z</time>
      </trkpt>
      <trkpt lat="45.31517" lon="6.04371">
        <ele>1575.2573242188</ele>
        <time>2011-10-23T12:28:57Z</time>
      </trkpt>
      <trkpt lat="45.31518" lon="6.04373">
        <ele>1574.2961425781</ele>
        <time>2011-10-23T12:28:59Z</time>
      </trkpt>
      <trkpt lat="45.31526" lon="6.04378">
        <ele>1569.4897460938</ele>
        <time>2011-10-23T12:29:04Z</time>
      </trkpt>
      <trkpt lat="45.31532" lon="6.04382">
        <ele>1564.6831054688</ele>
        <time>2011-10-23T12:29:08Z</time>
      </trkpt>
      <trkpt lat="45.31538" lon="6.04386">
        <ele>1558.9150390625</ele>
        <time>2011-10-23T12:29:12Z</time>
      </trkpt>
      <trkpt lat="45.31542" lon="6.04389">
        <ele>1553.1472167969</ele>
        <time>2011-10-23T12:29:16Z</time>
      </trkpt>
      <trkpt lat="45.31544" lon="6.0439">
        <ele>1552.1857910156</ele>
        <time>2011-10-23T12:29:17Z</time>
      </trkpt>
      <trkpt lat="45.3155" lon="6.04396">
        <ele>1553.1472167969</ele>
        <time>2011-10-23T12:29:22Z</time>
      </trkpt>
      <trkpt lat="45.31552" lon="6.04399">
        <ele>1552.6665039062</ele>
        <time>2011-10-23T12:29:24Z</time>
      </trkpt>
      <trkpt lat="45.31557" lon="6.04403">
        <ele>1552.6665039062</ele>
        <time>2011-10-23T12:29:28Z</time>
      </trkpt>
      <trkpt lat="45.31563" lon="6.04406">
        <ele>1552.1857910156</ele>
        <time>2011-10-23T12:29:32Z</time>
      </trkpt>
      <trkpt lat="45.31578" lon="6.04403">
        <ele>1552.6665039062</ele>
        <time>2011-10-23T12:29:37Z</time>
      </trkpt>
      <trkpt lat="45.31581" lon="6.04403">
        <ele>1553.1472167969</ele>
        <time>2011-10-23T12:29:39Z</time>
      </trkpt>
      <trkpt lat="45.31587" lon="6.04408">
        <ele>1551.224609375</ele>
        <time>2011-10-23T12:29:43Z</time>
      </trkpt>
      <trkpt lat="45.31594" lon="6.04408">
        <ele>1551.7053222656</ele>
        <time>2011-10-23T12:29:48Z</time>
      </trkpt>
      <trkpt lat="45.31599" lon="6.04409">
        <ele>1552.6665039062</ele>
        <time>2011-10-23T12:29:52Z</time>
      </trkpt>
      <trkpt lat="45.31603" lon="6.04407">
        <ele>1553.6279296875</ele>
        <time>2011-10-23T12:29:57Z</time>
      </trkpt>
      <trkpt lat="45.31605" lon="6.04408">
        <ele>1553.1472167969</ele>
        <time>2011-10-23T12:29:59Z</time>
      </trkpt>
      <trkpt lat="45.31606" lon="6.04407">
        <ele>1550.7438964844</ele>
        <time>2011-10-23T12:30:04Z</time>
      </trkpt>
      <trkpt lat="45.31612" lon="6.04407">
        <ele>1552.1857910156</ele>
        <time>2011-10-23T12:30:09Z</time>
      </trkpt>
      <trkpt lat="45.31617" lon="6.04408">
        <ele>1550.2634277344</ele>
        <time>2011-10-23T12:30:13Z</time>
      </trkpt>
      <trkpt lat="45.31625" lon="6.04407">
        <ele>1549.3020019531</ele>
        <time>2011-10-23T12:30:19Z</time>
      </trkpt>
      <trkpt lat="45.31631" lon="6.04404">
        <ele>1548.8212890625</ele>
        <time>2011-10-23T12:30:23Z</time>
      </trkpt>
      <trkpt lat="45.31642" lon="6.04409">
        <ele>1547.3791503906</ele>
        <time>2011-10-23T12:30:27Z</time>
      </trkpt>
      <trkpt lat="45.3165" lon="6.04411">
        <ele>1546.41796875</ele>
        <time>2011-10-23T12:30:31Z</time>
      </trkpt>
      <trkpt lat="45.31657" lon="6.04414">
        <ele>1544.9758300781</ele>
        <time>2011-10-23T12:30:35Z</time>
      </trkpt>
      <trkpt lat="45.31668" lon="6.04421">
        <ele>1544.9758300781</ele>
        <time>2011-10-23T12:30:41Z</time>
      </trkpt>
      <trkpt lat="45.31671" lon="6.04424">
        <ele>1544.0146484375</ele>
        <time>2011-10-23T12:30:43Z</time>
      </trkpt>
      <trkpt lat="45.31682" lon="6.04429">
        <ele>1542.5727539062</ele>
        <time>2011-10-23T12:30:47Z</time>
      </trkpt>
      <trkpt lat="45.3169" lon="6.04439">
        <ele>1539.6887207031</ele>
        <time>2011-10-23T12:30:53Z</time>
      </trkpt>
      <trkpt lat="45.31698" lon="6.04443">
        <ele>1537.7661132812</ele>
        <time>2011-10-23T12:30:59Z</time>
      </trkpt>
      <trkpt lat="45.317" lon="6.04447">
        <ele>1537.7661132812</ele>
        <time>2011-10-23T12:31:01Z</time>
      </trkpt>
      <trkpt lat="45.31707" lon="6.04449">
        <ele>1538.2468261719</ele>
        <time>2011-10-23T12:31:05Z</time>
      </trkpt>
      <trkpt lat="45.3171" lon="6.0445">
        <ele>1538.7275390625</ele>
        <time>2011-10-23T12:31:06Z</time>
      </trkpt>
      <trkpt lat="45.3172" lon="6.04454">
        <ele>1537.7661132812</ele>
        <time>2011-10-23T12:31:10Z</time>
      </trkpt>
      <trkpt lat="45.31723" lon="6.04456">
        <ele>1537.2854003906</ele>
        <time>2011-10-23T12:31:12Z</time>
      </trkpt>
      <trkpt lat="45.31728" lon="6.04463">
        <ele>1535.8435058594</ele>
        <time>2011-10-23T12:31:17Z</time>
      </trkpt>
      <trkpt lat="45.31731" lon="6.04464">
        <ele>1535.3627929688</ele>
        <time>2011-10-23T12:31:21Z</time>
      </trkpt>
      <trkpt lat="45.31737" lon="6.04462">
        <ele>1535.8435058594</ele>
        <time>2011-10-23T12:31:25Z</time>
      </trkpt>
      <trkpt lat="45.31739" lon="6.04459">
        <ele>1534.8823242188</ele>
        <time>2011-10-23T12:31:27Z</time>
      </trkpt>
      <trkpt lat="45.31751" lon="6.04458">
        <ele>1533.4401855469</ele>
        <time>2011-10-23T12:31:33Z</time>
      </trkpt>
      <trkpt lat="45.31762" lon="6.04457">
        <ele>1532.4790039062</ele>
        <time>2011-10-23T12:31:37Z</time>
      </trkpt>
      <trkpt lat="45.31768" lon="6.04457">
        <ele>1531.5173339844</ele>
        <time>2011-10-23T12:31:41Z</time>
      </trkpt>
      <trkpt lat="45.31777" lon="6.04463">
        <ele>1530.0754394531</ele>
        <time>2011-10-23T12:31:46Z</time>
      </trkpt>
      <trkpt lat="45.31783" lon="6.04466">
        <ele>1530.0754394531</ele>
        <time>2011-10-23T12:31:49Z</time>
      </trkpt>
      <trkpt lat="45.31795" lon="6.0447">
        <ele>1530.0754394531</ele>
        <time>2011-10-23T12:31:56Z</time>
      </trkpt>
      <trkpt lat="45.31806" lon="6.04477">
        <ele>1531.0368652344</ele>
        <time>2011-10-23T12:32:03Z</time>
      </trkpt>
      <trkpt lat="45.31813" lon="6.04478">
        <ele>1531.0368652344</ele>
        <time>2011-10-23T12:32:07Z</time>
      </trkpt>
      <trkpt lat="45.31816" lon="6.04475">
        <ele>1531.0368652344</ele>
        <time>2011-10-23T12:32:12Z</time>
      </trkpt>
      <trkpt lat="45.31827" lon="6.04471">
        <ele>1531.998046875</ele>
        <time>2011-10-23T12:32:18Z</time>
      </trkpt>
      <trkpt lat="45.31831" lon="6.04467">
        <ele>1532.4790039062</ele>
        <time>2011-10-23T12:32:20Z</time>
      </trkpt>
      <trkpt lat="45.31839" lon="6.0446">
        <ele>1533.4401855469</ele>
        <time>2011-10-23T12:32:24Z</time>
      </trkpt>
      <trkpt lat="45.31846" lon="6.04444">
        <ele>1533.9208984375</ele>
        <time>2011-10-23T12:32:29Z</time>
      </trkpt>
      <trkpt lat="45.31852" lon="6.04438">
        <ele>1536.32421875</ele>
        <time>2011-10-23T12:32:33Z</time>
      </trkpt>
      <trkpt lat="45.31861" lon="6.04436">
        <ele>1534.4016113281</ele>
        <time>2011-10-23T12:32:37Z</time>
      </trkpt>
      <trkpt lat="45.31868" lon="6.04432">
        <ele>1534.4016113281</ele>
        <time>2011-10-23T12:32:40Z</time>
      </trkpt>
      <trkpt lat="45.31879" lon="6.04423">
        <ele>1532.9594726562</ele>
        <time>2011-10-23T12:32:45Z</time>
      </trkpt>
      <trkpt lat="45.31891" lon="6.04415">
        <ele>1530.0754394531</ele>
        <time>2011-10-23T12:32:50Z</time>
      </trkpt>
      <trkpt lat="45.31909" lon="6.04408">
        <ele>1527.1916503906</ele>
        <time>2011-10-23T12:32:55Z</time>
      </trkpt>
      <trkpt lat="45.31923" lon="6.04404">
        <ele>1524.3076171875</ele>
        <time>2011-10-23T12:32:59Z</time>
      </trkpt>
      <trkpt lat="45.31939" lon="6.04398">
        <ele>1521.4235839844</ele>
        <time>2011-10-23T12:33:04Z</time>
      </trkpt>
      <trkpt lat="45.31954" lon="6.0439">
        <ele>1515.6557617188</ele>
        <time>2011-10-23T12:33:09Z</time>
      </trkpt>
      <trkpt lat="45.31964" lon="6.04385">
        <ele>1511.810546875</ele>
        <time>2011-10-23T12:33:13Z</time>
      </trkpt>
      <trkpt lat="45.31968" lon="6.04379">
        <ele>1510.8491210938</ele>
        <time>2011-10-23T12:33:17Z</time>
      </trkpt>
      <trkpt lat="45.31971" lon="6.04381">
        <ele>1508.9265136719</ele>
        <time>2011-10-23T12:33:19Z</time>
      </trkpt>
      <trkpt lat="45.31982" lon="6.04382">
        <ele>1504.1201171875</ele>
        <time>2011-10-23T12:33:24Z</time>
      </trkpt>
      <trkpt lat="45.31989" lon="6.04383">
        <ele>1501.2360839844</ele>
        <time>2011-10-23T12:33:28Z</time>
      </trkpt>
      <trkpt lat="45.31999" lon="6.04381">
        <ele>1496.9099121094</ele>
        <time>2011-10-23T12:33:33Z</time>
      </trkpt>
      <trkpt lat="45.32003" lon="6.04382">
        <ele>1494.9873046875</ele>
        <time>2011-10-23T12:33:35Z</time>
      </trkpt>
      <trkpt lat="45.32012" lon="6.04388">
        <ele>1491.1420898438</ele>
        <time>2011-10-23T12:33:40Z</time>
      </trkpt>
      <trkpt lat="45.32019" lon="6.04393">
        <ele>1488.2583007812</ele>
        <time>2011-10-23T12:33:44Z</time>
      </trkpt>
      <trkpt lat="45.32028" lon="6.04398">
        <ele>1486.3356933594</ele>
        <time>2011-10-23T12:33:47Z</time>
      </trkpt>
      <trkpt lat="45.32041" lon="6.044">
        <ele>1483.9321289062</ele>
        <time>2011-10-23T12:33:51Z</time>
      </trkpt>
      <trkpt lat="45.32043" lon="6.04399">
        <ele>1483.4514160156</ele>
        <time>2011-10-23T12:33:52Z</time>
      </trkpt>
      <trkpt lat="45.32056" lon="6.0439">
        <ele>1488.2583007812</ele>
        <time>2011-10-23T12:33:57Z</time>
      </trkpt>
      <trkpt lat="45.32069" lon="6.04388">
        <ele>1493.5454101562</ele>
        <time>2011-10-23T12:34:01Z</time>
      </trkpt>
      <trkpt lat="45.32084" lon="6.04382">
        <ele>1495.4680175781</ele>
        <time>2011-10-23T12:34:06Z</time>
      </trkpt>
      <trkpt lat="45.3209" lon="6.04376">
        <ele>1496.9099121094</ele>
        <time>2011-10-23T12:34:10Z</time>
      </trkpt>
      <trkpt lat="45.32109" lon="6.04374">
        <ele>1494.0261230469</ele>
        <time>2011-10-23T12:34:16Z</time>
      </trkpt>
      <trkpt lat="45.32126" lon="6.0437">
        <ele>1494.0261230469</ele>
        <time>2011-10-23T12:34:22Z</time>
      </trkpt>
      <trkpt lat="45.32141" lon="6.04381">
        <ele>1491.1420898438</ele>
        <time>2011-10-23T12:34:28Z</time>
      </trkpt>
      <trkpt lat="45.32154" lon="6.0439">
        <ele>1489.2194824219</ele>
        <time>2011-10-23T12:34:33Z</time>
      </trkpt>
      <trkpt lat="45.32161" lon="6.04395">
        <ele>1486.8161621094</ele>
        <time>2011-10-23T12:34:37Z</time>
      </trkpt>
      <trkpt lat="45.32169" lon="6.04394">
        <ele>1486.8161621094</ele>
        <time>2011-10-23T12:34:42Z</time>
      </trkpt>
      <trkpt lat="45.32172" lon="6.04394">
        <ele>1484.4130859375</ele>
        <time>2011-10-23T12:34:43Z</time>
      </trkpt>
      <trkpt lat="45.32185" lon="6.04392">
        <ele>1478.1643066406</ele>
        <time>2011-10-23T12:34:48Z</time>
      </trkpt>
      <trkpt lat="45.32195" lon="6.04391">
        <ele>1475.2802734375</ele>
        <time>2011-10-23T12:34:52Z</time>
      </trkpt>
      <trkpt lat="45.32197" lon="6.04391">
        <ele>1475.2802734375</ele>
        <time>2011-10-23T12:34:53Z</time>
      </trkpt>
      <trkpt lat="45.32208" lon="6.04389">
        <ele>1472.396484375</ele>
        <time>2011-10-23T12:34:59Z</time>
      </trkpt>
      <trkpt lat="45.32211" lon="6.04389">
        <ele>1471.9157714844</ele>
        <time>2011-10-23T12:35:01Z</time>
      </trkpt>
      <trkpt lat="45.32214" lon="6.04389">
        <ele>1468.5512695312</ele>
        <time>2011-10-23T12:35:06Z</time>
      </trkpt>
      <trkpt lat="45.32222" lon="6.04386">
        <ele>1463.7443847656</ele>
        <time>2011-10-23T12:35:12Z</time>
      </trkpt>
      <trkpt lat="45.32224" lon="6.04385">
        <ele>1463.7443847656</ele>
        <time>2011-10-23T12:35:13Z</time>
      </trkpt>
      <trkpt lat="45.3223" lon="6.04383">
        <ele>1462.783203125</ele>
        <time>2011-10-23T12:35:16Z</time>
      </trkpt>
      <trkpt lat="45.32238" lon="6.04381">
        <ele>1458.9379882812</ele>
        <time>2011-10-23T12:35:22Z</time>
      </trkpt>
      <trkpt lat="45.3224" lon="6.04381">
        <ele>1457.0153808594</ele>
        <time>2011-10-23T12:35:23Z</time>
      </trkpt>
      <trkpt lat="45.32245" lon="6.04378">
        <ele>1450.7666015625</ele>
        <time>2011-10-23T12:35:27Z</time>
      </trkpt>
      <trkpt lat="45.32259" lon="6.04384">
        <ele>1445.9602050781</ele>
        <time>2011-10-23T12:35:33Z</time>
      </trkpt>
      <trkpt lat="45.32261" lon="6.04384">
        <ele>1443.5568847656</ele>
        <time>2011-10-23T12:35:35Z</time>
      </trkpt>
      <trkpt lat="45.32272" lon="6.04387">
        <ele>1434.9050292969</ele>
        <time>2011-10-23T12:35:42Z</time>
      </trkpt>
      <trkpt lat="45.32278" lon="6.04391">
        <ele>1432.5017089844</ele>
        <time>2011-10-23T12:35:45Z</time>
      </trkpt>
      <trkpt lat="45.32293" lon="6.04394">
        <ele>1428.6564941406</ele>
        <time>2011-10-23T12:35:50Z</time>
      </trkpt>
      <trkpt lat="45.32296" lon="6.04395">
        <ele>1429.1369628906</ele>
        <time>2011-10-23T12:35:51Z</time>
      </trkpt>
      <trkpt lat="45.32296" lon="6.04395">
        <ele>1429.1369628906</ele>
        <time>2011-10-23T12:35:51Z</time>
      </trkpt>
      <trkpt lat="45.32305" lon="6.04395">
        <ele>1427.6950683594</ele>
        <time>2011-10-23T12:35:54Z</time>
      </trkpt>
      <trkpt lat="45.32318" lon="6.04399">
        <ele>1426.2531738281</ele>
        <time>2011-10-23T12:35:57Z</time>
      </trkpt>
      <trkpt lat="45.32325" lon="6.04399">
        <ele>1427.6950683594</ele>
        <time>2011-10-23T12:35:58Z</time>
      </trkpt>
      <trkpt lat="45.32335" lon="6.04401">
        <ele>1428.17578125</ele>
        <time>2011-10-23T12:36:00Z</time>
      </trkpt>
      <trkpt lat="45.32343" lon="6.04392">
        <ele>1427.2145996094</ele>
        <time>2011-10-23T12:36:04Z</time>
      </trkpt>
      <trkpt lat="45.32353" lon="6.04379">
        <ele>1432.9821777344</ele>
        <time>2011-10-23T12:36:08Z</time>
      </trkpt>
      <trkpt lat="45.32356" lon="6.04377">
        <ele>1435.3854980469</ele>
        <time>2011-10-23T12:36:10Z</time>
      </trkpt>
      <trkpt lat="45.3236" lon="6.04378">
        <ele>1437.3083496094</ele>
        <time>2011-10-23T12:36:14Z</time>
      </trkpt>
      <trkpt lat="45.32361" lon="6.0437">
        <ele>1436.3471679688</ele>
        <time>2011-10-23T12:36:19Z</time>
      </trkpt>
      <trkpt lat="45.32363" lon="6.04371">
        <ele>1435.8662109375</ele>
        <time>2011-10-23T12:36:23Z</time>
      </trkpt>
      <trkpt lat="45.32369" lon="6.04374">
        <ele>1438.2697753906</ele>
        <time>2011-10-23T12:36:30Z</time>
      </trkpt>
      <trkpt lat="45.32368" lon="6.04376">
        <ele>1441.6342773438</ele>
        <time>2011-10-23T12:36:43Z</time>
      </trkpt>
      <trkpt lat="45.3237" lon="6.0438">
        <ele>1442.595703125</ele>
        <time>2011-10-23T12:36:48Z</time>
      </trkpt>
      <trkpt lat="45.32371" lon="6.04378">
        <ele>1442.1149902344</ele>
        <time>2011-10-23T12:36:59Z</time>
      </trkpt>
      <trkpt lat="45.32372" lon="6.04374">
        <ele>1439.2309570312</ele>
        <time>2011-10-23T12:37:09Z</time>
      </trkpt>
      <trkpt lat="45.32372" lon="6.04373">
        <ele>1438.7504882812</ele>
        <time>2011-10-23T12:37:17Z</time>
      </trkpt>
      <trkpt lat="45.32372" lon="6.04375">
        <ele>1441.1535644531</ele>
        <time>2011-10-23T12:37:27Z</time>
      </trkpt>
      <trkpt lat="45.3237" lon="6.04377">
        <ele>1441.6342773438</ele>
        <time>2011-10-23T12:37:34Z</time>
      </trkpt>
      <trkpt lat="45.32368" lon="6.04381">
        <ele>1445.4794921875</ele>
        <time>2011-10-23T12:37:48Z</time>
      </trkpt>
      <trkpt lat="45.32368" lon="6.0438">
        <ele>1445.4794921875</ele>
        <time>2011-10-23T12:37:55Z</time>
      </trkpt>
      <trkpt lat="45.32368" lon="6.04379">
        <ele>1444.5180664062</ele>
        <time>2011-10-23T12:38:02Z</time>
      </trkpt>
      <trkpt lat="45.32364" lon="6.04369">
        <ele>1442.1149902344</ele>
        <time>2011-10-23T12:38:07Z</time>
      </trkpt>
      <trkpt lat="45.32362" lon="6.04364">
        <ele>1440.6728515625</ele>
        <time>2011-10-23T12:38:10Z</time>
      </trkpt>
      <trkpt lat="45.32362" lon="6.04355">
        <ele>1440.6728515625</ele>
        <time>2011-10-23T12:38:17Z</time>
      </trkpt>
      <trkpt lat="45.32361" lon="6.04356">
        <ele>1440.1923828125</ele>
        <time>2011-10-23T12:38:21Z</time>
      </trkpt>
      <trkpt lat="45.32362" lon="6.04356">
        <ele>1439.7116699219</ele>
        <time>2011-10-23T12:38:27Z</time>
      </trkpt>
      <trkpt lat="45.32361" lon="6.04356">
        <ele>1441.6342773438</ele>
        <time>2011-10-23T12:38:34Z</time>
      </trkpt>
      <trkpt lat="45.32361" lon="6.04353">
        <ele>1442.1149902344</ele>
        <time>2011-10-23T12:38:40Z</time>
      </trkpt>
      <trkpt lat="45.32361" lon="6.04353">
        <ele>1442.1149902344</ele>
        <time>2011-10-23T12:38:47Z</time>
      </trkpt>
      <trkpt lat="45.32362" lon="6.04352">
        <ele>1441.1535644531</ele>
        <time>2011-10-23T12:38:54Z</time>
      </trkpt>
      <trkpt lat="45.32361" lon="6.0435">
        <ele>1444.5180664062</ele>
        <time>2011-10-23T12:39:10Z</time>
      </trkpt>
      <trkpt lat="45.3236" lon="6.04354">
        <ele>1449.3247070312</ele>
        <time>2011-10-23T12:39:28Z</time>
      </trkpt>
      <trkpt lat="45.3236" lon="6.04352">
        <ele>1449.8054199219</ele>
        <time>2011-10-23T12:39:34Z</time>
      </trkpt>
      <trkpt lat="45.3236" lon="6.04353">
        <ele>1448.36328125</ele>
        <time>2011-10-23T12:39:41Z</time>
      </trkpt>
      <trkpt lat="45.3236" lon="6.04353">
        <ele>1447.4020996094</ele>
        <time>2011-10-23T12:39:46Z</time>
      </trkpt>
      <trkpt lat="45.32359" lon="6.0435">
        <ele>1444.5180664062</ele>
        <time>2011-10-23T12:39:53Z</time>
      </trkpt>
      <trkpt lat="45.32361" lon="6.04349">
        <ele>1443.5568847656</ele>
        <time>2011-10-23T12:39:57Z</time>
      </trkpt>
      <trkpt lat="45.32362" lon="6.04351">
        <ele>1440.6728515625</ele>
        <time>2011-10-23T12:40:06Z</time>
      </trkpt>
      <trkpt lat="45.32363" lon="6.04351">
        <ele>1441.1535644531</ele>
        <time>2011-10-23T12:40:14Z</time>
      </trkpt>
      <trkpt lat="45.32364" lon="6.04351">
        <ele>1442.1149902344</ele>
        <time>2011-10-23T12:40:25Z</time>
      </trkpt>
      <trkpt lat="45.32365" lon="6.0435">
        <ele>1442.595703125</ele>
        <time>2011-10-23T12:40:34Z</time>
      </trkpt>
      <trkpt lat="45.32365" lon="6.04351">
        <ele>1445.4794921875</ele>
        <time>2011-10-23T12:40:46Z</time>
      </trkpt>
      <trkpt lat="45.32365" lon="6.04351">
        <ele>1444.9987792969</ele>
        <time>2011-10-23T12:41:09Z</time>
      </trkpt>
      <trkpt lat="45.32368" lon="6.04353">
        <ele>1447.8828125</ele>
        <time>2011-10-23T12:41:18Z</time>
      </trkpt>
      <trkpt lat="45.32365" lon="6.04354">
        <ele>1445.4794921875</ele>
        <time>2011-10-23T12:41:25Z</time>
      </trkpt>
      <trkpt lat="45.32365" lon="6.04354">
        <ele>1444.0375976562</ele>
        <time>2011-10-23T12:41:41Z</time>
      </trkpt>
      <trkpt lat="45.32367" lon="6.04354">
        <ele>1443.5568847656</ele>
        <time>2011-10-23T12:42:01Z</time>
      </trkpt>
      <trkpt lat="45.32367" lon="6.04354">
        <ele>1444.5180664062</ele>
        <time>2011-10-23T12:42:11Z</time>
      </trkpt>
      <trkpt lat="45.32364" lon="6.04359">
        <ele>1442.1149902344</ele>
        <time>2011-10-23T12:42:18Z</time>
      </trkpt>
      <trkpt lat="45.32366" lon="6.04365">
        <ele>1440.6728515625</ele>
        <time>2011-10-23T12:42:21Z</time>
      </trkpt>
      <trkpt lat="45.3237" lon="6.04376">
        <ele>1439.2309570312</ele>
        <time>2011-10-23T12:42:25Z</time>
      </trkpt>
      <trkpt lat="45.32372" lon="6.04382">
        <ele>1438.2697753906</ele>
        <time>2011-10-23T12:42:27Z</time>
      </trkpt>
      <trkpt lat="45.32378" lon="6.04384">
        <ele>1435.3854980469</ele>
        <time>2011-10-23T12:42:31Z</time>
      </trkpt>
      <trkpt lat="45.32389" lon="6.04377">
        <ele>1432.5017089844</ele>
        <time>2011-10-23T12:42:36Z</time>
      </trkpt>
      <trkpt lat="45.32391" lon="6.04375">
        <ele>1432.5017089844</ele>
        <time>2011-10-23T12:42:40Z</time>
      </trkpt>
      <trkpt lat="45.32397" lon="6.04372">
        <ele>1433.462890625</ele>
        <time>2011-10-23T12:42:43Z</time>
      </trkpt>
      <trkpt lat="45.32409" lon="6.0436">
        <ele>1428.6564941406</ele>
        <time>2011-10-23T12:42:48Z</time>
      </trkpt>
      <trkpt lat="45.32415" lon="6.0435">
        <ele>1422.4079589844</ele>
        <time>2011-10-23T12:42:51Z</time>
      </trkpt>
      <trkpt lat="45.32432" lon="6.04329">
        <ele>1419.0432128906</ele>
        <time>2011-10-23T12:42:55Z</time>
      </trkpt>
      <trkpt lat="45.32439" lon="6.04319">
        <ele>1415.6787109375</ele>
        <time>2011-10-23T12:42:57Z</time>
      </trkpt>
      <trkpt lat="45.32446" lon="6.04293">
        <ele>1413.755859375</ele>
        <time>2011-10-23T12:43:01Z</time>
      </trkpt>
      <trkpt lat="45.32439" lon="6.04266">
        <ele>1410.3913574219</ele>
        <time>2011-10-23T12:43:05Z</time>
      </trkpt>
      <trkpt lat="45.32423" lon="6.04233">
        <ele>1407.0268554688</ele>
        <time>2011-10-23T12:43:09Z</time>
      </trkpt>
      <trkpt lat="45.32407" lon="6.04198">
        <ele>1402.2199707031</ele>
        <time>2011-10-23T12:43:12Z</time>
      </trkpt>
      <trkpt lat="45.32383" lon="6.04147">
        <ele>1393.568359375</ele>
        <time>2011-10-23T12:43:17Z</time>
      </trkpt>
      <trkpt lat="45.3236" lon="6.04101">
        <ele>1382.0324707031</ele>
        <time>2011-10-23T12:43:22Z</time>
      </trkpt>
      <trkpt lat="45.32352" lon="6.0408">
        <ele>1377.2260742188</ele>
        <time>2011-10-23T12:43:24Z</time>
      </trkpt>
      <trkpt lat="45.32345" lon="6.04041">
        <ele>1369.5354003906</ele>
        <time>2011-10-23T12:43:29Z</time>
      </trkpt>
      <trkpt lat="45.32342" lon="6.04016">
        <ele>1361.3642578125</ele>
        <time>2011-10-23T12:43:33Z</time>
      </trkpt>
      <trkpt lat="45.32343" lon="6.04006">
        <ele>1357.5190429688</ele>
        <time>2011-10-23T12:43:38Z</time>
      </trkpt>
      <trkpt lat="45.32343" lon="6.04003">
        <ele>1358.4802246094</ele>
        <time>2011-10-23T12:43:43Z</time>
      </trkpt>
      <trkpt lat="45.32342" lon="6.04007">
        <ele>1366.1706542969</ele>
        <time>2011-10-23T12:43:56Z</time>
      </trkpt>
      <trkpt lat="45.32338" lon="6.04003">
        <ele>1367.1320800781</ele>
        <time>2011-10-23T12:44:03Z</time>
      </trkpt>
      <trkpt lat="45.32318" lon="6.0399">
        <ele>1360.4028320312</ele>
        <time>2011-10-23T12:44:09Z</time>
      </trkpt>
      <trkpt lat="45.32301" lon="6.03987">
        <ele>1357.9997558594</ele>
        <time>2011-10-23T12:44:13Z</time>
      </trkpt>
      <trkpt lat="45.3229" lon="6.03993">
        <ele>1354.154296875</ele>
        <time>2011-10-23T12:44:16Z</time>
      </trkpt>
      <trkpt lat="45.32277" lon="6.04004">
        <ele>1350.3090820312</ele>
        <time>2011-10-23T12:44:22Z</time>
      </trkpt>
      <trkpt lat="45.32273" lon="6.04005">
        <ele>1348.8669433594</ele>
        <time>2011-10-23T12:44:25Z</time>
      </trkpt>
      <trkpt lat="45.32264" lon="6.04002">
        <ele>1344.541015625</ele>
        <time>2011-10-23T12:44:30Z</time>
      </trkpt>
      <trkpt lat="45.32251" lon="6.03999">
        <ele>1339.2536621094</ele>
        <time>2011-10-23T12:44:35Z</time>
      </trkpt>
      <trkpt lat="45.32239" lon="6.04001">
        <ele>1333.0051269531</ele>
        <time>2011-10-23T12:44:40Z</time>
      </trkpt>
      <trkpt lat="45.32228" lon="6.03996">
        <ele>1327.2375488281</ele>
        <time>2011-10-23T12:44:44Z</time>
      </trkpt>
      <trkpt lat="45.32225" lon="6.03996">
        <ele>1325.7954101562</ele>
        <time>2011-10-23T12:44:45Z</time>
      </trkpt>
      <trkpt lat="45.32211" lon="6.03993">
        <ele>1323.3920898438</ele>
        <time>2011-10-23T12:44:48Z</time>
      </trkpt>
      <trkpt lat="45.32193" lon="6.03984">
        <ele>1321.9499511719</ele>
        <time>2011-10-23T12:44:53Z</time>
      </trkpt>
      <trkpt lat="45.32188" lon="6.03981">
        <ele>1324.353515625</ele>
        <time>2011-10-23T12:45:04Z</time>
      </trkpt>
      <trkpt lat="45.3217" lon="6.03965">
        <ele>1325.7954101562</ele>
        <time>2011-10-23T12:45:09Z</time>
      </trkpt>
      <trkpt lat="45.32165" lon="6.03961">
        <ele>1325.3146972656</ele>
        <time>2011-10-23T12:45:10Z</time>
      </trkpt>
      <trkpt lat="45.32139" lon="6.03951">
        <ele>1320.9887695312</ele>
        <time>2011-10-23T12:45:14Z</time>
      </trkpt>
      <trkpt lat="45.32116" lon="6.03944">
        <ele>1318.5854492188</ele>
        <time>2011-10-23T12:45:19Z</time>
      </trkpt>
      <trkpt lat="45.3211" lon="6.03945">
        <ele>1318.1047363281</ele>
        <time>2011-10-23T12:45:22Z</time>
      </trkpt>
      <trkpt lat="45.32106" lon="6.03944">
        <ele>1318.5854492188</ele>
        <time>2011-10-23T12:45:26Z</time>
      </trkpt>
      <trkpt lat="45.32101" lon="6.03944">
        <ele>1314.740234375</ele>
        <time>2011-10-23T12:45:33Z</time>
      </trkpt>
      <trkpt lat="45.32095" lon="6.03947">
        <ele>1309.93359375</ele>
        <time>2011-10-23T12:45:49Z</time>
      </trkpt>
      <trkpt lat="45.32095" lon="6.03948">
        <ele>1310.4143066406</ele>
        <time>2011-10-23T12:45:53Z</time>
      </trkpt>
      <trkpt lat="45.32095" lon="6.03944">
        <ele>1312.8176269531</ele>
        <time>2011-10-23T12:46:05Z</time>
      </trkpt>
      <trkpt lat="45.32092" lon="6.03946">
        <ele>1313.2983398438</ele>
        <time>2011-10-23T12:46:13Z</time>
      </trkpt>
      <trkpt lat="45.32088" lon="6.03947">
        <ele>1313.7788085938</ele>
        <time>2011-10-23T12:46:19Z</time>
      </trkpt>
      <trkpt lat="45.32092" lon="6.03945">
        <ele>1313.2983398438</ele>
        <time>2011-10-23T12:46:25Z</time>
      </trkpt>
      <trkpt lat="45.32098" lon="6.03944">
        <ele>1313.7788085938</ele>
        <time>2011-10-23T12:46:30Z</time>
      </trkpt>
      <trkpt lat="45.3211" lon="6.03935">
        <ele>1310.8950195312</ele>
        <time>2011-10-23T12:46:34Z</time>
      </trkpt>
      <trkpt lat="45.32134" lon="6.0392">
        <ele>1308.4916992188</ele>
        <time>2011-10-23T12:46:39Z</time>
      </trkpt>
      <trkpt lat="45.32137" lon="6.03917">
        <ele>1307.5302734375</ele>
        <time>2011-10-23T12:46:40Z</time>
      </trkpt>
      <trkpt lat="45.32157" lon="6.03905">
        <ele>1305.6076660156</ele>
        <time>2011-10-23T12:46:45Z</time>
      </trkpt>
      <trkpt lat="45.32164" lon="6.03899">
        <ele>1303.6850585938</ele>
        <time>2011-10-23T12:46:47Z</time>
      </trkpt>
      <trkpt lat="45.32177" lon="6.03874">
        <ele>1295.9946289062</ele>
        <time>2011-10-23T12:46:53Z</time>
      </trkpt>
      <trkpt lat="45.32183" lon="6.03851">
        <ele>1290.2265625</ele>
        <time>2011-10-23T12:46:58Z</time>
      </trkpt>
      <trkpt lat="45.32193" lon="6.03824">
        <ele>1284.939453125</ele>
        <time>2011-10-23T12:47:03Z</time>
      </trkpt>
      <trkpt lat="45.32196" lon="6.0382">
        <ele>1283.9780273438</ele>
        <time>2011-10-23T12:47:06Z</time>
      </trkpt>
      <trkpt lat="45.32203" lon="6.03811">
        <ele>1281.5747070312</ele>
        <time>2011-10-23T12:47:09Z</time>
      </trkpt>
      <trkpt lat="45.32215" lon="6.03794">
        <ele>1277.7294921875</ele>
        <time>2011-10-23T12:47:12Z</time>
      </trkpt>
      <trkpt lat="45.3223" lon="6.03776">
        <ele>1273.4035644531</ele>
        <time>2011-10-23T12:47:16Z</time>
      </trkpt>
      <trkpt lat="45.32248" lon="6.03772">
        <ele>1273.4035644531</ele>
        <time>2011-10-23T12:47:21Z</time>
      </trkpt>
      <trkpt lat="45.32252" lon="6.0377">
        <ele>1271.4807128906</ele>
        <time>2011-10-23T12:47:24Z</time>
      </trkpt>
      <trkpt lat="45.32261" lon="6.03765">
        <ele>1267.1550292969</ele>
        <time>2011-10-23T12:47:29Z</time>
      </trkpt>
      <trkpt lat="45.3227" lon="6.0376">
        <ele>1266.1936035156</ele>
        <time>2011-10-23T12:47:34Z</time>
      </trkpt>
      <trkpt lat="45.32272" lon="6.03756">
        <ele>1266.1936035156</ele>
        <time>2011-10-23T12:47:36Z</time>
      </trkpt>
      <trkpt lat="45.32283" lon="6.03746">
        <ele>1267.1550292969</ele>
        <time>2011-10-23T12:47:41Z</time>
      </trkpt>
      <trkpt lat="45.32287" lon="6.03742">
        <ele>1266.6743164062</ele>
        <time>2011-10-23T12:47:43Z</time>
      </trkpt>
      <trkpt lat="45.32294" lon="6.03738">
        <ele>1268.5969238281</ele>
        <time>2011-10-23T12:47:48Z</time>
      </trkpt>
      <trkpt lat="45.32295" lon="6.03735">
        <ele>1268.5969238281</ele>
        <time>2011-10-23T12:47:51Z</time>
      </trkpt>
      <trkpt lat="45.32306" lon="6.03719">
        <ele>1263.3098144531</ele>
        <time>2011-10-23T12:47:56Z</time>
      </trkpt>
      <trkpt lat="45.3232" lon="6.03707">
        <ele>1257.0610351562</ele>
        <time>2011-10-23T12:48:00Z</time>
      </trkpt>
      <trkpt lat="45.32328" lon="6.03692">
        <ele>1252.2543945312</ele>
        <time>2011-10-23T12:48:04Z</time>
      </trkpt>
      <trkpt lat="45.32332" lon="6.03682">
        <ele>1251.2932128906</ele>
        <time>2011-10-23T12:48:09Z</time>
      </trkpt>
      <trkpt lat="45.32333" lon="6.03681">
        <ele>1250.8125</ele>
        <time>2011-10-23T12:48:11Z</time>
      </trkpt>
      <trkpt lat="45.32338" lon="6.0368">
        <ele>1251.7739257812</ele>
        <time>2011-10-23T12:48:13Z</time>
      </trkpt>
      <trkpt lat="45.32341" lon="6.03662">
        <ele>1244.5639648438</ele>
        <time>2011-10-23T12:48:17Z</time>
      </trkpt>
      <trkpt lat="45.3235" lon="6.03629">
        <ele>1239.7573242188</ele>
        <time>2011-10-23T12:48:21Z</time>
      </trkpt>
      <trkpt lat="45.32354" lon="6.03586">
        <ele>1233.9895019531</ele>
        <time>2011-10-23T12:48:28Z</time>
      </trkpt>
      <trkpt lat="45.32354" lon="6.03579">
        <ele>1232.5476074219</ele>
        <time>2011-10-23T12:48:29Z</time>
      </trkpt>
      <trkpt lat="45.32355" lon="6.03557">
        <ele>1230.625</ele>
        <time>2011-10-23T12:48:32Z</time>
      </trkpt>
      <trkpt lat="45.32359" lon="6.03531">
        <ele>1225.3374023438</ele>
        <time>2011-10-23T12:48:37Z</time>
      </trkpt>
      <trkpt lat="45.32357" lon="6.03522">
        <ele>1224.8569335938</ele>
        <time>2011-10-23T12:48:39Z</time>
      </trkpt>
      <trkpt lat="45.32349" lon="6.03503">
        <ele>1222.4536132812</ele>
        <time>2011-10-23T12:48:42Z</time>
      </trkpt>
      <trkpt lat="45.32331" lon="6.03484">
        <ele>1217.1665039062</ele>
        <time>2011-10-23T12:48:46Z</time>
      </trkpt>
      <trkpt lat="45.32307" lon="6.03478">
        <ele>1211.3984375</ele>
        <time>2011-10-23T12:48:49Z</time>
      </trkpt>
      <trkpt lat="45.32293" lon="6.03471">
        <ele>1207.0725097656</ele>
        <time>2011-10-23T12:48:51Z</time>
      </trkpt>
      <trkpt lat="45.32275" lon="6.03462">
        <ele>1199.3820800781</ele>
        <time>2011-10-23T12:48:54Z</time>
      </trkpt>
      <trkpt lat="45.32271" lon="6.03469">
        <ele>1191.69140625</ele>
        <time>2011-10-23T12:48:58Z</time>
      </trkpt>
      <trkpt lat="45.32275" lon="6.03478">
        <ele>1189.7687988281</ele>
        <time>2011-10-23T12:49:01Z</time>
      </trkpt>
      <trkpt lat="45.32277" lon="6.03481">
        <ele>1190.7299804688</ele>
        <time>2011-10-23T12:49:08Z</time>
      </trkpt>
      <trkpt lat="45.32278" lon="6.03484">
        <ele>1191.69140625</ele>
        <time>2011-10-23T12:49:13Z</time>
      </trkpt>
      <trkpt lat="45.32278" lon="6.03486">
        <ele>1191.2106933594</ele>
        <time>2011-10-23T12:49:14Z</time>
      </trkpt>
      <trkpt lat="45.32269" lon="6.03506">
        <ele>1193.6140136719</ele>
        <time>2011-10-23T12:49:21Z</time>
      </trkpt>
      <trkpt lat="45.32254" lon="6.03509">
        <ele>1194.5751953125</ele>
        <time>2011-10-23T12:49:27Z</time>
      </trkpt>
      <trkpt lat="45.3224" lon="6.03514">
        <ele>1193.1333007812</ele>
        <time>2011-10-23T12:49:33Z</time>
      </trkpt>
      <trkpt lat="45.3223" lon="6.03526">
        <ele>1193.6140136719</ele>
        <time>2011-10-23T12:49:38Z</time>
      </trkpt>
      <trkpt lat="45.32222" lon="6.03545">
        <ele>1196.9787597656</ele>
        <time>2011-10-23T12:49:43Z</time>
      </trkpt>
      <trkpt lat="45.32211" lon="6.03556">
        <ele>1200.3435058594</ele>
        <time>2011-10-23T12:49:48Z</time>
      </trkpt>
      <trkpt lat="45.32195" lon="6.03562">
        <ele>1202.7465820312</ele>
        <time>2011-10-23T12:49:54Z</time>
      </trkpt>
      <trkpt lat="45.32182" lon="6.03569">
        <ele>1203.7080078125</ele>
        <time>2011-10-23T12:50:00Z</time>
      </trkpt>
      <trkpt lat="45.32162" lon="6.03586">
        <ele>1205.6306152344</ele>
        <time>2011-10-23T12:50:10Z</time>
      </trkpt>
      <trkpt lat="45.32147" lon="6.036">
        <ele>1207.0725097656</ele>
        <time>2011-10-23T12:50:18Z</time>
      </trkpt>
      <trkpt lat="45.32135" lon="6.03611">
        <ele>1207.5532226562</ele>
        <time>2011-10-23T12:50:25Z</time>
      </trkpt>
      <trkpt lat="45.32121" lon="6.0363">
        <ele>1208.5144042969</ele>
        <time>2011-10-23T12:50:34Z</time>
      </trkpt>
      <trkpt lat="45.32109" lon="6.03646">
        <ele>1208.9951171875</ele>
        <time>2011-10-23T12:50:41Z</time>
      </trkpt>
      <trkpt lat="45.32098" lon="6.03665">
        <ele>1210.9177246094</ele>
        <time>2011-10-23T12:50:49Z</time>
      </trkpt>
      <trkpt lat="45.32087" lon="6.03684">
        <ele>1212.3598632812</ele>
        <time>2011-10-23T12:50:57Z</time>
      </trkpt>
      <trkpt lat="45.32078" lon="6.03703">
        <ele>1212.8405761719</ele>
        <time>2011-10-23T12:51:05Z</time>
      </trkpt>
      <trkpt lat="45.3207" lon="6.03716">
        <ele>1214.7631835938</ele>
        <time>2011-10-23T12:51:11Z</time>
      </trkpt>
      <trkpt lat="45.32057" lon="6.03726">
        <ele>1216.6857910156</ele>
        <time>2011-10-23T12:51:18Z</time>
      </trkpt>
      <trkpt lat="45.32048" lon="6.03729">
        <ele>1216.205078125</ele>
        <time>2011-10-23T12:51:23Z</time>
      </trkpt>
      <trkpt lat="45.32037" lon="6.03739">
        <ele>1221.4921875</ele>
        <time>2011-10-23T12:51:29Z</time>
      </trkpt>
      <trkpt lat="45.32034" lon="6.03743">
        <ele>1222.4536132812</ele>
        <time>2011-10-23T12:51:31Z</time>
      </trkpt>
      <trkpt lat="45.32024" lon="6.03756">
        <ele>1225.3374023438</ele>
        <time>2011-10-23T12:51:37Z</time>
      </trkpt>
      <trkpt lat="45.32019" lon="6.03771">
        <ele>1229.6635742188</ele>
        <time>2011-10-23T12:51:42Z</time>
      </trkpt>
      <trkpt lat="45.32011" lon="6.03786">
        <ele>1229.6635742188</ele>
        <time>2011-10-23T12:51:48Z</time>
      </trkpt>
      <trkpt lat="45.32003" lon="6.03797">
        <ele>1230.1442871094</ele>
        <time>2011-10-23T12:51:53Z</time>
      </trkpt>
      <trkpt lat="45.31983" lon="6.03806">
        <ele>1238.3154296875</ele>
        <time>2011-10-23T12:52:01Z</time>
      </trkpt>
      <trkpt lat="45.31964" lon="6.03803">
        <ele>1241.19921875</ele>
        <time>2011-10-23T12:52:09Z</time>
      </trkpt>
      <trkpt lat="45.31945" lon="6.03797">
        <ele>1235.912109375</ele>
        <time>2011-10-23T12:52:17Z</time>
      </trkpt>
      <trkpt lat="45.31935" lon="6.03791">
        <ele>1227.2602539062</ele>
        <time>2011-10-23T12:52:22Z</time>
      </trkpt>
      <trkpt lat="45.31927" lon="6.03778">
        <ele>1225.8181152344</ele>
        <time>2011-10-23T12:52:28Z</time>
      </trkpt>
      <trkpt lat="45.31914" lon="6.03766">
        <ele>1224.8569335938</ele>
        <time>2011-10-23T12:52:35Z</time>
      </trkpt>
      <trkpt lat="45.31903" lon="6.03756">
        <ele>1224.3762207031</ele>
        <time>2011-10-23T12:52:40Z</time>
      </trkpt>
      <trkpt lat="45.31893" lon="6.0374">
        <ele>1222.4536132812</ele>
        <time>2011-10-23T12:52:46Z</time>
      </trkpt>
      <trkpt lat="45.3188" lon="6.03717">
        <ele>1221.9729003906</ele>
        <time>2011-10-23T12:52:53Z</time>
      </trkpt>
      <trkpt lat="45.31864" lon="6.0369">
        <ele>1223.8955078125</ele>
        <time>2011-10-23T12:53:01Z</time>
      </trkpt>
      <trkpt lat="45.31845" lon="6.03664">
        <ele>1224.3762207031</ele>
        <time>2011-10-23T12:53:10Z</time>
      </trkpt>
      <trkpt lat="45.31836" lon="6.03648">
        <ele>1224.8569335938</ele>
        <time>2011-10-23T12:53:16Z</time>
      </trkpt>
      <trkpt lat="45.31824" lon="6.03623">
        <ele>1226.7795410156</ele>
        <time>2011-10-23T12:53:24Z</time>
      </trkpt>
      <trkpt lat="45.31815" lon="6.03607">
        <ele>1228.2216796875</ele>
        <time>2011-10-23T12:53:29Z</time>
      </trkpt>
      <trkpt lat="45.31814" lon="6.03605">
        <ele>1228.2216796875</ele>
        <time>2011-10-23T12:53:30Z</time>
      </trkpt>
      <trkpt lat="45.3181" lon="6.03597">
        <ele>1228.2216796875</ele>
        <time>2011-10-23T12:53:35Z</time>
      </trkpt>
      <trkpt lat="45.31812" lon="6.03597">
        <ele>1227.2602539062</ele>
        <time>2011-10-23T12:53:44Z</time>
      </trkpt>
      <trkpt lat="45.3181" lon="6.03596">
        <ele>1226.7795410156</ele>
        <time>2011-10-23T12:53:48Z</time>
      </trkpt>
      <trkpt lat="45.31805" lon="6.03589">
        <ele>1225.8181152344</ele>
        <time>2011-10-23T12:53:53Z</time>
      </trkpt>
      <trkpt lat="45.31797" lon="6.03572">
        <ele>1226.7795410156</ele>
        <time>2011-10-23T12:53:59Z</time>
      </trkpt>
      <trkpt lat="45.31786" lon="6.03561">
        <ele>1222.9343261719</ele>
        <time>2011-10-23T12:54:04Z</time>
      </trkpt>
      <trkpt lat="45.31771" lon="6.0355">
        <ele>1218.1276855469</ele>
        <time>2011-10-23T12:54:09Z</time>
      </trkpt>
      <trkpt lat="45.31767" lon="6.03547">
        <ele>1216.205078125</ele>
        <time>2011-10-23T12:54:13Z</time>
      </trkpt>
      <trkpt lat="45.31763" lon="6.03547">
        <ele>1214.2824707031</ele>
        <time>2011-10-23T12:54:16Z</time>
      </trkpt>
      <trkpt lat="45.31758" lon="6.03548">
        <ele>1211.8791503906</ele>
        <time>2011-10-23T12:54:22Z</time>
      </trkpt>
      <trkpt lat="45.31753" lon="6.03547">
        <ele>1210.9177246094</ele>
        <time>2011-10-23T12:54:27Z</time>
      </trkpt>
      <trkpt lat="45.31749" lon="6.03543">
        <ele>1208.5144042969</ele>
        <time>2011-10-23T12:54:33Z</time>
      </trkpt>
      <trkpt lat="45.31746" lon="6.03541">
        <ele>1206.1110839844</ele>
        <time>2011-10-23T12:54:35Z</time>
      </trkpt>
      <trkpt lat="45.31742" lon="6.03534">
        <ele>1204.1887207031</ele>
        <time>2011-10-23T12:54:38Z</time>
      </trkpt>
      <trkpt lat="45.31744" lon="6.03521">
        <ele>1203.7080078125</ele>
        <time>2011-10-23T12:54:44Z</time>
      </trkpt>
      <trkpt lat="45.31745" lon="6.03501">
        <ele>1201.3046875</ele>
        <time>2011-10-23T12:54:50Z</time>
      </trkpt>
      <trkpt lat="45.31748" lon="6.03477">
        <ele>1199.3820800781</ele>
        <time>2011-10-23T12:54:55Z</time>
      </trkpt>
      <trkpt lat="45.31745" lon="6.03461">
        <ele>1197.4594726562</ele>
        <time>2011-10-23T12:54:58Z</time>
      </trkpt>
      <trkpt lat="45.31736" lon="6.03442">
        <ele>1197.9401855469</ele>
        <time>2011-10-23T12:55:03Z</time>
      </trkpt>
      <trkpt lat="45.31729" lon="6.0343">
        <ele>1190.7299804688</ele>
        <time>2011-10-23T12:55:09Z</time>
      </trkpt>
      <trkpt lat="45.31716" lon="6.0341">
        <ele>1185.4428710938</ele>
        <time>2011-10-23T12:55:15Z</time>
      </trkpt>
      <trkpt lat="45.3171" lon="6.03399">
        <ele>1183.5202636719</ele>
        <time>2011-10-23T12:55:19Z</time>
      </trkpt>
      <trkpt lat="45.31699" lon="6.03393">
        <ele>1181.1171875</ele>
        <time>2011-10-23T12:55:25Z</time>
      </trkpt>
      <trkpt lat="45.31682" lon="6.03378">
        <ele>1178.2329101562</ele>
        <time>2011-10-23T12:55:30Z</time>
      </trkpt>
      <trkpt lat="45.31678" lon="6.03372">
        <ele>1179.1940917969</ele>
        <time>2011-10-23T12:55:34Z</time>
      </trkpt>
      <trkpt lat="45.3167" lon="6.03362">
        <ele>1176.3103027344</ele>
        <time>2011-10-23T12:55:39Z</time>
      </trkpt>
      <trkpt lat="45.31657" lon="6.03351">
        <ele>1172.9458007812</ele>
        <time>2011-10-23T12:55:44Z</time>
      </trkpt>
      <trkpt lat="45.31642" lon="6.03341">
        <ele>1171.0231933594</ele>
        <time>2011-10-23T12:55:48Z</time>
      </trkpt>
      <trkpt lat="45.31622" lon="6.03328">
        <ele>1171.0231933594</ele>
        <time>2011-10-23T12:55:52Z</time>
      </trkpt>
      <trkpt lat="45.3161" lon="6.03319">
        <ele>1170.5424804688</ele>
        <time>2011-10-23T12:55:56Z</time>
      </trkpt>
      <trkpt lat="45.31601" lon="6.03308">
        <ele>1165.2553710938</ele>
        <time>2011-10-23T12:56:02Z</time>
      </trkpt>
      <trkpt lat="45.31596" lon="6.03301">
        <ele>1164.2939453125</ele>
        <time>2011-10-23T12:56:05Z</time>
      </trkpt>
      <trkpt lat="45.31593" lon="6.03291">
        <ele>1165.2553710938</ele>
        <time>2011-10-23T12:56:08Z</time>
      </trkpt>
      <trkpt lat="45.31591" lon="6.03285">
        <ele>1166.2165527344</ele>
        <time>2011-10-23T12:56:11Z</time>
      </trkpt>
      <trkpt lat="45.31593" lon="6.03279">
        <ele>1166.2165527344</ele>
        <time>2011-10-23T12:56:14Z</time>
      </trkpt>
      <trkpt lat="45.31589" lon="6.03277">
        <ele>1166.2165527344</ele>
        <time>2011-10-23T12:56:20Z</time>
      </trkpt>
      <trkpt lat="45.31587" lon="6.03281">
        <ele>1165.7360839844</ele>
        <time>2011-10-23T12:56:25Z</time>
      </trkpt>
      <trkpt lat="45.31582" lon="6.03281">
        <ele>1166.2165527344</ele>
        <time>2011-10-23T12:56:30Z</time>
      </trkpt>
      <trkpt lat="45.31577" lon="6.0328">
        <ele>1168.1391601562</ele>
        <time>2011-10-23T12:56:36Z</time>
      </trkpt>
      <trkpt lat="45.31572" lon="6.03282">
        <ele>1169.1005859375</ele>
        <time>2011-10-23T12:56:42Z</time>
      </trkpt>
      <trkpt lat="45.31564" lon="6.03278">
        <ele>1176.791015625</ele>
        <time>2011-10-23T12:56:51Z</time>
      </trkpt>
      <trkpt lat="45.31561" lon="6.03279">
        <ele>1177.2717285156</ele>
        <time>2011-10-23T12:56:58Z</time>
      </trkpt>
      <trkpt lat="45.31556" lon="6.03283">
        <ele>1180.6364746094</ele>
        <time>2011-10-23T12:57:04Z</time>
      </trkpt>
      <trkpt lat="45.31549" lon="6.03282">
        <ele>1179.1940917969</ele>
        <time>2011-10-23T12:57:08Z</time>
      </trkpt>
      <trkpt lat="45.31546" lon="6.03282">
        <ele>1181.59765625</ele>
        <time>2011-10-23T12:57:12Z</time>
      </trkpt>
      <trkpt lat="45.31539" lon="6.03282">
        <ele>1179.1940917969</ele>
        <time>2011-10-23T12:57:18Z</time>
      </trkpt>
      <trkpt lat="45.31534" lon="6.03282">
        <ele>1175.8295898438</ele>
        <time>2011-10-23T12:57:22Z</time>
      </trkpt>
      <trkpt lat="45.31528" lon="6.03281">
        <ele>1171.5036621094</ele>
        <time>2011-10-23T12:57:25Z</time>
      </trkpt>
      <trkpt lat="45.31522" lon="6.03281">
        <ele>1166.697265625</ele>
        <time>2011-10-23T12:57:30Z</time>
      </trkpt>
      <trkpt lat="45.31521" lon="6.03277">
        <ele>1166.697265625</ele>
        <time>2011-10-23T12:57:35Z</time>
      </trkpt>
      <trkpt lat="45.31519" lon="6.03273">
        <ele>1166.2165527344</ele>
        <time>2011-10-23T12:57:42Z</time>
      </trkpt>
      <trkpt lat="45.31517" lon="6.03273">
        <ele>1166.697265625</ele>
        <time>2011-10-23T12:57:47Z</time>
      </trkpt>
      <trkpt lat="45.31511" lon="6.03271">
        <ele>1165.2553710938</ele>
        <time>2011-10-23T12:57:53Z</time>
      </trkpt>
      <trkpt lat="45.31509" lon="6.03271">
        <ele>1165.2553710938</ele>
        <time>2011-10-23T12:57:55Z</time>
      </trkpt>
      <trkpt lat="45.31498" lon="6.03274">
        <ele>1167.1779785156</ele>
        <time>2011-10-23T12:58:00Z</time>
      </trkpt>
      <trkpt lat="45.31487" lon="6.03276">
        <ele>1169.1005859375</ele>
        <time>2011-10-23T12:58:05Z</time>
      </trkpt>
      <trkpt lat="45.31474" lon="6.03264">
        <ele>1169.5812988281</ele>
        <time>2011-10-23T12:58:09Z</time>
      </trkpt>
      <trkpt lat="45.31458" lon="6.03241">
        <ele>1168.6198730469</ele>
        <time>2011-10-23T12:58:15Z</time>
      </trkpt>
      <trkpt lat="45.31438" lon="6.03222">
        <ele>1167.1779785156</ele>
        <time>2011-10-23T12:58:21Z</time>
      </trkpt>
      <trkpt lat="45.31427" lon="6.03213">
        <ele>1169.5812988281</ele>
        <time>2011-10-23T12:58:24Z</time>
      </trkpt>
      <trkpt lat="45.31414" lon="6.03202">
        <ele>1170.5424804688</ele>
        <time>2011-10-23T12:58:27Z</time>
      </trkpt>
      <trkpt lat="45.31397" lon="6.0319">
        <ele>1170.0617675781</ele>
        <time>2011-10-23T12:58:31Z</time>
      </trkpt>
      <trkpt lat="45.31391" lon="6.0318">
        <ele>1173.4265136719</ele>
        <time>2011-10-23T12:58:33Z</time>
      </trkpt>
      <trkpt lat="45.31372" lon="6.03167">
        <ele>1168.1391601562</ele>
        <time>2011-10-23T12:58:38Z</time>
      </trkpt>
      <trkpt lat="45.31356" lon="6.03155">
        <ele>1163.8129882812</ele>
        <time>2011-10-23T12:58:43Z</time>
      </trkpt>
      <trkpt lat="45.3134" lon="6.03135">
        <ele>1162.37109375</ele>
        <time>2011-10-23T12:58:48Z</time>
      </trkpt>
      <trkpt lat="45.31332" lon="6.03117">
        <ele>1160.4484863281</ele>
        <time>2011-10-23T12:58:51Z</time>
      </trkpt>
      <trkpt lat="45.31324" lon="6.03102">
        <ele>1158.5258789062</ele>
        <time>2011-10-23T12:58:54Z</time>
      </trkpt>
      <trkpt lat="45.31313" lon="6.03083">
        <ele>1157.5646972656</ele>
        <time>2011-10-23T12:58:58Z</time>
      </trkpt>
      <trkpt lat="45.31304" lon="6.03067">
        <ele>1157.083984375</ele>
        <time>2011-10-23T12:59:01Z</time>
      </trkpt>
      <trkpt lat="45.31298" lon="6.03055">
        <ele>1156.6032714844</ele>
        <time>2011-10-23T12:59:03Z</time>
      </trkpt>
      <trkpt lat="45.31293" lon="6.03031">
        <ele>1153.7194824219</ele>
        <time>2011-10-23T12:59:07Z</time>
      </trkpt>
      <trkpt lat="45.31296" lon="6.03018">
        <ele>1155.1613769531</ele>
        <time>2011-10-23T12:59:12Z</time>
      </trkpt>
      <trkpt lat="45.31291" lon="6.03013">
        <ele>1155.1613769531</ele>
        <time>2011-10-23T12:59:27Z</time>
      </trkpt>
      <trkpt lat="45.31291" lon="6.03015">
        <ele>1158.5258789062</ele>
        <time>2011-10-23T12:59:48Z</time>
      </trkpt>
      <trkpt lat="45.31292" lon="6.03012">
        <ele>1159.4873046875</ele>
        <time>2011-10-23T13:00:15Z</time>
      </trkpt>
      <trkpt lat="45.31288" lon="6.03005">
        <ele>1157.083984375</ele>
        <time>2011-10-23T13:00:19Z</time>
      </trkpt>
      <trkpt lat="45.31287" lon="6.02992">
        <ele>1155.1613769531</ele>
        <time>2011-10-23T13:00:24Z</time>
      </trkpt>
      <trkpt lat="45.31281" lon="6.02958">
        <ele>1151.3161621094</ele>
        <time>2011-10-23T13:00:32Z</time>
      </trkpt>
      <trkpt lat="45.31275" lon="6.02937">
        <ele>1149.3935546875</ele>
        <time>2011-10-23T13:00:37Z</time>
      </trkpt>
      <trkpt lat="45.31261" lon="6.02909">
        <ele>1147.9514160156</ele>
        <time>2011-10-23T13:00:43Z</time>
      </trkpt>
      <trkpt lat="45.31244" lon="6.02878">
        <ele>1146.0288085938</ele>
        <time>2011-10-23T13:00:50Z</time>
      </trkpt>
      <trkpt lat="45.31224" lon="6.02846">
        <ele>1143.1447753906</ele>
        <time>2011-10-23T13:00:56Z</time>
      </trkpt>
      <trkpt lat="45.31214" lon="6.0283">
        <ele>1141.2221679688</ele>
        <time>2011-10-23T13:00:59Z</time>
      </trkpt>
      <trkpt lat="45.31181" lon="6.02786">
        <ele>1136.4157714844</ele>
        <time>2011-10-23T13:01:06Z</time>
      </trkpt>
      <trkpt lat="45.31146" lon="6.02744">
        <ele>1132.5705566406</ele>
        <time>2011-10-23T13:01:12Z</time>
      </trkpt>
      <trkpt lat="45.31115" lon="6.02709">
        <ele>1128.7250976562</ele>
        <time>2011-10-23T13:01:17Z</time>
      </trkpt>
      <trkpt lat="45.31083" lon="6.02677">
        <ele>1123.4379882812</ele>
        <time>2011-10-23T13:01:22Z</time>
      </trkpt>
      <trkpt lat="45.31043" lon="6.02642">
        <ele>1117.669921875</ele>
        <time>2011-10-23T13:01:28Z</time>
      </trkpt>
      <trkpt lat="45.31036" lon="6.02636">
        <ele>1117.189453125</ele>
        <time>2011-10-23T13:01:29Z</time>
      </trkpt>
      <trkpt lat="45.30993" lon="6.026">
        <ele>1112.86328125</ele>
        <time>2011-10-23T13:01:35Z</time>
      </trkpt>
      <trkpt lat="45.30967" lon="6.02566">
        <ele>1110.9406738281</ele>
        <time>2011-10-23T13:01:39Z</time>
      </trkpt>
      <trkpt lat="45.30936" lon="6.02525">
        <ele>1107.0954589844</ele>
        <time>2011-10-23T13:01:44Z</time>
      </trkpt>
      <trkpt lat="45.30931" lon="6.02518">
        <ele>1106.6147460938</ele>
        <time>2011-10-23T13:01:45Z</time>
      </trkpt>
      <trkpt lat="45.30907" lon="6.02503">
        <ele>1105.6535644531</ele>
        <time>2011-10-23T13:01:49Z</time>
      </trkpt>
      <trkpt lat="45.30891" lon="6.02496">
        <ele>1105.6535644531</ele>
        <time>2011-10-23T13:01:52Z</time>
      </trkpt>
      <trkpt lat="45.30851" lon="6.02487">
        <ele>1107.576171875</ele>
        <time>2011-10-23T13:02:01Z</time>
      </trkpt>
      <trkpt lat="45.3084" lon="6.02485">
        <ele>1108.5373535156</ele>
        <time>2011-10-23T13:02:04Z</time>
      </trkpt>
      <trkpt lat="45.3082" lon="6.02472">
        <ele>1108.5373535156</ele>
        <time>2011-10-23T13:02:10Z</time>
      </trkpt>
      <trkpt lat="45.308" lon="6.02454">
        <ele>1108.0568847656</ele>
        <time>2011-10-23T13:02:15Z</time>
      </trkpt>
      <trkpt lat="45.30773" lon="6.02426">
        <ele>1106.1340332031</ele>
        <time>2011-10-23T13:02:21Z</time>
      </trkpt>
      <trkpt lat="45.30745" lon="6.02401">
        <ele>1103.2502441406</ele>
        <time>2011-10-23T13:02:26Z</time>
      </trkpt>
      <trkpt lat="45.30711" lon="6.0238">
        <ele>1101.8083496094</ele>
        <time>2011-10-23T13:02:31Z</time>
      </trkpt>
      <trkpt lat="45.30704" lon="6.02377">
        <ele>1100.8469238281</ele>
        <time>2011-10-23T13:02:32Z</time>
      </trkpt>
      <trkpt lat="45.30678" lon="6.02374">
        <ele>1097.4821777344</ele>
        <time>2011-10-23T13:02:35Z</time>
      </trkpt>
      <trkpt lat="45.30661" lon="6.02375">
        <ele>1095.5595703125</ele>
        <time>2011-10-23T13:02:37Z</time>
      </trkpt>
      <trkpt lat="45.30632" lon="6.02372">
        <ele>1094.5981445312</ele>
        <time>2011-10-23T13:02:41Z</time>
      </trkpt>
      <trkpt lat="45.30618" lon="6.02365">
        <ele>1093.6369628906</ele>
        <time>2011-10-23T13:02:43Z</time>
      </trkpt>
      <trkpt lat="45.30593" lon="6.02356">
        <ele>1094.1176757812</ele>
        <time>2011-10-23T13:02:48Z</time>
      </trkpt>
      <trkpt lat="45.30589" lon="6.02354">
        <ele>1094.1176757812</ele>
        <time>2011-10-23T13:02:49Z</time>
      </trkpt>
      <trkpt lat="45.30573" lon="6.02348">
        <ele>1098.9240722656</ele>
        <time>2011-10-23T13:02:55Z</time>
      </trkpt>
      <trkpt lat="45.30563" lon="6.02349">
        <ele>1102.2888183594</ele>
        <time>2011-10-23T13:03:01Z</time>
      </trkpt>
      <trkpt lat="45.30554" lon="6.0235">
        <ele>1101.8083496094</ele>
        <time>2011-10-23T13:03:06Z</time>
      </trkpt>
      <trkpt lat="45.30546" lon="6.02353">
        <ele>1099.8854980469</ele>
        <time>2011-10-23T13:03:11Z</time>
      </trkpt>
      <trkpt lat="45.30538" lon="6.02359">
        <ele>1104.2116699219</ele>
        <time>2011-10-23T13:03:16Z</time>
      </trkpt>
      <trkpt lat="45.30532" lon="6.02359">
        <ele>1107.0954589844</ele>
        <time>2011-10-23T13:03:21Z</time>
      </trkpt>
      <trkpt lat="45.30523" lon="6.0236">
        <ele>1109.0180664062</ele>
        <time>2011-10-23T13:03:27Z</time>
      </trkpt>
      <trkpt lat="45.30522" lon="6.02361">
        <ele>1110.9406738281</ele>
        <time>2011-10-23T13:03:28Z</time>
      </trkpt>
      <trkpt lat="45.3051" lon="6.02363">
        <ele>1119.1120605469</ele>
        <time>2011-10-23T13:03:35Z</time>
      </trkpt>
      <trkpt lat="45.30492" lon="6.02365">
        <ele>1119.5927734375</ele>
        <time>2011-10-23T13:03:42Z</time>
      </trkpt>
      <trkpt lat="45.3048" lon="6.02364">
        <ele>1116.7087402344</ele>
        <time>2011-10-23T13:03:46Z</time>
      </trkpt>
      <trkpt lat="45.30467" lon="6.02372">
        <ele>1111.9020996094</ele>
        <time>2011-10-23T13:03:52Z</time>
      </trkpt>
      <trkpt lat="45.30455" lon="6.02375">
        <ele>1111.9020996094</ele>
        <time>2011-10-23T13:03:57Z</time>
      </trkpt>
      <trkpt lat="45.30445" lon="6.02382">
        <ele>1110.9406738281</ele>
        <time>2011-10-23T13:04:03Z</time>
      </trkpt>
      <trkpt lat="45.30434" lon="6.0239">
        <ele>1118.1506347656</ele>
        <time>2011-10-23T13:04:09Z</time>
      </trkpt>
      <trkpt lat="45.3042" lon="6.02394">
        <ele>1125.3603515625</ele>
        <time>2011-10-23T13:04:16Z</time>
      </trkpt>
      <trkpt lat="45.30409" lon="6.0239">
        <ele>1129.2055664062</ele>
        <time>2011-10-23T13:04:23Z</time>
      </trkpt>
      <trkpt lat="45.30401" lon="6.02383">
        <ele>1122.4765625</ele>
        <time>2011-10-23T13:04:29Z</time>
      </trkpt>
      <trkpt lat="45.30392" lon="6.02359">
        <ele>1118.1506347656</ele>
        <time>2011-10-23T13:04:33Z</time>
      </trkpt>
      <trkpt lat="45.30375" lon="6.02314">
        <ele>1112.3825683594</ele>
        <time>2011-10-23T13:04:39Z</time>
      </trkpt>
      <trkpt lat="45.30352" lon="6.02286">
        <ele>1108.0568847656</ele>
        <time>2011-10-23T13:04:43Z</time>
      </trkpt>
      <trkpt lat="45.30296" lon="6.02236">
        <ele>1102.76953125</ele>
        <time>2011-10-23T13:04:50Z</time>
      </trkpt>
      <trkpt lat="45.30251" lon="6.022">
        <ele>1094.5981445312</ele>
        <time>2011-10-23T13:04:55Z</time>
      </trkpt>
      <trkpt lat="45.30235" lon="6.02181">
        <ele>1090.7529296875</ele>
        <time>2011-10-23T13:04:57Z</time>
      </trkpt>
      <trkpt lat="45.30187" lon="6.02145">
        <ele>1081.1398925781</ele>
        <time>2011-10-23T13:05:02Z</time>
      </trkpt>
      <trkpt lat="45.30167" lon="6.02128">
        <ele>1077.2946777344</ele>
        <time>2011-10-23T13:05:04Z</time>
      </trkpt>
      <trkpt lat="45.30133" lon="6.02083">
        <ele>1071.0461425781</ele>
        <time>2011-10-23T13:05:08Z</time>
      </trkpt>
      <trkpt lat="45.30116" lon="6.02049">
        <ele>1066.7199707031</ele>
        <time>2011-10-23T13:05:11Z</time>
      </trkpt>
      <trkpt lat="45.30104" lon="6.02029">
        <ele>1064.3166503906</ele>
        <time>2011-10-23T13:05:13Z</time>
      </trkpt>
      <trkpt lat="45.30073" lon="6.02021">
        <ele>1061.4328613281</ele>
        <time>2011-10-23T13:05:17Z</time>
      </trkpt>
      <trkpt lat="45.30064" lon="6.02023">
        <ele>1061.4328613281</ele>
        <time>2011-10-23T13:05:18Z</time>
      </trkpt>
      <trkpt lat="45.30034" lon="6.02005">
        <ele>1052.3002929688</ele>
        <time>2011-10-23T13:05:22Z</time>
      </trkpt>
      <trkpt lat="45.30028" lon="6.01992">
        <ele>1051.3388671875</ele>
        <time>2011-10-23T13:05:23Z</time>
      </trkpt>
      <trkpt lat="45.29989" lon="6.01936">
        <ele>1048.935546875</ele>
        <time>2011-10-23T13:05:28Z</time>
      </trkpt>
      <trkpt lat="45.29971" lon="6.01919">
        <ele>1045.5710449219</ele>
        <time>2011-10-23T13:05:30Z</time>
      </trkpt>
      <trkpt lat="45.29956" lon="6.01898">
        <ele>1043.1677246094</ele>
        <time>2011-10-23T13:05:32Z</time>
      </trkpt>
      <trkpt lat="45.29916" lon="6.01869">
        <ele>1038.361328125</ele>
        <time>2011-10-23T13:05:36Z</time>
      </trkpt>
      <trkpt lat="45.29879" lon="6.0185">
        <ele>1034.03515625</ele>
        <time>2011-10-23T13:05:40Z</time>
      </trkpt>
      <trkpt lat="45.29871" lon="6.01846">
        <ele>1034.9965820312</ele>
        <time>2011-10-23T13:05:41Z</time>
      </trkpt>
      <trkpt lat="45.29834" lon="6.01824">
        <ele>1035.4770507812</ele>
        <time>2011-10-23T13:05:46Z</time>
      </trkpt>
      <trkpt lat="45.29811" lon="6.01789">
        <ele>1029.228515625</ele>
        <time>2011-10-23T13:05:50Z</time>
      </trkpt>
      <trkpt lat="45.29787" lon="6.0174">
        <ele>1023.4609375</ele>
        <time>2011-10-23T13:05:54Z</time>
      </trkpt>
      <trkpt lat="45.29766" lon="6.01705">
        <ele>1019.6154785156</ele>
        <time>2011-10-23T13:05:57Z</time>
      </trkpt>
      <trkpt lat="45.29734" lon="6.01695">
        <ele>1013.3669433594</ele>
        <time>2011-10-23T13:06:01Z</time>
      </trkpt>
      <trkpt lat="45.2972" lon="6.01681">
        <ele>1010.9636230469</ele>
        <time>2011-10-23T13:06:05Z</time>
      </trkpt>
      <trkpt lat="45.2973" lon="6.0167">
        <ele>1011.9250488281</ele>
        <time>2011-10-23T13:06:08Z</time>
      </trkpt>
      <trkpt lat="45.29742" lon="6.01671">
        <ele>1011.4443359375</ele>
        <time>2011-10-23T13:06:10Z</time>
      </trkpt>
      <trkpt lat="45.29761" lon="6.01678">
        <ele>1011.4443359375</ele>
        <time>2011-10-23T13:06:13Z</time>
      </trkpt>
      <trkpt lat="45.29808" lon="6.01704">
        <ele>1006.6376953125</ele>
        <time>2011-10-23T13:06:20Z</time>
      </trkpt>
      <trkpt lat="45.29833" lon="6.01711">
        <ele>1008.0798339844</ele>
        <time>2011-10-23T13:06:24Z</time>
      </trkpt>
      <trkpt lat="45.29843" lon="6.01708">
        <ele>1010.0021972656</ele>
        <time>2011-10-23T13:06:27Z</time>
      </trkpt>
      <trkpt lat="45.2985" lon="6.01704">
        <ele>1007.5991210938</ele>
        <time>2011-10-23T13:06:30Z</time>
      </trkpt>
      <trkpt lat="45.29855" lon="6.01695">
        <ele>1004.2346191406</ele>
        <time>2011-10-23T13:06:33Z</time>
      </trkpt>
      <trkpt lat="45.29866" lon="6.0166">
        <ele>995.10180664062</ele>
        <time>2011-10-23T13:06:39Z</time>
      </trkpt>
      <trkpt lat="45.29873" lon="6.01652">
        <ele>991.25659179688</ele>
        <time>2011-10-23T13:06:41Z</time>
      </trkpt>
      <trkpt lat="45.29886" lon="6.01638">
        <ele>985.96923828125</ele>
        <time>2011-10-23T13:06:44Z</time>
      </trkpt>
      <trkpt lat="45.29892" lon="6.01629">
        <ele>981.64331054688</ele>
        <time>2011-10-23T13:06:46Z</time>
      </trkpt>
      <trkpt lat="45.29899" lon="6.01604">
        <ele>972.99169921875</ele>
        <time>2011-10-23T13:06:50Z</time>
      </trkpt>
      <trkpt lat="45.29905" lon="6.01581">
        <ele>971.54931640625</ele>
        <time>2011-10-23T13:06:53Z</time>
      </trkpt>
      <trkpt lat="45.29911" lon="6.01569">
        <ele>971.54931640625</ele>
        <time>2011-10-23T13:06:55Z</time>
      </trkpt>
      <trkpt lat="45.29924" lon="6.01552">
        <ele>967.7041015625</ele>
        <time>2011-10-23T13:06:59Z</time>
      </trkpt>
      <trkpt lat="45.29937" lon="6.01524">
        <ele>954.24584960938</ele>
        <time>2011-10-23T13:07:04Z</time>
      </trkpt>
      <trkpt lat="45.29937" lon="6.01506">
        <ele>946.07470703125</ele>
        <time>2011-10-23T13:07:08Z</time>
      </trkpt>
      <trkpt lat="45.29932" lon="6.0149">
        <ele>938.38403320312</ele>
        <time>2011-10-23T13:07:12Z</time>
      </trkpt>
      <trkpt lat="45.2993" lon="6.01485">
        <ele>935.5</ele>
        <time>2011-10-23T13:07:13Z</time>
      </trkpt>
      <trkpt lat="45.29938" lon="6.01468">
        <ele>937.42260742188</ele>
        <time>2011-10-23T13:07:18Z</time>
      </trkpt>
      <trkpt lat="45.29935" lon="6.01464">
        <ele>938.86474609375</ele>
        <time>2011-10-23T13:07:19Z</time>
      </trkpt>
      <trkpt lat="45.29935" lon="6.01462">
        <ele>940.78735351562</ele>
        <time>2011-10-23T13:07:21Z</time>
      </trkpt>
      <trkpt lat="45.29933" lon="6.01454">
        <ele>945.59399414062</ele>
        <time>2011-10-23T13:07:36Z</time>
      </trkpt>
      <trkpt lat="45.29934" lon="6.01454">
        <ele>945.59399414062</ele>
        <time>2011-10-23T13:07:37Z</time>
      </trkpt>
      <trkpt lat="45.29928" lon="6.01446">
        <ele>941.26806640625</ele>
        <time>2011-10-23T13:07:42Z</time>
      </trkpt>
      <trkpt lat="45.29917" lon="6.01432">
        <ele>937.9033203125</ele>
        <time>2011-10-23T13:07:47Z</time>
      </trkpt>
      <trkpt lat="45.29915" lon="6.01429">
        <ele>936.94189453125</ele>
        <time>2011-10-23T13:07:48Z</time>
      </trkpt>
      <trkpt lat="45.29906" lon="6.01402">
        <ele>935.5</ele>
        <time>2011-10-23T13:07:53Z</time>
      </trkpt>
      <trkpt lat="45.29909" lon="6.01394">
        <ele>935.98071289062</ele>
        <time>2011-10-23T13:07:55Z</time>
      </trkpt>
      <trkpt lat="45.29915" lon="6.01387">
        <ele>933.0966796875</ele>
        <time>2011-10-23T13:07:59Z</time>
      </trkpt>
      <trkpt lat="45.29921" lon="6.01377">
        <ele>929.25146484375</ele>
        <time>2011-10-23T13:08:02Z</time>
      </trkpt>
      <trkpt lat="45.29931" lon="6.01353">
        <ele>920.599609375</ele>
        <time>2011-10-23T13:08:08Z</time>
      </trkpt>
      <trkpt lat="45.29938" lon="6.01329">
        <ele>917.71557617188</ele>
        <time>2011-10-23T13:08:13Z</time>
      </trkpt>
      <trkpt lat="45.29942" lon="6.01301">
        <ele>911.94799804688</ele>
        <time>2011-10-23T13:08:18Z</time>
      </trkpt>
      <trkpt lat="45.29943" lon="6.01298">
        <ele>909.54467773438</ele>
        <time>2011-10-23T13:08:21Z</time>
      </trkpt>
      <trkpt lat="45.29944" lon="6.01297">
        <ele>909.54467773438</ele>
        <time>2011-10-23T13:08:24Z</time>
      </trkpt>
      <trkpt lat="45.29948" lon="6.01291">
        <ele>907.62182617188</ele>
        <time>2011-10-23T13:08:29Z</time>
      </trkpt>
      <trkpt lat="45.29947" lon="6.01288">
        <ele>904.25732421875</ele>
        <time>2011-10-23T13:08:32Z</time>
      </trkpt>
      <trkpt lat="45.29953" lon="6.01266">
        <ele>905.21850585938</ele>
        <time>2011-10-23T13:08:37Z</time>
      </trkpt>
      <trkpt lat="45.29955" lon="6.01233">
        <ele>904.25732421875</ele>
        <time>2011-10-23T13:08:41Z</time>
      </trkpt>
      <trkpt lat="45.29956" lon="6.01216">
        <ele>904.25732421875</ele>
        <time>2011-10-23T13:08:44Z</time>
      </trkpt>
      <trkpt lat="45.29957" lon="6.01211">
        <ele>903.77661132812</ele>
        <time>2011-10-23T13:08:45Z</time>
      </trkpt>
      <trkpt lat="45.29963" lon="6.01192">
        <ele>901.37329101562</ele>
        <time>2011-10-23T13:08:49Z</time>
      </trkpt>
      <trkpt lat="45.29969" lon="6.01157">
        <ele>899.93139648438</ele>
        <time>2011-10-23T13:08:55Z</time>
      </trkpt>
      <trkpt lat="45.29967" lon="6.01139">
        <ele>899.45068359375</ele>
        <time>2011-10-23T13:08:58Z</time>
      </trkpt>
      <trkpt lat="45.29963" lon="6.01131">
        <ele>897.52807617188</ele>
        <time>2011-10-23T13:09:00Z</time>
      </trkpt>
      <trkpt lat="45.29959" lon="6.01119">
        <ele>896.56689453125</ele>
        <time>2011-10-23T13:09:02Z</time>
      </trkpt>
      <trkpt lat="45.29944" lon="6.01097">
        <ele>893.68286132812</ele>
        <time>2011-10-23T13:09:06Z</time>
      </trkpt>
      <trkpt lat="45.29924" lon="6.01068">
        <ele>887.91479492188</ele>
        <time>2011-10-23T13:09:11Z</time>
      </trkpt>
      <trkpt lat="45.2992" lon="6.01025">
        <ele>882.14697265625</ele>
        <time>2011-10-23T13:09:17Z</time>
      </trkpt>
      <trkpt lat="45.29915" lon="6.01016">
        <ele>878.78247070312</ele>
        <time>2011-10-23T13:09:20Z</time>
      </trkpt>
      <trkpt lat="45.29909" lon="6.01009">
        <ele>876.85986328125</ele>
        <time>2011-10-23T13:09:22Z</time>
      </trkpt>
      <trkpt lat="45.29894" lon="6.00987">
        <ele>873.9755859375</ele>
        <time>2011-10-23T13:09:26Z</time>
      </trkpt>
      <trkpt lat="45.29886" lon="6.00978">
        <ele>873.01440429688</ele>
        <time>2011-10-23T13:09:29Z</time>
      </trkpt>
      <trkpt lat="45.29883" lon="6.00975">
        <ele>872.53369140625</ele>
        <time>2011-10-23T13:09:47Z</time>
      </trkpt>
      <trkpt lat="45.29883" lon="6.00974">
        <ele>872.53369140625</ele>
        <time>2011-10-23T13:09:50Z</time>
      </trkpt>
      <trkpt lat="45.29874" lon="6.00959">
        <ele>872.05297851562</ele>
        <time>2011-10-23T13:09:55Z</time>
      </trkpt>
      <trkpt lat="45.29862" lon="6.00934">
        <ele>870.13037109375</ele>
        <time>2011-10-23T13:09:59Z</time>
      </trkpt>
      <trkpt lat="45.29859" lon="6.00925">
        <ele>869.64990234375</ele>
        <time>2011-10-23T13:10:00Z</time>
      </trkpt>
      <trkpt lat="45.29843" lon="6.00892">
        <ele>867.72705078125</ele>
        <time>2011-10-23T13:10:04Z</time>
      </trkpt>
      <trkpt lat="45.2985" lon="6.00877">
        <ele>864.84326171875</ele>
        <time>2011-10-23T13:10:08Z</time>
      </trkpt>
      <trkpt lat="45.29861" lon="6.00881">
        <ele>860.03662109375</ele>
        <time>2011-10-23T13:10:11Z</time>
      </trkpt>
      <trkpt lat="45.29861" lon="6.00871">
        <ele>857.63330078125</ele>
        <time>2011-10-23T13:10:14Z</time>
      </trkpt>
      <trkpt lat="45.29845" lon="6.00857">
        <ele>854.74926757812</ele>
        <time>2011-10-23T13:10:19Z</time>
      </trkpt>
      <trkpt lat="45.29822" lon="6.00844">
        <ele>852.34594726562</ele>
        <time>2011-10-23T13:10:24Z</time>
      </trkpt>
      <trkpt lat="45.2981" lon="6.00819">
        <ele>848.50073242188</ele>
        <time>2011-10-23T13:10:28Z</time>
      </trkpt>
      <trkpt lat="45.29808" lon="6.00807">
        <ele>845.61694335938</ele>
        <time>2011-10-23T13:10:30Z</time>
      </trkpt>
      <trkpt lat="45.29811" lon="6.00768">
        <ele>841.771484375</ele>
        <time>2011-10-23T13:10:35Z</time>
      </trkpt>
      <trkpt lat="45.29814" lon="6.00744">
        <ele>836.00366210938</ele>
        <time>2011-10-23T13:10:39Z</time>
      </trkpt>
      <trkpt lat="45.29817" lon="6.00737">
        <ele>835.52294921875</ele>
        <time>2011-10-23T13:10:41Z</time>
      </trkpt>
      <trkpt lat="45.29803" lon="6.00722">
        <ele>829.75512695312</ele>
        <time>2011-10-23T13:10:46Z</time>
      </trkpt>
      <trkpt lat="45.29802" lon="6.00716">
        <ele>828.31323242188</ele>
        <time>2011-10-23T13:10:48Z</time>
      </trkpt>
      <trkpt lat="45.29815" lon="6.00691">
        <ele>822.064453125</ele>
        <time>2011-10-23T13:10:54Z</time>
      </trkpt>
      <trkpt lat="45.29829" lon="6.00679">
        <ele>817.25805664062</ele>
        <time>2011-10-23T13:10:57Z</time>
      </trkpt>
      <trkpt lat="45.2983" lon="6.00673">
        <ele>814.85473632812</ele>
        <time>2011-10-23T13:10:59Z</time>
      </trkpt>
      <trkpt lat="45.29828" lon="6.00657">
        <ele>803.79956054688</ele>
        <time>2011-10-23T13:11:05Z</time>
      </trkpt>
      <trkpt lat="45.29832" lon="6.00644">
        <ele>800.91552734375</ele>
        <time>2011-10-23T13:11:08Z</time>
      </trkpt>
      <trkpt lat="45.29833" lon="6.0061">
        <ele>795.1474609375</ele>
        <time>2011-10-23T13:11:12Z</time>
      </trkpt>
      <trkpt lat="45.29836" lon="6.00586">
        <ele>789.37963867188</ele>
        <time>2011-10-23T13:11:15Z</time>
      </trkpt>
      <trkpt lat="45.29847" lon="6.00561">
        <ele>784.09252929688</ele>
        <time>2011-10-23T13:11:19Z</time>
      </trkpt>
      <trkpt lat="45.29851" lon="6.00546">
        <ele>780.24731445312</ele>
        <time>2011-10-23T13:11:21Z</time>
      </trkpt>
      <trkpt lat="45.29865" lon="6.00496">
        <ele>777.36328125</ele>
        <time>2011-10-23T13:11:26Z</time>
      </trkpt>
      <trkpt lat="45.29867" lon="6.0048">
        <ele>774.47924804688</ele>
        <time>2011-10-23T13:11:29Z</time>
      </trkpt>
      <trkpt lat="45.29866" lon="6.00478">
        <ele>772.556640625</ele>
        <time>2011-10-23T13:11:39Z</time>
      </trkpt>
      <trkpt lat="45.2987" lon="6.00478">
        <ele>776.88256835938</ele>
        <time>2011-10-23T13:11:58Z</time>
      </trkpt>
      <trkpt lat="45.29878" lon="6.00464">
        <ele>774.47924804688</ele>
        <time>2011-10-23T13:12:02Z</time>
      </trkpt>
      <trkpt lat="45.29881" lon="6.00459">
        <ele>773.03735351562</ele>
        <time>2011-10-23T13:12:03Z</time>
      </trkpt>
      <trkpt lat="45.29903" lon="6.00413">
        <ele>764.38549804688</ele>
        <time>2011-10-23T13:12:09Z</time>
      </trkpt>
      <trkpt lat="45.29906" lon="6.00407">
        <ele>762.943359375</ele>
        <time>2011-10-23T13:12:10Z</time>
      </trkpt>
      <trkpt lat="45.29904" lon="6.00394">
        <ele>759.09814453125</ele>
        <time>2011-10-23T13:12:14Z</time>
      </trkpt>
      <trkpt lat="45.29903" lon="6.00393">
        <ele>758.61743164062</ele>
        <time>2011-10-23T13:12:15Z</time>
      </trkpt>
      <trkpt lat="45.29899" lon="6.00389">
        <ele>756.21411132812</ele>
        <time>2011-10-23T13:12:27Z</time>
      </trkpt>
      <trkpt lat="45.29897" lon="6.00378">
        <ele>753.81103515625</ele>
        <time>2011-10-23T13:12:31Z</time>
      </trkpt>
      <trkpt lat="45.29893" lon="6.00346">
        <ele>748.04321289062</ele>
        <time>2011-10-23T13:12:37Z</time>
      </trkpt>
      <trkpt lat="45.2989" lon="6.00325">
        <ele>744.67822265625</ele>
        <time>2011-10-23T13:12:40Z</time>
      </trkpt>
      <trkpt lat="45.29891" lon="6.00303">
        <ele>741.31372070312</ele>
        <time>2011-10-23T13:12:43Z</time>
      </trkpt>
      <trkpt lat="45.29895" lon="6.00273">
        <ele>734.58471679688</ele>
        <time>2011-10-23T13:12:48Z</time>
      </trkpt>
      <trkpt lat="45.29898" lon="6.00259">
        <ele>732.662109375</ele>
        <time>2011-10-23T13:12:50Z</time>
      </trkpt>
      <trkpt lat="45.299" lon="6.00234">
        <ele>730.25854492188</ele>
        <time>2011-10-23T13:12:53Z</time>
      </trkpt>
      <trkpt lat="45.29896" lon="6.00198">
        <ele>725.9326171875</ele>
        <time>2011-10-23T13:12:57Z</time>
      </trkpt>
      <trkpt lat="45.29896" lon="6.00174">
        <ele>722.56811523438</ele>
        <time>2011-10-23T13:13:01Z</time>
      </trkpt>
      <trkpt lat="45.29888" lon="6.00179">
        <ele>712.95483398438</ele>
        <time>2011-10-23T13:13:05Z</time>
      </trkpt>
      <trkpt lat="45.29881" lon="6.00194">
        <ele>707.66772460938</ele>
        <time>2011-10-23T13:13:07Z</time>
      </trkpt>
      <trkpt lat="45.2988" lon="6.00198">
        <ele>705.26440429688</ele>
        <time>2011-10-23T13:13:09Z</time>
      </trkpt>
      <trkpt lat="45.29874" lon="6.00198">
        <ele>705.26440429688</ele>
        <time>2011-10-23T13:13:13Z</time>
      </trkpt>
      <trkpt lat="45.29871" lon="6.00196">
        <ele>705.7451171875</ele>
        <time>2011-10-23T13:13:22Z</time>
      </trkpt>
      <trkpt lat="45.29871" lon="6.00196">
        <ele>706.2255859375</ele>
        <time>2011-10-23T13:13:23Z</time>
      </trkpt>
      <trkpt lat="45.29876" lon="6.00191">
        <ele>710.07080078125</ele>
        <time>2011-10-23T13:13:31Z</time>
      </trkpt>
      <trkpt lat="45.29878" lon="6.0017">
        <ele>709.10961914062</ele>
        <time>2011-10-23T13:13:36Z</time>
      </trkpt>
      <trkpt lat="45.29884" lon="6.00141">
        <ele>709.10961914062</ele>
        <time>2011-10-23T13:13:40Z</time>
      </trkpt>
      <trkpt lat="45.29887" lon="6.00131">
        <ele>707.18701171875</ele>
        <time>2011-10-23T13:13:41Z</time>
      </trkpt>
      <trkpt lat="45.29907" lon="6.00092">
        <ele>703.341796875</ele>
        <time>2011-10-23T13:13:44Z</time>
      </trkpt>
      <trkpt lat="45.29935" lon="6.00046">
        <ele>697.57373046875</ele>
        <time>2011-10-23T13:13:48Z</time>
      </trkpt>
      <trkpt lat="45.29944" lon="6.00037">
        <ele>695.65112304688</ele>
        <time>2011-10-23T13:13:49Z</time>
      </trkpt>
      <trkpt lat="45.29985" lon="5.99992">
        <ele>687.47998046875</ele>
        <time>2011-10-23T13:13:54Z</time>
      </trkpt>
      <trkpt lat="45.2999" lon="5.99985">
        <ele>686.0380859375</ele>
        <time>2011-10-23T13:13:55Z</time>
      </trkpt>
      <trkpt lat="45.29999" lon="5.99964">
        <ele>682.19262695312</ele>
        <time>2011-10-23T13:13:58Z</time>
      </trkpt>
      <trkpt lat="45.30013" lon="5.9993">
        <ele>676.4248046875</ele>
        <time>2011-10-23T13:14:02Z</time>
      </trkpt>
      <trkpt lat="45.30021" lon="5.99908">
        <ele>672.09887695312</ele>
        <time>2011-10-23T13:14:05Z</time>
      </trkpt>
      <trkpt lat="45.30036" lon="5.99894">
        <ele>668.25366210938</ele>
        <time>2011-10-23T13:14:09Z</time>
      </trkpt>
      <trkpt lat="45.30041" lon="5.99892">
        <ele>666.8115234375</ele>
        <time>2011-10-23T13:14:12Z</time>
      </trkpt>
      <trkpt lat="45.30042" lon="5.99892">
        <ele>665.36962890625</ele>
        <time>2011-10-23T13:14:18Z</time>
      </trkpt>
      <trkpt lat="45.30053" lon="5.99892">
        <ele>664.408203125</ele>
        <time>2011-10-23T13:14:21Z</time>
      </trkpt>
      <trkpt lat="45.30057" lon="5.99875">
        <ele>663.44702148438</ele>
        <time>2011-10-23T13:14:25Z</time>
      </trkpt>
      <trkpt lat="45.30045" lon="5.99833">
        <ele>660.56298828125</ele>
        <time>2011-10-23T13:14:31Z</time>
      </trkpt>
      <trkpt lat="45.30041" lon="5.99796">
        <ele>657.19848632812</ele>
        <time>2011-10-23T13:14:36Z</time>
      </trkpt>
      <trkpt lat="45.30043" lon="5.99786">
        <ele>656.23706054688</ele>
        <time>2011-10-23T13:14:37Z</time>
      </trkpt>
      <trkpt lat="45.30047" lon="5.99767">
        <ele>654.79516601562</ele>
        <time>2011-10-23T13:14:39Z</time>
      </trkpt>
      <trkpt lat="45.30047" lon="5.99727">
        <ele>651.9111328125</ele>
        <time>2011-10-23T13:14:43Z</time>
      </trkpt>
      <trkpt lat="45.30045" lon="5.99706">
        <ele>649.5078125</ele>
        <time>2011-10-23T13:14:45Z</time>
      </trkpt>
      <trkpt lat="45.3005" lon="5.99649">
        <ele>644.701171875</ele>
        <time>2011-10-23T13:14:50Z</time>
      </trkpt>
      <trkpt lat="45.30057" lon="5.99628">
        <ele>642.29809570312</ele>
        <time>2011-10-23T13:14:53Z</time>
      </trkpt>
      <trkpt lat="45.30059" lon="5.99622">
        <ele>640.85595703125</ele>
        <time>2011-10-23T13:14:58Z</time>
      </trkpt>
      <trkpt lat="45.30063" lon="5.99614">
        <ele>639.4140625</ele>
        <time>2011-10-23T13:15:03Z</time>
      </trkpt>
      <trkpt lat="45.30063" lon="5.99614">
        <ele>639.4140625</ele>
        <time>2011-10-23T13:15:08Z</time>
      </trkpt>
      <trkpt lat="45.30064" lon="5.99616">
        <ele>639.4140625</ele>
        <time>2011-10-23T13:15:19Z</time>
      </trkpt>
      <trkpt lat="45.30063" lon="5.99615">
        <ele>638.93359375</ele>
        <time>2011-10-23T13:15:26Z</time>
      </trkpt>
      <trkpt lat="45.30065" lon="5.99609">
        <ele>638.45288085938</ele>
        <time>2011-10-23T13:15:30Z</time>
      </trkpt>
      <trkpt lat="45.30068" lon="5.99601">
        <ele>638.45288085938</ele>
        <time>2011-10-23T13:15:33Z</time>
      </trkpt>
      <trkpt lat="45.30062" lon="5.99591">
        <ele>639.4140625</ele>
        <time>2011-10-23T13:15:38Z</time>
      </trkpt>
    </trkseg>
  </trk>
</gpx>